<?xml version="1.0" encoding="UTF-8" standalone="no" ?>
<gpx xmlns="http://www.topografix.com/GPX/1/1" xmlns:xsi="http://www.w3.org/2001/XMLSchema-instance" xsi:schemaLocation="http://www.topografix.com/GPX/1/1 http://www.topografix.com/GPX/1/1/gpx.xsd" version="1.1" creator="VisuGPX - https://www.visugpx.com">
  <metadata>
    <name>Forest Trail 31 2015 (Supernova)</name>
    <desc><![CDATA[42KM
1005m d ]]></desc>
  </metadata>
  <trk>
    <name><![CDATA[Forest Trail 31 2015 (Supernova)]]></name>
    <desc><![CDATA[Annoncé 42 km & 1005d+.
Scratch : 50e/180 (environ 40 abandons).

Un trail nocturne bien gras.

Ravitos au 24e et 35e.]]></desc>
    <trkseg>
      <trkpt lat="43.66727" lon="1.19342">
        <ele>134.19999694824</ele>
        <time>2015-02-07T17:31:54.000Z</time>
      </trkpt>
      <trkpt lat="43.66731" lon="1.19334">
        <ele>134.19999694824</ele>
        <time>2015-02-07T17:31:57.000Z</time>
      </trkpt>
      <trkpt lat="43.66734" lon="1.19328">
        <ele>134.19999694824</ele>
        <time>2015-02-07T17:31:59.000Z</time>
      </trkpt>
      <trkpt lat="43.66741" lon="1.19315">
        <ele>134.19999694824</ele>
        <time>2015-02-07T17:32:03.000Z</time>
      </trkpt>
      <trkpt lat="43.66751" lon="1.193">
        <ele>134.19999694824</ele>
        <time>2015-02-07T17:32:08.000Z</time>
      </trkpt>
      <trkpt lat="43.66756" lon="1.19285">
        <ele>134.19999694824</ele>
        <time>2015-02-07T17:32:12.000Z</time>
      </trkpt>
      <trkpt lat="43.66759" lon="1.19261">
        <ele>134.19999694824</ele>
        <time>2015-02-07T17:32:18.000Z</time>
      </trkpt>
      <trkpt lat="43.66758" lon="1.19258">
        <ele>134.19999694824</ele>
        <time>2015-02-07T17:32:19.000Z</time>
      </trkpt>
      <trkpt lat="43.66751" lon="1.19247">
        <ele>134.19999694824</ele>
        <time>2015-02-07T17:32:22.000Z</time>
      </trkpt>
      <trkpt lat="43.66736" lon="1.19231">
        <ele>134.19999694824</ele>
        <time>2015-02-07T17:32:28.000Z</time>
      </trkpt>
      <trkpt lat="43.66726" lon="1.19217">
        <ele>134</ele>
        <time>2015-02-07T17:32:34.000Z</time>
      </trkpt>
      <trkpt lat="43.66733" lon="1.19206">
        <ele>134</ele>
        <time>2015-02-07T17:32:38.000Z</time>
      </trkpt>
      <trkpt lat="43.66745" lon="1.19191">
        <ele>133.80000305176</ele>
        <time>2015-02-07T17:32:44.000Z</time>
      </trkpt>
      <trkpt lat="43.66759" lon="1.19176">
        <ele>133.80000305176</ele>
        <time>2015-02-07T17:32:50.000Z</time>
      </trkpt>
      <trkpt lat="43.66772" lon="1.19162">
        <ele>133.80000305176</ele>
        <time>2015-02-07T17:32:56.000Z</time>
      </trkpt>
      <trkpt lat="43.66789" lon="1.19147">
        <ele>133.60000610352</ele>
        <time>2015-02-07T17:33:03.000Z</time>
      </trkpt>
      <trkpt lat="43.66804" lon="1.19133">
        <ele>133.60000610352</ele>
        <time>2015-02-07T17:33:09.000Z</time>
      </trkpt>
      <trkpt lat="43.6682" lon="1.19118">
        <ele>133.80000305176</ele>
        <time>2015-02-07T17:33:15.000Z</time>
      </trkpt>
      <trkpt lat="43.66823" lon="1.19116">
        <ele>133.60000610352</ele>
        <time>2015-02-07T17:33:16.000Z</time>
      </trkpt>
      <trkpt lat="43.66838" lon="1.19101">
        <ele>133.60000610352</ele>
        <time>2015-02-07T17:33:22.000Z</time>
      </trkpt>
      <trkpt lat="43.6684" lon="1.19098">
        <ele>133.60000610352</ele>
        <time>2015-02-07T17:33:23.000Z</time>
      </trkpt>
      <trkpt lat="43.6685" lon="1.19078">
        <ele>133.60000610352</ele>
        <time>2015-02-07T17:33:29.000Z</time>
      </trkpt>
      <trkpt lat="43.66858" lon="1.19061">
        <ele>133.60000610352</ele>
        <time>2015-02-07T17:33:34.000Z</time>
      </trkpt>
      <trkpt lat="43.66864" lon="1.19037">
        <ele>133.39999389648</ele>
        <time>2015-02-07T17:33:40.000Z</time>
      </trkpt>
      <trkpt lat="43.66861" lon="1.19023">
        <ele>133.39999389648</ele>
        <time>2015-02-07T17:33:44.000Z</time>
      </trkpt>
      <trkpt lat="43.6685" lon="1.19002">
        <ele>133.19999694824</ele>
        <time>2015-02-07T17:33:50.000Z</time>
      </trkpt>
      <trkpt lat="43.66837" lon="1.18984">
        <ele>133.19999694824</ele>
        <time>2015-02-07T17:33:56.000Z</time>
      </trkpt>
      <trkpt lat="43.66823" lon="1.18966">
        <ele>133</ele>
        <time>2015-02-07T17:34:02.000Z</time>
      </trkpt>
      <trkpt lat="43.6681" lon="1.18949">
        <ele>132.80000305176</ele>
        <time>2015-02-07T17:34:08.000Z</time>
      </trkpt>
      <trkpt lat="43.66796" lon="1.1893">
        <ele>132.80000305176</ele>
        <time>2015-02-07T17:34:15.000Z</time>
      </trkpt>
      <trkpt lat="43.66785" lon="1.18914">
        <ele>132.60000610352</ele>
        <time>2015-02-07T17:34:21.000Z</time>
      </trkpt>
      <trkpt lat="43.66771" lon="1.18894">
        <ele>132.39999389648</ele>
        <time>2015-02-07T17:34:28.000Z</time>
      </trkpt>
      <trkpt lat="43.66757" lon="1.18875">
        <ele>132</ele>
        <time>2015-02-07T17:34:35.000Z</time>
      </trkpt>
      <trkpt lat="43.66743" lon="1.18858">
        <ele>131.80000305176</ele>
        <time>2015-02-07T17:34:41.000Z</time>
      </trkpt>
      <trkpt lat="43.66731" lon="1.1884">
        <ele>131.39999389648</ele>
        <time>2015-02-07T17:34:47.000Z</time>
      </trkpt>
      <trkpt lat="43.66723" lon="1.18828">
        <ele>131.19999694824</ele>
        <time>2015-02-07T17:34:51.000Z</time>
      </trkpt>
      <trkpt lat="43.6671" lon="1.18814">
        <ele>131</ele>
        <time>2015-02-07T17:34:57.000Z</time>
      </trkpt>
      <trkpt lat="43.66697" lon="1.18804">
        <ele>130.80000305176</ele>
        <time>2015-02-07T17:35:02.000Z</time>
      </trkpt>
      <trkpt lat="43.66682" lon="1.18793">
        <ele>130.60000610352</ele>
        <time>2015-02-07T17:35:08.000Z</time>
      </trkpt>
      <trkpt lat="43.66667" lon="1.18781">
        <ele>130.60000610352</ele>
        <time>2015-02-07T17:35:14.000Z</time>
      </trkpt>
      <trkpt lat="43.6665" lon="1.18767">
        <ele>130.39999389648</ele>
        <time>2015-02-07T17:35:20.000Z</time>
      </trkpt>
      <trkpt lat="43.66647" lon="1.18766">
        <ele>130.39999389648</ele>
        <time>2015-02-07T17:35:21.000Z</time>
      </trkpt>
      <trkpt lat="43.66629" lon="1.18759">
        <ele>130.39999389648</ele>
        <time>2015-02-07T17:35:27.000Z</time>
      </trkpt>
      <trkpt lat="43.66617" lon="1.18752">
        <ele>130.19999694824</ele>
        <time>2015-02-07T17:35:32.000Z</time>
      </trkpt>
      <trkpt lat="43.666" lon="1.18739">
        <ele>130.19999694824</ele>
        <time>2015-02-07T17:35:39.000Z</time>
      </trkpt>
      <trkpt lat="43.66593" lon="1.1873">
        <ele>130.19999694824</ele>
        <time>2015-02-07T17:35:43.000Z</time>
      </trkpt>
      <trkpt lat="43.66593" lon="1.18727">
        <ele>130.19999694824</ele>
        <time>2015-02-07T17:35:44.000Z</time>
      </trkpt>
      <trkpt lat="43.66598" lon="1.18709">
        <ele>130</ele>
        <time>2015-02-07T17:35:49.000Z</time>
      </trkpt>
      <trkpt lat="43.66603" lon="1.18699">
        <ele>130</ele>
        <time>2015-02-07T17:35:52.000Z</time>
      </trkpt>
      <trkpt lat="43.66609" lon="1.18689">
        <ele>130</ele>
        <time>2015-02-07T17:35:55.000Z</time>
      </trkpt>
      <trkpt lat="43.66619" lon="1.18674">
        <ele>129.80000305176</ele>
        <time>2015-02-07T17:36:00.000Z</time>
      </trkpt>
      <trkpt lat="43.66631" lon="1.18652">
        <ele>129.60000610352</ele>
        <time>2015-02-07T17:36:07.000Z</time>
      </trkpt>
      <trkpt lat="43.66633" lon="1.18649">
        <ele>129.39999389648</ele>
        <time>2015-02-07T17:36:08.000Z</time>
      </trkpt>
      <trkpt lat="43.66645" lon="1.18638">
        <ele>129.39999389648</ele>
        <time>2015-02-07T17:36:13.000Z</time>
      </trkpt>
      <trkpt lat="43.66656" lon="1.18628">
        <ele>129.19999694824</ele>
        <time>2015-02-07T17:36:18.000Z</time>
      </trkpt>
      <trkpt lat="43.66663" lon="1.18623">
        <ele>129</ele>
        <time>2015-02-07T17:36:21.000Z</time>
      </trkpt>
      <trkpt lat="43.66665" lon="1.18621">
        <ele>129</ele>
        <time>2015-02-07T17:36:22.000Z</time>
      </trkpt>
      <trkpt lat="43.66674" lon="1.18609">
        <ele>129</ele>
        <time>2015-02-07T17:36:28.000Z</time>
      </trkpt>
      <trkpt lat="43.6668" lon="1.18599">
        <ele>128.80000305176</ele>
        <time>2015-02-07T17:36:33.000Z</time>
      </trkpt>
      <trkpt lat="43.66685" lon="1.18594">
        <ele>128.80000305176</ele>
        <time>2015-02-07T17:36:38.000Z</time>
      </trkpt>
      <trkpt lat="43.66686" lon="1.18593">
        <ele>128.60000610352</ele>
        <time>2015-02-07T17:36:39.000Z</time>
      </trkpt>
      <trkpt lat="43.66692" lon="1.18587">
        <ele>128.60000610352</ele>
        <time>2015-02-07T17:36:45.000Z</time>
      </trkpt>
      <trkpt lat="43.66698" lon="1.18573">
        <ele>128.39999389648</ele>
        <time>2015-02-07T17:36:50.000Z</time>
      </trkpt>
      <trkpt lat="43.66701" lon="1.18567">
        <ele>128.39999389648</ele>
        <time>2015-02-07T17:36:52.000Z</time>
      </trkpt>
      <trkpt lat="43.66705" lon="1.18548">
        <ele>128.19999694824</ele>
        <time>2015-02-07T17:36:56.000Z</time>
      </trkpt>
      <trkpt lat="43.66705" lon="1.18531">
        <ele>128.19999694824</ele>
        <time>2015-02-07T17:37:00.000Z</time>
      </trkpt>
      <trkpt lat="43.66704" lon="1.18515">
        <ele>128</ele>
        <time>2015-02-07T17:37:05.000Z</time>
      </trkpt>
      <trkpt lat="43.66703" lon="1.18512">
        <ele>127.80000305176</ele>
        <time>2015-02-07T17:37:06.000Z</time>
      </trkpt>
      <trkpt lat="43.667" lon="1.18503">
        <ele>127.80000305176</ele>
        <time>2015-02-07T17:37:09.000Z</time>
      </trkpt>
      <trkpt lat="43.66694" lon="1.18487">
        <ele>127.59999847412</ele>
        <time>2015-02-07T17:37:14.000Z</time>
      </trkpt>
      <trkpt lat="43.66693" lon="1.1848">
        <ele>127.59999847412</ele>
        <time>2015-02-07T17:37:16.000Z</time>
      </trkpt>
      <trkpt lat="43.66689" lon="1.18471">
        <ele>127.40000152588</ele>
        <time>2015-02-07T17:37:19.000Z</time>
      </trkpt>
      <trkpt lat="43.6668" lon="1.18454">
        <ele>127.40000152588</ele>
        <time>2015-02-07T17:37:24.000Z</time>
      </trkpt>
      <trkpt lat="43.66671" lon="1.18441">
        <ele>127.19999694824</ele>
        <time>2015-02-07T17:37:29.000Z</time>
      </trkpt>
      <trkpt lat="43.66658" lon="1.18425">
        <ele>127.19999694824</ele>
        <time>2015-02-07T17:37:36.000Z</time>
      </trkpt>
      <trkpt lat="43.66651" lon="1.18413">
        <ele>127.19999694824</ele>
        <time>2015-02-07T17:37:40.000Z</time>
      </trkpt>
      <trkpt lat="43.66647" lon="1.18395">
        <ele>127.19999694824</ele>
        <time>2015-02-07T17:37:45.000Z</time>
      </trkpt>
      <trkpt lat="43.66646" lon="1.18381">
        <ele>127.19999694824</ele>
        <time>2015-02-07T17:37:49.000Z</time>
      </trkpt>
      <trkpt lat="43.66644" lon="1.18361">
        <ele>127</ele>
        <time>2015-02-07T17:37:54.000Z</time>
      </trkpt>
      <trkpt lat="43.66636" lon="1.18348">
        <ele>126.80000305176</ele>
        <time>2015-02-07T17:37:59.000Z</time>
      </trkpt>
      <trkpt lat="43.66624" lon="1.18338">
        <ele>126.80000305176</ele>
        <time>2015-02-07T17:38:04.000Z</time>
      </trkpt>
      <trkpt lat="43.66614" lon="1.18329">
        <ele>126.80000305176</ele>
        <time>2015-02-07T17:38:09.000Z</time>
      </trkpt>
      <trkpt lat="43.66612" lon="1.18325">
        <ele>126.59999847412</ele>
        <time>2015-02-07T17:38:10.000Z</time>
      </trkpt>
      <trkpt lat="43.66611" lon="1.18316">
        <ele>126.59999847412</ele>
        <time>2015-02-07T17:38:12.000Z</time>
      </trkpt>
      <trkpt lat="43.66611" lon="1.183">
        <ele>126.59999847412</ele>
        <time>2015-02-07T17:38:16.000Z</time>
      </trkpt>
      <trkpt lat="43.66611" lon="1.18296">
        <ele>126.59999847412</ele>
        <time>2015-02-07T17:38:17.000Z</time>
      </trkpt>
      <trkpt lat="43.66613" lon="1.18267">
        <ele>126.59999847412</ele>
        <time>2015-02-07T17:38:24.000Z</time>
      </trkpt>
      <trkpt lat="43.66613" lon="1.18263">
        <ele>126.40000152588</ele>
        <time>2015-02-07T17:38:25.000Z</time>
      </trkpt>
      <trkpt lat="43.66615" lon="1.18241">
        <ele>126.40000152588</ele>
        <time>2015-02-07T17:38:31.000Z</time>
      </trkpt>
      <trkpt lat="43.66618" lon="1.18218">
        <ele>126.59999847412</ele>
        <time>2015-02-07T17:38:37.000Z</time>
      </trkpt>
      <trkpt lat="43.66617" lon="1.18199">
        <ele>126.59999847412</ele>
        <time>2015-02-07T17:38:42.000Z</time>
      </trkpt>
      <trkpt lat="43.66618" lon="1.18172">
        <ele>127</ele>
        <time>2015-02-07T17:38:49.000Z</time>
      </trkpt>
      <trkpt lat="43.66623" lon="1.1815">
        <ele>127.19999694824</ele>
        <time>2015-02-07T17:38:55.000Z</time>
      </trkpt>
      <trkpt lat="43.66633" lon="1.18127">
        <ele>127.59999847412</ele>
        <time>2015-02-07T17:39:02.000Z</time>
      </trkpt>
      <trkpt lat="43.66636" lon="1.18107">
        <ele>128</ele>
        <time>2015-02-07T17:39:07.000Z</time>
      </trkpt>
      <trkpt lat="43.66641" lon="1.18085">
        <ele>128.39999389648</ele>
        <time>2015-02-07T17:39:13.000Z</time>
      </trkpt>
      <trkpt lat="43.66647" lon="1.18065">
        <ele>128.80000305176</ele>
        <time>2015-02-07T17:39:19.000Z</time>
      </trkpt>
      <trkpt lat="43.66652" lon="1.18049">
        <ele>129</ele>
        <time>2015-02-07T17:39:24.000Z</time>
      </trkpt>
      <trkpt lat="43.66658" lon="1.18026">
        <ele>129.39999389648</ele>
        <time>2015-02-07T17:39:30.000Z</time>
      </trkpt>
      <trkpt lat="43.66666" lon="1.18001">
        <ele>129.80000305176</ele>
        <time>2015-02-07T17:39:37.000Z</time>
      </trkpt>
      <trkpt lat="43.66673" lon="1.1798">
        <ele>130</ele>
        <time>2015-02-07T17:39:43.000Z</time>
      </trkpt>
      <trkpt lat="43.6668" lon="1.17962">
        <ele>130.39999389648</ele>
        <time>2015-02-07T17:39:48.000Z</time>
      </trkpt>
      <trkpt lat="43.66685" lon="1.1796">
        <ele>130.39999389648</ele>
        <time>2015-02-07T17:39:50.000Z</time>
      </trkpt>
      <trkpt lat="43.66688" lon="1.17962">
        <ele>130.60000610352</ele>
        <time>2015-02-07T17:39:51.000Z</time>
      </trkpt>
      <trkpt lat="43.66703" lon="1.17978">
        <ele>130.60000610352</ele>
        <time>2015-02-07T17:39:57.000Z</time>
      </trkpt>
      <trkpt lat="43.66719" lon="1.17992">
        <ele>130.80000305176</ele>
        <time>2015-02-07T17:40:03.000Z</time>
      </trkpt>
      <trkpt lat="43.66721" lon="1.17994">
        <ele>130.80000305176</ele>
        <time>2015-02-07T17:40:04.000Z</time>
      </trkpt>
      <trkpt lat="43.66734" lon="1.18006">
        <ele>131</ele>
        <time>2015-02-07T17:40:09.000Z</time>
      </trkpt>
      <trkpt lat="43.6675" lon="1.18018">
        <ele>131.19999694824</ele>
        <time>2015-02-07T17:40:15.000Z</time>
      </trkpt>
      <trkpt lat="43.66766" lon="1.18032">
        <ele>131.19999694824</ele>
        <time>2015-02-07T17:40:21.000Z</time>
      </trkpt>
      <trkpt lat="43.66782" lon="1.18044">
        <ele>131.19999694824</ele>
        <time>2015-02-07T17:40:27.000Z</time>
      </trkpt>
      <trkpt lat="43.66798" lon="1.18058">
        <ele>131.19999694824</ele>
        <time>2015-02-07T17:40:33.000Z</time>
      </trkpt>
      <trkpt lat="43.66803" lon="1.18063">
        <ele>131.19999694824</ele>
        <time>2015-02-07T17:40:35.000Z</time>
      </trkpt>
      <trkpt lat="43.6682" lon="1.18074">
        <ele>131.19999694824</ele>
        <time>2015-02-07T17:40:41.000Z</time>
      </trkpt>
      <trkpt lat="43.66837" lon="1.18084">
        <ele>131</ele>
        <time>2015-02-07T17:40:47.000Z</time>
      </trkpt>
      <trkpt lat="43.66854" lon="1.18094">
        <ele>131</ele>
        <time>2015-02-07T17:40:53.000Z</time>
      </trkpt>
      <trkpt lat="43.6686" lon="1.18097">
        <ele>131</ele>
        <time>2015-02-07T17:40:55.000Z</time>
      </trkpt>
      <trkpt lat="43.66878" lon="1.18108">
        <ele>130.80000305176</ele>
        <time>2015-02-07T17:41:01.000Z</time>
      </trkpt>
      <trkpt lat="43.66881" lon="1.1811">
        <ele>130.80000305176</ele>
        <time>2015-02-07T17:41:02.000Z</time>
      </trkpt>
      <trkpt lat="43.66898" lon="1.1812">
        <ele>130.80000305176</ele>
        <time>2015-02-07T17:41:08.000Z</time>
      </trkpt>
      <trkpt lat="43.66906" lon="1.18125">
        <ele>130.80000305176</ele>
        <time>2015-02-07T17:41:11.000Z</time>
      </trkpt>
      <trkpt lat="43.66923" lon="1.18135">
        <ele>130.60000610352</ele>
        <time>2015-02-07T17:41:17.000Z</time>
      </trkpt>
      <trkpt lat="43.66926" lon="1.18137">
        <ele>130.60000610352</ele>
        <time>2015-02-07T17:41:18.000Z</time>
      </trkpt>
      <trkpt lat="43.66943" lon="1.18148">
        <ele>130.39999389648</ele>
        <time>2015-02-07T17:41:24.000Z</time>
      </trkpt>
      <trkpt lat="43.66959" lon="1.18161">
        <ele>130.19999694824</ele>
        <time>2015-02-07T17:41:30.000Z</time>
      </trkpt>
      <trkpt lat="43.66965" lon="1.18165">
        <ele>130.19999694824</ele>
        <time>2015-02-07T17:41:32.000Z</time>
      </trkpt>
      <trkpt lat="43.6698" lon="1.18178">
        <ele>130</ele>
        <time>2015-02-07T17:41:38.000Z</time>
      </trkpt>
      <trkpt lat="43.66983" lon="1.18181">
        <ele>130</ele>
        <time>2015-02-07T17:41:39.000Z</time>
      </trkpt>
      <trkpt lat="43.66999" lon="1.18194">
        <ele>130</ele>
        <time>2015-02-07T17:41:45.000Z</time>
      </trkpt>
      <trkpt lat="43.67004" lon="1.18198">
        <ele>130</ele>
        <time>2015-02-07T17:41:47.000Z</time>
      </trkpt>
      <trkpt lat="43.67019" lon="1.18212">
        <ele>129.80000305176</ele>
        <time>2015-02-07T17:41:53.000Z</time>
      </trkpt>
      <trkpt lat="43.67034" lon="1.18227">
        <ele>129.80000305176</ele>
        <time>2015-02-07T17:41:59.000Z</time>
      </trkpt>
      <trkpt lat="43.67052" lon="1.18242">
        <ele>129.60000610352</ele>
        <time>2015-02-07T17:42:06.000Z</time>
      </trkpt>
      <trkpt lat="43.6706" lon="1.18249">
        <ele>129.60000610352</ele>
        <time>2015-02-07T17:42:09.000Z</time>
      </trkpt>
      <trkpt lat="43.67077" lon="1.18262">
        <ele>129.60000610352</ele>
        <time>2015-02-07T17:42:15.000Z</time>
      </trkpt>
      <trkpt lat="43.67093" lon="1.18275">
        <ele>129.39999389648</ele>
        <time>2015-02-07T17:42:21.000Z</time>
      </trkpt>
      <trkpt lat="43.67096" lon="1.18278">
        <ele>129.39999389648</ele>
        <time>2015-02-07T17:42:22.000Z</time>
      </trkpt>
      <trkpt lat="43.6711" lon="1.18295">
        <ele>129.39999389648</ele>
        <time>2015-02-07T17:42:28.000Z</time>
      </trkpt>
      <trkpt lat="43.67115" lon="1.18301">
        <ele>129.39999389648</ele>
        <time>2015-02-07T17:42:30.000Z</time>
      </trkpt>
      <trkpt lat="43.67127" lon="1.18319">
        <ele>129.39999389648</ele>
        <time>2015-02-07T17:42:36.000Z</time>
      </trkpt>
      <trkpt lat="43.67139" lon="1.18338">
        <ele>129.39999389648</ele>
        <time>2015-02-07T17:42:42.000Z</time>
      </trkpt>
      <trkpt lat="43.67141" lon="1.18341">
        <ele>129.39999389648</ele>
        <time>2015-02-07T17:42:43.000Z</time>
      </trkpt>
      <trkpt lat="43.67152" lon="1.18361">
        <ele>129.19999694824</ele>
        <time>2015-02-07T17:42:49.000Z</time>
      </trkpt>
      <trkpt lat="43.67157" lon="1.18371">
        <ele>129.19999694824</ele>
        <time>2015-02-07T17:42:52.000Z</time>
      </trkpt>
      <trkpt lat="43.67169" lon="1.1839">
        <ele>129</ele>
        <time>2015-02-07T17:42:58.000Z</time>
      </trkpt>
      <trkpt lat="43.67181" lon="1.1841">
        <ele>129</ele>
        <time>2015-02-07T17:43:04.000Z</time>
      </trkpt>
      <trkpt lat="43.67193" lon="1.1843">
        <ele>128.80000305176</ele>
        <time>2015-02-07T17:43:10.000Z</time>
      </trkpt>
      <trkpt lat="43.67195" lon="1.18433">
        <ele>128.80000305176</ele>
        <time>2015-02-07T17:43:11.000Z</time>
      </trkpt>
      <trkpt lat="43.67207" lon="1.18455">
        <ele>128.80000305176</ele>
        <time>2015-02-07T17:43:18.000Z</time>
      </trkpt>
      <trkpt lat="43.67216" lon="1.18471">
        <ele>128.80000305176</ele>
        <time>2015-02-07T17:43:23.000Z</time>
      </trkpt>
      <trkpt lat="43.67219" lon="1.18473">
        <ele>128.80000305176</ele>
        <time>2015-02-07T17:43:24.000Z</time>
      </trkpt>
      <trkpt lat="43.67223" lon="1.18471">
        <ele>128.80000305176</ele>
        <time>2015-02-07T17:43:26.000Z</time>
      </trkpt>
      <trkpt lat="43.67228" lon="1.18465">
        <ele>128.80000305176</ele>
        <time>2015-02-07T17:43:28.000Z</time>
      </trkpt>
      <trkpt lat="43.67238" lon="1.18455">
        <ele>128.80000305176</ele>
        <time>2015-02-07T17:43:32.000Z</time>
      </trkpt>
      <trkpt lat="43.67252" lon="1.18439">
        <ele>129.19999694824</ele>
        <time>2015-02-07T17:43:38.000Z</time>
      </trkpt>
      <trkpt lat="43.67257" lon="1.18434">
        <ele>129.19999694824</ele>
        <time>2015-02-07T17:43:40.000Z</time>
      </trkpt>
      <trkpt lat="43.67272" lon="1.18418">
        <ele>129.60000610352</ele>
        <time>2015-02-07T17:43:46.000Z</time>
      </trkpt>
      <trkpt lat="43.67287" lon="1.18401">
        <ele>130</ele>
        <time>2015-02-07T17:43:52.000Z</time>
      </trkpt>
      <trkpt lat="43.67294" lon="1.18388">
        <ele>130.19999694824</ele>
        <time>2015-02-07T17:43:56.000Z</time>
      </trkpt>
      <trkpt lat="43.67301" lon="1.18371">
        <ele>130.80000305176</ele>
        <time>2015-02-07T17:44:01.000Z</time>
      </trkpt>
      <trkpt lat="43.67312" lon="1.18352">
        <ele>131.39999389648</ele>
        <time>2015-02-07T17:44:07.000Z</time>
      </trkpt>
      <trkpt lat="43.6732" lon="1.18336">
        <ele>131.80000305176</ele>
        <time>2015-02-07T17:44:12.000Z</time>
      </trkpt>
      <trkpt lat="43.67329" lon="1.18317">
        <ele>132.60000610352</ele>
        <time>2015-02-07T17:44:18.000Z</time>
      </trkpt>
      <trkpt lat="43.67334" lon="1.18301">
        <ele>133.39999389648</ele>
        <time>2015-02-07T17:44:23.000Z</time>
      </trkpt>
      <trkpt lat="43.67341" lon="1.18283">
        <ele>134.19999694824</ele>
        <time>2015-02-07T17:44:29.000Z</time>
      </trkpt>
      <trkpt lat="43.67344" lon="1.18266">
        <ele>134.60000610352</ele>
        <time>2015-02-07T17:44:34.000Z</time>
      </trkpt>
      <trkpt lat="43.67346" lon="1.18239">
        <ele>135.60000610352</ele>
        <time>2015-02-07T17:44:41.000Z</time>
      </trkpt>
      <trkpt lat="43.67349" lon="1.18212">
        <ele>136.39999389648</ele>
        <time>2015-02-07T17:44:48.000Z</time>
      </trkpt>
      <trkpt lat="43.67351" lon="1.18186">
        <ele>137.39999389648</ele>
        <time>2015-02-07T17:44:55.000Z</time>
      </trkpt>
      <trkpt lat="43.67351" lon="1.18182">
        <ele>137.60000610352</ele>
        <time>2015-02-07T17:44:56.000Z</time>
      </trkpt>
      <trkpt lat="43.67354" lon="1.1816">
        <ele>138.60000610352</ele>
        <time>2015-02-07T17:45:02.000Z</time>
      </trkpt>
      <trkpt lat="43.67359" lon="1.1814">
        <ele>139.39999389648</ele>
        <time>2015-02-07T17:45:08.000Z</time>
      </trkpt>
      <trkpt lat="43.67363" lon="1.18123">
        <ele>140.39999389648</ele>
        <time>2015-02-07T17:45:13.000Z</time>
      </trkpt>
      <trkpt lat="43.67368" lon="1.18102">
        <ele>141.19999694824</ele>
        <time>2015-02-07T17:45:19.000Z</time>
      </trkpt>
      <trkpt lat="43.6737" lon="1.18077">
        <ele>142.60000610352</ele>
        <time>2015-02-07T17:45:26.000Z</time>
      </trkpt>
      <trkpt lat="43.67371" lon="1.1806">
        <ele>143.39999389648</ele>
        <time>2015-02-07T17:45:31.000Z</time>
      </trkpt>
      <trkpt lat="43.67372" lon="1.18034">
        <ele>144.80000305176</ele>
        <time>2015-02-07T17:45:38.000Z</time>
      </trkpt>
      <trkpt lat="43.67374" lon="1.18011">
        <ele>146</ele>
        <time>2015-02-07T17:45:44.000Z</time>
      </trkpt>
      <trkpt lat="43.67376" lon="1.17985">
        <ele>147.19999694824</ele>
        <time>2015-02-07T17:45:51.000Z</time>
      </trkpt>
      <trkpt lat="43.67377" lon="1.17959">
        <ele>148.60000610352</ele>
        <time>2015-02-07T17:45:58.000Z</time>
      </trkpt>
      <trkpt lat="43.67378" lon="1.17937">
        <ele>149.60000610352</ele>
        <time>2015-02-07T17:46:04.000Z</time>
      </trkpt>
      <trkpt lat="43.67377" lon="1.17916">
        <ele>150.60000610352</ele>
        <time>2015-02-07T17:46:09.000Z</time>
      </trkpt>
      <trkpt lat="43.67377" lon="1.17896">
        <ele>151.39999389648</ele>
        <time>2015-02-07T17:46:14.000Z</time>
      </trkpt>
      <trkpt lat="43.67375" lon="1.17872">
        <ele>152.60000610352</ele>
        <time>2015-02-07T17:46:20.000Z</time>
      </trkpt>
      <trkpt lat="43.67374" lon="1.17853">
        <ele>153.60000610352</ele>
        <time>2015-02-07T17:46:25.000Z</time>
      </trkpt>
      <trkpt lat="43.67374" lon="1.17834">
        <ele>154.60000610352</ele>
        <time>2015-02-07T17:46:30.000Z</time>
      </trkpt>
      <trkpt lat="43.67374" lon="1.17812">
        <ele>155.80000305176</ele>
        <time>2015-02-07T17:46:36.000Z</time>
      </trkpt>
      <trkpt lat="43.67376" lon="1.17786">
        <ele>157</ele>
        <time>2015-02-07T17:46:43.000Z</time>
      </trkpt>
      <trkpt lat="43.67376" lon="1.17782">
        <ele>157.19999694824</ele>
        <time>2015-02-07T17:46:44.000Z</time>
      </trkpt>
      <trkpt lat="43.67379" lon="1.17763">
        <ele>158</ele>
        <time>2015-02-07T17:46:49.000Z</time>
      </trkpt>
      <trkpt lat="43.67381" lon="1.1774">
        <ele>158.80000305176</ele>
        <time>2015-02-07T17:46:55.000Z</time>
      </trkpt>
      <trkpt lat="43.67384" lon="1.17726">
        <ele>159.60000610352</ele>
        <time>2015-02-07T17:46:59.000Z</time>
      </trkpt>
      <trkpt lat="43.67387" lon="1.17706">
        <ele>160.39999389648</ele>
        <time>2015-02-07T17:47:04.000Z</time>
      </trkpt>
      <trkpt lat="43.6739" lon="1.17686">
        <ele>161.39999389648</ele>
        <time>2015-02-07T17:47:09.000Z</time>
      </trkpt>
      <trkpt lat="43.67393" lon="1.17657">
        <ele>162.60000610352</ele>
        <time>2015-02-07T17:47:16.000Z</time>
      </trkpt>
      <trkpt lat="43.67394" lon="1.17653">
        <ele>162.80000305176</ele>
        <time>2015-02-07T17:47:17.000Z</time>
      </trkpt>
      <trkpt lat="43.67397" lon="1.17627">
        <ele>164</ele>
        <time>2015-02-07T17:47:23.000Z</time>
      </trkpt>
      <trkpt lat="43.67401" lon="1.17602">
        <ele>164.80000305176</ele>
        <time>2015-02-07T17:47:29.000Z</time>
      </trkpt>
      <trkpt lat="43.67402" lon="1.17597">
        <ele>165</ele>
        <time>2015-02-07T17:47:30.000Z</time>
      </trkpt>
      <trkpt lat="43.67408" lon="1.17573">
        <ele>165.80000305176</ele>
        <time>2015-02-07T17:47:36.000Z</time>
      </trkpt>
      <trkpt lat="43.67415" lon="1.1755">
        <ele>166.60000610352</ele>
        <time>2015-02-07T17:47:42.000Z</time>
      </trkpt>
      <trkpt lat="43.67416" lon="1.17546">
        <ele>166.80000305176</ele>
        <time>2015-02-07T17:47:43.000Z</time>
      </trkpt>
      <trkpt lat="43.67423" lon="1.17524">
        <ele>167.39999389648</ele>
        <time>2015-02-07T17:47:49.000Z</time>
      </trkpt>
      <trkpt lat="43.6743" lon="1.17497">
        <ele>168.19999694824</ele>
        <time>2015-02-07T17:47:56.000Z</time>
      </trkpt>
      <trkpt lat="43.67432" lon="1.17493">
        <ele>168.39999389648</ele>
        <time>2015-02-07T17:47:57.000Z</time>
      </trkpt>
      <trkpt lat="43.67439" lon="1.1747">
        <ele>169.39999389648</ele>
        <time>2015-02-07T17:48:03.000Z</time>
      </trkpt>
      <trkpt lat="43.67447" lon="1.17444">
        <ele>170.39999389648</ele>
        <time>2015-02-07T17:48:10.000Z</time>
      </trkpt>
      <trkpt lat="43.67448" lon="1.1744">
        <ele>170.39999389648</ele>
        <time>2015-02-07T17:48:11.000Z</time>
      </trkpt>
      <trkpt lat="43.67457" lon="1.17416">
        <ele>171</ele>
        <time>2015-02-07T17:48:18.000Z</time>
      </trkpt>
      <trkpt lat="43.67464" lon="1.17399">
        <ele>171.60000610352</ele>
        <time>2015-02-07T17:48:23.000Z</time>
      </trkpt>
      <trkpt lat="43.67474" lon="1.17383">
        <ele>172.39999389648</ele>
        <time>2015-02-07T17:48:29.000Z</time>
      </trkpt>
      <trkpt lat="43.67486" lon="1.17381">
        <ele>173.19999694824</ele>
        <time>2015-02-07T17:48:34.000Z</time>
      </trkpt>
      <trkpt lat="43.67487" lon="1.17381">
        <ele>173.19999694824</ele>
        <time>2015-02-07T17:48:35.000Z</time>
      </trkpt>
      <trkpt lat="43.67494" lon="1.17386">
        <ele>173.60000610352</ele>
        <time>2015-02-07T17:48:38.000Z</time>
      </trkpt>
      <trkpt lat="43.67507" lon="1.17393">
        <ele>174.39999389648</ele>
        <time>2015-02-07T17:48:44.000Z</time>
      </trkpt>
      <trkpt lat="43.67519" lon="1.17401">
        <ele>174.80000305176</ele>
        <time>2015-02-07T17:48:49.000Z</time>
      </trkpt>
      <trkpt lat="43.67535" lon="1.17411">
        <ele>175.60000610352</ele>
        <time>2015-02-07T17:48:56.000Z</time>
      </trkpt>
      <trkpt lat="43.67553" lon="1.17422">
        <ele>176.39999389648</ele>
        <time>2015-02-07T17:49:03.000Z</time>
      </trkpt>
      <trkpt lat="43.67568" lon="1.17431">
        <ele>176.80000305176</ele>
        <time>2015-02-07T17:49:09.000Z</time>
      </trkpt>
      <trkpt lat="43.6758" lon="1.17438">
        <ele>177</ele>
        <time>2015-02-07T17:49:14.000Z</time>
      </trkpt>
      <trkpt lat="43.67589" lon="1.17446">
        <ele>177</ele>
        <time>2015-02-07T17:49:18.000Z</time>
      </trkpt>
      <trkpt lat="43.67596" lon="1.17451">
        <ele>177.19999694824</ele>
        <time>2015-02-07T17:49:22.000Z</time>
      </trkpt>
      <trkpt lat="43.67599" lon="1.17454">
        <ele>177.19999694824</ele>
        <time>2015-02-07T17:49:24.000Z</time>
      </trkpt>
      <trkpt lat="43.67601" lon="1.17455">
        <ele>177.19999694824</ele>
        <time>2015-02-07T17:49:25.000Z</time>
      </trkpt>
      <trkpt lat="43.67608" lon="1.17459">
        <ele>177</ele>
        <time>2015-02-07T17:49:29.000Z</time>
      </trkpt>
      <trkpt lat="43.67614" lon="1.17465">
        <ele>177</ele>
        <time>2015-02-07T17:49:33.000Z</time>
      </trkpt>
      <trkpt lat="43.67623" lon="1.17467">
        <ele>177</ele>
        <time>2015-02-07T17:49:37.000Z</time>
      </trkpt>
      <trkpt lat="43.67628" lon="1.17473">
        <ele>176.80000305176</ele>
        <time>2015-02-07T17:49:40.000Z</time>
      </trkpt>
      <trkpt lat="43.67639" lon="1.17472">
        <ele>176.80000305176</ele>
        <time>2015-02-07T17:49:44.000Z</time>
      </trkpt>
      <trkpt lat="43.67649" lon="1.17475">
        <ele>176.80000305176</ele>
        <time>2015-02-07T17:49:48.000Z</time>
      </trkpt>
      <trkpt lat="43.67655" lon="1.17475">
        <ele>176.80000305176</ele>
        <time>2015-02-07T17:49:52.000Z</time>
      </trkpt>
      <trkpt lat="43.67662" lon="1.17479">
        <ele>176.80000305176</ele>
        <time>2015-02-07T17:49:55.000Z</time>
      </trkpt>
      <trkpt lat="43.67668" lon="1.17486">
        <ele>176.80000305176</ele>
        <time>2015-02-07T17:49:59.000Z</time>
      </trkpt>
      <trkpt lat="43.67674" lon="1.17489">
        <ele>176.80000305176</ele>
        <time>2015-02-07T17:50:03.000Z</time>
      </trkpt>
      <trkpt lat="43.67677" lon="1.17491">
        <ele>176.80000305176</ele>
        <time>2015-02-07T17:50:05.000Z</time>
      </trkpt>
      <trkpt lat="43.67682" lon="1.17493">
        <ele>177</ele>
        <time>2015-02-07T17:50:08.000Z</time>
      </trkpt>
      <trkpt lat="43.67688" lon="1.17495">
        <ele>177</ele>
        <time>2015-02-07T17:50:12.000Z</time>
      </trkpt>
      <trkpt lat="43.6769" lon="1.17496">
        <ele>177.19999694824</ele>
        <time>2015-02-07T17:50:13.000Z</time>
      </trkpt>
      <trkpt lat="43.67695" lon="1.17499">
        <ele>177.39999389648</ele>
        <time>2015-02-07T17:50:17.000Z</time>
      </trkpt>
      <trkpt lat="43.67696" lon="1.17501">
        <ele>177.39999389648</ele>
        <time>2015-02-07T17:50:18.000Z</time>
      </trkpt>
      <trkpt lat="43.67701" lon="1.17506">
        <ele>177.60000610352</ele>
        <time>2015-02-07T17:50:21.000Z</time>
      </trkpt>
      <trkpt lat="43.67702" lon="1.17507">
        <ele>177.60000610352</ele>
        <time>2015-02-07T17:50:22.000Z</time>
      </trkpt>
      <trkpt lat="43.6771" lon="1.17508">
        <ele>178</ele>
        <time>2015-02-07T17:50:26.000Z</time>
      </trkpt>
      <trkpt lat="43.6772" lon="1.17511">
        <ele>178.60000610352</ele>
        <time>2015-02-07T17:50:32.000Z</time>
      </trkpt>
      <trkpt lat="43.67728" lon="1.17514">
        <ele>179.19999694824</ele>
        <time>2015-02-07T17:50:37.000Z</time>
      </trkpt>
      <trkpt lat="43.6773" lon="1.17515">
        <ele>179.19999694824</ele>
        <time>2015-02-07T17:50:38.000Z</time>
      </trkpt>
      <trkpt lat="43.67733" lon="1.17515">
        <ele>179.60000610352</ele>
        <time>2015-02-07T17:50:41.000Z</time>
      </trkpt>
      <trkpt lat="43.67736" lon="1.17517">
        <ele>180</ele>
        <time>2015-02-07T17:50:43.000Z</time>
      </trkpt>
      <trkpt lat="43.67737" lon="1.17517">
        <ele>180</ele>
        <time>2015-02-07T17:50:44.000Z</time>
      </trkpt>
      <trkpt lat="43.67742" lon="1.17513">
        <ele>180.39999389648</ele>
        <time>2015-02-07T17:50:48.000Z</time>
      </trkpt>
      <trkpt lat="43.67749" lon="1.17508">
        <ele>180.80000305176</ele>
        <time>2015-02-07T17:50:52.000Z</time>
      </trkpt>
      <trkpt lat="43.67758" lon="1.17501">
        <ele>181.39999389648</ele>
        <time>2015-02-07T17:50:57.000Z</time>
      </trkpt>
      <trkpt lat="43.67766" lon="1.175">
        <ele>181.80000305176</ele>
        <time>2015-02-07T17:51:00.000Z</time>
      </trkpt>
      <trkpt lat="43.6777" lon="1.175">
        <ele>182</ele>
        <time>2015-02-07T17:51:02.000Z</time>
      </trkpt>
      <trkpt lat="43.67775" lon="1.175">
        <ele>182.39999389648</ele>
        <time>2015-02-07T17:51:05.000Z</time>
      </trkpt>
      <trkpt lat="43.67781" lon="1.17501">
        <ele>182.80000305176</ele>
        <time>2015-02-07T17:51:08.000Z</time>
      </trkpt>
      <trkpt lat="43.67784" lon="1.17501">
        <ele>183.19999694824</ele>
        <time>2015-02-07T17:51:10.000Z</time>
      </trkpt>
      <trkpt lat="43.67791" lon="1.17499">
        <ele>184</ele>
        <time>2015-02-07T17:51:15.000Z</time>
      </trkpt>
      <trkpt lat="43.67795" lon="1.175">
        <ele>184.19999694824</ele>
        <time>2015-02-07T17:51:17.000Z</time>
      </trkpt>
      <trkpt lat="43.67801" lon="1.17502">
        <ele>184.80000305176</ele>
        <time>2015-02-07T17:51:20.000Z</time>
      </trkpt>
      <trkpt lat="43.67813" lon="1.17509">
        <ele>185.80000305176</ele>
        <time>2015-02-07T17:51:26.000Z</time>
      </trkpt>
      <trkpt lat="43.67822" lon="1.17512">
        <ele>186.80000305176</ele>
        <time>2015-02-07T17:51:31.000Z</time>
      </trkpt>
      <trkpt lat="43.67824" lon="1.17513">
        <ele>187.19999694824</ele>
        <time>2015-02-07T17:51:32.000Z</time>
      </trkpt>
      <trkpt lat="43.67829" lon="1.17516">
        <ele>187.60000610352</ele>
        <time>2015-02-07T17:51:35.000Z</time>
      </trkpt>
      <trkpt lat="43.67835" lon="1.17521">
        <ele>188.39999389648</ele>
        <time>2015-02-07T17:51:38.000Z</time>
      </trkpt>
      <trkpt lat="43.67847" lon="1.17531">
        <ele>189.60000610352</ele>
        <time>2015-02-07T17:51:44.000Z</time>
      </trkpt>
      <trkpt lat="43.67852" lon="1.17533">
        <ele>190</ele>
        <time>2015-02-07T17:51:46.000Z</time>
      </trkpt>
      <trkpt lat="43.67854" lon="1.1753">
        <ele>190.19999694824</ele>
        <time>2015-02-07T17:51:48.000Z</time>
      </trkpt>
      <trkpt lat="43.67861" lon="1.17519">
        <ele>191.19999694824</ele>
        <time>2015-02-07T17:51:53.000Z</time>
      </trkpt>
      <trkpt lat="43.67868" lon="1.1751">
        <ele>192.60000610352</ele>
        <time>2015-02-07T17:51:59.000Z</time>
      </trkpt>
      <trkpt lat="43.6787" lon="1.17507">
        <ele>193</ele>
        <time>2015-02-07T17:52:01.000Z</time>
      </trkpt>
      <trkpt lat="43.67874" lon="1.17502">
        <ele>193.60000610352</ele>
        <time>2015-02-07T17:52:04.000Z</time>
      </trkpt>
      <trkpt lat="43.67882" lon="1.17491">
        <ele>195</ele>
        <time>2015-02-07T17:52:10.000Z</time>
      </trkpt>
      <trkpt lat="43.67891" lon="1.1748">
        <ele>196.39999389648</ele>
        <time>2015-02-07T17:52:16.000Z</time>
      </trkpt>
      <trkpt lat="43.67903" lon="1.17473">
        <ele>198</ele>
        <time>2015-02-07T17:52:23.000Z</time>
      </trkpt>
      <trkpt lat="43.67912" lon="1.17465">
        <ele>199</ele>
        <time>2015-02-07T17:52:28.000Z</time>
      </trkpt>
      <trkpt lat="43.67917" lon="1.17459">
        <ele>200</ele>
        <time>2015-02-07T17:52:32.000Z</time>
      </trkpt>
      <trkpt lat="43.67919" lon="1.1746">
        <ele>200.19999694824</ele>
        <time>2015-02-07T17:52:33.000Z</time>
      </trkpt>
      <trkpt lat="43.67922" lon="1.17464">
        <ele>200.60000610352</ele>
        <time>2015-02-07T17:52:36.000Z</time>
      </trkpt>
      <trkpt lat="43.67926" lon="1.17464">
        <ele>201.19999694824</ele>
        <time>2015-02-07T17:52:39.000Z</time>
      </trkpt>
      <trkpt lat="43.67938" lon="1.17464">
        <ele>202</ele>
        <time>2015-02-07T17:52:44.000Z</time>
      </trkpt>
      <trkpt lat="43.67948" lon="1.1747">
        <ele>202.80000305176</ele>
        <time>2015-02-07T17:52:49.000Z</time>
      </trkpt>
      <trkpt lat="43.67952" lon="1.1747">
        <ele>203</ele>
        <time>2015-02-07T17:52:51.000Z</time>
      </trkpt>
      <trkpt lat="43.67956" lon="1.17472">
        <ele>203</ele>
        <time>2015-02-07T17:52:53.000Z</time>
      </trkpt>
      <trkpt lat="43.67957" lon="1.17472">
        <ele>203</ele>
        <time>2015-02-07T17:52:54.000Z</time>
      </trkpt>
      <trkpt lat="43.67962" lon="1.17472">
        <ele>202.80000305176</ele>
        <time>2015-02-07T17:52:57.000Z</time>
      </trkpt>
      <trkpt lat="43.67964" lon="1.17472">
        <ele>202.80000305176</ele>
        <time>2015-02-07T17:52:58.000Z</time>
      </trkpt>
      <trkpt lat="43.67969" lon="1.17474">
        <ele>202.80000305176</ele>
        <time>2015-02-07T17:53:02.000Z</time>
      </trkpt>
      <trkpt lat="43.67977" lon="1.17478">
        <ele>202.39999389648</ele>
        <time>2015-02-07T17:53:07.000Z</time>
      </trkpt>
      <trkpt lat="43.67984" lon="1.17484">
        <ele>202.19999694824</ele>
        <time>2015-02-07T17:53:10.000Z</time>
      </trkpt>
      <trkpt lat="43.67985" lon="1.17486">
        <ele>202.19999694824</ele>
        <time>2015-02-07T17:53:11.000Z</time>
      </trkpt>
      <trkpt lat="43.67991" lon="1.17499">
        <ele>202</ele>
        <time>2015-02-07T17:53:15.000Z</time>
      </trkpt>
      <trkpt lat="43.67992" lon="1.17502">
        <ele>201.80000305176</ele>
        <time>2015-02-07T17:53:17.000Z</time>
      </trkpt>
      <trkpt lat="43.67994" lon="1.17503">
        <ele>201.80000305176</ele>
        <time>2015-02-07T17:53:19.000Z</time>
      </trkpt>
      <trkpt lat="43.68001" lon="1.1751">
        <ele>201.60000610352</ele>
        <time>2015-02-07T17:53:27.000Z</time>
      </trkpt>
      <trkpt lat="43.68003" lon="1.17514">
        <ele>201.39999389648</ele>
        <time>2015-02-07T17:53:30.000Z</time>
      </trkpt>
      <trkpt lat="43.68006" lon="1.17518">
        <ele>201.39999389648</ele>
        <time>2015-02-07T17:53:32.000Z</time>
      </trkpt>
      <trkpt lat="43.68012" lon="1.17521">
        <ele>201.19999694824</ele>
        <time>2015-02-07T17:53:36.000Z</time>
      </trkpt>
      <trkpt lat="43.68019" lon="1.17522">
        <ele>201</ele>
        <time>2015-02-07T17:53:40.000Z</time>
      </trkpt>
      <trkpt lat="43.68025" lon="1.17524">
        <ele>201</ele>
        <time>2015-02-07T17:53:44.000Z</time>
      </trkpt>
      <trkpt lat="43.68027" lon="1.17524">
        <ele>201</ele>
        <time>2015-02-07T17:53:45.000Z</time>
      </trkpt>
      <trkpt lat="43.68035" lon="1.17524">
        <ele>200.80000305176</ele>
        <time>2015-02-07T17:53:49.000Z</time>
      </trkpt>
      <trkpt lat="43.6804" lon="1.17524">
        <ele>200.80000305176</ele>
        <time>2015-02-07T17:53:52.000Z</time>
      </trkpt>
      <trkpt lat="43.68047" lon="1.17525">
        <ele>200.60000610352</ele>
        <time>2015-02-07T17:53:56.000Z</time>
      </trkpt>
      <trkpt lat="43.68049" lon="1.17526">
        <ele>200.60000610352</ele>
        <time>2015-02-07T17:53:57.000Z</time>
      </trkpt>
      <trkpt lat="43.68059" lon="1.17535">
        <ele>200.39999389648</ele>
        <time>2015-02-07T17:54:02.000Z</time>
      </trkpt>
      <trkpt lat="43.68065" lon="1.17548">
        <ele>200.19999694824</ele>
        <time>2015-02-07T17:54:07.000Z</time>
      </trkpt>
      <trkpt lat="43.68066" lon="1.17557">
        <ele>200.19999694824</ele>
        <time>2015-02-07T17:54:11.000Z</time>
      </trkpt>
      <trkpt lat="43.68068" lon="1.17558">
        <ele>200.19999694824</ele>
        <time>2015-02-07T17:54:12.000Z</time>
      </trkpt>
      <trkpt lat="43.68069" lon="1.17563">
        <ele>200</ele>
        <time>2015-02-07T17:54:14.000Z</time>
      </trkpt>
      <trkpt lat="43.6807" lon="1.17569">
        <ele>200</ele>
        <time>2015-02-07T17:54:17.000Z</time>
      </trkpt>
      <trkpt lat="43.68071" lon="1.17571">
        <ele>199.80000305176</ele>
        <time>2015-02-07T17:54:18.000Z</time>
      </trkpt>
      <trkpt lat="43.68074" lon="1.17582">
        <ele>199.80000305176</ele>
        <time>2015-02-07T17:54:22.000Z</time>
      </trkpt>
      <trkpt lat="43.68072" lon="1.17587">
        <ele>199.80000305176</ele>
        <time>2015-02-07T17:54:24.000Z</time>
      </trkpt>
      <trkpt lat="43.68068" lon="1.17592">
        <ele>199.60000610352</ele>
        <time>2015-02-07T17:54:26.000Z</time>
      </trkpt>
      <trkpt lat="43.68063" lon="1.17603">
        <ele>199.39999389648</ele>
        <time>2015-02-07T17:54:30.000Z</time>
      </trkpt>
      <trkpt lat="43.68062" lon="1.17613">
        <ele>199.39999389648</ele>
        <time>2015-02-07T17:54:33.000Z</time>
      </trkpt>
      <trkpt lat="43.68062" lon="1.17616">
        <ele>199.39999389648</ele>
        <time>2015-02-07T17:54:34.000Z</time>
      </trkpt>
      <trkpt lat="43.68068" lon="1.17629">
        <ele>199.19999694824</ele>
        <time>2015-02-07T17:54:38.000Z</time>
      </trkpt>
      <trkpt lat="43.68068" lon="1.17629">
        <ele>199.19999694824</ele>
        <time>2015-02-07T17:54:39.000Z</time>
      </trkpt>
      <trkpt lat="43.68069" lon="1.17628">
        <ele>199</ele>
        <time>2015-02-07T17:54:41.000Z</time>
      </trkpt>
      <trkpt lat="43.68073" lon="1.1763">
        <ele>198.80000305176</ele>
        <time>2015-02-07T17:54:45.000Z</time>
      </trkpt>
      <trkpt lat="43.68072" lon="1.17632">
        <ele>198.60000610352</ele>
        <time>2015-02-07T17:54:50.000Z</time>
      </trkpt>
      <trkpt lat="43.68075" lon="1.17636">
        <ele>198.39999389648</ele>
        <time>2015-02-07T17:54:53.000Z</time>
      </trkpt>
      <trkpt lat="43.68079" lon="1.17644">
        <ele>198.19999694824</ele>
        <time>2015-02-07T17:54:57.000Z</time>
      </trkpt>
      <trkpt lat="43.6808" lon="1.17644">
        <ele>198.19999694824</ele>
        <time>2015-02-07T17:54:58.000Z</time>
      </trkpt>
      <trkpt lat="43.68082" lon="1.17646">
        <ele>198</ele>
        <time>2015-02-07T17:55:00.000Z</time>
      </trkpt>
      <trkpt lat="43.68083" lon="1.17647">
        <ele>198</ele>
        <time>2015-02-07T17:55:01.000Z</time>
      </trkpt>
      <trkpt lat="43.68088" lon="1.17651">
        <ele>197.60000610352</ele>
        <time>2015-02-07T17:55:05.000Z</time>
      </trkpt>
      <trkpt lat="43.68095" lon="1.17656">
        <ele>197.19999694824</ele>
        <time>2015-02-07T17:55:10.000Z</time>
      </trkpt>
      <trkpt lat="43.68101" lon="1.17655">
        <ele>197</ele>
        <time>2015-02-07T17:55:14.000Z</time>
      </trkpt>
      <trkpt lat="43.68109" lon="1.17654">
        <ele>196.60000610352</ele>
        <time>2015-02-07T17:55:19.000Z</time>
      </trkpt>
      <trkpt lat="43.68117" lon="1.17653">
        <ele>196.39999389648</ele>
        <time>2015-02-07T17:55:23.000Z</time>
      </trkpt>
      <trkpt lat="43.6812" lon="1.17658">
        <ele>196.19999694824</ele>
        <time>2015-02-07T17:55:25.000Z</time>
      </trkpt>
      <trkpt lat="43.68122" lon="1.17663">
        <ele>196.19999694824</ele>
        <time>2015-02-07T17:55:28.000Z</time>
      </trkpt>
      <trkpt lat="43.68123" lon="1.17664">
        <ele>196</ele>
        <time>2015-02-07T17:55:29.000Z</time>
      </trkpt>
      <trkpt lat="43.68126" lon="1.17668">
        <ele>195.80000305176</ele>
        <time>2015-02-07T17:55:33.000Z</time>
      </trkpt>
      <trkpt lat="43.68128" lon="1.17669">
        <ele>195.80000305176</ele>
        <time>2015-02-07T17:55:35.000Z</time>
      </trkpt>
      <trkpt lat="43.68131" lon="1.17671">
        <ele>195.60000610352</ele>
        <time>2015-02-07T17:55:38.000Z</time>
      </trkpt>
      <trkpt lat="43.68134" lon="1.17672">
        <ele>195.60000610352</ele>
        <time>2015-02-07T17:55:41.000Z</time>
      </trkpt>
      <trkpt lat="43.68135" lon="1.17673">
        <ele>195.39999389648</ele>
        <time>2015-02-07T17:55:43.000Z</time>
      </trkpt>
      <trkpt lat="43.68136" lon="1.17673">
        <ele>195.39999389648</ele>
        <time>2015-02-07T17:55:44.000Z</time>
      </trkpt>
      <trkpt lat="43.68141" lon="1.17673">
        <ele>195.19999694824</ele>
        <time>2015-02-07T17:55:50.000Z</time>
      </trkpt>
      <trkpt lat="43.68143" lon="1.17673">
        <ele>195.19999694824</ele>
        <time>2015-02-07T17:55:51.000Z</time>
      </trkpt>
      <trkpt lat="43.68146" lon="1.17674">
        <ele>195</ele>
        <time>2015-02-07T17:55:55.000Z</time>
      </trkpt>
      <trkpt lat="43.68146" lon="1.17674">
        <ele>195</ele>
        <time>2015-02-07T17:55:56.000Z</time>
      </trkpt>
      <trkpt lat="43.68148" lon="1.17675">
        <ele>195</ele>
        <time>2015-02-07T17:55:58.000Z</time>
      </trkpt>
      <trkpt lat="43.68149" lon="1.17675">
        <ele>195</ele>
        <time>2015-02-07T17:56:00.000Z</time>
      </trkpt>
      <trkpt lat="43.68152" lon="1.17676">
        <ele>195</ele>
        <time>2015-02-07T17:56:05.000Z</time>
      </trkpt>
      <trkpt lat="43.68157" lon="1.17678">
        <ele>195</ele>
        <time>2015-02-07T17:56:11.000Z</time>
      </trkpt>
      <trkpt lat="43.68158" lon="1.17678">
        <ele>195</ele>
        <time>2015-02-07T17:56:12.000Z</time>
      </trkpt>
      <trkpt lat="43.6816" lon="1.1768">
        <ele>195.19999694824</ele>
        <time>2015-02-07T17:56:14.000Z</time>
      </trkpt>
      <trkpt lat="43.68161" lon="1.1768">
        <ele>195.19999694824</ele>
        <time>2015-02-07T17:56:16.000Z</time>
      </trkpt>
      <trkpt lat="43.68163" lon="1.1768">
        <ele>195.19999694824</ele>
        <time>2015-02-07T17:56:18.000Z</time>
      </trkpt>
      <trkpt lat="43.68164" lon="1.1768">
        <ele>195.39999389648</ele>
        <time>2015-02-07T17:56:19.000Z</time>
      </trkpt>
      <trkpt lat="43.68166" lon="1.17679">
        <ele>195.60000610352</ele>
        <time>2015-02-07T17:56:22.000Z</time>
      </trkpt>
      <trkpt lat="43.68169" lon="1.17679">
        <ele>195.80000305176</ele>
        <time>2015-02-07T17:56:27.000Z</time>
      </trkpt>
      <trkpt lat="43.68171" lon="1.17678">
        <ele>196</ele>
        <time>2015-02-07T17:56:29.000Z</time>
      </trkpt>
      <trkpt lat="43.68176" lon="1.17671">
        <ele>196.60000610352</ele>
        <time>2015-02-07T17:56:34.000Z</time>
      </trkpt>
      <trkpt lat="43.68177" lon="1.17669">
        <ele>196.60000610352</ele>
        <time>2015-02-07T17:56:35.000Z</time>
      </trkpt>
      <trkpt lat="43.6818" lon="1.17668">
        <ele>197</ele>
        <time>2015-02-07T17:56:37.000Z</time>
      </trkpt>
      <trkpt lat="43.68181" lon="1.17666">
        <ele>197.19999694824</ele>
        <time>2015-02-07T17:56:39.000Z</time>
      </trkpt>
      <trkpt lat="43.68183" lon="1.17665">
        <ele>197.19999694824</ele>
        <time>2015-02-07T17:56:40.000Z</time>
      </trkpt>
      <trkpt lat="43.68185" lon="1.17665">
        <ele>197.39999389648</ele>
        <time>2015-02-07T17:56:42.000Z</time>
      </trkpt>
      <trkpt lat="43.68187" lon="1.17665">
        <ele>197.60000610352</ele>
        <time>2015-02-07T17:56:44.000Z</time>
      </trkpt>
      <trkpt lat="43.68188" lon="1.17665">
        <ele>197.80000305176</ele>
        <time>2015-02-07T17:56:45.000Z</time>
      </trkpt>
      <trkpt lat="43.6819" lon="1.17668">
        <ele>198.19999694824</ele>
        <time>2015-02-07T17:56:48.000Z</time>
      </trkpt>
      <trkpt lat="43.68195" lon="1.17672">
        <ele>198.80000305176</ele>
        <time>2015-02-07T17:56:52.000Z</time>
      </trkpt>
      <trkpt lat="43.68206" lon="1.17678">
        <ele>199.39999389648</ele>
        <time>2015-02-07T17:56:57.000Z</time>
      </trkpt>
      <trkpt lat="43.68216" lon="1.17679">
        <ele>200</ele>
        <time>2015-02-07T17:57:01.000Z</time>
      </trkpt>
      <trkpt lat="43.68218" lon="1.17678">
        <ele>200.19999694824</ele>
        <time>2015-02-07T17:57:02.000Z</time>
      </trkpt>
      <trkpt lat="43.68224" lon="1.17676">
        <ele>200.39999389648</ele>
        <time>2015-02-07T17:57:04.000Z</time>
      </trkpt>
      <trkpt lat="43.68227" lon="1.17671">
        <ele>200.60000610352</ele>
        <time>2015-02-07T17:57:06.000Z</time>
      </trkpt>
      <trkpt lat="43.68227" lon="1.17663">
        <ele>201.19999694824</ele>
        <time>2015-02-07T17:57:08.000Z</time>
      </trkpt>
      <trkpt lat="43.68227" lon="1.17653">
        <ele>201.80000305176</ele>
        <time>2015-02-07T17:57:11.000Z</time>
      </trkpt>
      <trkpt lat="43.68225" lon="1.17631">
        <ele>203</ele>
        <time>2015-02-07T17:57:17.000Z</time>
      </trkpt>
      <trkpt lat="43.68223" lon="1.17609">
        <ele>204.39999389648</ele>
        <time>2015-02-07T17:57:23.000Z</time>
      </trkpt>
      <trkpt lat="43.68221" lon="1.17587">
        <ele>205.60000610352</ele>
        <time>2015-02-07T17:57:29.000Z</time>
      </trkpt>
      <trkpt lat="43.68224" lon="1.17571">
        <ele>206.39999389648</ele>
        <time>2015-02-07T17:57:33.000Z</time>
      </trkpt>
      <trkpt lat="43.6823" lon="1.17552">
        <ele>207.39999389648</ele>
        <time>2015-02-07T17:57:39.000Z</time>
      </trkpt>
      <trkpt lat="43.68236" lon="1.17533">
        <ele>208.39999389648</ele>
        <time>2015-02-07T17:57:45.000Z</time>
      </trkpt>
      <trkpt lat="43.68241" lon="1.17523">
        <ele>208.80000305176</ele>
        <time>2015-02-07T17:57:49.000Z</time>
      </trkpt>
      <trkpt lat="43.68244" lon="1.17516">
        <ele>209.19999694824</ele>
        <time>2015-02-07T17:57:51.000Z</time>
      </trkpt>
      <trkpt lat="43.68246" lon="1.17507">
        <ele>209.60000610352</ele>
        <time>2015-02-07T17:57:54.000Z</time>
      </trkpt>
      <trkpt lat="43.68251" lon="1.17493">
        <ele>210.39999389648</ele>
        <time>2015-02-07T17:57:59.000Z</time>
      </trkpt>
      <trkpt lat="43.68252" lon="1.1749">
        <ele>210.39999389648</ele>
        <time>2015-02-07T17:58:00.000Z</time>
      </trkpt>
      <trkpt lat="43.68257" lon="1.17479">
        <ele>211</ele>
        <time>2015-02-07T17:58:04.000Z</time>
      </trkpt>
      <trkpt lat="43.68258" lon="1.17476">
        <ele>211</ele>
        <time>2015-02-07T17:58:05.000Z</time>
      </trkpt>
      <trkpt lat="43.68265" lon="1.17458">
        <ele>211.80000305176</ele>
        <time>2015-02-07T17:58:11.000Z</time>
      </trkpt>
      <trkpt lat="43.68268" lon="1.17439">
        <ele>212.19999694824</ele>
        <time>2015-02-07T17:58:16.000Z</time>
      </trkpt>
      <trkpt lat="43.68272" lon="1.1742">
        <ele>212.80000305176</ele>
        <time>2015-02-07T17:58:21.000Z</time>
      </trkpt>
      <trkpt lat="43.68278" lon="1.17395">
        <ele>213.60000610352</ele>
        <time>2015-02-07T17:58:28.000Z</time>
      </trkpt>
      <trkpt lat="43.68285" lon="1.1737">
        <ele>214.19999694824</ele>
        <time>2015-02-07T17:58:35.000Z</time>
      </trkpt>
      <trkpt lat="43.68286" lon="1.17366">
        <ele>214.19999694824</ele>
        <time>2015-02-07T17:58:36.000Z</time>
      </trkpt>
      <trkpt lat="43.6829" lon="1.17341">
        <ele>214.80000305176</ele>
        <time>2015-02-07T17:58:42.000Z</time>
      </trkpt>
      <trkpt lat="43.68294" lon="1.17322">
        <ele>215.19999694824</ele>
        <time>2015-02-07T17:58:47.000Z</time>
      </trkpt>
      <trkpt lat="43.68296" lon="1.17321">
        <ele>215.19999694824</ele>
        <time>2015-02-07T17:58:48.000Z</time>
      </trkpt>
      <trkpt lat="43.68303" lon="1.17324">
        <ele>215.60000610352</ele>
        <time>2015-02-07T17:58:51.000Z</time>
      </trkpt>
      <trkpt lat="43.68305" lon="1.17324">
        <ele>215.60000610352</ele>
        <time>2015-02-07T17:58:52.000Z</time>
      </trkpt>
      <trkpt lat="43.68316" lon="1.17326">
        <ele>216.19999694824</ele>
        <time>2015-02-07T17:58:57.000Z</time>
      </trkpt>
      <trkpt lat="43.68328" lon="1.17335">
        <ele>216.60000610352</ele>
        <time>2015-02-07T17:59:03.000Z</time>
      </trkpt>
      <trkpt lat="43.68329" lon="1.17352">
        <ele>216.80000305176</ele>
        <time>2015-02-07T17:59:08.000Z</time>
      </trkpt>
      <trkpt lat="43.68331" lon="1.17361">
        <ele>217</ele>
        <time>2015-02-07T17:59:11.000Z</time>
      </trkpt>
      <trkpt lat="43.68333" lon="1.17363">
        <ele>217</ele>
        <time>2015-02-07T17:59:12.000Z</time>
      </trkpt>
      <trkpt lat="43.6834" lon="1.17367">
        <ele>217.19999694824</ele>
        <time>2015-02-07T17:59:15.000Z</time>
      </trkpt>
      <trkpt lat="43.68344" lon="1.17368">
        <ele>217.19999694824</ele>
        <time>2015-02-07T17:59:17.000Z</time>
      </trkpt>
      <trkpt lat="43.68355" lon="1.17367">
        <ele>217.39999389648</ele>
        <time>2015-02-07T17:59:22.000Z</time>
      </trkpt>
      <trkpt lat="43.6836" lon="1.17367">
        <ele>217.39999389648</ele>
        <time>2015-02-07T17:59:24.000Z</time>
      </trkpt>
      <trkpt lat="43.68366" lon="1.17368">
        <ele>217.60000610352</ele>
        <time>2015-02-07T17:59:26.000Z</time>
      </trkpt>
      <trkpt lat="43.68381" lon="1.17371">
        <ele>217.80000305176</ele>
        <time>2015-02-07T17:59:32.000Z</time>
      </trkpt>
      <trkpt lat="43.68393" lon="1.17375">
        <ele>218</ele>
        <time>2015-02-07T17:59:37.000Z</time>
      </trkpt>
      <trkpt lat="43.68408" lon="1.17375">
        <ele>218.19999694824</ele>
        <time>2015-02-07T17:59:43.000Z</time>
      </trkpt>
      <trkpt lat="43.68424" lon="1.17379">
        <ele>218.60000610352</ele>
        <time>2015-02-07T17:59:49.000Z</time>
      </trkpt>
      <trkpt lat="43.68433" lon="1.17382">
        <ele>218.60000610352</ele>
        <time>2015-02-07T17:59:53.000Z</time>
      </trkpt>
      <trkpt lat="43.6844" lon="1.17383">
        <ele>218.60000610352</ele>
        <time>2015-02-07T17:59:56.000Z</time>
      </trkpt>
      <trkpt lat="43.68442" lon="1.17383">
        <ele>218.60000610352</ele>
        <time>2015-02-07T17:59:57.000Z</time>
      </trkpt>
      <trkpt lat="43.68455" lon="1.17385">
        <ele>218.80000305176</ele>
        <time>2015-02-07T18:00:02.000Z</time>
      </trkpt>
      <trkpt lat="43.68462" lon="1.17382">
        <ele>218.80000305176</ele>
        <time>2015-02-07T18:00:05.000Z</time>
      </trkpt>
      <trkpt lat="43.68472" lon="1.1738">
        <ele>218.80000305176</ele>
        <time>2015-02-07T18:00:09.000Z</time>
      </trkpt>
      <trkpt lat="43.68483" lon="1.1738">
        <ele>218.80000305176</ele>
        <time>2015-02-07T18:00:13.000Z</time>
      </trkpt>
      <trkpt lat="43.68499" lon="1.17381">
        <ele>218.80000305176</ele>
        <time>2015-02-07T18:00:19.000Z</time>
      </trkpt>
      <trkpt lat="43.68509" lon="1.17388">
        <ele>218.80000305176</ele>
        <time>2015-02-07T18:00:23.000Z</time>
      </trkpt>
      <trkpt lat="43.68515" lon="1.17393">
        <ele>218.80000305176</ele>
        <time>2015-02-07T18:00:26.000Z</time>
      </trkpt>
      <trkpt lat="43.68517" lon="1.17395">
        <ele>218.80000305176</ele>
        <time>2015-02-07T18:00:27.000Z</time>
      </trkpt>
      <trkpt lat="43.68528" lon="1.17395">
        <ele>218.80000305176</ele>
        <time>2015-02-07T18:00:31.000Z</time>
      </trkpt>
      <trkpt lat="43.68537" lon="1.174">
        <ele>218.60000610352</ele>
        <time>2015-02-07T18:00:35.000Z</time>
      </trkpt>
      <trkpt lat="43.68541" lon="1.17402">
        <ele>218.60000610352</ele>
        <time>2015-02-07T18:00:37.000Z</time>
      </trkpt>
      <trkpt lat="43.68547" lon="1.17402">
        <ele>218.60000610352</ele>
        <time>2015-02-07T18:00:39.000Z</time>
      </trkpt>
      <trkpt lat="43.6856" lon="1.17403">
        <ele>218.60000610352</ele>
        <time>2015-02-07T18:00:44.000Z</time>
      </trkpt>
      <trkpt lat="43.6857" lon="1.17405">
        <ele>218.39999389648</ele>
        <time>2015-02-07T18:00:48.000Z</time>
      </trkpt>
      <trkpt lat="43.6858" lon="1.17409">
        <ele>218.39999389648</ele>
        <time>2015-02-07T18:00:52.000Z</time>
      </trkpt>
      <trkpt lat="43.68587" lon="1.17414">
        <ele>218.39999389648</ele>
        <time>2015-02-07T18:00:55.000Z</time>
      </trkpt>
      <trkpt lat="43.68597" lon="1.17418">
        <ele>218.19999694824</ele>
        <time>2015-02-07T18:00:59.000Z</time>
      </trkpt>
      <trkpt lat="43.686" lon="1.17419">
        <ele>218.19999694824</ele>
        <time>2015-02-07T18:01:00.000Z</time>
      </trkpt>
      <trkpt lat="43.68606" lon="1.17421">
        <ele>218.19999694824</ele>
        <time>2015-02-07T18:01:02.000Z</time>
      </trkpt>
      <trkpt lat="43.6861" lon="1.17422">
        <ele>218.19999694824</ele>
        <time>2015-02-07T18:01:04.000Z</time>
      </trkpt>
      <trkpt lat="43.68622" lon="1.17417">
        <ele>218</ele>
        <time>2015-02-07T18:01:09.000Z</time>
      </trkpt>
      <trkpt lat="43.68634" lon="1.17424">
        <ele>218</ele>
        <time>2015-02-07T18:01:14.000Z</time>
      </trkpt>
      <trkpt lat="43.68642" lon="1.17429">
        <ele>217.80000305176</ele>
        <time>2015-02-07T18:01:18.000Z</time>
      </trkpt>
      <trkpt lat="43.68644" lon="1.17431">
        <ele>217.80000305176</ele>
        <time>2015-02-07T18:01:19.000Z</time>
      </trkpt>
      <trkpt lat="43.68652" lon="1.17436">
        <ele>217.80000305176</ele>
        <time>2015-02-07T18:01:23.000Z</time>
      </trkpt>
      <trkpt lat="43.68665" lon="1.17441">
        <ele>217.60000610352</ele>
        <time>2015-02-07T18:01:28.000Z</time>
      </trkpt>
      <trkpt lat="43.68679" lon="1.17444">
        <ele>217.39999389648</ele>
        <time>2015-02-07T18:01:33.000Z</time>
      </trkpt>
      <trkpt lat="43.68682" lon="1.17445">
        <ele>217.39999389648</ele>
        <time>2015-02-07T18:01:34.000Z</time>
      </trkpt>
      <trkpt lat="43.68687" lon="1.17448">
        <ele>217.39999389648</ele>
        <time>2015-02-07T18:01:36.000Z</time>
      </trkpt>
      <trkpt lat="43.68697" lon="1.17452">
        <ele>217.19999694824</ele>
        <time>2015-02-07T18:01:40.000Z</time>
      </trkpt>
      <trkpt lat="43.68702" lon="1.17457">
        <ele>217.19999694824</ele>
        <time>2015-02-07T18:01:42.000Z</time>
      </trkpt>
      <trkpt lat="43.68705" lon="1.17469">
        <ele>217</ele>
        <time>2015-02-07T18:01:45.000Z</time>
      </trkpt>
      <trkpt lat="43.68705" lon="1.17476">
        <ele>217</ele>
        <time>2015-02-07T18:01:47.000Z</time>
      </trkpt>
      <trkpt lat="43.68705" lon="1.17483">
        <ele>216.80000305176</ele>
        <time>2015-02-07T18:01:49.000Z</time>
      </trkpt>
      <trkpt lat="43.68702" lon="1.17495">
        <ele>216.60000610352</ele>
        <time>2015-02-07T18:01:53.000Z</time>
      </trkpt>
      <trkpt lat="43.68704" lon="1.17508">
        <ele>216.60000610352</ele>
        <time>2015-02-07T18:01:57.000Z</time>
      </trkpt>
      <trkpt lat="43.68714" lon="1.17516">
        <ele>216.39999389648</ele>
        <time>2015-02-07T18:02:01.000Z</time>
      </trkpt>
      <trkpt lat="43.68723" lon="1.17521">
        <ele>216.19999694824</ele>
        <time>2015-02-07T18:02:05.000Z</time>
      </trkpt>
      <trkpt lat="43.68737" lon="1.17518">
        <ele>216</ele>
        <time>2015-02-07T18:02:10.000Z</time>
      </trkpt>
      <trkpt lat="43.68749" lon="1.17515">
        <ele>215.80000305176</ele>
        <time>2015-02-07T18:02:14.000Z</time>
      </trkpt>
      <trkpt lat="43.68762" lon="1.17507">
        <ele>215.60000610352</ele>
        <time>2015-02-07T18:02:19.000Z</time>
      </trkpt>
      <trkpt lat="43.68776" lon="1.175">
        <ele>215.39999389648</ele>
        <time>2015-02-07T18:02:24.000Z</time>
      </trkpt>
      <trkpt lat="43.68792" lon="1.1749">
        <ele>215.39999389648</ele>
        <time>2015-02-07T18:02:30.000Z</time>
      </trkpt>
      <trkpt lat="43.68795" lon="1.17488">
        <ele>215.19999694824</ele>
        <time>2015-02-07T18:02:31.000Z</time>
      </trkpt>
      <trkpt lat="43.68806" lon="1.1748">
        <ele>215.19999694824</ele>
        <time>2015-02-07T18:02:35.000Z</time>
      </trkpt>
      <trkpt lat="43.68819" lon="1.17472">
        <ele>215</ele>
        <time>2015-02-07T18:02:40.000Z</time>
      </trkpt>
      <trkpt lat="43.68829" lon="1.17466">
        <ele>214.80000305176</ele>
        <time>2015-02-07T18:02:44.000Z</time>
      </trkpt>
      <trkpt lat="43.68844" lon="1.17462">
        <ele>214.80000305176</ele>
        <time>2015-02-07T18:02:49.000Z</time>
      </trkpt>
      <trkpt lat="43.68859" lon="1.17464">
        <ele>214.39999389648</ele>
        <time>2015-02-07T18:02:55.000Z</time>
      </trkpt>
      <trkpt lat="43.68876" lon="1.17479">
        <ele>214.19999694824</ele>
        <time>2015-02-07T18:03:02.000Z</time>
      </trkpt>
      <trkpt lat="43.68885" lon="1.17496">
        <ele>213.80000305176</ele>
        <time>2015-02-07T18:03:07.000Z</time>
      </trkpt>
      <trkpt lat="43.68891" lon="1.17513">
        <ele>213.60000610352</ele>
        <time>2015-02-07T18:03:12.000Z</time>
      </trkpt>
      <trkpt lat="43.68895" lon="1.17535">
        <ele>213.19999694824</ele>
        <time>2015-02-07T18:03:18.000Z</time>
      </trkpt>
      <trkpt lat="43.68898" lon="1.17559">
        <ele>212.80000305176</ele>
        <time>2015-02-07T18:03:24.000Z</time>
      </trkpt>
      <trkpt lat="43.689" lon="1.17579">
        <ele>212.39999389648</ele>
        <time>2015-02-07T18:03:29.000Z</time>
      </trkpt>
      <trkpt lat="43.68904" lon="1.17602">
        <ele>212</ele>
        <time>2015-02-07T18:03:34.000Z</time>
      </trkpt>
      <trkpt lat="43.68907" lon="1.17626">
        <ele>211.60000610352</ele>
        <time>2015-02-07T18:03:39.000Z</time>
      </trkpt>
      <trkpt lat="43.68909" lon="1.17637">
        <ele>211.39999389648</ele>
        <time>2015-02-07T18:03:41.000Z</time>
      </trkpt>
      <trkpt lat="43.68911" lon="1.17655">
        <ele>211</ele>
        <time>2015-02-07T18:03:45.000Z</time>
      </trkpt>
      <trkpt lat="43.68912" lon="1.17672">
        <ele>210.60000610352</ele>
        <time>2015-02-07T18:03:49.000Z</time>
      </trkpt>
      <trkpt lat="43.68913" lon="1.17685">
        <ele>210.39999389648</ele>
        <time>2015-02-07T18:03:52.000Z</time>
      </trkpt>
      <trkpt lat="43.68913" lon="1.17689">
        <ele>210.39999389648</ele>
        <time>2015-02-07T18:03:53.000Z</time>
      </trkpt>
      <trkpt lat="43.68914" lon="1.17692">
        <ele>210.19999694824</ele>
        <time>2015-02-07T18:03:54.000Z</time>
      </trkpt>
      <trkpt lat="43.68915" lon="1.17703">
        <ele>210</ele>
        <time>2015-02-07T18:03:57.000Z</time>
      </trkpt>
      <trkpt lat="43.68914" lon="1.1772">
        <ele>209.39999389648</ele>
        <time>2015-02-07T18:04:02.000Z</time>
      </trkpt>
      <trkpt lat="43.68915" lon="1.17738">
        <ele>209</ele>
        <time>2015-02-07T18:04:07.000Z</time>
      </trkpt>
      <trkpt lat="43.68917" lon="1.17753">
        <ele>208.80000305176</ele>
        <time>2015-02-07T18:04:11.000Z</time>
      </trkpt>
      <trkpt lat="43.6892" lon="1.17755">
        <ele>208.60000610352</ele>
        <time>2015-02-07T18:04:13.000Z</time>
      </trkpt>
      <trkpt lat="43.68925" lon="1.17759">
        <ele>208.39999389648</ele>
        <time>2015-02-07T18:04:16.000Z</time>
      </trkpt>
      <trkpt lat="43.68928" lon="1.17764">
        <ele>208.19999694824</ele>
        <time>2015-02-07T18:04:18.000Z</time>
      </trkpt>
      <trkpt lat="43.6893" lon="1.17768">
        <ele>208.19999694824</ele>
        <time>2015-02-07T18:04:20.000Z</time>
      </trkpt>
      <trkpt lat="43.68933" lon="1.1777">
        <ele>208</ele>
        <time>2015-02-07T18:04:22.000Z</time>
      </trkpt>
      <trkpt lat="43.68938" lon="1.1778">
        <ele>207.80000305176</ele>
        <time>2015-02-07T18:04:26.000Z</time>
      </trkpt>
      <trkpt lat="43.68937" lon="1.17788">
        <ele>207.60000610352</ele>
        <time>2015-02-07T18:04:29.000Z</time>
      </trkpt>
      <trkpt lat="43.68935" lon="1.17801">
        <ele>207.39999389648</ele>
        <time>2015-02-07T18:04:33.000Z</time>
      </trkpt>
      <trkpt lat="43.68932" lon="1.17815">
        <ele>207.19999694824</ele>
        <time>2015-02-07T18:04:37.000Z</time>
      </trkpt>
      <trkpt lat="43.68932" lon="1.1783">
        <ele>207</ele>
        <time>2015-02-07T18:04:41.000Z</time>
      </trkpt>
      <trkpt lat="43.68931" lon="1.17841">
        <ele>206.80000305176</ele>
        <time>2015-02-07T18:04:45.000Z</time>
      </trkpt>
      <trkpt lat="43.6893" lon="1.17847">
        <ele>206.80000305176</ele>
        <time>2015-02-07T18:04:47.000Z</time>
      </trkpt>
      <trkpt lat="43.68929" lon="1.17853">
        <ele>206.60000610352</ele>
        <time>2015-02-07T18:04:49.000Z</time>
      </trkpt>
      <trkpt lat="43.68929" lon="1.17856">
        <ele>206.60000610352</ele>
        <time>2015-02-07T18:04:50.000Z</time>
      </trkpt>
      <trkpt lat="43.68929" lon="1.17862">
        <ele>206.39999389648</ele>
        <time>2015-02-07T18:04:53.000Z</time>
      </trkpt>
      <trkpt lat="43.68928" lon="1.17872">
        <ele>206.19999694824</ele>
        <time>2015-02-07T18:04:56.000Z</time>
      </trkpt>
      <trkpt lat="43.68929" lon="1.17883">
        <ele>206</ele>
        <time>2015-02-07T18:05:00.000Z</time>
      </trkpt>
      <trkpt lat="43.6893" lon="1.17896">
        <ele>205.80000305176</ele>
        <time>2015-02-07T18:05:04.000Z</time>
      </trkpt>
      <trkpt lat="43.68934" lon="1.17913">
        <ele>205.39999389648</ele>
        <time>2015-02-07T18:05:09.000Z</time>
      </trkpt>
      <trkpt lat="43.68937" lon="1.17929">
        <ele>205.19999694824</ele>
        <time>2015-02-07T18:05:13.000Z</time>
      </trkpt>
      <trkpt lat="43.68942" lon="1.1795">
        <ele>205</ele>
        <time>2015-02-07T18:05:18.000Z</time>
      </trkpt>
      <trkpt lat="43.68944" lon="1.17968">
        <ele>204.60000610352</ele>
        <time>2015-02-07T18:05:23.000Z</time>
      </trkpt>
      <trkpt lat="43.68946" lon="1.17985">
        <ele>204.39999389648</ele>
        <time>2015-02-07T18:05:27.000Z</time>
      </trkpt>
      <trkpt lat="43.68949" lon="1.18005">
        <ele>204</ele>
        <time>2015-02-07T18:05:32.000Z</time>
      </trkpt>
      <trkpt lat="43.68948" lon="1.18009">
        <ele>204</ele>
        <time>2015-02-07T18:05:33.000Z</time>
      </trkpt>
      <trkpt lat="43.68944" lon="1.1802">
        <ele>203.80000305176</ele>
        <time>2015-02-07T18:05:36.000Z</time>
      </trkpt>
      <trkpt lat="43.68942" lon="1.18023">
        <ele>203.60000610352</ele>
        <time>2015-02-07T18:05:37.000Z</time>
      </trkpt>
      <trkpt lat="43.68936" lon="1.18032">
        <ele>203.60000610352</ele>
        <time>2015-02-07T18:05:40.000Z</time>
      </trkpt>
      <trkpt lat="43.68931" lon="1.18049">
        <ele>203.19999694824</ele>
        <time>2015-02-07T18:05:44.000Z</time>
      </trkpt>
      <trkpt lat="43.6893" lon="1.18053">
        <ele>203.19999694824</ele>
        <time>2015-02-07T18:05:45.000Z</time>
      </trkpt>
      <trkpt lat="43.6892" lon="1.18066">
        <ele>203</ele>
        <time>2015-02-07T18:05:49.000Z</time>
      </trkpt>
      <trkpt lat="43.68916" lon="1.18076">
        <ele>202.60000610352</ele>
        <time>2015-02-07T18:05:53.000Z</time>
      </trkpt>
      <trkpt lat="43.68921" lon="1.18095">
        <ele>202.39999389648</ele>
        <time>2015-02-07T18:05:57.000Z</time>
      </trkpt>
      <trkpt lat="43.68923" lon="1.18099">
        <ele>202.39999389648</ele>
        <time>2015-02-07T18:05:58.000Z</time>
      </trkpt>
      <trkpt lat="43.68925" lon="1.18109">
        <ele>202.19999694824</ele>
        <time>2015-02-07T18:06:01.000Z</time>
      </trkpt>
      <trkpt lat="43.68927" lon="1.18113">
        <ele>202.19999694824</ele>
        <time>2015-02-07T18:06:02.000Z</time>
      </trkpt>
      <trkpt lat="43.68928" lon="1.18116">
        <ele>202</ele>
        <time>2015-02-07T18:06:05.000Z</time>
      </trkpt>
      <trkpt lat="43.68933" lon="1.18118">
        <ele>201.80000305176</ele>
        <time>2015-02-07T18:06:08.000Z</time>
      </trkpt>
      <trkpt lat="43.68941" lon="1.18119">
        <ele>201.39999389648</ele>
        <time>2015-02-07T18:06:12.000Z</time>
      </trkpt>
      <trkpt lat="43.68942" lon="1.18122">
        <ele>201.19999694824</ele>
        <time>2015-02-07T18:06:16.000Z</time>
      </trkpt>
      <trkpt lat="43.68943" lon="1.18127">
        <ele>201</ele>
        <time>2015-02-07T18:06:18.000Z</time>
      </trkpt>
      <trkpt lat="43.68942" lon="1.1813">
        <ele>201</ele>
        <time>2015-02-07T18:06:20.000Z</time>
      </trkpt>
      <trkpt lat="43.68939" lon="1.18139">
        <ele>200.80000305176</ele>
        <time>2015-02-07T18:06:24.000Z</time>
      </trkpt>
      <trkpt lat="43.68938" lon="1.1814">
        <ele>200.60000610352</ele>
        <time>2015-02-07T18:06:25.000Z</time>
      </trkpt>
      <trkpt lat="43.68935" lon="1.18148">
        <ele>200.39999389648</ele>
        <time>2015-02-07T18:06:30.000Z</time>
      </trkpt>
      <trkpt lat="43.68937" lon="1.18158">
        <ele>200.19999694824</ele>
        <time>2015-02-07T18:06:34.000Z</time>
      </trkpt>
      <trkpt lat="43.68938" lon="1.18161">
        <ele>200</ele>
        <time>2015-02-07T18:06:35.000Z</time>
      </trkpt>
      <trkpt lat="43.6894" lon="1.18176">
        <ele>199.80000305176</ele>
        <time>2015-02-07T18:06:40.000Z</time>
      </trkpt>
      <trkpt lat="43.68941" lon="1.18179">
        <ele>199.80000305176</ele>
        <time>2015-02-07T18:06:41.000Z</time>
      </trkpt>
      <trkpt lat="43.68941" lon="1.18183">
        <ele>199.60000610352</ele>
        <time>2015-02-07T18:06:43.000Z</time>
      </trkpt>
      <trkpt lat="43.68941" lon="1.18185">
        <ele>199.39999389648</ele>
        <time>2015-02-07T18:06:45.000Z</time>
      </trkpt>
      <trkpt lat="43.68941" lon="1.18193">
        <ele>199.19999694824</ele>
        <time>2015-02-07T18:06:49.000Z</time>
      </trkpt>
      <trkpt lat="43.68942" lon="1.18201">
        <ele>199</ele>
        <time>2015-02-07T18:06:53.000Z</time>
      </trkpt>
      <trkpt lat="43.68942" lon="1.18206">
        <ele>199</ele>
        <time>2015-02-07T18:06:55.000Z</time>
      </trkpt>
      <trkpt lat="43.68942" lon="1.18208">
        <ele>198.80000305176</ele>
        <time>2015-02-07T18:06:56.000Z</time>
      </trkpt>
      <trkpt lat="43.6894" lon="1.18211">
        <ele>198.80000305176</ele>
        <time>2015-02-07T18:06:58.000Z</time>
      </trkpt>
      <trkpt lat="43.68933" lon="1.18219">
        <ele>198.60000610352</ele>
        <time>2015-02-07T18:07:03.000Z</time>
      </trkpt>
      <trkpt lat="43.68926" lon="1.18232">
        <ele>198.60000610352</ele>
        <time>2015-02-07T18:07:08.000Z</time>
      </trkpt>
      <trkpt lat="43.68925" lon="1.18234">
        <ele>198.60000610352</ele>
        <time>2015-02-07T18:07:09.000Z</time>
      </trkpt>
      <trkpt lat="43.68924" lon="1.1824">
        <ele>198.60000610352</ele>
        <time>2015-02-07T18:07:11.000Z</time>
      </trkpt>
      <trkpt lat="43.68926" lon="1.18243">
        <ele>198.60000610352</ele>
        <time>2015-02-07T18:07:12.000Z</time>
      </trkpt>
      <trkpt lat="43.68937" lon="1.18261">
        <ele>198.39999389648</ele>
        <time>2015-02-07T18:07:18.000Z</time>
      </trkpt>
      <trkpt lat="43.68944" lon="1.18279">
        <ele>198.39999389648</ele>
        <time>2015-02-07T18:07:23.000Z</time>
      </trkpt>
      <trkpt lat="43.68953" lon="1.18295">
        <ele>198.39999389648</ele>
        <time>2015-02-07T18:07:28.000Z</time>
      </trkpt>
      <trkpt lat="43.68961" lon="1.18307">
        <ele>198.19999694824</ele>
        <time>2015-02-07T18:07:32.000Z</time>
      </trkpt>
      <trkpt lat="43.68965" lon="1.18313">
        <ele>198.19999694824</ele>
        <time>2015-02-07T18:07:34.000Z</time>
      </trkpt>
      <trkpt lat="43.6897" lon="1.18321">
        <ele>198.19999694824</ele>
        <time>2015-02-07T18:07:37.000Z</time>
      </trkpt>
      <trkpt lat="43.6898" lon="1.18335">
        <ele>198</ele>
        <time>2015-02-07T18:07:42.000Z</time>
      </trkpt>
      <trkpt lat="43.6899" lon="1.18347">
        <ele>198</ele>
        <time>2015-02-07T18:07:47.000Z</time>
      </trkpt>
      <trkpt lat="43.69002" lon="1.18363">
        <ele>198</ele>
        <time>2015-02-07T18:07:53.000Z</time>
      </trkpt>
      <trkpt lat="43.69011" lon="1.18375">
        <ele>198</ele>
        <time>2015-02-07T18:07:57.000Z</time>
      </trkpt>
      <trkpt lat="43.69022" lon="1.18392">
        <ele>197.80000305176</ele>
        <time>2015-02-07T18:08:02.000Z</time>
      </trkpt>
      <trkpt lat="43.69034" lon="1.1841">
        <ele>197.80000305176</ele>
        <time>2015-02-07T18:08:07.000Z</time>
      </trkpt>
      <trkpt lat="43.69045" lon="1.18425">
        <ele>197.60000610352</ele>
        <time>2015-02-07T18:08:12.000Z</time>
      </trkpt>
      <trkpt lat="43.69057" lon="1.18445">
        <ele>197.39999389648</ele>
        <time>2015-02-07T18:08:18.000Z</time>
      </trkpt>
      <trkpt lat="43.69062" lon="1.18448">
        <ele>197.19999694824</ele>
        <time>2015-02-07T18:08:20.000Z</time>
      </trkpt>
      <trkpt lat="43.69065" lon="1.18443">
        <ele>197</ele>
        <time>2015-02-07T18:08:22.000Z</time>
      </trkpt>
      <trkpt lat="43.69068" lon="1.18438">
        <ele>197</ele>
        <time>2015-02-07T18:08:24.000Z</time>
      </trkpt>
      <trkpt lat="43.69073" lon="1.18436">
        <ele>196.80000305176</ele>
        <time>2015-02-07T18:08:26.000Z</time>
      </trkpt>
      <trkpt lat="43.69076" lon="1.18434">
        <ele>196.60000610352</ele>
        <time>2015-02-07T18:08:29.000Z</time>
      </trkpt>
      <trkpt lat="43.69079" lon="1.18435">
        <ele>196.39999389648</ele>
        <time>2015-02-07T18:08:30.000Z</time>
      </trkpt>
      <trkpt lat="43.69083" lon="1.18432">
        <ele>196.19999694824</ele>
        <time>2015-02-07T18:08:33.000Z</time>
      </trkpt>
      <trkpt lat="43.69086" lon="1.18431">
        <ele>196</ele>
        <time>2015-02-07T18:08:35.000Z</time>
      </trkpt>
      <trkpt lat="43.69089" lon="1.1843">
        <ele>195.60000610352</ele>
        <time>2015-02-07T18:08:37.000Z</time>
      </trkpt>
      <trkpt lat="43.69098" lon="1.18434">
        <ele>195.19999694824</ele>
        <time>2015-02-07T18:08:41.000Z</time>
      </trkpt>
      <trkpt lat="43.69106" lon="1.18431">
        <ele>194.80000305176</ele>
        <time>2015-02-07T18:08:45.000Z</time>
      </trkpt>
      <trkpt lat="43.69108" lon="1.18429">
        <ele>194.80000305176</ele>
        <time>2015-02-07T18:08:46.000Z</time>
      </trkpt>
      <trkpt lat="43.69111" lon="1.18427">
        <ele>194.60000610352</ele>
        <time>2015-02-07T18:08:48.000Z</time>
      </trkpt>
      <trkpt lat="43.69119" lon="1.18428">
        <ele>194.19999694824</ele>
        <time>2015-02-07T18:08:52.000Z</time>
      </trkpt>
      <trkpt lat="43.69124" lon="1.18429">
        <ele>194</ele>
        <time>2015-02-07T18:08:54.000Z</time>
      </trkpt>
      <trkpt lat="43.69133" lon="1.18431">
        <ele>193.80000305176</ele>
        <time>2015-02-07T18:08:57.000Z</time>
      </trkpt>
      <trkpt lat="43.69138" lon="1.18431">
        <ele>193.60000610352</ele>
        <time>2015-02-07T18:08:59.000Z</time>
      </trkpt>
      <trkpt lat="43.69143" lon="1.18429">
        <ele>193.39999389648</ele>
        <time>2015-02-07T18:09:01.000Z</time>
      </trkpt>
      <trkpt lat="43.69149" lon="1.18425">
        <ele>193.19999694824</ele>
        <time>2015-02-07T18:09:04.000Z</time>
      </trkpt>
      <trkpt lat="43.6915" lon="1.18424">
        <ele>193.19999694824</ele>
        <time>2015-02-07T18:09:05.000Z</time>
      </trkpt>
      <trkpt lat="43.69158" lon="1.18418">
        <ele>192.80000305176</ele>
        <time>2015-02-07T18:09:09.000Z</time>
      </trkpt>
      <trkpt lat="43.69164" lon="1.18421">
        <ele>192.60000610352</ele>
        <time>2015-02-07T18:09:12.000Z</time>
      </trkpt>
      <trkpt lat="43.69166" lon="1.18422">
        <ele>192.60000610352</ele>
        <time>2015-02-07T18:09:13.000Z</time>
      </trkpt>
      <trkpt lat="43.69171" lon="1.18425">
        <ele>192.60000610352</ele>
        <time>2015-02-07T18:09:15.000Z</time>
      </trkpt>
      <trkpt lat="43.69177" lon="1.18434">
        <ele>192.39999389648</ele>
        <time>2015-02-07T18:09:18.000Z</time>
      </trkpt>
      <trkpt lat="43.69184" lon="1.18447">
        <ele>192</ele>
        <time>2015-02-07T18:09:22.000Z</time>
      </trkpt>
      <trkpt lat="43.69193" lon="1.18466">
        <ele>191.80000305176</ele>
        <time>2015-02-07T18:09:27.000Z</time>
      </trkpt>
      <trkpt lat="43.69205" lon="1.18479">
        <ele>191.39999389648</ele>
        <time>2015-02-07T18:09:32.000Z</time>
      </trkpt>
      <trkpt lat="43.69214" lon="1.18487">
        <ele>191.19999694824</ele>
        <time>2015-02-07T18:09:36.000Z</time>
      </trkpt>
      <trkpt lat="43.69223" lon="1.18491">
        <ele>191</ele>
        <time>2015-02-07T18:09:40.000Z</time>
      </trkpt>
      <trkpt lat="43.69228" lon="1.18496">
        <ele>190.80000305176</ele>
        <time>2015-02-07T18:09:43.000Z</time>
      </trkpt>
      <trkpt lat="43.6923" lon="1.18498">
        <ele>190.80000305176</ele>
        <time>2015-02-07T18:09:44.000Z</time>
      </trkpt>
      <trkpt lat="43.69239" lon="1.18508">
        <ele>190.60000610352</ele>
        <time>2015-02-07T18:09:49.000Z</time>
      </trkpt>
      <trkpt lat="43.69243" lon="1.18511">
        <ele>190.60000610352</ele>
        <time>2015-02-07T18:09:51.000Z</time>
      </trkpt>
      <trkpt lat="43.69247" lon="1.18515">
        <ele>190.39999389648</ele>
        <time>2015-02-07T18:09:53.000Z</time>
      </trkpt>
      <trkpt lat="43.69254" lon="1.18522">
        <ele>190.39999389648</ele>
        <time>2015-02-07T18:09:57.000Z</time>
      </trkpt>
      <trkpt lat="43.6926" lon="1.18526">
        <ele>190.19999694824</ele>
        <time>2015-02-07T18:10:00.000Z</time>
      </trkpt>
      <trkpt lat="43.69264" lon="1.18528">
        <ele>190.19999694824</ele>
        <time>2015-02-07T18:10:02.000Z</time>
      </trkpt>
      <trkpt lat="43.69266" lon="1.18529">
        <ele>190.19999694824</ele>
        <time>2015-02-07T18:10:03.000Z</time>
      </trkpt>
      <trkpt lat="43.69269" lon="1.18531">
        <ele>190.19999694824</ele>
        <time>2015-02-07T18:10:05.000Z</time>
      </trkpt>
      <trkpt lat="43.69277" lon="1.18538">
        <ele>190</ele>
        <time>2015-02-07T18:10:10.000Z</time>
      </trkpt>
      <trkpt lat="43.69279" lon="1.18547">
        <ele>190</ele>
        <time>2015-02-07T18:10:15.000Z</time>
      </trkpt>
      <trkpt lat="43.69283" lon="1.18559">
        <ele>190</ele>
        <time>2015-02-07T18:10:20.000Z</time>
      </trkpt>
      <trkpt lat="43.69283" lon="1.18562">
        <ele>190</ele>
        <time>2015-02-07T18:10:21.000Z</time>
      </trkpt>
      <trkpt lat="43.69287" lon="1.18579">
        <ele>190.19999694824</ele>
        <time>2015-02-07T18:10:26.000Z</time>
      </trkpt>
      <trkpt lat="43.69286" lon="1.18583">
        <ele>190.19999694824</ele>
        <time>2015-02-07T18:10:27.000Z</time>
      </trkpt>
      <trkpt lat="43.69283" lon="1.18588">
        <ele>190.19999694824</ele>
        <time>2015-02-07T18:10:29.000Z</time>
      </trkpt>
      <trkpt lat="43.69279" lon="1.18602">
        <ele>190.19999694824</ele>
        <time>2015-02-07T18:10:34.000Z</time>
      </trkpt>
      <trkpt lat="43.69281" lon="1.18606">
        <ele>190.19999694824</ele>
        <time>2015-02-07T18:10:35.000Z</time>
      </trkpt>
      <trkpt lat="43.69286" lon="1.18619">
        <ele>190.19999694824</ele>
        <time>2015-02-07T18:10:39.000Z</time>
      </trkpt>
      <trkpt lat="43.69293" lon="1.18626">
        <ele>190.39999389648</ele>
        <time>2015-02-07T18:10:42.000Z</time>
      </trkpt>
      <trkpt lat="43.69295" lon="1.18632">
        <ele>190.19999694824</ele>
        <time>2015-02-07T18:10:44.000Z</time>
      </trkpt>
      <trkpt lat="43.69296" lon="1.1864">
        <ele>190.19999694824</ele>
        <time>2015-02-07T18:10:46.000Z</time>
      </trkpt>
      <trkpt lat="43.69295" lon="1.18646">
        <ele>190.19999694824</ele>
        <time>2015-02-07T18:10:48.000Z</time>
      </trkpt>
      <trkpt lat="43.69289" lon="1.1865">
        <ele>190.19999694824</ele>
        <time>2015-02-07T18:10:52.000Z</time>
      </trkpt>
      <trkpt lat="43.69283" lon="1.18656">
        <ele>190</ele>
        <time>2015-02-07T18:10:56.000Z</time>
      </trkpt>
      <trkpt lat="43.69282" lon="1.18659">
        <ele>190</ele>
        <time>2015-02-07T18:10:57.000Z</time>
      </trkpt>
      <trkpt lat="43.69281" lon="1.1867">
        <ele>190</ele>
        <time>2015-02-07T18:11:00.000Z</time>
      </trkpt>
      <trkpt lat="43.69281" lon="1.18688">
        <ele>189.80000305176</ele>
        <time>2015-02-07T18:11:05.000Z</time>
      </trkpt>
      <trkpt lat="43.6928" lon="1.18694">
        <ele>189.80000305176</ele>
        <time>2015-02-07T18:11:07.000Z</time>
      </trkpt>
      <trkpt lat="43.69278" lon="1.187">
        <ele>189.80000305176</ele>
        <time>2015-02-07T18:11:09.000Z</time>
      </trkpt>
      <trkpt lat="43.69275" lon="1.18708">
        <ele>189.80000305176</ele>
        <time>2015-02-07T18:11:11.000Z</time>
      </trkpt>
      <trkpt lat="43.69272" lon="1.18714">
        <ele>189.60000610352</ele>
        <time>2015-02-07T18:11:13.000Z</time>
      </trkpt>
      <trkpt lat="43.69269" lon="1.18717">
        <ele>189.60000610352</ele>
        <time>2015-02-07T18:11:15.000Z</time>
      </trkpt>
      <trkpt lat="43.69267" lon="1.18721">
        <ele>189.60000610352</ele>
        <time>2015-02-07T18:11:17.000Z</time>
      </trkpt>
      <trkpt lat="43.69267" lon="1.18725">
        <ele>189.60000610352</ele>
        <time>2015-02-07T18:11:18.000Z</time>
      </trkpt>
      <trkpt lat="43.69262" lon="1.18739">
        <ele>189.60000610352</ele>
        <time>2015-02-07T18:11:22.000Z</time>
      </trkpt>
      <trkpt lat="43.6926" lon="1.18741">
        <ele>189.39999389648</ele>
        <time>2015-02-07T18:11:23.000Z</time>
      </trkpt>
      <trkpt lat="43.69259" lon="1.18744">
        <ele>189.39999389648</ele>
        <time>2015-02-07T18:11:24.000Z</time>
      </trkpt>
      <trkpt lat="43.69258" lon="1.18751">
        <ele>189.39999389648</ele>
        <time>2015-02-07T18:11:26.000Z</time>
      </trkpt>
      <trkpt lat="43.69256" lon="1.18762">
        <ele>189.39999389648</ele>
        <time>2015-02-07T18:11:29.000Z</time>
      </trkpt>
      <trkpt lat="43.69255" lon="1.1877">
        <ele>189.39999389648</ele>
        <time>2015-02-07T18:11:31.000Z</time>
      </trkpt>
      <trkpt lat="43.69253" lon="1.18777">
        <ele>189.39999389648</ele>
        <time>2015-02-07T18:11:33.000Z</time>
      </trkpt>
      <trkpt lat="43.69253" lon="1.1878">
        <ele>189.19999694824</ele>
        <time>2015-02-07T18:11:34.000Z</time>
      </trkpt>
      <trkpt lat="43.69254" lon="1.18784">
        <ele>189.19999694824</ele>
        <time>2015-02-07T18:11:35.000Z</time>
      </trkpt>
      <trkpt lat="43.69255" lon="1.18804">
        <ele>189.19999694824</ele>
        <time>2015-02-07T18:11:40.000Z</time>
      </trkpt>
      <trkpt lat="43.69253" lon="1.18821">
        <ele>189</ele>
        <time>2015-02-07T18:11:44.000Z</time>
      </trkpt>
      <trkpt lat="43.69254" lon="1.18828">
        <ele>189</ele>
        <time>2015-02-07T18:11:46.000Z</time>
      </trkpt>
      <trkpt lat="43.69254" lon="1.18834">
        <ele>188.80000305176</ele>
        <time>2015-02-07T18:11:48.000Z</time>
      </trkpt>
      <trkpt lat="43.69258" lon="1.18856">
        <ele>188.60000610352</ele>
        <time>2015-02-07T18:11:54.000Z</time>
      </trkpt>
      <trkpt lat="43.69255" lon="1.18868">
        <ele>188.39999389648</ele>
        <time>2015-02-07T18:11:58.000Z</time>
      </trkpt>
      <trkpt lat="43.69251" lon="1.18886">
        <ele>188.19999694824</ele>
        <time>2015-02-07T18:12:03.000Z</time>
      </trkpt>
      <trkpt lat="43.6925" lon="1.18893">
        <ele>188.19999694824</ele>
        <time>2015-02-07T18:12:05.000Z</time>
      </trkpt>
      <trkpt lat="43.69247" lon="1.18899">
        <ele>188</ele>
        <time>2015-02-07T18:12:07.000Z</time>
      </trkpt>
      <trkpt lat="43.69243" lon="1.18915">
        <ele>187.80000305176</ele>
        <time>2015-02-07T18:12:11.000Z</time>
      </trkpt>
      <trkpt lat="43.69242" lon="1.18925">
        <ele>187.80000305176</ele>
        <time>2015-02-07T18:12:14.000Z</time>
      </trkpt>
      <trkpt lat="43.69236" lon="1.18939">
        <ele>187.60000610352</ele>
        <time>2015-02-07T18:12:18.000Z</time>
      </trkpt>
      <trkpt lat="43.69227" lon="1.18956">
        <ele>187.39999389648</ele>
        <time>2015-02-07T18:12:23.000Z</time>
      </trkpt>
      <trkpt lat="43.6922" lon="1.18969">
        <ele>187.19999694824</ele>
        <time>2015-02-07T18:12:27.000Z</time>
      </trkpt>
      <trkpt lat="43.69214" lon="1.18987">
        <ele>187</ele>
        <time>2015-02-07T18:12:32.000Z</time>
      </trkpt>
      <trkpt lat="43.69206" lon="1.19007">
        <ele>186.60000610352</ele>
        <time>2015-02-07T18:12:37.000Z</time>
      </trkpt>
      <trkpt lat="43.69204" lon="1.19013">
        <ele>186.39999389648</ele>
        <time>2015-02-07T18:12:39.000Z</time>
      </trkpt>
      <trkpt lat="43.69202" lon="1.19019">
        <ele>186.39999389648</ele>
        <time>2015-02-07T18:12:41.000Z</time>
      </trkpt>
      <trkpt lat="43.69197" lon="1.1903">
        <ele>186</ele>
        <time>2015-02-07T18:12:45.000Z</time>
      </trkpt>
      <trkpt lat="43.69189" lon="1.19054">
        <ele>185.60000610352</ele>
        <time>2015-02-07T18:12:51.000Z</time>
      </trkpt>
      <trkpt lat="43.69183" lon="1.19071">
        <ele>185.19999694824</ele>
        <time>2015-02-07T18:12:56.000Z</time>
      </trkpt>
      <trkpt lat="43.69181" lon="1.19091">
        <ele>184.80000305176</ele>
        <time>2015-02-07T18:13:02.000Z</time>
      </trkpt>
      <trkpt lat="43.69183" lon="1.19106">
        <ele>184.39999389648</ele>
        <time>2015-02-07T18:13:07.000Z</time>
      </trkpt>
      <trkpt lat="43.69185" lon="1.19113">
        <ele>184.19999694824</ele>
        <time>2015-02-07T18:13:11.000Z</time>
      </trkpt>
      <trkpt lat="43.69184" lon="1.19122">
        <ele>183.80000305176</ele>
        <time>2015-02-07T18:13:15.000Z</time>
      </trkpt>
      <trkpt lat="43.69186" lon="1.19131">
        <ele>183.60000610352</ele>
        <time>2015-02-07T18:13:19.000Z</time>
      </trkpt>
      <trkpt lat="43.69187" lon="1.19139">
        <ele>183.39999389648</ele>
        <time>2015-02-07T18:13:23.000Z</time>
      </trkpt>
      <trkpt lat="43.69187" lon="1.19151">
        <ele>183</ele>
        <time>2015-02-07T18:13:28.000Z</time>
      </trkpt>
      <trkpt lat="43.69189" lon="1.19161">
        <ele>182.80000305176</ele>
        <time>2015-02-07T18:13:32.000Z</time>
      </trkpt>
      <trkpt lat="43.69191" lon="1.19172">
        <ele>182.80000305176</ele>
        <time>2015-02-07T18:13:36.000Z</time>
      </trkpt>
      <trkpt lat="43.69197" lon="1.19181">
        <ele>182.60000610352</ele>
        <time>2015-02-07T18:13:40.000Z</time>
      </trkpt>
      <trkpt lat="43.692" lon="1.19184">
        <ele>182.39999389648</ele>
        <time>2015-02-07T18:13:42.000Z</time>
      </trkpt>
      <trkpt lat="43.69206" lon="1.19194">
        <ele>182.39999389648</ele>
        <time>2015-02-07T18:13:47.000Z</time>
      </trkpt>
      <trkpt lat="43.69204" lon="1.19207">
        <ele>182.19999694824</ele>
        <time>2015-02-07T18:13:51.000Z</time>
      </trkpt>
      <trkpt lat="43.69202" lon="1.19209">
        <ele>182.19999694824</ele>
        <time>2015-02-07T18:13:52.000Z</time>
      </trkpt>
      <trkpt lat="43.69199" lon="1.19218">
        <ele>182</ele>
        <time>2015-02-07T18:13:55.000Z</time>
      </trkpt>
      <trkpt lat="43.69198" lon="1.19234">
        <ele>181.80000305176</ele>
        <time>2015-02-07T18:14:00.000Z</time>
      </trkpt>
      <trkpt lat="43.69198" lon="1.19241">
        <ele>181.80000305176</ele>
        <time>2015-02-07T18:14:02.000Z</time>
      </trkpt>
      <trkpt lat="43.69202" lon="1.19245">
        <ele>181.60000610352</ele>
        <time>2015-02-07T18:14:04.000Z</time>
      </trkpt>
      <trkpt lat="43.69214" lon="1.19268">
        <ele>181.39999389648</ele>
        <time>2015-02-07T18:14:11.000Z</time>
      </trkpt>
      <trkpt lat="43.69215" lon="1.19276">
        <ele>181.39999389648</ele>
        <time>2015-02-07T18:14:14.000Z</time>
      </trkpt>
      <trkpt lat="43.69213" lon="1.19279">
        <ele>181.39999389648</ele>
        <time>2015-02-07T18:14:15.000Z</time>
      </trkpt>
      <trkpt lat="43.69211" lon="1.19292">
        <ele>181.19999694824</ele>
        <time>2015-02-07T18:14:19.000Z</time>
      </trkpt>
      <trkpt lat="43.69212" lon="1.19296">
        <ele>181.19999694824</ele>
        <time>2015-02-07T18:14:20.000Z</time>
      </trkpt>
      <trkpt lat="43.69209" lon="1.19312">
        <ele>181</ele>
        <time>2015-02-07T18:14:24.000Z</time>
      </trkpt>
      <trkpt lat="43.69208" lon="1.19337">
        <ele>181</ele>
        <time>2015-02-07T18:14:30.000Z</time>
      </trkpt>
      <trkpt lat="43.69207" lon="1.19359">
        <ele>181</ele>
        <time>2015-02-07T18:14:35.000Z</time>
      </trkpt>
      <trkpt lat="43.69202" lon="1.19379">
        <ele>181</ele>
        <time>2015-02-07T18:14:40.000Z</time>
      </trkpt>
      <trkpt lat="43.69202" lon="1.19399">
        <ele>181</ele>
        <time>2015-02-07T18:14:45.000Z</time>
      </trkpt>
      <trkpt lat="43.69208" lon="1.19426">
        <ele>181.19999694824</ele>
        <time>2015-02-07T18:14:52.000Z</time>
      </trkpt>
      <trkpt lat="43.6921" lon="1.19447">
        <ele>181.39999389648</ele>
        <time>2015-02-07T18:14:57.000Z</time>
      </trkpt>
      <trkpt lat="43.69209" lon="1.19473">
        <ele>181.80000305176</ele>
        <time>2015-02-07T18:15:03.000Z</time>
      </trkpt>
      <trkpt lat="43.69209" lon="1.19477">
        <ele>181.80000305176</ele>
        <time>2015-02-07T18:15:04.000Z</time>
      </trkpt>
      <trkpt lat="43.69209" lon="1.19502">
        <ele>181.80000305176</ele>
        <time>2015-02-07T18:15:10.000Z</time>
      </trkpt>
      <trkpt lat="43.69209" lon="1.19506">
        <ele>182</ele>
        <time>2015-02-07T18:15:11.000Z</time>
      </trkpt>
      <trkpt lat="43.69209" lon="1.19531">
        <ele>182.19999694824</ele>
        <time>2015-02-07T18:15:17.000Z</time>
      </trkpt>
      <trkpt lat="43.6921" lon="1.19557">
        <ele>182.60000610352</ele>
        <time>2015-02-07T18:15:23.000Z</time>
      </trkpt>
      <trkpt lat="43.6921" lon="1.19565">
        <ele>182.60000610352</ele>
        <time>2015-02-07T18:15:25.000Z</time>
      </trkpt>
      <trkpt lat="43.6921" lon="1.19591">
        <ele>183</ele>
        <time>2015-02-07T18:15:31.000Z</time>
      </trkpt>
      <trkpt lat="43.6921" lon="1.19599">
        <ele>183</ele>
        <time>2015-02-07T18:15:33.000Z</time>
      </trkpt>
      <trkpt lat="43.69211" lon="1.19625">
        <ele>183.39999389648</ele>
        <time>2015-02-07T18:15:39.000Z</time>
      </trkpt>
      <trkpt lat="43.69211" lon="1.19638">
        <ele>183.39999389648</ele>
        <time>2015-02-07T18:15:42.000Z</time>
      </trkpt>
      <trkpt lat="43.69211" lon="1.19663">
        <ele>183.60000610352</ele>
        <time>2015-02-07T18:15:48.000Z</time>
      </trkpt>
      <trkpt lat="43.69211" lon="1.19672">
        <ele>183.60000610352</ele>
        <time>2015-02-07T18:15:50.000Z</time>
      </trkpt>
      <trkpt lat="43.69211" lon="1.19696">
        <ele>183.80000305176</ele>
        <time>2015-02-07T18:15:56.000Z</time>
      </trkpt>
      <trkpt lat="43.69212" lon="1.19717">
        <ele>183.60000610352</ele>
        <time>2015-02-07T18:16:01.000Z</time>
      </trkpt>
      <trkpt lat="43.69217" lon="1.19745">
        <ele>183.60000610352</ele>
        <time>2015-02-07T18:16:08.000Z</time>
      </trkpt>
      <trkpt lat="43.69214" lon="1.19761">
        <ele>183.60000610352</ele>
        <time>2015-02-07T18:16:12.000Z</time>
      </trkpt>
      <trkpt lat="43.69206" lon="1.19787">
        <ele>183.60000610352</ele>
        <time>2015-02-07T18:16:19.000Z</time>
      </trkpt>
      <trkpt lat="43.69206" lon="1.19791">
        <ele>183.39999389648</ele>
        <time>2015-02-07T18:16:20.000Z</time>
      </trkpt>
      <trkpt lat="43.69206" lon="1.19816">
        <ele>183.39999389648</ele>
        <time>2015-02-07T18:16:26.000Z</time>
      </trkpt>
      <trkpt lat="43.69206" lon="1.1982">
        <ele>183.39999389648</ele>
        <time>2015-02-07T18:16:27.000Z</time>
      </trkpt>
      <trkpt lat="43.69205" lon="1.19841">
        <ele>183.39999389648</ele>
        <time>2015-02-07T18:16:32.000Z</time>
      </trkpt>
      <trkpt lat="43.69203" lon="1.19866">
        <ele>183.39999389648</ele>
        <time>2015-02-07T18:16:38.000Z</time>
      </trkpt>
      <trkpt lat="43.69201" lon="1.19875">
        <ele>183.39999389648</ele>
        <time>2015-02-07T18:16:40.000Z</time>
      </trkpt>
      <trkpt lat="43.69195" lon="1.19883">
        <ele>183.39999389648</ele>
        <time>2015-02-07T18:16:43.000Z</time>
      </trkpt>
      <trkpt lat="43.69192" lon="1.19884">
        <ele>183.39999389648</ele>
        <time>2015-02-07T18:16:44.000Z</time>
      </trkpt>
      <trkpt lat="43.69177" lon="1.19884">
        <ele>183.39999389648</ele>
        <time>2015-02-07T18:16:49.000Z</time>
      </trkpt>
      <trkpt lat="43.69159" lon="1.19883">
        <ele>183.39999389648</ele>
        <time>2015-02-07T18:16:55.000Z</time>
      </trkpt>
      <trkpt lat="43.69154" lon="1.19883">
        <ele>183.19999694824</ele>
        <time>2015-02-07T18:16:57.000Z</time>
      </trkpt>
      <trkpt lat="43.69137" lon="1.19882">
        <ele>183.19999694824</ele>
        <time>2015-02-07T18:17:03.000Z</time>
      </trkpt>
      <trkpt lat="43.6912" lon="1.19885">
        <ele>183</ele>
        <time>2015-02-07T18:17:09.000Z</time>
      </trkpt>
      <trkpt lat="43.69116" lon="1.19891">
        <ele>183</ele>
        <time>2015-02-07T18:17:11.000Z</time>
      </trkpt>
      <trkpt lat="43.69116" lon="1.19895">
        <ele>183</ele>
        <time>2015-02-07T18:17:12.000Z</time>
      </trkpt>
      <trkpt lat="43.69121" lon="1.19914">
        <ele>182.80000305176</ele>
        <time>2015-02-07T18:17:17.000Z</time>
      </trkpt>
      <trkpt lat="43.69125" lon="1.19935">
        <ele>182.60000610352</ele>
        <time>2015-02-07T18:17:22.000Z</time>
      </trkpt>
      <trkpt lat="43.69126" lon="1.19961">
        <ele>182.19999694824</ele>
        <time>2015-02-07T18:17:28.000Z</time>
      </trkpt>
      <trkpt lat="43.69125" lon="1.19982">
        <ele>181.80000305176</ele>
        <time>2015-02-07T18:17:33.000Z</time>
      </trkpt>
      <trkpt lat="43.69126" lon="1.20006">
        <ele>181.39999389648</ele>
        <time>2015-02-07T18:17:39.000Z</time>
      </trkpt>
      <trkpt lat="43.69125" lon="1.20031">
        <ele>181</ele>
        <time>2015-02-07T18:17:45.000Z</time>
      </trkpt>
      <trkpt lat="43.69125" lon="1.20035">
        <ele>181</ele>
        <time>2015-02-07T18:17:46.000Z</time>
      </trkpt>
      <trkpt lat="43.69126" lon="1.20062">
        <ele>180.39999389648</ele>
        <time>2015-02-07T18:17:53.000Z</time>
      </trkpt>
      <trkpt lat="43.69126" lon="1.20066">
        <ele>180.19999694824</ele>
        <time>2015-02-07T18:17:54.000Z</time>
      </trkpt>
      <trkpt lat="43.69125" lon="1.20091">
        <ele>179.80000305176</ele>
        <time>2015-02-07T18:18:00.000Z</time>
      </trkpt>
      <trkpt lat="43.69124" lon="1.20099">
        <ele>179.60000610352</ele>
        <time>2015-02-07T18:18:02.000Z</time>
      </trkpt>
      <trkpt lat="43.69124" lon="1.20125">
        <ele>179.19999694824</ele>
        <time>2015-02-07T18:18:08.000Z</time>
      </trkpt>
      <trkpt lat="43.69124" lon="1.20134">
        <ele>179</ele>
        <time>2015-02-07T18:18:10.000Z</time>
      </trkpt>
      <trkpt lat="43.69123" lon="1.20159">
        <ele>178.39999389648</ele>
        <time>2015-02-07T18:18:16.000Z</time>
      </trkpt>
      <trkpt lat="43.69123" lon="1.20164">
        <ele>178.19999694824</ele>
        <time>2015-02-07T18:18:17.000Z</time>
      </trkpt>
      <trkpt lat="43.69123" lon="1.2019">
        <ele>177.60000610352</ele>
        <time>2015-02-07T18:18:23.000Z</time>
      </trkpt>
      <trkpt lat="43.69123" lon="1.20195">
        <ele>177.39999389648</ele>
        <time>2015-02-07T18:18:24.000Z</time>
      </trkpt>
      <trkpt lat="43.69122" lon="1.20221">
        <ele>176.80000305176</ele>
        <time>2015-02-07T18:18:30.000Z</time>
      </trkpt>
      <trkpt lat="43.69122" lon="1.20226">
        <ele>176.80000305176</ele>
        <time>2015-02-07T18:18:31.000Z</time>
      </trkpt>
      <trkpt lat="43.69122" lon="1.20253">
        <ele>176</ele>
        <time>2015-02-07T18:18:37.000Z</time>
      </trkpt>
      <trkpt lat="43.69122" lon="1.20258">
        <ele>175.80000305176</ele>
        <time>2015-02-07T18:18:38.000Z</time>
      </trkpt>
      <trkpt lat="43.69121" lon="1.20283">
        <ele>175.19999694824</ele>
        <time>2015-02-07T18:18:44.000Z</time>
      </trkpt>
      <trkpt lat="43.6912" lon="1.20309">
        <ele>174.39999389648</ele>
        <time>2015-02-07T18:18:50.000Z</time>
      </trkpt>
      <trkpt lat="43.6912" lon="1.20314">
        <ele>174.39999389648</ele>
        <time>2015-02-07T18:18:51.000Z</time>
      </trkpt>
      <trkpt lat="43.69119" lon="1.20341">
        <ele>173.60000610352</ele>
        <time>2015-02-07T18:18:57.000Z</time>
      </trkpt>
      <trkpt lat="43.69119" lon="1.20345">
        <ele>173.60000610352</ele>
        <time>2015-02-07T18:18:58.000Z</time>
      </trkpt>
      <trkpt lat="43.69118" lon="1.20371">
        <ele>172.80000305176</ele>
        <time>2015-02-07T18:19:04.000Z</time>
      </trkpt>
      <trkpt lat="43.69117" lon="1.2038">
        <ele>172.60000610352</ele>
        <time>2015-02-07T18:19:06.000Z</time>
      </trkpt>
      <trkpt lat="43.69116" lon="1.20407">
        <ele>172</ele>
        <time>2015-02-07T18:19:12.000Z</time>
      </trkpt>
      <trkpt lat="43.69116" lon="1.20433">
        <ele>171.19999694824</ele>
        <time>2015-02-07T18:19:18.000Z</time>
      </trkpt>
      <trkpt lat="43.69116" lon="1.20445">
        <ele>171</ele>
        <time>2015-02-07T18:19:21.000Z</time>
      </trkpt>
      <trkpt lat="43.69124" lon="1.20455">
        <ele>170.39999389648</ele>
        <time>2015-02-07T18:19:25.000Z</time>
      </trkpt>
      <trkpt lat="43.69139" lon="1.20458">
        <ele>169.60000610352</ele>
        <time>2015-02-07T18:19:30.000Z</time>
      </trkpt>
      <trkpt lat="43.69145" lon="1.20471">
        <ele>169</ele>
        <time>2015-02-07T18:19:34.000Z</time>
      </trkpt>
      <trkpt lat="43.69145" lon="1.20482">
        <ele>168.60000610352</ele>
        <time>2015-02-07T18:19:37.000Z</time>
      </trkpt>
      <trkpt lat="43.69145" lon="1.20495">
        <ele>168.19999694824</ele>
        <time>2015-02-07T18:19:40.000Z</time>
      </trkpt>
      <trkpt lat="43.69141" lon="1.20518">
        <ele>167.39999389648</ele>
        <time>2015-02-07T18:19:46.000Z</time>
      </trkpt>
      <trkpt lat="43.6914" lon="1.20521">
        <ele>167.39999389648</ele>
        <time>2015-02-07T18:19:47.000Z</time>
      </trkpt>
      <trkpt lat="43.69138" lon="1.20533">
        <ele>167</ele>
        <time>2015-02-07T18:19:50.000Z</time>
      </trkpt>
      <trkpt lat="43.69134" lon="1.2055">
        <ele>166.39999389648</ele>
        <time>2015-02-07T18:19:54.000Z</time>
      </trkpt>
      <trkpt lat="43.6913" lon="1.20572">
        <ele>165.80000305176</ele>
        <time>2015-02-07T18:19:59.000Z</time>
      </trkpt>
      <trkpt lat="43.69135" lon="1.20588">
        <ele>165.19999694824</ele>
        <time>2015-02-07T18:20:03.000Z</time>
      </trkpt>
      <trkpt lat="43.69141" lon="1.20612">
        <ele>164.19999694824</ele>
        <time>2015-02-07T18:20:09.000Z</time>
      </trkpt>
      <trkpt lat="43.69136" lon="1.20633">
        <ele>163.60000610352</ele>
        <time>2015-02-07T18:20:14.000Z</time>
      </trkpt>
      <trkpt lat="43.69125" lon="1.20654">
        <ele>162.60000610352</ele>
        <time>2015-02-07T18:20:20.000Z</time>
      </trkpt>
      <trkpt lat="43.69126" lon="1.20655">
        <ele>162.39999389648</ele>
        <time>2015-02-07T18:20:21.000Z</time>
      </trkpt>
      <trkpt lat="43.69129" lon="1.20654">
        <ele>162.19999694824</ele>
        <time>2015-02-07T18:20:22.000Z</time>
      </trkpt>
      <trkpt lat="43.69136" lon="1.20646">
        <ele>161.60000610352</ele>
        <time>2015-02-07T18:20:25.000Z</time>
      </trkpt>
      <trkpt lat="43.69138" lon="1.20643">
        <ele>161.39999389648</ele>
        <time>2015-02-07T18:20:26.000Z</time>
      </trkpt>
      <trkpt lat="43.6915" lon="1.2063">
        <ele>160.39999389648</ele>
        <time>2015-02-07T18:20:31.000Z</time>
      </trkpt>
      <trkpt lat="43.69165" lon="1.20623">
        <ele>159.39999389648</ele>
        <time>2015-02-07T18:20:36.000Z</time>
      </trkpt>
      <trkpt lat="43.6917" lon="1.20621">
        <ele>159</ele>
        <time>2015-02-07T18:20:38.000Z</time>
      </trkpt>
      <trkpt lat="43.69174" lon="1.20624">
        <ele>158.60000610352</ele>
        <time>2015-02-07T18:20:40.000Z</time>
      </trkpt>
      <trkpt lat="43.69181" lon="1.2062">
        <ele>157.80000305176</ele>
        <time>2015-02-07T18:20:44.000Z</time>
      </trkpt>
      <trkpt lat="43.69186" lon="1.20617">
        <ele>157.39999389648</ele>
        <time>2015-02-07T18:20:47.000Z</time>
      </trkpt>
      <trkpt lat="43.69189" lon="1.20618">
        <ele>157.19999694824</ele>
        <time>2015-02-07T18:20:48.000Z</time>
      </trkpt>
      <trkpt lat="43.69198" lon="1.20617">
        <ele>156.39999389648</ele>
        <time>2015-02-07T18:20:52.000Z</time>
      </trkpt>
      <trkpt lat="43.6921" lon="1.20614">
        <ele>155.60000610352</ele>
        <time>2015-02-07T18:20:57.000Z</time>
      </trkpt>
      <trkpt lat="43.69217" lon="1.20607">
        <ele>155</ele>
        <time>2015-02-07T18:21:01.000Z</time>
      </trkpt>
      <trkpt lat="43.69219" lon="1.20606">
        <ele>154.80000305176</ele>
        <time>2015-02-07T18:21:02.000Z</time>
      </trkpt>
      <trkpt lat="43.69228" lon="1.20596">
        <ele>154</ele>
        <time>2015-02-07T18:21:07.000Z</time>
      </trkpt>
      <trkpt lat="43.69236" lon="1.20583">
        <ele>153.39999389648</ele>
        <time>2015-02-07T18:21:13.000Z</time>
      </trkpt>
      <trkpt lat="43.69243" lon="1.20576">
        <ele>152.80000305176</ele>
        <time>2015-02-07T18:21:17.000Z</time>
      </trkpt>
      <trkpt lat="43.69245" lon="1.20574">
        <ele>152.80000305176</ele>
        <time>2015-02-07T18:21:18.000Z</time>
      </trkpt>
      <trkpt lat="43.69252" lon="1.20567">
        <ele>152.39999389648</ele>
        <time>2015-02-07T18:21:23.000Z</time>
      </trkpt>
      <trkpt lat="43.69261" lon="1.20558">
        <ele>152</ele>
        <time>2015-02-07T18:21:28.000Z</time>
      </trkpt>
      <trkpt lat="43.69263" lon="1.20553">
        <ele>151.80000305176</ele>
        <time>2015-02-07T18:21:30.000Z</time>
      </trkpt>
      <trkpt lat="43.69265" lon="1.20545">
        <ele>151.60000610352</ele>
        <time>2015-02-07T18:21:33.000Z</time>
      </trkpt>
      <trkpt lat="43.69267" lon="1.2054">
        <ele>151.60000610352</ele>
        <time>2015-02-07T18:21:35.000Z</time>
      </trkpt>
      <trkpt lat="43.69272" lon="1.20535">
        <ele>151.39999389648</ele>
        <time>2015-02-07T18:21:38.000Z</time>
      </trkpt>
      <trkpt lat="43.69281" lon="1.20525">
        <ele>151.39999389648</ele>
        <time>2015-02-07T18:21:44.000Z</time>
      </trkpt>
      <trkpt lat="43.69286" lon="1.2051">
        <ele>151.19999694824</ele>
        <time>2015-02-07T18:21:49.000Z</time>
      </trkpt>
      <trkpt lat="43.69291" lon="1.20494">
        <ele>151.19999694824</ele>
        <time>2015-02-07T18:21:55.000Z</time>
      </trkpt>
      <trkpt lat="43.69294" lon="1.20478">
        <ele>151.39999389648</ele>
        <time>2015-02-07T18:22:00.000Z</time>
      </trkpt>
      <trkpt lat="43.69296" lon="1.20476">
        <ele>151.39999389648</ele>
        <time>2015-02-07T18:22:01.000Z</time>
      </trkpt>
      <trkpt lat="43.69302" lon="1.20472">
        <ele>151.60000610352</ele>
        <time>2015-02-07T18:22:04.000Z</time>
      </trkpt>
      <trkpt lat="43.69305" lon="1.20472">
        <ele>151.60000610352</ele>
        <time>2015-02-07T18:22:06.000Z</time>
      </trkpt>
      <trkpt lat="43.69307" lon="1.20473">
        <ele>151.80000305176</ele>
        <time>2015-02-07T18:22:07.000Z</time>
      </trkpt>
      <trkpt lat="43.69311" lon="1.20472">
        <ele>152</ele>
        <time>2015-02-07T18:22:09.000Z</time>
      </trkpt>
      <trkpt lat="43.69321" lon="1.20471">
        <ele>152.19999694824</ele>
        <time>2015-02-07T18:22:13.000Z</time>
      </trkpt>
      <trkpt lat="43.69332" lon="1.20463">
        <ele>152.80000305176</ele>
        <time>2015-02-07T18:22:18.000Z</time>
      </trkpt>
      <trkpt lat="43.69333" lon="1.20457">
        <ele>153</ele>
        <time>2015-02-07T18:22:20.000Z</time>
      </trkpt>
      <trkpt lat="43.69335" lon="1.20451">
        <ele>153.39999389648</ele>
        <time>2015-02-07T18:22:22.000Z</time>
      </trkpt>
      <trkpt lat="43.69336" lon="1.20431">
        <ele>154</ele>
        <time>2015-02-07T18:22:28.000Z</time>
      </trkpt>
      <trkpt lat="43.69341" lon="1.20407">
        <ele>155</ele>
        <time>2015-02-07T18:22:35.000Z</time>
      </trkpt>
      <trkpt lat="43.69342" lon="1.20396">
        <ele>155.39999389648</ele>
        <time>2015-02-07T18:22:39.000Z</time>
      </trkpt>
      <trkpt lat="43.69342" lon="1.20377">
        <ele>156.19999694824</ele>
        <time>2015-02-07T18:22:45.000Z</time>
      </trkpt>
      <trkpt lat="43.69343" lon="1.20359">
        <ele>156.80000305176</ele>
        <time>2015-02-07T18:22:50.000Z</time>
      </trkpt>
      <trkpt lat="43.69349" lon="1.20338">
        <ele>157.39999389648</ele>
        <time>2015-02-07T18:22:56.000Z</time>
      </trkpt>
      <trkpt lat="43.69353" lon="1.20321">
        <ele>158.19999694824</ele>
        <time>2015-02-07T18:23:01.000Z</time>
      </trkpt>
      <trkpt lat="43.69356" lon="1.20302">
        <ele>158.80000305176</ele>
        <time>2015-02-07T18:23:07.000Z</time>
      </trkpt>
      <trkpt lat="43.6936" lon="1.20289">
        <ele>159.19999694824</ele>
        <time>2015-02-07T18:23:11.000Z</time>
      </trkpt>
      <trkpt lat="43.69362" lon="1.20287">
        <ele>159.19999694824</ele>
        <time>2015-02-07T18:23:12.000Z</time>
      </trkpt>
      <trkpt lat="43.69374" lon="1.20286">
        <ele>159.60000610352</ele>
        <time>2015-02-07T18:23:17.000Z</time>
      </trkpt>
      <trkpt lat="43.69388" lon="1.20291">
        <ele>159.80000305176</ele>
        <time>2015-02-07T18:23:22.000Z</time>
      </trkpt>
      <trkpt lat="43.69403" lon="1.20299">
        <ele>160</ele>
        <time>2015-02-07T18:23:28.000Z</time>
      </trkpt>
      <trkpt lat="43.69416" lon="1.20303">
        <ele>160</ele>
        <time>2015-02-07T18:23:33.000Z</time>
      </trkpt>
      <trkpt lat="43.69428" lon="1.2031">
        <ele>160</ele>
        <time>2015-02-07T18:23:38.000Z</time>
      </trkpt>
      <trkpt lat="43.69443" lon="1.20319">
        <ele>160.19999694824</ele>
        <time>2015-02-07T18:23:44.000Z</time>
      </trkpt>
      <trkpt lat="43.69455" lon="1.20329">
        <ele>160.19999694824</ele>
        <time>2015-02-07T18:23:49.000Z</time>
      </trkpt>
      <trkpt lat="43.69457" lon="1.20338">
        <ele>160</ele>
        <time>2015-02-07T18:23:52.000Z</time>
      </trkpt>
      <trkpt lat="43.69457" lon="1.20346">
        <ele>160</ele>
        <time>2015-02-07T18:23:54.000Z</time>
      </trkpt>
      <trkpt lat="43.69458" lon="1.20353">
        <ele>160</ele>
        <time>2015-02-07T18:23:56.000Z</time>
      </trkpt>
      <trkpt lat="43.69458" lon="1.20367">
        <ele>160</ele>
        <time>2015-02-07T18:24:00.000Z</time>
      </trkpt>
      <trkpt lat="43.69457" lon="1.20386">
        <ele>160</ele>
        <time>2015-02-07T18:24:05.000Z</time>
      </trkpt>
      <trkpt lat="43.69455" lon="1.20403">
        <ele>160</ele>
        <time>2015-02-07T18:24:10.000Z</time>
      </trkpt>
      <trkpt lat="43.69461" lon="1.20416">
        <ele>159.80000305176</ele>
        <time>2015-02-07T18:24:14.000Z</time>
      </trkpt>
      <trkpt lat="43.69462" lon="1.20419">
        <ele>159.80000305176</ele>
        <time>2015-02-07T18:24:15.000Z</time>
      </trkpt>
      <trkpt lat="43.69467" lon="1.20429">
        <ele>159.80000305176</ele>
        <time>2015-02-07T18:24:18.000Z</time>
      </trkpt>
      <trkpt lat="43.69469" lon="1.20431">
        <ele>159.80000305176</ele>
        <time>2015-02-07T18:24:19.000Z</time>
      </trkpt>
      <trkpt lat="43.69469" lon="1.20434">
        <ele>159.80000305176</ele>
        <time>2015-02-07T18:24:20.000Z</time>
      </trkpt>
      <trkpt lat="43.69469" lon="1.20447">
        <ele>159.60000610352</ele>
        <time>2015-02-07T18:24:24.000Z</time>
      </trkpt>
      <trkpt lat="43.69471" lon="1.20461">
        <ele>159.39999389648</ele>
        <time>2015-02-07T18:24:28.000Z</time>
      </trkpt>
      <trkpt lat="43.69471" lon="1.20475">
        <ele>159.19999694824</ele>
        <time>2015-02-07T18:24:32.000Z</time>
      </trkpt>
      <trkpt lat="43.69464" lon="1.20482">
        <ele>159.19999694824</ele>
        <time>2015-02-07T18:24:35.000Z</time>
      </trkpt>
      <trkpt lat="43.69463" lon="1.20494">
        <ele>159.19999694824</ele>
        <time>2015-02-07T18:24:39.000Z</time>
      </trkpt>
      <trkpt lat="43.69464" lon="1.20507">
        <ele>159.19999694824</ele>
        <time>2015-02-07T18:24:43.000Z</time>
      </trkpt>
      <trkpt lat="43.69465" lon="1.20522">
        <ele>159.19999694824</ele>
        <time>2015-02-07T18:24:47.000Z</time>
      </trkpt>
      <trkpt lat="43.69466" lon="1.20525">
        <ele>159</ele>
        <time>2015-02-07T18:24:48.000Z</time>
      </trkpt>
      <trkpt lat="43.69467" lon="1.20532">
        <ele>159</ele>
        <time>2015-02-07T18:24:50.000Z</time>
      </trkpt>
      <trkpt lat="43.69467" lon="1.20535">
        <ele>159</ele>
        <time>2015-02-07T18:24:51.000Z</time>
      </trkpt>
      <trkpt lat="43.69472" lon="1.20545">
        <ele>159.19999694824</ele>
        <time>2015-02-07T18:24:55.000Z</time>
      </trkpt>
      <trkpt lat="43.69477" lon="1.20559">
        <ele>159.19999694824</ele>
        <time>2015-02-07T18:24:59.000Z</time>
      </trkpt>
      <trkpt lat="43.69479" lon="1.20566">
        <ele>159.19999694824</ele>
        <time>2015-02-07T18:25:01.000Z</time>
      </trkpt>
      <trkpt lat="43.69483" lon="1.20571">
        <ele>159.39999389648</ele>
        <time>2015-02-07T18:25:03.000Z</time>
      </trkpt>
      <trkpt lat="43.69486" lon="1.20584">
        <ele>159.39999389648</ele>
        <time>2015-02-07T18:25:07.000Z</time>
      </trkpt>
      <trkpt lat="43.69493" lon="1.20598">
        <ele>159.39999389648</ele>
        <time>2015-02-07T18:25:12.000Z</time>
      </trkpt>
      <trkpt lat="43.69503" lon="1.20602">
        <ele>159.39999389648</ele>
        <time>2015-02-07T18:25:16.000Z</time>
      </trkpt>
      <trkpt lat="43.69511" lon="1.20602">
        <ele>159.39999389648</ele>
        <time>2015-02-07T18:25:20.000Z</time>
      </trkpt>
      <trkpt lat="43.69526" lon="1.206">
        <ele>159.19999694824</ele>
        <time>2015-02-07T18:25:25.000Z</time>
      </trkpt>
      <trkpt lat="43.69534" lon="1.20603">
        <ele>159.19999694824</ele>
        <time>2015-02-07T18:25:28.000Z</time>
      </trkpt>
      <trkpt lat="43.69536" lon="1.20604">
        <ele>159.19999694824</ele>
        <time>2015-02-07T18:25:29.000Z</time>
      </trkpt>
      <trkpt lat="43.6955" lon="1.20607">
        <ele>159.19999694824</ele>
        <time>2015-02-07T18:25:34.000Z</time>
      </trkpt>
      <trkpt lat="43.69567" lon="1.20611">
        <ele>159</ele>
        <time>2015-02-07T18:25:40.000Z</time>
      </trkpt>
      <trkpt lat="43.69585" lon="1.20615">
        <ele>159</ele>
        <time>2015-02-07T18:25:47.000Z</time>
      </trkpt>
      <trkpt lat="43.69596" lon="1.20617">
        <ele>158.80000305176</ele>
        <time>2015-02-07T18:25:53.000Z</time>
      </trkpt>
      <trkpt lat="43.6961" lon="1.20615">
        <ele>158.80000305176</ele>
        <time>2015-02-07T18:25:59.000Z</time>
      </trkpt>
      <trkpt lat="43.6962" lon="1.20613">
        <ele>159</ele>
        <time>2015-02-07T18:26:03.000Z</time>
      </trkpt>
      <trkpt lat="43.69625" lon="1.20614">
        <ele>159</ele>
        <time>2015-02-07T18:26:05.000Z</time>
      </trkpt>
      <trkpt lat="43.69629" lon="1.20622">
        <ele>159.19999694824</ele>
        <time>2015-02-07T18:26:07.000Z</time>
      </trkpt>
      <trkpt lat="43.69631" lon="1.20629">
        <ele>159.19999694824</ele>
        <time>2015-02-07T18:26:09.000Z</time>
      </trkpt>
      <trkpt lat="43.69634" lon="1.2064">
        <ele>159.19999694824</ele>
        <time>2015-02-07T18:26:12.000Z</time>
      </trkpt>
      <trkpt lat="43.69639" lon="1.20666">
        <ele>159.60000610352</ele>
        <time>2015-02-07T18:26:19.000Z</time>
      </trkpt>
      <trkpt lat="43.6964" lon="1.20687">
        <ele>159.80000305176</ele>
        <time>2015-02-07T18:26:24.000Z</time>
      </trkpt>
      <trkpt lat="43.69638" lon="1.20716">
        <ele>160.19999694824</ele>
        <time>2015-02-07T18:26:31.000Z</time>
      </trkpt>
      <trkpt lat="43.69637" lon="1.2072">
        <ele>160.19999694824</ele>
        <time>2015-02-07T18:26:32.000Z</time>
      </trkpt>
      <trkpt lat="43.69634" lon="1.20747">
        <ele>160.60000610352</ele>
        <time>2015-02-07T18:26:39.000Z</time>
      </trkpt>
      <trkpt lat="43.69632" lon="1.2077">
        <ele>161</ele>
        <time>2015-02-07T18:26:45.000Z</time>
      </trkpt>
      <trkpt lat="43.69633" lon="1.20773">
        <ele>161</ele>
        <time>2015-02-07T18:26:46.000Z</time>
      </trkpt>
      <trkpt lat="43.69637" lon="1.20775">
        <ele>161.19999694824</ele>
        <time>2015-02-07T18:26:48.000Z</time>
      </trkpt>
      <trkpt lat="43.69645" lon="1.20778">
        <ele>161.19999694824</ele>
        <time>2015-02-07T18:26:51.000Z</time>
      </trkpt>
      <trkpt lat="43.69653" lon="1.2078">
        <ele>161.39999389648</ele>
        <time>2015-02-07T18:26:54.000Z</time>
      </trkpt>
      <trkpt lat="43.69673" lon="1.20784">
        <ele>161.19999694824</ele>
        <time>2015-02-07T18:27:01.000Z</time>
      </trkpt>
      <trkpt lat="43.69675" lon="1.20785">
        <ele>161.19999694824</ele>
        <time>2015-02-07T18:27:02.000Z</time>
      </trkpt>
      <trkpt lat="43.69691" lon="1.2079">
        <ele>160.80000305176</ele>
        <time>2015-02-07T18:27:08.000Z</time>
      </trkpt>
      <trkpt lat="43.69709" lon="1.20794">
        <ele>160.19999694824</ele>
        <time>2015-02-07T18:27:14.000Z</time>
      </trkpt>
      <trkpt lat="43.69715" lon="1.20798">
        <ele>160</ele>
        <time>2015-02-07T18:27:16.000Z</time>
      </trkpt>
      <trkpt lat="43.69723" lon="1.20804">
        <ele>159.80000305176</ele>
        <time>2015-02-07T18:27:19.000Z</time>
      </trkpt>
      <trkpt lat="43.69733" lon="1.20804">
        <ele>159.39999389648</ele>
        <time>2015-02-07T18:27:22.000Z</time>
      </trkpt>
      <trkpt lat="43.69736" lon="1.20804">
        <ele>159.39999389648</ele>
        <time>2015-02-07T18:27:23.000Z</time>
      </trkpt>
      <trkpt lat="43.69752" lon="1.20799">
        <ele>158.80000305176</ele>
        <time>2015-02-07T18:27:28.000Z</time>
      </trkpt>
      <trkpt lat="43.69756" lon="1.20793">
        <ele>158.60000610352</ele>
        <time>2015-02-07T18:27:30.000Z</time>
      </trkpt>
      <trkpt lat="43.69757" lon="1.20785">
        <ele>158.39999389648</ele>
        <time>2015-02-07T18:27:32.000Z</time>
      </trkpt>
      <trkpt lat="43.69763" lon="1.20759">
        <ele>157.80000305176</ele>
        <time>2015-02-07T18:27:38.000Z</time>
      </trkpt>
      <trkpt lat="43.69766" lon="1.20738">
        <ele>157.39999389648</ele>
        <time>2015-02-07T18:27:43.000Z</time>
      </trkpt>
      <trkpt lat="43.6977" lon="1.20721">
        <ele>157</ele>
        <time>2015-02-07T18:27:47.000Z</time>
      </trkpt>
      <trkpt lat="43.69777" lon="1.20698">
        <ele>156.39999389648</ele>
        <time>2015-02-07T18:27:52.000Z</time>
      </trkpt>
      <trkpt lat="43.69788" lon="1.20676">
        <ele>155.80000305176</ele>
        <time>2015-02-07T18:27:58.000Z</time>
      </trkpt>
      <trkpt lat="43.6979" lon="1.20675">
        <ele>155.80000305176</ele>
        <time>2015-02-07T18:27:59.000Z</time>
      </trkpt>
      <trkpt lat="43.69799" lon="1.20668">
        <ele>155.19999694824</ele>
        <time>2015-02-07T18:28:03.000Z</time>
      </trkpt>
      <trkpt lat="43.69801" lon="1.20656">
        <ele>155</ele>
        <time>2015-02-07T18:28:06.000Z</time>
      </trkpt>
      <trkpt lat="43.69802" lon="1.20646">
        <ele>154.60000610352</ele>
        <time>2015-02-07T18:28:08.000Z</time>
      </trkpt>
      <trkpt lat="43.69805" lon="1.20627">
        <ele>154.19999694824</ele>
        <time>2015-02-07T18:28:13.000Z</time>
      </trkpt>
      <trkpt lat="43.69808" lon="1.20619">
        <ele>153.80000305176</ele>
        <time>2015-02-07T18:28:15.000Z</time>
      </trkpt>
      <trkpt lat="43.69814" lon="1.20617">
        <ele>153.60000610352</ele>
        <time>2015-02-07T18:28:17.000Z</time>
      </trkpt>
      <trkpt lat="43.6983" lon="1.20614">
        <ele>153</ele>
        <time>2015-02-07T18:28:22.000Z</time>
      </trkpt>
      <trkpt lat="43.69847" lon="1.20599">
        <ele>152.19999694824</ele>
        <time>2015-02-07T18:28:28.000Z</time>
      </trkpt>
      <trkpt lat="43.69862" lon="1.206">
        <ele>151.60000610352</ele>
        <time>2015-02-07T18:28:32.000Z</time>
      </trkpt>
      <trkpt lat="43.69879" lon="1.20609">
        <ele>151</ele>
        <time>2015-02-07T18:28:37.000Z</time>
      </trkpt>
      <trkpt lat="43.69896" lon="1.20615">
        <ele>150.19999694824</ele>
        <time>2015-02-07T18:28:42.000Z</time>
      </trkpt>
      <trkpt lat="43.69915" lon="1.20622">
        <ele>149.19999694824</ele>
        <time>2015-02-07T18:28:48.000Z</time>
      </trkpt>
      <trkpt lat="43.69918" lon="1.20623">
        <ele>149.19999694824</ele>
        <time>2015-02-07T18:28:49.000Z</time>
      </trkpt>
      <trkpt lat="43.69924" lon="1.2062">
        <ele>148.80000305176</ele>
        <time>2015-02-07T18:28:51.000Z</time>
      </trkpt>
      <trkpt lat="43.69925" lon="1.20617">
        <ele>148.80000305176</ele>
        <time>2015-02-07T18:28:52.000Z</time>
      </trkpt>
      <trkpt lat="43.69922" lon="1.20607">
        <ele>148.39999389648</ele>
        <time>2015-02-07T18:28:55.000Z</time>
      </trkpt>
      <trkpt lat="43.69926" lon="1.2059">
        <ele>147.80000305176</ele>
        <time>2015-02-07T18:28:59.000Z</time>
      </trkpt>
      <trkpt lat="43.69927" lon="1.20585">
        <ele>147.60000610352</ele>
        <time>2015-02-07T18:29:00.000Z</time>
      </trkpt>
      <trkpt lat="43.69929" lon="1.20563">
        <ele>147</ele>
        <time>2015-02-07T18:29:05.000Z</time>
      </trkpt>
      <trkpt lat="43.69933" lon="1.20537">
        <ele>146.19999694824</ele>
        <time>2015-02-07T18:29:11.000Z</time>
      </trkpt>
      <trkpt lat="43.69939" lon="1.20517">
        <ele>145.60000610352</ele>
        <time>2015-02-07T18:29:16.000Z</time>
      </trkpt>
      <trkpt lat="43.69944" lon="1.2049">
        <ele>144.80000305176</ele>
        <time>2015-02-07T18:29:23.000Z</time>
      </trkpt>
      <trkpt lat="43.69948" lon="1.20466">
        <ele>144</ele>
        <time>2015-02-07T18:29:29.000Z</time>
      </trkpt>
      <trkpt lat="43.6995" lon="1.20447">
        <ele>143.60000610352</ele>
        <time>2015-02-07T18:29:34.000Z</time>
      </trkpt>
      <trkpt lat="43.69955" lon="1.20428">
        <ele>143</ele>
        <time>2015-02-07T18:29:39.000Z</time>
      </trkpt>
      <trkpt lat="43.6996" lon="1.20411">
        <ele>142.60000610352</ele>
        <time>2015-02-07T18:29:44.000Z</time>
      </trkpt>
      <trkpt lat="43.69963" lon="1.20388">
        <ele>142.19999694824</ele>
        <time>2015-02-07T18:29:50.000Z</time>
      </trkpt>
      <trkpt lat="43.69966" lon="1.20364">
        <ele>141.80000305176</ele>
        <time>2015-02-07T18:29:56.000Z</time>
      </trkpt>
      <trkpt lat="43.6997" lon="1.20346">
        <ele>141.39999389648</ele>
        <time>2015-02-07T18:30:01.000Z</time>
      </trkpt>
      <trkpt lat="43.69964" lon="1.20333">
        <ele>141.19999694824</ele>
        <time>2015-02-07T18:30:05.000Z</time>
      </trkpt>
      <trkpt lat="43.69948" lon="1.20319">
        <ele>140.60000610352</ele>
        <time>2015-02-07T18:30:12.000Z</time>
      </trkpt>
      <trkpt lat="43.69934" lon="1.20307">
        <ele>140.39999389648</ele>
        <time>2015-02-07T18:30:18.000Z</time>
      </trkpt>
      <trkpt lat="43.69918" lon="1.20295">
        <ele>140</ele>
        <time>2015-02-07T18:30:25.000Z</time>
      </trkpt>
      <trkpt lat="43.69915" lon="1.20281">
        <ele>139.80000305176</ele>
        <time>2015-02-07T18:30:30.000Z</time>
      </trkpt>
      <trkpt lat="43.6992" lon="1.20271">
        <ele>139.80000305176</ele>
        <time>2015-02-07T18:30:34.000Z</time>
      </trkpt>
      <trkpt lat="43.69923" lon="1.20263">
        <ele>139.60000610352</ele>
        <time>2015-02-07T18:30:37.000Z</time>
      </trkpt>
      <trkpt lat="43.69924" lon="1.20249">
        <ele>139.39999389648</ele>
        <time>2015-02-07T18:30:42.000Z</time>
      </trkpt>
      <trkpt lat="43.69918" lon="1.20244">
        <ele>139.39999389648</ele>
        <time>2015-02-07T18:30:46.000Z</time>
      </trkpt>
      <trkpt lat="43.69912" lon="1.20236">
        <ele>139.39999389648</ele>
        <time>2015-02-07T18:30:50.000Z</time>
      </trkpt>
      <trkpt lat="43.6991" lon="1.20232">
        <ele>139.39999389648</ele>
        <time>2015-02-07T18:30:52.000Z</time>
      </trkpt>
      <trkpt lat="43.69909" lon="1.20226">
        <ele>139.19999694824</ele>
        <time>2015-02-07T18:30:55.000Z</time>
      </trkpt>
      <trkpt lat="43.69907" lon="1.20219">
        <ele>139.19999694824</ele>
        <time>2015-02-07T18:30:58.000Z</time>
      </trkpt>
      <trkpt lat="43.69904" lon="1.20218">
        <ele>139.19999694824</ele>
        <time>2015-02-07T18:31:00.000Z</time>
      </trkpt>
      <trkpt lat="43.69901" lon="1.20219">
        <ele>139.39999389648</ele>
        <time>2015-02-07T18:31:02.000Z</time>
      </trkpt>
      <trkpt lat="43.69896" lon="1.2022">
        <ele>139.39999389648</ele>
        <time>2015-02-07T18:31:05.000Z</time>
      </trkpt>
      <trkpt lat="43.69889" lon="1.20217">
        <ele>139.80000305176</ele>
        <time>2015-02-07T18:31:10.000Z</time>
      </trkpt>
      <trkpt lat="43.69889" lon="1.20216">
        <ele>140</ele>
        <time>2015-02-07T18:31:11.000Z</time>
      </trkpt>
      <trkpt lat="43.69887" lon="1.20215">
        <ele>140.19999694824</ele>
        <time>2015-02-07T18:31:13.000Z</time>
      </trkpt>
      <trkpt lat="43.69886" lon="1.20214">
        <ele>140.19999694824</ele>
        <time>2015-02-07T18:31:14.000Z</time>
      </trkpt>
      <trkpt lat="43.6988" lon="1.20212">
        <ele>140.80000305176</ele>
        <time>2015-02-07T18:31:18.000Z</time>
      </trkpt>
      <trkpt lat="43.69877" lon="1.2021">
        <ele>141</ele>
        <time>2015-02-07T18:31:20.000Z</time>
      </trkpt>
      <trkpt lat="43.69869" lon="1.20207">
        <ele>142</ele>
        <time>2015-02-07T18:31:27.000Z</time>
      </trkpt>
      <trkpt lat="43.69861" lon="1.20204">
        <ele>142.80000305176</ele>
        <time>2015-02-07T18:31:34.000Z</time>
      </trkpt>
      <trkpt lat="43.6986" lon="1.20203">
        <ele>143</ele>
        <time>2015-02-07T18:31:35.000Z</time>
      </trkpt>
      <trkpt lat="43.69856" lon="1.202">
        <ele>143.60000610352</ele>
        <time>2015-02-07T18:31:39.000Z</time>
      </trkpt>
      <trkpt lat="43.69853" lon="1.20199">
        <ele>144</ele>
        <time>2015-02-07T18:31:41.000Z</time>
      </trkpt>
      <trkpt lat="43.69852" lon="1.20199">
        <ele>144</ele>
        <time>2015-02-07T18:31:42.000Z</time>
      </trkpt>
      <trkpt lat="43.69849" lon="1.20198">
        <ele>144.39999389648</ele>
        <time>2015-02-07T18:31:44.000Z</time>
      </trkpt>
      <trkpt lat="43.69841" lon="1.20195">
        <ele>145.39999389648</ele>
        <time>2015-02-07T18:31:49.000Z</time>
      </trkpt>
      <trkpt lat="43.69838" lon="1.20187">
        <ele>145.80000305176</ele>
        <time>2015-02-07T18:31:52.000Z</time>
      </trkpt>
      <trkpt lat="43.69837" lon="1.20185">
        <ele>146</ele>
        <time>2015-02-07T18:31:53.000Z</time>
      </trkpt>
      <trkpt lat="43.69836" lon="1.20181">
        <ele>146.39999389648</ele>
        <time>2015-02-07T18:31:55.000Z</time>
      </trkpt>
      <trkpt lat="43.69832" lon="1.20176">
        <ele>147.19999694824</ele>
        <time>2015-02-07T18:31:58.000Z</time>
      </trkpt>
      <trkpt lat="43.69826" lon="1.20171">
        <ele>148.19999694824</ele>
        <time>2015-02-07T18:32:02.000Z</time>
      </trkpt>
      <trkpt lat="43.69825" lon="1.20171">
        <ele>148.39999389648</ele>
        <time>2015-02-07T18:32:03.000Z</time>
      </trkpt>
      <trkpt lat="43.69817" lon="1.2017">
        <ele>150</ele>
        <time>2015-02-07T18:32:09.000Z</time>
      </trkpt>
      <trkpt lat="43.69813" lon="1.20169">
        <ele>151</ele>
        <time>2015-02-07T18:32:13.000Z</time>
      </trkpt>
      <trkpt lat="43.69809" lon="1.20166">
        <ele>152.19999694824</ele>
        <time>2015-02-07T18:32:17.000Z</time>
      </trkpt>
      <trkpt lat="43.69806" lon="1.20166">
        <ele>152.60000610352</ele>
        <time>2015-02-07T18:32:19.000Z</time>
      </trkpt>
      <trkpt lat="43.69798" lon="1.20164">
        <ele>153.80000305176</ele>
        <time>2015-02-07T18:32:23.000Z</time>
      </trkpt>
      <trkpt lat="43.69793" lon="1.20162">
        <ele>154.60000610352</ele>
        <time>2015-02-07T18:32:26.000Z</time>
      </trkpt>
      <trkpt lat="43.6979" lon="1.2016">
        <ele>155</ele>
        <time>2015-02-07T18:32:28.000Z</time>
      </trkpt>
      <trkpt lat="43.69789" lon="1.20152">
        <ele>155.80000305176</ele>
        <time>2015-02-07T18:32:31.000Z</time>
      </trkpt>
      <trkpt lat="43.69787" lon="1.20143">
        <ele>157.19999694824</ele>
        <time>2015-02-07T18:32:35.000Z</time>
      </trkpt>
      <trkpt lat="43.69778" lon="1.20138">
        <ele>158.80000305176</ele>
        <time>2015-02-07T18:32:41.000Z</time>
      </trkpt>
      <trkpt lat="43.69768" lon="1.20132">
        <ele>160.19999694824</ele>
        <time>2015-02-07T18:32:46.000Z</time>
      </trkpt>
      <trkpt lat="43.69757" lon="1.2013">
        <ele>161.60000610352</ele>
        <time>2015-02-07T18:32:51.000Z</time>
      </trkpt>
      <trkpt lat="43.69754" lon="1.20127">
        <ele>162.39999389648</ele>
        <time>2015-02-07T18:32:53.000Z</time>
      </trkpt>
      <trkpt lat="43.69755" lon="1.20121">
        <ele>162.80000305176</ele>
        <time>2015-02-07T18:32:55.000Z</time>
      </trkpt>
      <trkpt lat="43.69758" lon="1.20105">
        <ele>164.39999389648</ele>
        <time>2015-02-07T18:33:01.000Z</time>
      </trkpt>
      <trkpt lat="43.69763" lon="1.20091">
        <ele>165.60000610352</ele>
        <time>2015-02-07T18:33:06.000Z</time>
      </trkpt>
      <trkpt lat="43.69766" lon="1.20079">
        <ele>166.60000610352</ele>
        <time>2015-02-07T18:33:10.000Z</time>
      </trkpt>
      <trkpt lat="43.69767" lon="1.20075">
        <ele>166.80000305176</ele>
        <time>2015-02-07T18:33:11.000Z</time>
      </trkpt>
      <trkpt lat="43.69769" lon="1.20058">
        <ele>167.80000305176</ele>
        <time>2015-02-07T18:33:16.000Z</time>
      </trkpt>
      <trkpt lat="43.69773" lon="1.20033">
        <ele>169.19999694824</ele>
        <time>2015-02-07T18:33:23.000Z</time>
      </trkpt>
      <trkpt lat="43.69774" lon="1.2003">
        <ele>169.39999389648</ele>
        <time>2015-02-07T18:33:24.000Z</time>
      </trkpt>
      <trkpt lat="43.69777" lon="1.20009">
        <ele>170.60000610352</ele>
        <time>2015-02-07T18:33:30.000Z</time>
      </trkpt>
      <trkpt lat="43.6978" lon="1.19995">
        <ele>171.19999694824</ele>
        <time>2015-02-07T18:33:34.000Z</time>
      </trkpt>
      <trkpt lat="43.6979" lon="1.19994">
        <ele>172</ele>
        <time>2015-02-07T18:33:38.000Z</time>
      </trkpt>
      <trkpt lat="43.69803" lon="1.19997">
        <ele>172.80000305176</ele>
        <time>2015-02-07T18:33:43.000Z</time>
      </trkpt>
      <trkpt lat="43.69819" lon="1.19994">
        <ele>173.60000610352</ele>
        <time>2015-02-07T18:33:49.000Z</time>
      </trkpt>
      <trkpt lat="43.69834" lon="1.19995">
        <ele>174</ele>
        <time>2015-02-07T18:33:55.000Z</time>
      </trkpt>
      <trkpt lat="43.69849" lon="1.19997">
        <ele>174</ele>
        <time>2015-02-07T18:34:01.000Z</time>
      </trkpt>
      <trkpt lat="43.69864" lon="1.20005">
        <ele>173.80000305176</ele>
        <time>2015-02-07T18:34:06.000Z</time>
      </trkpt>
      <trkpt lat="43.69881" lon="1.20015">
        <ele>173.60000610352</ele>
        <time>2015-02-07T18:34:12.000Z</time>
      </trkpt>
      <trkpt lat="43.69884" lon="1.20017">
        <ele>173.39999389648</ele>
        <time>2015-02-07T18:34:13.000Z</time>
      </trkpt>
      <trkpt lat="43.699" lon="1.20023">
        <ele>173</ele>
        <time>2015-02-07T18:34:19.000Z</time>
      </trkpt>
      <trkpt lat="43.69904" lon="1.20026">
        <ele>172.80000305176</ele>
        <time>2015-02-07T18:34:21.000Z</time>
      </trkpt>
      <trkpt lat="43.69908" lon="1.20027">
        <ele>172.60000610352</ele>
        <time>2015-02-07T18:34:23.000Z</time>
      </trkpt>
      <trkpt lat="43.69917" lon="1.20028">
        <ele>172.39999389648</ele>
        <time>2015-02-07T18:34:26.000Z</time>
      </trkpt>
      <trkpt lat="43.69921" lon="1.20032">
        <ele>172.19999694824</ele>
        <time>2015-02-07T18:34:28.000Z</time>
      </trkpt>
      <trkpt lat="43.69937" lon="1.20044">
        <ele>171.60000610352</ele>
        <time>2015-02-07T18:34:34.000Z</time>
      </trkpt>
      <trkpt lat="43.69951" lon="1.20052">
        <ele>171.19999694824</ele>
        <time>2015-02-07T18:34:39.000Z</time>
      </trkpt>
      <trkpt lat="43.69968" lon="1.2006">
        <ele>170.39999389648</ele>
        <time>2015-02-07T18:34:45.000Z</time>
      </trkpt>
      <trkpt lat="43.69974" lon="1.20064">
        <ele>170</ele>
        <time>2015-02-07T18:34:48.000Z</time>
      </trkpt>
      <trkpt lat="43.69982" lon="1.20068">
        <ele>169.60000610352</ele>
        <time>2015-02-07T18:34:51.000Z</time>
      </trkpt>
      <trkpt lat="43.69986" lon="1.20064">
        <ele>169</ele>
        <time>2015-02-07T18:34:54.000Z</time>
      </trkpt>
      <trkpt lat="43.69989" lon="1.2005">
        <ele>168.39999389648</ele>
        <time>2015-02-07T18:34:58.000Z</time>
      </trkpt>
      <trkpt lat="43.69992" lon="1.20042">
        <ele>168.19999694824</ele>
        <time>2015-02-07T18:35:00.000Z</time>
      </trkpt>
      <trkpt lat="43.69994" lon="1.20026">
        <ele>167.60000610352</ele>
        <time>2015-02-07T18:35:04.000Z</time>
      </trkpt>
      <trkpt lat="43.69994" lon="1.20019">
        <ele>167.19999694824</ele>
        <time>2015-02-07T18:35:06.000Z</time>
      </trkpt>
      <trkpt lat="43.69997" lon="1.20009">
        <ele>166.60000610352</ele>
        <time>2015-02-07T18:35:09.000Z</time>
      </trkpt>
      <trkpt lat="43.70001" lon="1.19992">
        <ele>165.80000305176</ele>
        <time>2015-02-07T18:35:14.000Z</time>
      </trkpt>
      <trkpt lat="43.70005" lon="1.19977">
        <ele>165</ele>
        <time>2015-02-07T18:35:19.000Z</time>
      </trkpt>
      <trkpt lat="43.7001" lon="1.19956">
        <ele>164</ele>
        <time>2015-02-07T18:35:25.000Z</time>
      </trkpt>
      <trkpt lat="43.70016" lon="1.19933">
        <ele>162.80000305176</ele>
        <time>2015-02-07T18:35:32.000Z</time>
      </trkpt>
      <trkpt lat="43.7002" lon="1.19916">
        <ele>161.80000305176</ele>
        <time>2015-02-07T18:35:37.000Z</time>
      </trkpt>
      <trkpt lat="43.70023" lon="1.19898">
        <ele>161</ele>
        <time>2015-02-07T18:35:42.000Z</time>
      </trkpt>
      <trkpt lat="43.70027" lon="1.19881">
        <ele>160.19999694824</ele>
        <time>2015-02-07T18:35:47.000Z</time>
      </trkpt>
      <trkpt lat="43.7003" lon="1.19864">
        <ele>159.39999389648</ele>
        <time>2015-02-07T18:35:52.000Z</time>
      </trkpt>
      <trkpt lat="43.70034" lon="1.19844">
        <ele>158.60000610352</ele>
        <time>2015-02-07T18:35:58.000Z</time>
      </trkpt>
      <trkpt lat="43.70036" lon="1.19833">
        <ele>158.19999694824</ele>
        <time>2015-02-07T18:36:01.000Z</time>
      </trkpt>
      <trkpt lat="43.70037" lon="1.19823">
        <ele>157.80000305176</ele>
        <time>2015-02-07T18:36:04.000Z</time>
      </trkpt>
      <trkpt lat="43.70035" lon="1.19807">
        <ele>157</ele>
        <time>2015-02-07T18:36:09.000Z</time>
      </trkpt>
      <trkpt lat="43.70035" lon="1.19786">
        <ele>156.39999389648</ele>
        <time>2015-02-07T18:36:15.000Z</time>
      </trkpt>
      <trkpt lat="43.7004" lon="1.19764">
        <ele>155.60000610352</ele>
        <time>2015-02-07T18:36:22.000Z</time>
      </trkpt>
      <trkpt lat="43.70047" lon="1.19745">
        <ele>155</ele>
        <time>2015-02-07T18:36:28.000Z</time>
      </trkpt>
      <trkpt lat="43.70051" lon="1.19722">
        <ele>154.19999694824</ele>
        <time>2015-02-07T18:36:35.000Z</time>
      </trkpt>
      <trkpt lat="43.70053" lon="1.1971">
        <ele>153.60000610352</ele>
        <time>2015-02-07T18:36:39.000Z</time>
      </trkpt>
      <trkpt lat="43.70056" lon="1.1969">
        <ele>153</ele>
        <time>2015-02-07T18:36:45.000Z</time>
      </trkpt>
      <trkpt lat="43.70056" lon="1.19666">
        <ele>152.39999389648</ele>
        <time>2015-02-07T18:36:52.000Z</time>
      </trkpt>
      <trkpt lat="43.70056" lon="1.19643">
        <ele>151.80000305176</ele>
        <time>2015-02-07T18:36:59.000Z</time>
      </trkpt>
      <trkpt lat="43.70056" lon="1.19624">
        <ele>151.19999694824</ele>
        <time>2015-02-07T18:37:05.000Z</time>
      </trkpt>
      <trkpt lat="43.70057" lon="1.19605">
        <ele>150.80000305176</ele>
        <time>2015-02-07T18:37:11.000Z</time>
      </trkpt>
      <trkpt lat="43.70059" lon="1.19587">
        <ele>150.60000610352</ele>
        <time>2015-02-07T18:37:17.000Z</time>
      </trkpt>
      <trkpt lat="43.70062" lon="1.1956">
        <ele>150.19999694824</ele>
        <time>2015-02-07T18:37:25.000Z</time>
      </trkpt>
      <trkpt lat="43.70064" lon="1.19543">
        <ele>150</ele>
        <time>2015-02-07T18:37:30.000Z</time>
      </trkpt>
      <trkpt lat="43.70066" lon="1.19525">
        <ele>150</ele>
        <time>2015-02-07T18:37:36.000Z</time>
      </trkpt>
      <trkpt lat="43.70069" lon="1.19505">
        <ele>149.80000305176</ele>
        <time>2015-02-07T18:37:42.000Z</time>
      </trkpt>
      <trkpt lat="43.70075" lon="1.19487">
        <ele>149.80000305176</ele>
        <time>2015-02-07T18:37:48.000Z</time>
      </trkpt>
      <trkpt lat="43.7008" lon="1.19471">
        <ele>149.60000610352</ele>
        <time>2015-02-07T18:37:53.000Z</time>
      </trkpt>
      <trkpt lat="43.70087" lon="1.19448">
        <ele>149.60000610352</ele>
        <time>2015-02-07T18:38:00.000Z</time>
      </trkpt>
      <trkpt lat="43.70093" lon="1.19428">
        <ele>149.39999389648</ele>
        <time>2015-02-07T18:38:06.000Z</time>
      </trkpt>
      <trkpt lat="43.701" lon="1.19407">
        <ele>149.39999389648</ele>
        <time>2015-02-07T18:38:12.000Z</time>
      </trkpt>
      <trkpt lat="43.70107" lon="1.19383">
        <ele>149.19999694824</ele>
        <time>2015-02-07T18:38:19.000Z</time>
      </trkpt>
      <trkpt lat="43.70112" lon="1.19361">
        <ele>149</ele>
        <time>2015-02-07T18:38:25.000Z</time>
      </trkpt>
      <trkpt lat="43.70119" lon="1.19339">
        <ele>149</ele>
        <time>2015-02-07T18:38:31.000Z</time>
      </trkpt>
      <trkpt lat="43.70128" lon="1.19314">
        <ele>149</ele>
        <time>2015-02-07T18:38:38.000Z</time>
      </trkpt>
      <trkpt lat="43.70137" lon="1.19288">
        <ele>149</ele>
        <time>2015-02-07T18:38:45.000Z</time>
      </trkpt>
      <trkpt lat="43.70139" lon="1.19285">
        <ele>148.80000305176</ele>
        <time>2015-02-07T18:38:46.000Z</time>
      </trkpt>
      <trkpt lat="43.70146" lon="1.19262">
        <ele>148.80000305176</ele>
        <time>2015-02-07T18:38:52.000Z</time>
      </trkpt>
      <trkpt lat="43.70154" lon="1.19236">
        <ele>148.80000305176</ele>
        <time>2015-02-07T18:38:59.000Z</time>
      </trkpt>
      <trkpt lat="43.70161" lon="1.19211">
        <ele>148.60000610352</ele>
        <time>2015-02-07T18:39:05.000Z</time>
      </trkpt>
      <trkpt lat="43.70162" lon="1.19207">
        <ele>148.60000610352</ele>
        <time>2015-02-07T18:39:06.000Z</time>
      </trkpt>
      <trkpt lat="43.70162" lon="1.19203">
        <ele>148.60000610352</ele>
        <time>2015-02-07T18:39:07.000Z</time>
      </trkpt>
      <trkpt lat="43.70159" lon="1.19197">
        <ele>148.60000610352</ele>
        <time>2015-02-07T18:39:09.000Z</time>
      </trkpt>
      <trkpt lat="43.70148" lon="1.19186">
        <ele>148.60000610352</ele>
        <time>2015-02-07T18:39:14.000Z</time>
      </trkpt>
      <trkpt lat="43.70132" lon="1.19173">
        <ele>148.39999389648</ele>
        <time>2015-02-07T18:39:21.000Z</time>
      </trkpt>
      <trkpt lat="43.7013" lon="1.19171">
        <ele>148.39999389648</ele>
        <time>2015-02-07T18:39:22.000Z</time>
      </trkpt>
      <trkpt lat="43.70119" lon="1.19163">
        <ele>148.60000610352</ele>
        <time>2015-02-07T18:39:27.000Z</time>
      </trkpt>
      <trkpt lat="43.70105" lon="1.19154">
        <ele>148.80000305176</ele>
        <time>2015-02-07T18:39:33.000Z</time>
      </trkpt>
      <trkpt lat="43.70091" lon="1.19147">
        <ele>149.39999389648</ele>
        <time>2015-02-07T18:39:39.000Z</time>
      </trkpt>
      <trkpt lat="43.7008" lon="1.19141">
        <ele>149.80000305176</ele>
        <time>2015-02-07T18:39:44.000Z</time>
      </trkpt>
      <trkpt lat="43.70076" lon="1.19136">
        <ele>150</ele>
        <time>2015-02-07T18:39:46.000Z</time>
      </trkpt>
      <trkpt lat="43.70076" lon="1.1913">
        <ele>150.19999694824</ele>
        <time>2015-02-07T18:39:48.000Z</time>
      </trkpt>
      <trkpt lat="43.70073" lon="1.19121">
        <ele>150.80000305176</ele>
        <time>2015-02-07T18:39:53.000Z</time>
      </trkpt>
      <trkpt lat="43.70067" lon="1.19123">
        <ele>151.19999694824</ele>
        <time>2015-02-07T18:39:57.000Z</time>
      </trkpt>
      <trkpt lat="43.70061" lon="1.1913">
        <ele>151.60000610352</ele>
        <time>2015-02-07T18:40:01.000Z</time>
      </trkpt>
      <trkpt lat="43.70054" lon="1.19137">
        <ele>152</ele>
        <time>2015-02-07T18:40:05.000Z</time>
      </trkpt>
      <trkpt lat="43.70051" lon="1.1914">
        <ele>152.19999694824</ele>
        <time>2015-02-07T18:40:07.000Z</time>
      </trkpt>
      <trkpt lat="43.70045" lon="1.19142">
        <ele>152.60000610352</ele>
        <time>2015-02-07T18:40:10.000Z</time>
      </trkpt>
      <trkpt lat="43.70035" lon="1.19142">
        <ele>153.39999389648</ele>
        <time>2015-02-07T18:40:15.000Z</time>
      </trkpt>
      <trkpt lat="43.70027" lon="1.19135">
        <ele>154.19999694824</ele>
        <time>2015-02-07T18:40:20.000Z</time>
      </trkpt>
      <trkpt lat="43.70022" lon="1.19129">
        <ele>155</ele>
        <time>2015-02-07T18:40:24.000Z</time>
      </trkpt>
      <trkpt lat="43.70018" lon="1.19119">
        <ele>156</ele>
        <time>2015-02-07T18:40:29.000Z</time>
      </trkpt>
      <trkpt lat="43.70012" lon="1.19105">
        <ele>157.19999694824</ele>
        <time>2015-02-07T18:40:35.000Z</time>
      </trkpt>
      <trkpt lat="43.70004" lon="1.19093">
        <ele>158.19999694824</ele>
        <time>2015-02-07T18:40:41.000Z</time>
      </trkpt>
      <trkpt lat="43.7" lon="1.19086">
        <ele>158.80000305176</ele>
        <time>2015-02-07T18:40:44.000Z</time>
      </trkpt>
      <trkpt lat="43.69996" lon="1.1908">
        <ele>159.39999389648</ele>
        <time>2015-02-07T18:40:47.000Z</time>
      </trkpt>
      <trkpt lat="43.6999" lon="1.19071">
        <ele>160.19999694824</ele>
        <time>2015-02-07T18:40:52.000Z</time>
      </trkpt>
      <trkpt lat="43.69979" lon="1.1906">
        <ele>161.60000610352</ele>
        <time>2015-02-07T18:40:59.000Z</time>
      </trkpt>
      <trkpt lat="43.69973" lon="1.19053">
        <ele>162.60000610352</ele>
        <time>2015-02-07T18:41:03.000Z</time>
      </trkpt>
      <trkpt lat="43.69973" lon="1.1905">
        <ele>162.80000305176</ele>
        <time>2015-02-07T18:41:04.000Z</time>
      </trkpt>
      <trkpt lat="43.69976" lon="1.19039">
        <ele>163.80000305176</ele>
        <time>2015-02-07T18:41:08.000Z</time>
      </trkpt>
      <trkpt lat="43.69979" lon="1.19034">
        <ele>164.19999694824</ele>
        <time>2015-02-07T18:41:10.000Z</time>
      </trkpt>
      <trkpt lat="43.69984" lon="1.19025">
        <ele>164.80000305176</ele>
        <time>2015-02-07T18:41:13.000Z</time>
      </trkpt>
      <trkpt lat="43.69984" lon="1.19022">
        <ele>165</ele>
        <time>2015-02-07T18:41:14.000Z</time>
      </trkpt>
      <trkpt lat="43.69982" lon="1.19013">
        <ele>165.39999389648</ele>
        <time>2015-02-07T18:41:17.000Z</time>
      </trkpt>
      <trkpt lat="43.69983" lon="1.18999">
        <ele>166.19999694824</ele>
        <time>2015-02-07T18:41:21.000Z</time>
      </trkpt>
      <trkpt lat="43.69989" lon="1.18983">
        <ele>166.80000305176</ele>
        <time>2015-02-07T18:41:26.000Z</time>
      </trkpt>
      <trkpt lat="43.69994" lon="1.18968">
        <ele>167.39999389648</ele>
        <time>2015-02-07T18:41:31.000Z</time>
      </trkpt>
      <trkpt lat="43.69997" lon="1.18954">
        <ele>167.80000305176</ele>
        <time>2015-02-07T18:41:35.000Z</time>
      </trkpt>
      <trkpt lat="43.69998" lon="1.18947">
        <ele>168</ele>
        <time>2015-02-07T18:41:37.000Z</time>
      </trkpt>
      <trkpt lat="43.69998" lon="1.1893">
        <ele>168.19999694824</ele>
        <time>2015-02-07T18:41:42.000Z</time>
      </trkpt>
      <trkpt lat="43.70001" lon="1.18922">
        <ele>168.19999694824</ele>
        <time>2015-02-07T18:41:45.000Z</time>
      </trkpt>
      <trkpt lat="43.70002" lon="1.18905">
        <ele>168.19999694824</ele>
        <time>2015-02-07T18:41:50.000Z</time>
      </trkpt>
      <trkpt lat="43.70003" lon="1.18897">
        <ele>168.19999694824</ele>
        <time>2015-02-07T18:41:52.000Z</time>
      </trkpt>
      <trkpt lat="43.70006" lon="1.18892">
        <ele>168.19999694824</ele>
        <time>2015-02-07T18:41:54.000Z</time>
      </trkpt>
      <trkpt lat="43.70007" lon="1.18883">
        <ele>168.19999694824</ele>
        <time>2015-02-07T18:41:57.000Z</time>
      </trkpt>
      <trkpt lat="43.70001" lon="1.18877">
        <ele>168.19999694824</ele>
        <time>2015-02-07T18:42:01.000Z</time>
      </trkpt>
      <trkpt lat="43.69999" lon="1.18876">
        <ele>168.19999694824</ele>
        <time>2015-02-07T18:42:02.000Z</time>
      </trkpt>
      <trkpt lat="43.69987" lon="1.18879">
        <ele>168.19999694824</ele>
        <time>2015-02-07T18:42:07.000Z</time>
      </trkpt>
      <trkpt lat="43.69976" lon="1.18881">
        <ele>168.19999694824</ele>
        <time>2015-02-07T18:42:12.000Z</time>
      </trkpt>
      <trkpt lat="43.69972" lon="1.18882">
        <ele>168.19999694824</ele>
        <time>2015-02-07T18:42:14.000Z</time>
      </trkpt>
      <trkpt lat="43.69964" lon="1.18885">
        <ele>168.19999694824</ele>
        <time>2015-02-07T18:42:17.000Z</time>
      </trkpt>
      <trkpt lat="43.69952" lon="1.18884">
        <ele>168.19999694824</ele>
        <time>2015-02-07T18:42:22.000Z</time>
      </trkpt>
      <trkpt lat="43.69939" lon="1.18884">
        <ele>168</ele>
        <time>2015-02-07T18:42:28.000Z</time>
      </trkpt>
      <trkpt lat="43.69925" lon="1.18884">
        <ele>168</ele>
        <time>2015-02-07T18:42:34.000Z</time>
      </trkpt>
      <trkpt lat="43.69914" lon="1.18883">
        <ele>168</ele>
        <time>2015-02-07T18:42:39.000Z</time>
      </trkpt>
      <trkpt lat="43.69897" lon="1.18882">
        <ele>168.19999694824</ele>
        <time>2015-02-07T18:42:46.000Z</time>
      </trkpt>
      <trkpt lat="43.69885" lon="1.18887">
        <ele>168.39999389648</ele>
        <time>2015-02-07T18:42:51.000Z</time>
      </trkpt>
      <trkpt lat="43.69867" lon="1.1889">
        <ele>169</ele>
        <time>2015-02-07T18:42:58.000Z</time>
      </trkpt>
      <trkpt lat="43.69855" lon="1.18889">
        <ele>169.39999389648</ele>
        <time>2015-02-07T18:43:03.000Z</time>
      </trkpt>
      <trkpt lat="43.69847" lon="1.18877">
        <ele>170</ele>
        <time>2015-02-07T18:43:08.000Z</time>
      </trkpt>
      <trkpt lat="43.6984" lon="1.18856">
        <ele>170.60000610352</ele>
        <time>2015-02-07T18:43:15.000Z</time>
      </trkpt>
      <trkpt lat="43.69834" lon="1.18843">
        <ele>171.19999694824</ele>
        <time>2015-02-07T18:43:20.000Z</time>
      </trkpt>
      <trkpt lat="43.69829" lon="1.18834">
        <ele>171.39999389648</ele>
        <time>2015-02-07T18:43:24.000Z</time>
      </trkpt>
      <trkpt lat="43.69821" lon="1.18819">
        <ele>171.80000305176</ele>
        <time>2015-02-07T18:43:30.000Z</time>
      </trkpt>
      <trkpt lat="43.69814" lon="1.18806">
        <ele>172.39999389648</ele>
        <time>2015-02-07T18:43:35.000Z</time>
      </trkpt>
      <trkpt lat="43.69805" lon="1.18791">
        <ele>173</ele>
        <time>2015-02-07T18:43:41.000Z</time>
      </trkpt>
      <trkpt lat="43.69798" lon="1.18776">
        <ele>173.39999389648</ele>
        <time>2015-02-07T18:43:47.000Z</time>
      </trkpt>
      <trkpt lat="43.69791" lon="1.18766">
        <ele>173.80000305176</ele>
        <time>2015-02-07T18:43:52.000Z</time>
      </trkpt>
      <trkpt lat="43.69778" lon="1.18747">
        <ele>174.60000610352</ele>
        <time>2015-02-07T18:44:00.000Z</time>
      </trkpt>
      <trkpt lat="43.69765" lon="1.1873">
        <ele>175.80000305176</ele>
        <time>2015-02-07T18:44:07.000Z</time>
      </trkpt>
      <trkpt lat="43.6976" lon="1.18712">
        <ele>176.60000610352</ele>
        <time>2015-02-07T18:44:13.000Z</time>
      </trkpt>
      <trkpt lat="43.69755" lon="1.18696">
        <ele>177</ele>
        <time>2015-02-07T18:44:18.000Z</time>
      </trkpt>
      <trkpt lat="43.69748" lon="1.18681">
        <ele>177.60000610352</ele>
        <time>2015-02-07T18:44:23.000Z</time>
      </trkpt>
      <trkpt lat="43.69742" lon="1.18664">
        <ele>178</ele>
        <time>2015-02-07T18:44:28.000Z</time>
      </trkpt>
      <trkpt lat="43.69746" lon="1.18646">
        <ele>178.39999389648</ele>
        <time>2015-02-07T18:44:33.000Z</time>
      </trkpt>
      <trkpt lat="43.69755" lon="1.18621">
        <ele>179</ele>
        <time>2015-02-07T18:44:40.000Z</time>
      </trkpt>
      <trkpt lat="43.69764" lon="1.18597">
        <ele>179.39999389648</ele>
        <time>2015-02-07T18:44:47.000Z</time>
      </trkpt>
      <trkpt lat="43.69765" lon="1.18597">
        <ele>179.39999389648</ele>
        <time>2015-02-07T18:44:48.000Z</time>
      </trkpt>
      <trkpt lat="43.69771" lon="1.18586">
        <ele>179.39999389648</ele>
        <time>2015-02-07T18:44:52.000Z</time>
      </trkpt>
      <trkpt lat="43.69779" lon="1.18562">
        <ele>179.60000610352</ele>
        <time>2015-02-07T18:44:58.000Z</time>
      </trkpt>
      <trkpt lat="43.69785" lon="1.18542">
        <ele>179.39999389648</ele>
        <time>2015-02-07T18:45:03.000Z</time>
      </trkpt>
      <trkpt lat="43.69793" lon="1.18521">
        <ele>179.39999389648</ele>
        <time>2015-02-07T18:45:09.000Z</time>
      </trkpt>
      <trkpt lat="43.69798" lon="1.18504">
        <ele>179.39999389648</ele>
        <time>2015-02-07T18:45:13.000Z</time>
      </trkpt>
      <trkpt lat="43.69805" lon="1.18481">
        <ele>179.39999389648</ele>
        <time>2015-02-07T18:45:19.000Z</time>
      </trkpt>
      <trkpt lat="43.69807" lon="1.18476">
        <ele>179.39999389648</ele>
        <time>2015-02-07T18:45:20.000Z</time>
      </trkpt>
      <trkpt lat="43.6981" lon="1.18456">
        <ele>179.39999389648</ele>
        <time>2015-02-07T18:45:25.000Z</time>
      </trkpt>
      <trkpt lat="43.6981" lon="1.18439">
        <ele>179.39999389648</ele>
        <time>2015-02-07T18:45:29.000Z</time>
      </trkpt>
      <trkpt lat="43.69819" lon="1.18424">
        <ele>179.39999389648</ele>
        <time>2015-02-07T18:45:34.000Z</time>
      </trkpt>
      <trkpt lat="43.69833" lon="1.18408">
        <ele>179.19999694824</ele>
        <time>2015-02-07T18:45:40.000Z</time>
      </trkpt>
      <trkpt lat="43.69842" lon="1.18404">
        <ele>179.19999694824</ele>
        <time>2015-02-07T18:45:43.000Z</time>
      </trkpt>
      <trkpt lat="43.69845" lon="1.18404">
        <ele>179.19999694824</ele>
        <time>2015-02-07T18:45:44.000Z</time>
      </trkpt>
      <trkpt lat="43.69856" lon="1.18407">
        <ele>179.19999694824</ele>
        <time>2015-02-07T18:45:48.000Z</time>
      </trkpt>
      <trkpt lat="43.69858" lon="1.18405">
        <ele>179.19999694824</ele>
        <time>2015-02-07T18:45:49.000Z</time>
      </trkpt>
      <trkpt lat="43.69862" lon="1.18389">
        <ele>179.19999694824</ele>
        <time>2015-02-07T18:45:53.000Z</time>
      </trkpt>
      <trkpt lat="43.69864" lon="1.18381">
        <ele>179.19999694824</ele>
        <time>2015-02-07T18:45:55.000Z</time>
      </trkpt>
      <trkpt lat="43.69869" lon="1.18372">
        <ele>179.19999694824</ele>
        <time>2015-02-07T18:45:58.000Z</time>
      </trkpt>
      <trkpt lat="43.69874" lon="1.18355">
        <ele>179.39999389648</ele>
        <time>2015-02-07T18:46:03.000Z</time>
      </trkpt>
      <trkpt lat="43.69876" lon="1.18335">
        <ele>179.39999389648</ele>
        <time>2015-02-07T18:46:08.000Z</time>
      </trkpt>
      <trkpt lat="43.69878" lon="1.1832">
        <ele>179.60000610352</ele>
        <time>2015-02-07T18:46:12.000Z</time>
      </trkpt>
      <trkpt lat="43.69881" lon="1.18319">
        <ele>179.60000610352</ele>
        <time>2015-02-07T18:46:13.000Z</time>
      </trkpt>
      <trkpt lat="43.69887" lon="1.18319">
        <ele>179.60000610352</ele>
        <time>2015-02-07T18:46:15.000Z</time>
      </trkpt>
      <trkpt lat="43.69892" lon="1.18323">
        <ele>179.80000305176</ele>
        <time>2015-02-07T18:46:17.000Z</time>
      </trkpt>
      <trkpt lat="43.69901" lon="1.18329">
        <ele>179.80000305176</ele>
        <time>2015-02-07T18:46:20.000Z</time>
      </trkpt>
      <trkpt lat="43.69914" lon="1.18337">
        <ele>180</ele>
        <time>2015-02-07T18:46:25.000Z</time>
      </trkpt>
      <trkpt lat="43.69931" lon="1.18339">
        <ele>180.19999694824</ele>
        <time>2015-02-07T18:46:31.000Z</time>
      </trkpt>
      <trkpt lat="43.69947" lon="1.1833">
        <ele>180.39999389648</ele>
        <time>2015-02-07T18:46:37.000Z</time>
      </trkpt>
      <trkpt lat="43.69962" lon="1.18321">
        <ele>180.39999389648</ele>
        <time>2015-02-07T18:46:43.000Z</time>
      </trkpt>
      <trkpt lat="43.69973" lon="1.18299">
        <ele>180.60000610352</ele>
        <time>2015-02-07T18:46:50.000Z</time>
      </trkpt>
      <trkpt lat="43.69984" lon="1.18279">
        <ele>180.80000305176</ele>
        <time>2015-02-07T18:46:56.000Z</time>
      </trkpt>
      <trkpt lat="43.69995" lon="1.18258">
        <ele>181</ele>
        <time>2015-02-07T18:47:02.000Z</time>
      </trkpt>
      <trkpt lat="43.70005" lon="1.18234">
        <ele>181.19999694824</ele>
        <time>2015-02-07T18:47:08.000Z</time>
      </trkpt>
      <trkpt lat="43.70015" lon="1.1821">
        <ele>181.39999389648</ele>
        <time>2015-02-07T18:47:14.000Z</time>
      </trkpt>
      <trkpt lat="43.70016" lon="1.18206">
        <ele>181.39999389648</ele>
        <time>2015-02-07T18:47:15.000Z</time>
      </trkpt>
      <trkpt lat="43.70023" lon="1.18179">
        <ele>181.60000610352</ele>
        <time>2015-02-07T18:47:22.000Z</time>
      </trkpt>
      <trkpt lat="43.70025" lon="1.18171">
        <ele>181.60000610352</ele>
        <time>2015-02-07T18:47:24.000Z</time>
      </trkpt>
      <trkpt lat="43.70025" lon="1.18156">
        <ele>181.80000305176</ele>
        <time>2015-02-07T18:47:28.000Z</time>
      </trkpt>
      <trkpt lat="43.70016" lon="1.18149">
        <ele>182</ele>
        <time>2015-02-07T18:47:32.000Z</time>
      </trkpt>
      <trkpt lat="43.70013" lon="1.18148">
        <ele>182</ele>
        <time>2015-02-07T18:47:33.000Z</time>
      </trkpt>
      <trkpt lat="43.70003" lon="1.18145">
        <ele>182.19999694824</ele>
        <time>2015-02-07T18:47:37.000Z</time>
      </trkpt>
      <trkpt lat="43.69988" lon="1.18137">
        <ele>182.39999389648</ele>
        <time>2015-02-07T18:47:43.000Z</time>
      </trkpt>
      <trkpt lat="43.69983" lon="1.18128">
        <ele>182.60000610352</ele>
        <time>2015-02-07T18:47:46.000Z</time>
      </trkpt>
      <trkpt lat="43.69982" lon="1.18121">
        <ele>182.60000610352</ele>
        <time>2015-02-07T18:47:48.000Z</time>
      </trkpt>
      <trkpt lat="43.69979" lon="1.18099">
        <ele>182.60000610352</ele>
        <time>2015-02-07T18:47:53.000Z</time>
      </trkpt>
      <trkpt lat="43.69977" lon="1.18076">
        <ele>182.39999389648</ele>
        <time>2015-02-07T18:47:59.000Z</time>
      </trkpt>
      <trkpt lat="43.69978" lon="1.18053">
        <ele>182.39999389648</ele>
        <time>2015-02-07T18:48:05.000Z</time>
      </trkpt>
      <trkpt lat="43.69978" lon="1.18049">
        <ele>182.39999389648</ele>
        <time>2015-02-07T18:48:06.000Z</time>
      </trkpt>
      <trkpt lat="43.69978" lon="1.18036">
        <ele>182.60000610352</ele>
        <time>2015-02-07T18:48:09.000Z</time>
      </trkpt>
      <trkpt lat="43.69981" lon="1.18013">
        <ele>182.80000305176</ele>
        <time>2015-02-07T18:48:15.000Z</time>
      </trkpt>
      <trkpt lat="43.69992" lon="1.17999">
        <ele>183</ele>
        <time>2015-02-07T18:48:20.000Z</time>
      </trkpt>
      <trkpt lat="43.70004" lon="1.1799">
        <ele>183.39999389648</ele>
        <time>2015-02-07T18:48:25.000Z</time>
      </trkpt>
      <trkpt lat="43.70016" lon="1.17982">
        <ele>183.80000305176</ele>
        <time>2015-02-07T18:48:30.000Z</time>
      </trkpt>
      <trkpt lat="43.70019" lon="1.17979">
        <ele>183.80000305176</ele>
        <time>2015-02-07T18:48:31.000Z</time>
      </trkpt>
      <trkpt lat="43.70026" lon="1.1797">
        <ele>184.19999694824</ele>
        <time>2015-02-07T18:48:35.000Z</time>
      </trkpt>
      <trkpt lat="43.70035" lon="1.17964">
        <ele>184.19999694824</ele>
        <time>2015-02-07T18:48:39.000Z</time>
      </trkpt>
      <trkpt lat="43.70041" lon="1.17967">
        <ele>184.39999389648</ele>
        <time>2015-02-07T18:48:41.000Z</time>
      </trkpt>
      <trkpt lat="43.70052" lon="1.17971">
        <ele>184.19999694824</ele>
        <time>2015-02-07T18:48:45.000Z</time>
      </trkpt>
      <trkpt lat="43.70058" lon="1.17973">
        <ele>184.19999694824</ele>
        <time>2015-02-07T18:48:47.000Z</time>
      </trkpt>
      <trkpt lat="43.7007" lon="1.17978">
        <ele>184.19999694824</ele>
        <time>2015-02-07T18:48:51.000Z</time>
      </trkpt>
      <trkpt lat="43.70085" lon="1.1798">
        <ele>184.19999694824</ele>
        <time>2015-02-07T18:48:56.000Z</time>
      </trkpt>
      <trkpt lat="43.70098" lon="1.17983">
        <ele>184</ele>
        <time>2015-02-07T18:49:00.000Z</time>
      </trkpt>
      <trkpt lat="43.70113" lon="1.1799">
        <ele>183.80000305176</ele>
        <time>2015-02-07T18:49:05.000Z</time>
      </trkpt>
      <trkpt lat="43.70118" lon="1.17992">
        <ele>183.80000305176</ele>
        <time>2015-02-07T18:49:07.000Z</time>
      </trkpt>
      <trkpt lat="43.70121" lon="1.17993">
        <ele>183.80000305176</ele>
        <time>2015-02-07T18:49:08.000Z</time>
      </trkpt>
      <trkpt lat="43.70133" lon="1.17997">
        <ele>183.60000610352</ele>
        <time>2015-02-07T18:49:12.000Z</time>
      </trkpt>
      <trkpt lat="43.7015" lon="1.18002">
        <ele>183.39999389648</ele>
        <time>2015-02-07T18:49:18.000Z</time>
      </trkpt>
      <trkpt lat="43.70162" lon="1.18005">
        <ele>183.39999389648</ele>
        <time>2015-02-07T18:49:22.000Z</time>
      </trkpt>
      <trkpt lat="43.70168" lon="1.18009">
        <ele>183.19999694824</ele>
        <time>2015-02-07T18:49:25.000Z</time>
      </trkpt>
      <trkpt lat="43.7017" lon="1.18006">
        <ele>183.19999694824</ele>
        <time>2015-02-07T18:49:26.000Z</time>
      </trkpt>
      <trkpt lat="43.70177" lon="1.18003">
        <ele>183</ele>
        <time>2015-02-07T18:49:29.000Z</time>
      </trkpt>
      <trkpt lat="43.70179" lon="1.18">
        <ele>182.80000305176</ele>
        <time>2015-02-07T18:49:30.000Z</time>
      </trkpt>
      <trkpt lat="43.70183" lon="1.17999">
        <ele>182.80000305176</ele>
        <time>2015-02-07T18:49:32.000Z</time>
      </trkpt>
      <trkpt lat="43.70188" lon="1.17998">
        <ele>182.60000610352</ele>
        <time>2015-02-07T18:49:34.000Z</time>
      </trkpt>
      <trkpt lat="43.702" lon="1.17999">
        <ele>182.19999694824</ele>
        <time>2015-02-07T18:49:39.000Z</time>
      </trkpt>
      <trkpt lat="43.70207" lon="1.1799">
        <ele>182</ele>
        <time>2015-02-07T18:49:42.000Z</time>
      </trkpt>
      <trkpt lat="43.70209" lon="1.17988">
        <ele>182</ele>
        <time>2015-02-07T18:49:43.000Z</time>
      </trkpt>
      <trkpt lat="43.70213" lon="1.17977">
        <ele>181.80000305176</ele>
        <time>2015-02-07T18:49:47.000Z</time>
      </trkpt>
      <trkpt lat="43.70214" lon="1.17975">
        <ele>181.80000305176</ele>
        <time>2015-02-07T18:49:48.000Z</time>
      </trkpt>
      <trkpt lat="43.70216" lon="1.17978">
        <ele>181.60000610352</ele>
        <time>2015-02-07T18:49:50.000Z</time>
      </trkpt>
      <trkpt lat="43.70219" lon="1.17983">
        <ele>181.60000610352</ele>
        <time>2015-02-07T18:49:52.000Z</time>
      </trkpt>
      <trkpt lat="43.70221" lon="1.17992">
        <ele>181.39999389648</ele>
        <time>2015-02-07T18:49:54.000Z</time>
      </trkpt>
      <trkpt lat="43.70222" lon="1.17995">
        <ele>181.39999389648</ele>
        <time>2015-02-07T18:49:55.000Z</time>
      </trkpt>
      <trkpt lat="43.70225" lon="1.17999">
        <ele>181.19999694824</ele>
        <time>2015-02-07T18:49:57.000Z</time>
      </trkpt>
      <trkpt lat="43.70229" lon="1.17996">
        <ele>181.19999694824</ele>
        <time>2015-02-07T18:49:59.000Z</time>
      </trkpt>
      <trkpt lat="43.70235" lon="1.1799">
        <ele>181</ele>
        <time>2015-02-07T18:50:02.000Z</time>
      </trkpt>
      <trkpt lat="43.70236" lon="1.17987">
        <ele>181</ele>
        <time>2015-02-07T18:50:03.000Z</time>
      </trkpt>
      <trkpt lat="43.70241" lon="1.17974">
        <ele>180.80000305176</ele>
        <time>2015-02-07T18:50:07.000Z</time>
      </trkpt>
      <trkpt lat="43.70244" lon="1.1796">
        <ele>180.60000610352</ele>
        <time>2015-02-07T18:50:11.000Z</time>
      </trkpt>
      <trkpt lat="43.70246" lon="1.1795">
        <ele>180.60000610352</ele>
        <time>2015-02-07T18:50:14.000Z</time>
      </trkpt>
      <trkpt lat="43.70248" lon="1.17947">
        <ele>180.39999389648</ele>
        <time>2015-02-07T18:50:15.000Z</time>
      </trkpt>
      <trkpt lat="43.70256" lon="1.17941">
        <ele>180.39999389648</ele>
        <time>2015-02-07T18:50:18.000Z</time>
      </trkpt>
      <trkpt lat="43.70259" lon="1.17939">
        <ele>180.39999389648</ele>
        <time>2015-02-07T18:50:19.000Z</time>
      </trkpt>
      <trkpt lat="43.70263" lon="1.17932">
        <ele>180.19999694824</ele>
        <time>2015-02-07T18:50:22.000Z</time>
      </trkpt>
      <trkpt lat="43.70263" lon="1.17928">
        <ele>180.19999694824</ele>
        <time>2015-02-07T18:50:23.000Z</time>
      </trkpt>
      <trkpt lat="43.70266" lon="1.17913">
        <ele>180.19999694824</ele>
        <time>2015-02-07T18:50:26.000Z</time>
      </trkpt>
      <trkpt lat="43.70267" lon="1.17906">
        <ele>180.19999694824</ele>
        <time>2015-02-07T18:50:28.000Z</time>
      </trkpt>
      <trkpt lat="43.70268" lon="1.17902">
        <ele>180.19999694824</ele>
        <time>2015-02-07T18:50:29.000Z</time>
      </trkpt>
      <trkpt lat="43.70271" lon="1.17882">
        <ele>180</ele>
        <time>2015-02-07T18:50:34.000Z</time>
      </trkpt>
      <trkpt lat="43.70273" lon="1.17876">
        <ele>180</ele>
        <time>2015-02-07T18:50:36.000Z</time>
      </trkpt>
      <trkpt lat="43.70275" lon="1.17867">
        <ele>179.80000305176</ele>
        <time>2015-02-07T18:50:39.000Z</time>
      </trkpt>
      <trkpt lat="43.70284" lon="1.1785">
        <ele>179.60000610352</ele>
        <time>2015-02-07T18:50:44.000Z</time>
      </trkpt>
      <trkpt lat="43.70295" lon="1.17838">
        <ele>179.39999389648</ele>
        <time>2015-02-07T18:50:49.000Z</time>
      </trkpt>
      <trkpt lat="43.703" lon="1.17831">
        <ele>179.39999389648</ele>
        <time>2015-02-07T18:50:51.000Z</time>
      </trkpt>
      <trkpt lat="43.70304" lon="1.17825">
        <ele>179.19999694824</ele>
        <time>2015-02-07T18:50:53.000Z</time>
      </trkpt>
      <trkpt lat="43.70313" lon="1.17821">
        <ele>179</ele>
        <time>2015-02-07T18:50:57.000Z</time>
      </trkpt>
      <trkpt lat="43.70321" lon="1.17819">
        <ele>178.80000305176</ele>
        <time>2015-02-07T18:51:00.000Z</time>
      </trkpt>
      <trkpt lat="43.70323" lon="1.17817">
        <ele>178.80000305176</ele>
        <time>2015-02-07T18:51:01.000Z</time>
      </trkpt>
      <trkpt lat="43.70333" lon="1.17805">
        <ele>178.39999389648</ele>
        <time>2015-02-07T18:51:06.000Z</time>
      </trkpt>
      <trkpt lat="43.70336" lon="1.17799">
        <ele>178.19999694824</ele>
        <time>2015-02-07T18:51:08.000Z</time>
      </trkpt>
      <trkpt lat="43.7034" lon="1.17786">
        <ele>177.80000305176</ele>
        <time>2015-02-07T18:51:12.000Z</time>
      </trkpt>
      <trkpt lat="43.70345" lon="1.17766">
        <ele>177.39999389648</ele>
        <time>2015-02-07T18:51:17.000Z</time>
      </trkpt>
      <trkpt lat="43.70346" lon="1.17762">
        <ele>177.39999389648</ele>
        <time>2015-02-07T18:51:18.000Z</time>
      </trkpt>
      <trkpt lat="43.70348" lon="1.17755">
        <ele>177.19999694824</ele>
        <time>2015-02-07T18:51:20.000Z</time>
      </trkpt>
      <trkpt lat="43.7035" lon="1.17736">
        <ele>176.80000305176</ele>
        <time>2015-02-07T18:51:25.000Z</time>
      </trkpt>
      <trkpt lat="43.7035" lon="1.17731">
        <ele>176.80000305176</ele>
        <time>2015-02-07T18:51:26.000Z</time>
      </trkpt>
      <trkpt lat="43.70352" lon="1.17714">
        <ele>176.39999389648</ele>
        <time>2015-02-07T18:51:31.000Z</time>
      </trkpt>
      <trkpt lat="43.70351" lon="1.17706">
        <ele>176.39999389648</ele>
        <time>2015-02-07T18:51:33.000Z</time>
      </trkpt>
      <trkpt lat="43.70348" lon="1.17699">
        <ele>176.19999694824</ele>
        <time>2015-02-07T18:51:35.000Z</time>
      </trkpt>
      <trkpt lat="43.70342" lon="1.17685">
        <ele>176</ele>
        <time>2015-02-07T18:51:40.000Z</time>
      </trkpt>
      <trkpt lat="43.70337" lon="1.17666">
        <ele>175.60000610352</ele>
        <time>2015-02-07T18:51:46.000Z</time>
      </trkpt>
      <trkpt lat="43.70334" lon="1.17649">
        <ele>175.39999389648</ele>
        <time>2015-02-07T18:51:51.000Z</time>
      </trkpt>
      <trkpt lat="43.70334" lon="1.17633">
        <ele>175.19999694824</ele>
        <time>2015-02-07T18:51:55.000Z</time>
      </trkpt>
      <trkpt lat="43.70333" lon="1.17629">
        <ele>175.19999694824</ele>
        <time>2015-02-07T18:51:56.000Z</time>
      </trkpt>
      <trkpt lat="43.70333" lon="1.17618">
        <ele>175</ele>
        <time>2015-02-07T18:51:59.000Z</time>
      </trkpt>
      <trkpt lat="43.70331" lon="1.17598">
        <ele>174.80000305176</ele>
        <time>2015-02-07T18:52:04.000Z</time>
      </trkpt>
      <trkpt lat="43.70328" lon="1.17579">
        <ele>174.80000305176</ele>
        <time>2015-02-07T18:52:09.000Z</time>
      </trkpt>
      <trkpt lat="43.70327" lon="1.17564">
        <ele>174.60000610352</ele>
        <time>2015-02-07T18:52:13.000Z</time>
      </trkpt>
      <trkpt lat="43.70328" lon="1.1756">
        <ele>174.60000610352</ele>
        <time>2015-02-07T18:52:14.000Z</time>
      </trkpt>
      <trkpt lat="43.70331" lon="1.17541">
        <ele>174.60000610352</ele>
        <time>2015-02-07T18:52:19.000Z</time>
      </trkpt>
      <trkpt lat="43.70342" lon="1.17536">
        <ele>174.39999389648</ele>
        <time>2015-02-07T18:52:23.000Z</time>
      </trkpt>
      <trkpt lat="43.70345" lon="1.17535">
        <ele>174.39999389648</ele>
        <time>2015-02-07T18:52:24.000Z</time>
      </trkpt>
      <trkpt lat="43.70356" lon="1.17533">
        <ele>174</ele>
        <time>2015-02-07T18:52:28.000Z</time>
      </trkpt>
      <trkpt lat="43.7037" lon="1.17522">
        <ele>173.39999389648</ele>
        <time>2015-02-07T18:52:34.000Z</time>
      </trkpt>
      <trkpt lat="43.70372" lon="1.1752">
        <ele>173.39999389648</ele>
        <time>2015-02-07T18:52:35.000Z</time>
      </trkpt>
      <trkpt lat="43.70381" lon="1.17507">
        <ele>173</ele>
        <time>2015-02-07T18:52:39.000Z</time>
      </trkpt>
      <trkpt lat="43.70385" lon="1.17491">
        <ele>172.60000610352</ele>
        <time>2015-02-07T18:52:43.000Z</time>
      </trkpt>
      <trkpt lat="43.7039" lon="1.17477">
        <ele>172.19999694824</ele>
        <time>2015-02-07T18:52:47.000Z</time>
      </trkpt>
      <trkpt lat="43.70395" lon="1.17461">
        <ele>171.80000305176</ele>
        <time>2015-02-07T18:52:52.000Z</time>
      </trkpt>
      <trkpt lat="43.70404" lon="1.17441">
        <ele>171.19999694824</ele>
        <time>2015-02-07T18:52:58.000Z</time>
      </trkpt>
      <trkpt lat="43.70419" lon="1.17425">
        <ele>170.80000305176</ele>
        <time>2015-02-07T18:53:04.000Z</time>
      </trkpt>
      <trkpt lat="43.70422" lon="1.17422">
        <ele>170.60000610352</ele>
        <time>2015-02-07T18:53:05.000Z</time>
      </trkpt>
      <trkpt lat="43.70425" lon="1.1742">
        <ele>170.60000610352</ele>
        <time>2015-02-07T18:53:06.000Z</time>
      </trkpt>
      <trkpt lat="43.70442" lon="1.17406">
        <ele>170</ele>
        <time>2015-02-07T18:53:12.000Z</time>
      </trkpt>
      <trkpt lat="43.70448" lon="1.17402">
        <ele>170</ele>
        <time>2015-02-07T18:53:14.000Z</time>
      </trkpt>
      <trkpt lat="43.70464" lon="1.17389">
        <ele>169.39999389648</ele>
        <time>2015-02-07T18:53:20.000Z</time>
      </trkpt>
      <trkpt lat="43.70477" lon="1.17373">
        <ele>169</ele>
        <time>2015-02-07T18:53:26.000Z</time>
      </trkpt>
      <trkpt lat="43.70473" lon="1.17359">
        <ele>168.60000610352</ele>
        <time>2015-02-07T18:53:30.000Z</time>
      </trkpt>
      <trkpt lat="43.70471" lon="1.17356">
        <ele>168.60000610352</ele>
        <time>2015-02-07T18:53:31.000Z</time>
      </trkpt>
      <trkpt lat="43.70458" lon="1.17336">
        <ele>168</ele>
        <time>2015-02-07T18:53:38.000Z</time>
      </trkpt>
      <trkpt lat="43.70452" lon="1.17315">
        <ele>167.60000610352</ele>
        <time>2015-02-07T18:53:44.000Z</time>
      </trkpt>
      <trkpt lat="43.70449" lon="1.17293">
        <ele>167.19999694824</ele>
        <time>2015-02-07T18:53:50.000Z</time>
      </trkpt>
      <trkpt lat="43.70445" lon="1.17267">
        <ele>166.80000305176</ele>
        <time>2015-02-07T18:53:57.000Z</time>
      </trkpt>
      <trkpt lat="43.70442" lon="1.17245">
        <ele>166.39999389648</ele>
        <time>2015-02-07T18:54:03.000Z</time>
      </trkpt>
      <trkpt lat="43.70439" lon="1.17222">
        <ele>166</ele>
        <time>2015-02-07T18:54:09.000Z</time>
      </trkpt>
      <trkpt lat="43.70437" lon="1.17197">
        <ele>165.60000610352</ele>
        <time>2015-02-07T18:54:16.000Z</time>
      </trkpt>
      <trkpt lat="43.7043" lon="1.17172">
        <ele>165.19999694824</ele>
        <time>2015-02-07T18:54:23.000Z</time>
      </trkpt>
      <trkpt lat="43.70423" lon="1.1715">
        <ele>165</ele>
        <time>2015-02-07T18:54:29.000Z</time>
      </trkpt>
      <trkpt lat="43.70413" lon="1.17128">
        <ele>164.60000610352</ele>
        <time>2015-02-07T18:54:36.000Z</time>
      </trkpt>
      <trkpt lat="43.70407" lon="1.17111">
        <ele>164.39999389648</ele>
        <time>2015-02-07T18:54:41.000Z</time>
      </trkpt>
      <trkpt lat="43.70405" lon="1.17095">
        <ele>164.19999694824</ele>
        <time>2015-02-07T18:54:46.000Z</time>
      </trkpt>
      <trkpt lat="43.70412" lon="1.17077">
        <ele>163.80000305176</ele>
        <time>2015-02-07T18:54:52.000Z</time>
      </trkpt>
      <trkpt lat="43.70417" lon="1.17066">
        <ele>163.60000610352</ele>
        <time>2015-02-07T18:54:56.000Z</time>
      </trkpt>
      <trkpt lat="43.70422" lon="1.1705">
        <ele>163.39999389648</ele>
        <time>2015-02-07T18:55:01.000Z</time>
      </trkpt>
      <trkpt lat="43.70429" lon="1.17034">
        <ele>163.19999694824</ele>
        <time>2015-02-07T18:55:06.000Z</time>
      </trkpt>
      <trkpt lat="43.70434" lon="1.17011">
        <ele>162.80000305176</ele>
        <time>2015-02-07T18:55:13.000Z</time>
      </trkpt>
      <trkpt lat="43.70436" lon="1.17009">
        <ele>162.60000610352</ele>
        <time>2015-02-07T18:55:14.000Z</time>
      </trkpt>
      <trkpt lat="43.70441" lon="1.16996">
        <ele>162.39999389648</ele>
        <time>2015-02-07T18:55:18.000Z</time>
      </trkpt>
      <trkpt lat="43.70443" lon="1.16979">
        <ele>162.19999694824</ele>
        <time>2015-02-07T18:55:23.000Z</time>
      </trkpt>
      <trkpt lat="43.70442" lon="1.16975">
        <ele>162</ele>
        <time>2015-02-07T18:55:24.000Z</time>
      </trkpt>
      <trkpt lat="43.7044" lon="1.16964">
        <ele>162</ele>
        <time>2015-02-07T18:55:27.000Z</time>
      </trkpt>
      <trkpt lat="43.70435" lon="1.16941">
        <ele>161.60000610352</ele>
        <time>2015-02-07T18:55:33.000Z</time>
      </trkpt>
      <trkpt lat="43.70435" lon="1.16919">
        <ele>161.39999389648</ele>
        <time>2015-02-07T18:55:39.000Z</time>
      </trkpt>
      <trkpt lat="43.70439" lon="1.16903">
        <ele>161.19999694824</ele>
        <time>2015-02-07T18:55:44.000Z</time>
      </trkpt>
      <trkpt lat="43.70444" lon="1.16885">
        <ele>161</ele>
        <time>2015-02-07T18:55:49.000Z</time>
      </trkpt>
      <trkpt lat="43.70451" lon="1.1687">
        <ele>160.80000305176</ele>
        <time>2015-02-07T18:55:54.000Z</time>
      </trkpt>
      <trkpt lat="43.70453" lon="1.16867">
        <ele>160.80000305176</ele>
        <time>2015-02-07T18:55:55.000Z</time>
      </trkpt>
      <trkpt lat="43.70461" lon="1.16852">
        <ele>160.60000610352</ele>
        <time>2015-02-07T18:56:00.000Z</time>
      </trkpt>
      <trkpt lat="43.70466" lon="1.16837">
        <ele>160.39999389648</ele>
        <time>2015-02-07T18:56:05.000Z</time>
      </trkpt>
      <trkpt lat="43.70473" lon="1.16817">
        <ele>160.19999694824</ele>
        <time>2015-02-07T18:56:12.000Z</time>
      </trkpt>
      <trkpt lat="43.70476" lon="1.16805">
        <ele>160</ele>
        <time>2015-02-07T18:56:16.000Z</time>
      </trkpt>
      <trkpt lat="43.70476" lon="1.16792">
        <ele>160</ele>
        <time>2015-02-07T18:56:20.000Z</time>
      </trkpt>
      <trkpt lat="43.70477" lon="1.16786">
        <ele>160</ele>
        <time>2015-02-07T18:56:22.000Z</time>
      </trkpt>
      <trkpt lat="43.70476" lon="1.1677">
        <ele>159.80000305176</ele>
        <time>2015-02-07T18:56:27.000Z</time>
      </trkpt>
      <trkpt lat="43.70477" lon="1.16753">
        <ele>159.80000305176</ele>
        <time>2015-02-07T18:56:32.000Z</time>
      </trkpt>
      <trkpt lat="43.70476" lon="1.16732">
        <ele>159.60000610352</ele>
        <time>2015-02-07T18:56:38.000Z</time>
      </trkpt>
      <trkpt lat="43.70473" lon="1.16711">
        <ele>159.39999389648</ele>
        <time>2015-02-07T18:56:44.000Z</time>
      </trkpt>
      <trkpt lat="43.70468" lon="1.16694">
        <ele>159.39999389648</ele>
        <time>2015-02-07T18:56:49.000Z</time>
      </trkpt>
      <trkpt lat="43.70461" lon="1.16675">
        <ele>159.19999694824</ele>
        <time>2015-02-07T18:56:55.000Z</time>
      </trkpt>
      <trkpt lat="43.70452" lon="1.16655">
        <ele>159.19999694824</ele>
        <time>2015-02-07T18:57:01.000Z</time>
      </trkpt>
      <trkpt lat="43.70443" lon="1.16636">
        <ele>159.39999389648</ele>
        <time>2015-02-07T18:57:07.000Z</time>
      </trkpt>
      <trkpt lat="43.70435" lon="1.16622">
        <ele>159.39999389648</ele>
        <time>2015-02-07T18:57:12.000Z</time>
      </trkpt>
      <trkpt lat="43.70426" lon="1.16604">
        <ele>159.39999389648</ele>
        <time>2015-02-07T18:57:18.000Z</time>
      </trkpt>
      <trkpt lat="43.70416" lon="1.16588">
        <ele>159.60000610352</ele>
        <time>2015-02-07T18:57:24.000Z</time>
      </trkpt>
      <trkpt lat="43.70407" lon="1.16569">
        <ele>159.80000305176</ele>
        <time>2015-02-07T18:57:30.000Z</time>
      </trkpt>
      <trkpt lat="43.704" lon="1.16551">
        <ele>160.19999694824</ele>
        <time>2015-02-07T18:57:36.000Z</time>
      </trkpt>
      <trkpt lat="43.70393" lon="1.16537">
        <ele>160.60000610352</ele>
        <time>2015-02-07T18:57:41.000Z</time>
      </trkpt>
      <trkpt lat="43.7039" lon="1.16537">
        <ele>160.60000610352</ele>
        <time>2015-02-07T18:57:42.000Z</time>
      </trkpt>
      <trkpt lat="43.70379" lon="1.16543">
        <ele>160.60000610352</ele>
        <time>2015-02-07T18:57:46.000Z</time>
      </trkpt>
      <trkpt lat="43.70373" lon="1.16545">
        <ele>160.80000305176</ele>
        <time>2015-02-07T18:57:48.000Z</time>
      </trkpt>
      <trkpt lat="43.70365" lon="1.16549">
        <ele>160.80000305176</ele>
        <time>2015-02-07T18:57:51.000Z</time>
      </trkpt>
      <trkpt lat="43.70351" lon="1.16557">
        <ele>160.80000305176</ele>
        <time>2015-02-07T18:57:57.000Z</time>
      </trkpt>
      <trkpt lat="43.70335" lon="1.16567">
        <ele>160.80000305176</ele>
        <time>2015-02-07T18:58:04.000Z</time>
      </trkpt>
      <trkpt lat="43.70321" lon="1.16575">
        <ele>160.80000305176</ele>
        <time>2015-02-07T18:58:10.000Z</time>
      </trkpt>
      <trkpt lat="43.70307" lon="1.16585">
        <ele>160.80000305176</ele>
        <time>2015-02-07T18:58:16.000Z</time>
      </trkpt>
      <trkpt lat="43.70294" lon="1.16592">
        <ele>161</ele>
        <time>2015-02-07T18:58:22.000Z</time>
      </trkpt>
      <trkpt lat="43.70281" lon="1.16599">
        <ele>161</ele>
        <time>2015-02-07T18:58:28.000Z</time>
      </trkpt>
      <trkpt lat="43.70271" lon="1.16601">
        <ele>161.19999694824</ele>
        <time>2015-02-07T18:58:32.000Z</time>
      </trkpt>
      <trkpt lat="43.70258" lon="1.16602">
        <ele>161.60000610352</ele>
        <time>2015-02-07T18:58:38.000Z</time>
      </trkpt>
      <trkpt lat="43.70248" lon="1.166">
        <ele>162</ele>
        <time>2015-02-07T18:58:43.000Z</time>
      </trkpt>
      <trkpt lat="43.7024" lon="1.16598">
        <ele>162.39999389648</ele>
        <time>2015-02-07T18:58:47.000Z</time>
      </trkpt>
      <trkpt lat="43.70238" lon="1.16597">
        <ele>162.39999389648</ele>
        <time>2015-02-07T18:58:48.000Z</time>
      </trkpt>
      <trkpt lat="43.70225" lon="1.16594">
        <ele>163.19999694824</ele>
        <time>2015-02-07T18:58:54.000Z</time>
      </trkpt>
      <trkpt lat="43.70212" lon="1.16591">
        <ele>163.80000305176</ele>
        <time>2015-02-07T18:59:00.000Z</time>
      </trkpt>
      <trkpt lat="43.70199" lon="1.1659">
        <ele>164.39999389648</ele>
        <time>2015-02-07T18:59:06.000Z</time>
      </trkpt>
      <trkpt lat="43.70187" lon="1.16586">
        <ele>165.39999389648</ele>
        <time>2015-02-07T18:59:12.000Z</time>
      </trkpt>
      <trkpt lat="43.70172" lon="1.16583">
        <ele>166.39999389648</ele>
        <time>2015-02-07T18:59:19.000Z</time>
      </trkpt>
      <trkpt lat="43.70159" lon="1.16581">
        <ele>167.39999389648</ele>
        <time>2015-02-07T18:59:25.000Z</time>
      </trkpt>
      <trkpt lat="43.70147" lon="1.1658">
        <ele>168.39999389648</ele>
        <time>2015-02-07T18:59:31.000Z</time>
      </trkpt>
      <trkpt lat="43.70144" lon="1.16577">
        <ele>168.60000610352</ele>
        <time>2015-02-07T18:59:32.000Z</time>
      </trkpt>
      <trkpt lat="43.7014" lon="1.16576">
        <ele>169.19999694824</ele>
        <time>2015-02-07T18:59:34.000Z</time>
      </trkpt>
      <trkpt lat="43.70133" lon="1.16567">
        <ele>170</ele>
        <time>2015-02-07T18:59:38.000Z</time>
      </trkpt>
      <trkpt lat="43.70122" lon="1.16552">
        <ele>171</ele>
        <time>2015-02-07T18:59:43.000Z</time>
      </trkpt>
      <trkpt lat="43.7012" lon="1.16551">
        <ele>171.39999389648</ele>
        <time>2015-02-07T18:59:44.000Z</time>
      </trkpt>
      <trkpt lat="43.70109" lon="1.16545">
        <ele>172.39999389648</ele>
        <time>2015-02-07T18:59:49.000Z</time>
      </trkpt>
      <trkpt lat="43.70102" lon="1.16542">
        <ele>173</ele>
        <time>2015-02-07T18:59:52.000Z</time>
      </trkpt>
      <trkpt lat="43.70097" lon="1.16542">
        <ele>173.39999389648</ele>
        <time>2015-02-07T18:59:54.000Z</time>
      </trkpt>
      <trkpt lat="43.70087" lon="1.1654">
        <ele>174</ele>
        <time>2015-02-07T18:59:58.000Z</time>
      </trkpt>
      <trkpt lat="43.70081" lon="1.1654">
        <ele>174.60000610352</ele>
        <time>2015-02-07T19:00:01.000Z</time>
      </trkpt>
      <trkpt lat="43.70077" lon="1.1654">
        <ele>174.80000305176</ele>
        <time>2015-02-07T19:00:03.000Z</time>
      </trkpt>
      <trkpt lat="43.7007" lon="1.16537">
        <ele>175.39999389648</ele>
        <time>2015-02-07T19:00:06.000Z</time>
      </trkpt>
      <trkpt lat="43.70065" lon="1.16536">
        <ele>175.60000610352</ele>
        <time>2015-02-07T19:00:08.000Z</time>
      </trkpt>
      <trkpt lat="43.70057" lon="1.16534">
        <ele>176.19999694824</ele>
        <time>2015-02-07T19:00:12.000Z</time>
      </trkpt>
      <trkpt lat="43.70047" lon="1.1653">
        <ele>177</ele>
        <time>2015-02-07T19:00:16.000Z</time>
      </trkpt>
      <trkpt lat="43.70037" lon="1.16529">
        <ele>177.39999389648</ele>
        <time>2015-02-07T19:00:20.000Z</time>
      </trkpt>
      <trkpt lat="43.70026" lon="1.16526">
        <ele>178.19999694824</ele>
        <time>2015-02-07T19:00:25.000Z</time>
      </trkpt>
      <trkpt lat="43.70018" lon="1.16525">
        <ele>178.60000610352</ele>
        <time>2015-02-07T19:00:28.000Z</time>
      </trkpt>
      <trkpt lat="43.70016" lon="1.16523">
        <ele>178.80000305176</ele>
        <time>2015-02-07T19:00:29.000Z</time>
      </trkpt>
      <trkpt lat="43.70006" lon="1.16516">
        <ele>179.39999389648</ele>
        <time>2015-02-07T19:00:34.000Z</time>
      </trkpt>
      <trkpt lat="43.69997" lon="1.16508">
        <ele>180.19999694824</ele>
        <time>2015-02-07T19:00:39.000Z</time>
      </trkpt>
      <trkpt lat="43.69987" lon="1.16498">
        <ele>181</ele>
        <time>2015-02-07T19:00:44.000Z</time>
      </trkpt>
      <trkpt lat="43.69975" lon="1.16488">
        <ele>181.80000305176</ele>
        <time>2015-02-07T19:00:49.000Z</time>
      </trkpt>
      <trkpt lat="43.69971" lon="1.16481">
        <ele>182.19999694824</ele>
        <time>2015-02-07T19:00:52.000Z</time>
      </trkpt>
      <trkpt lat="43.69963" lon="1.1647">
        <ele>182.80000305176</ele>
        <time>2015-02-07T19:00:56.000Z</time>
      </trkpt>
      <trkpt lat="43.69961" lon="1.16468">
        <ele>182.80000305176</ele>
        <time>2015-02-07T19:00:57.000Z</time>
      </trkpt>
      <trkpt lat="43.69949" lon="1.16459">
        <ele>183.39999389648</ele>
        <time>2015-02-07T19:01:02.000Z</time>
      </trkpt>
      <trkpt lat="43.69939" lon="1.16448">
        <ele>184</ele>
        <time>2015-02-07T19:01:07.000Z</time>
      </trkpt>
      <trkpt lat="43.69929" lon="1.16434">
        <ele>184.80000305176</ele>
        <time>2015-02-07T19:01:12.000Z</time>
      </trkpt>
      <trkpt lat="43.69917" lon="1.16421">
        <ele>185.39999389648</ele>
        <time>2015-02-07T19:01:17.000Z</time>
      </trkpt>
      <trkpt lat="43.69908" lon="1.16408">
        <ele>185.80000305176</ele>
        <time>2015-02-07T19:01:21.000Z</time>
      </trkpt>
      <trkpt lat="43.69899" lon="1.16391">
        <ele>186.19999694824</ele>
        <time>2015-02-07T19:01:26.000Z</time>
      </trkpt>
      <trkpt lat="43.69892" lon="1.16374">
        <ele>186.39999389648</ele>
        <time>2015-02-07T19:01:31.000Z</time>
      </trkpt>
      <trkpt lat="43.69883" lon="1.16355">
        <ele>186.60000610352</ele>
        <time>2015-02-07T19:01:37.000Z</time>
      </trkpt>
      <trkpt lat="43.69874" lon="1.16343">
        <ele>186.80000305176</ele>
        <time>2015-02-07T19:01:41.000Z</time>
      </trkpt>
      <trkpt lat="43.69859" lon="1.1633">
        <ele>187</ele>
        <time>2015-02-07T19:01:47.000Z</time>
      </trkpt>
      <trkpt lat="43.69848" lon="1.16322">
        <ele>187</ele>
        <time>2015-02-07T19:01:52.000Z</time>
      </trkpt>
      <trkpt lat="43.69837" lon="1.16311">
        <ele>186.80000305176</ele>
        <time>2015-02-07T19:01:57.000Z</time>
      </trkpt>
      <trkpt lat="43.69834" lon="1.16299">
        <ele>187</ele>
        <time>2015-02-07T19:02:00.000Z</time>
      </trkpt>
      <trkpt lat="43.69828" lon="1.16287">
        <ele>187</ele>
        <time>2015-02-07T19:02:04.000Z</time>
      </trkpt>
      <trkpt lat="43.6982" lon="1.16272">
        <ele>187</ele>
        <time>2015-02-07T19:02:09.000Z</time>
      </trkpt>
      <trkpt lat="43.69813" lon="1.16257">
        <ele>187.19999694824</ele>
        <time>2015-02-07T19:02:14.000Z</time>
      </trkpt>
      <trkpt lat="43.69806" lon="1.16241">
        <ele>187.19999694824</ele>
        <time>2015-02-07T19:02:19.000Z</time>
      </trkpt>
      <trkpt lat="43.69804" lon="1.16234">
        <ele>187.39999389648</ele>
        <time>2015-02-07T19:02:21.000Z</time>
      </trkpt>
      <trkpt lat="43.698" lon="1.16228">
        <ele>187.39999389648</ele>
        <time>2015-02-07T19:02:23.000Z</time>
      </trkpt>
      <trkpt lat="43.69795" lon="1.16212">
        <ele>187.60000610352</ele>
        <time>2015-02-07T19:02:28.000Z</time>
      </trkpt>
      <trkpt lat="43.69793" lon="1.162">
        <ele>187.80000305176</ele>
        <time>2015-02-07T19:02:32.000Z</time>
      </trkpt>
      <trkpt lat="43.69797" lon="1.16198">
        <ele>187.60000610352</ele>
        <time>2015-02-07T19:02:35.000Z</time>
      </trkpt>
      <trkpt lat="43.69802" lon="1.1619">
        <ele>187.39999389648</ele>
        <time>2015-02-07T19:02:39.000Z</time>
      </trkpt>
      <trkpt lat="43.69802" lon="1.16183">
        <ele>187.39999389648</ele>
        <time>2015-02-07T19:02:42.000Z</time>
      </trkpt>
      <trkpt lat="43.69804" lon="1.16181">
        <ele>187.19999694824</ele>
        <time>2015-02-07T19:02:46.000Z</time>
      </trkpt>
      <trkpt lat="43.69807" lon="1.16177">
        <ele>187</ele>
        <time>2015-02-07T19:02:50.000Z</time>
      </trkpt>
      <trkpt lat="43.69808" lon="1.16175">
        <ele>187</ele>
        <time>2015-02-07T19:02:51.000Z</time>
      </trkpt>
      <trkpt lat="43.69815" lon="1.1617">
        <ele>187</ele>
        <time>2015-02-07T19:02:54.000Z</time>
      </trkpt>
      <trkpt lat="43.69817" lon="1.16169">
        <ele>187</ele>
        <time>2015-02-07T19:02:55.000Z</time>
      </trkpt>
      <trkpt lat="43.69826" lon="1.16165">
        <ele>187</ele>
        <time>2015-02-07T19:03:00.000Z</time>
      </trkpt>
      <trkpt lat="43.69834" lon="1.16161">
        <ele>186.80000305176</ele>
        <time>2015-02-07T19:03:05.000Z</time>
      </trkpt>
      <trkpt lat="43.69836" lon="1.16159">
        <ele>186.80000305176</ele>
        <time>2015-02-07T19:03:06.000Z</time>
      </trkpt>
      <trkpt lat="43.69841" lon="1.16154">
        <ele>186.80000305176</ele>
        <time>2015-02-07T19:03:10.000Z</time>
      </trkpt>
      <trkpt lat="43.69846" lon="1.16153">
        <ele>186.80000305176</ele>
        <time>2015-02-07T19:03:13.000Z</time>
      </trkpt>
      <trkpt lat="43.69849" lon="1.16152">
        <ele>187</ele>
        <time>2015-02-07T19:03:15.000Z</time>
      </trkpt>
      <trkpt lat="43.69856" lon="1.16149">
        <ele>187.19999694824</ele>
        <time>2015-02-07T19:03:20.000Z</time>
      </trkpt>
      <trkpt lat="43.69861" lon="1.16144">
        <ele>187.60000610352</ele>
        <time>2015-02-07T19:03:25.000Z</time>
      </trkpt>
      <trkpt lat="43.69863" lon="1.16142">
        <ele>187.80000305176</ele>
        <time>2015-02-07T19:03:28.000Z</time>
      </trkpt>
      <trkpt lat="43.69863" lon="1.16142">
        <ele>187.80000305176</ele>
        <time>2015-02-07T19:03:29.000Z</time>
      </trkpt>
      <trkpt lat="43.69866" lon="1.16139">
        <ele>188.60000610352</ele>
        <time>2015-02-07T19:03:35.000Z</time>
      </trkpt>
      <trkpt lat="43.69869" lon="1.16135">
        <ele>188.80000305176</ele>
        <time>2015-02-07T19:03:40.000Z</time>
      </trkpt>
      <trkpt lat="43.69872" lon="1.16129">
        <ele>189.19999694824</ele>
        <time>2015-02-07T19:03:45.000Z</time>
      </trkpt>
      <trkpt lat="43.69872" lon="1.16126">
        <ele>189.19999694824</ele>
        <time>2015-02-07T19:03:48.000Z</time>
      </trkpt>
      <trkpt lat="43.69873" lon="1.16125">
        <ele>189.19999694824</ele>
        <time>2015-02-07T19:03:49.000Z</time>
      </trkpt>
      <trkpt lat="43.69876" lon="1.16117">
        <ele>189.19999694824</ele>
        <time>2015-02-07T19:03:54.000Z</time>
      </trkpt>
      <trkpt lat="43.69878" lon="1.16114">
        <ele>189.19999694824</ele>
        <time>2015-02-07T19:03:56.000Z</time>
      </trkpt>
      <trkpt lat="43.69881" lon="1.16109">
        <ele>189.39999389648</ele>
        <time>2015-02-07T19:04:00.000Z</time>
      </trkpt>
      <trkpt lat="43.69882" lon="1.16106">
        <ele>189.39999389648</ele>
        <time>2015-02-07T19:04:02.000Z</time>
      </trkpt>
      <trkpt lat="43.69882" lon="1.16103">
        <ele>189.39999389648</ele>
        <time>2015-02-07T19:04:03.000Z</time>
      </trkpt>
      <trkpt lat="43.69882" lon="1.16096">
        <ele>189.60000610352</ele>
        <time>2015-02-07T19:04:06.000Z</time>
      </trkpt>
      <trkpt lat="43.69883" lon="1.1609">
        <ele>189.60000610352</ele>
        <time>2015-02-07T19:04:08.000Z</time>
      </trkpt>
      <trkpt lat="43.69886" lon="1.16079">
        <ele>189.80000305176</ele>
        <time>2015-02-07T19:04:12.000Z</time>
      </trkpt>
      <trkpt lat="43.69887" lon="1.16078">
        <ele>190</ele>
        <time>2015-02-07T19:04:13.000Z</time>
      </trkpt>
      <trkpt lat="43.69891" lon="1.1607">
        <ele>190.19999694824</ele>
        <time>2015-02-07T19:04:17.000Z</time>
      </trkpt>
      <trkpt lat="43.69896" lon="1.16055">
        <ele>190.60000610352</ele>
        <time>2015-02-07T19:04:22.000Z</time>
      </trkpt>
      <trkpt lat="43.69897" lon="1.16043">
        <ele>191</ele>
        <time>2015-02-07T19:04:26.000Z</time>
      </trkpt>
      <trkpt lat="43.69901" lon="1.16025">
        <ele>191.39999389648</ele>
        <time>2015-02-07T19:04:31.000Z</time>
      </trkpt>
      <trkpt lat="43.69902" lon="1.16018">
        <ele>191.60000610352</ele>
        <time>2015-02-07T19:04:33.000Z</time>
      </trkpt>
      <trkpt lat="43.699" lon="1.16009">
        <ele>192</ele>
        <time>2015-02-07T19:04:36.000Z</time>
      </trkpt>
      <trkpt lat="43.69896" lon="1.15996">
        <ele>192.60000610352</ele>
        <time>2015-02-07T19:04:40.000Z</time>
      </trkpt>
      <trkpt lat="43.69896" lon="1.15978">
        <ele>193.19999694824</ele>
        <time>2015-02-07T19:04:45.000Z</time>
      </trkpt>
      <trkpt lat="43.69897" lon="1.1596">
        <ele>193.60000610352</ele>
        <time>2015-02-07T19:04:50.000Z</time>
      </trkpt>
      <trkpt lat="43.69902" lon="1.15941">
        <ele>194.19999694824</ele>
        <time>2015-02-07T19:04:55.000Z</time>
      </trkpt>
      <trkpt lat="43.69911" lon="1.15924">
        <ele>194.39999389648</ele>
        <time>2015-02-07T19:05:00.000Z</time>
      </trkpt>
      <trkpt lat="43.69922" lon="1.15907">
        <ele>194.60000610352</ele>
        <time>2015-02-07T19:05:06.000Z</time>
      </trkpt>
      <trkpt lat="43.69932" lon="1.15888">
        <ele>194.39999389648</ele>
        <time>2015-02-07T19:05:12.000Z</time>
      </trkpt>
      <trkpt lat="43.69944" lon="1.15865">
        <ele>194.39999389648</ele>
        <time>2015-02-07T19:05:19.000Z</time>
      </trkpt>
      <trkpt lat="43.69946" lon="1.15862">
        <ele>194.39999389648</ele>
        <time>2015-02-07T19:05:20.000Z</time>
      </trkpt>
      <trkpt lat="43.69952" lon="1.15855">
        <ele>194.39999389648</ele>
        <time>2015-02-07T19:05:23.000Z</time>
      </trkpt>
      <trkpt lat="43.69959" lon="1.15849">
        <ele>194.39999389648</ele>
        <time>2015-02-07T19:05:26.000Z</time>
      </trkpt>
      <trkpt lat="43.69971" lon="1.15842">
        <ele>194.19999694824</ele>
        <time>2015-02-07T19:05:31.000Z</time>
      </trkpt>
      <trkpt lat="43.69981" lon="1.15834">
        <ele>194.19999694824</ele>
        <time>2015-02-07T19:05:36.000Z</time>
      </trkpt>
      <trkpt lat="43.69992" lon="1.15827">
        <ele>193.80000305176</ele>
        <time>2015-02-07T19:05:41.000Z</time>
      </trkpt>
      <trkpt lat="43.69997" lon="1.15828">
        <ele>193.60000610352</ele>
        <time>2015-02-07T19:05:43.000Z</time>
      </trkpt>
      <trkpt lat="43.70003" lon="1.15826">
        <ele>193.39999389648</ele>
        <time>2015-02-07T19:05:45.000Z</time>
      </trkpt>
      <trkpt lat="43.70009" lon="1.15819">
        <ele>193</ele>
        <time>2015-02-07T19:05:48.000Z</time>
      </trkpt>
      <trkpt lat="43.70012" lon="1.15816">
        <ele>193</ele>
        <time>2015-02-07T19:05:49.000Z</time>
      </trkpt>
      <trkpt lat="43.70026" lon="1.15809">
        <ele>192.39999389648</ele>
        <time>2015-02-07T19:05:54.000Z</time>
      </trkpt>
      <trkpt lat="43.70045" lon="1.158">
        <ele>191.60000610352</ele>
        <time>2015-02-07T19:06:00.000Z</time>
      </trkpt>
      <trkpt lat="43.70064" lon="1.15792">
        <ele>190.60000610352</ele>
        <time>2015-02-07T19:06:06.000Z</time>
      </trkpt>
      <trkpt lat="43.70083" lon="1.15785">
        <ele>189.60000610352</ele>
        <time>2015-02-07T19:06:12.000Z</time>
      </trkpt>
      <trkpt lat="43.70086" lon="1.15783">
        <ele>189.39999389648</ele>
        <time>2015-02-07T19:06:13.000Z</time>
      </trkpt>
      <trkpt lat="43.70105" lon="1.15776">
        <ele>188.19999694824</ele>
        <time>2015-02-07T19:06:19.000Z</time>
      </trkpt>
      <trkpt lat="43.70108" lon="1.15774">
        <ele>188</ele>
        <time>2015-02-07T19:06:20.000Z</time>
      </trkpt>
      <trkpt lat="43.7011" lon="1.15771">
        <ele>187.60000610352</ele>
        <time>2015-02-07T19:06:22.000Z</time>
      </trkpt>
      <trkpt lat="43.70108" lon="1.15768">
        <ele>187.39999389648</ele>
        <time>2015-02-07T19:06:23.000Z</time>
      </trkpt>
      <trkpt lat="43.70104" lon="1.15758">
        <ele>186.80000305176</ele>
        <time>2015-02-07T19:06:26.000Z</time>
      </trkpt>
      <trkpt lat="43.70102" lon="1.1575">
        <ele>186.60000610352</ele>
        <time>2015-02-07T19:06:28.000Z</time>
      </trkpt>
      <trkpt lat="43.70099" lon="1.15725">
        <ele>185.60000610352</ele>
        <time>2015-02-07T19:06:34.000Z</time>
      </trkpt>
      <trkpt lat="43.70096" lon="1.15705">
        <ele>185</ele>
        <time>2015-02-07T19:06:39.000Z</time>
      </trkpt>
      <trkpt lat="43.70088" lon="1.15686">
        <ele>184.19999694824</ele>
        <time>2015-02-07T19:06:45.000Z</time>
      </trkpt>
      <trkpt lat="43.70077" lon="1.1567">
        <ele>183.60000610352</ele>
        <time>2015-02-07T19:06:51.000Z</time>
      </trkpt>
      <trkpt lat="43.70064" lon="1.15656">
        <ele>183</ele>
        <time>2015-02-07T19:06:57.000Z</time>
      </trkpt>
      <trkpt lat="43.70056" lon="1.15639">
        <ele>182.39999389648</ele>
        <time>2015-02-07T19:07:03.000Z</time>
      </trkpt>
      <trkpt lat="43.7005" lon="1.15619">
        <ele>181.80000305176</ele>
        <time>2015-02-07T19:07:09.000Z</time>
      </trkpt>
      <trkpt lat="43.70052" lon="1.15615">
        <ele>181.60000610352</ele>
        <time>2015-02-07T19:07:10.000Z</time>
      </trkpt>
      <trkpt lat="43.70056" lon="1.15609">
        <ele>181.39999389648</ele>
        <time>2015-02-07T19:07:12.000Z</time>
      </trkpt>
      <trkpt lat="43.70067" lon="1.15591">
        <ele>180.80000305176</ele>
        <time>2015-02-07T19:07:19.000Z</time>
      </trkpt>
      <trkpt lat="43.70076" lon="1.15577">
        <ele>180.39999389648</ele>
        <time>2015-02-07T19:07:24.000Z</time>
      </trkpt>
      <trkpt lat="43.70084" lon="1.15557">
        <ele>180</ele>
        <time>2015-02-07T19:07:30.000Z</time>
      </trkpt>
      <trkpt lat="43.70084" lon="1.15542">
        <ele>179.60000610352</ele>
        <time>2015-02-07T19:07:35.000Z</time>
      </trkpt>
      <trkpt lat="43.7008" lon="1.15521">
        <ele>179.19999694824</ele>
        <time>2015-02-07T19:07:41.000Z</time>
      </trkpt>
      <trkpt lat="43.70077" lon="1.15503">
        <ele>179</ele>
        <time>2015-02-07T19:07:46.000Z</time>
      </trkpt>
      <trkpt lat="43.70073" lon="1.15482">
        <ele>178.80000305176</ele>
        <time>2015-02-07T19:07:52.000Z</time>
      </trkpt>
      <trkpt lat="43.70067" lon="1.15469">
        <ele>178.60000610352</ele>
        <time>2015-02-07T19:07:56.000Z</time>
      </trkpt>
      <trkpt lat="43.70066" lon="1.15466">
        <ele>178.60000610352</ele>
        <time>2015-02-07T19:07:57.000Z</time>
      </trkpt>
      <trkpt lat="43.70058" lon="1.15444">
        <ele>178.39999389648</ele>
        <time>2015-02-07T19:08:04.000Z</time>
      </trkpt>
      <trkpt lat="43.70051" lon="1.1542">
        <ele>178.39999389648</ele>
        <time>2015-02-07T19:08:11.000Z</time>
      </trkpt>
      <trkpt lat="43.70044" lon="1.15395">
        <ele>178.39999389648</ele>
        <time>2015-02-07T19:08:18.000Z</time>
      </trkpt>
      <trkpt lat="43.70036" lon="1.1538">
        <ele>178.39999389648</ele>
        <time>2015-02-07T19:08:23.000Z</time>
      </trkpt>
      <trkpt lat="43.70029" lon="1.15371">
        <ele>178.19999694824</ele>
        <time>2015-02-07T19:08:27.000Z</time>
      </trkpt>
      <trkpt lat="43.70019" lon="1.15364">
        <ele>178.19999694824</ele>
        <time>2015-02-07T19:08:32.000Z</time>
      </trkpt>
      <trkpt lat="43.70017" lon="1.15351">
        <ele>178.19999694824</ele>
        <time>2015-02-07T19:08:36.000Z</time>
      </trkpt>
      <trkpt lat="43.7002" lon="1.15343">
        <ele>178</ele>
        <time>2015-02-07T19:08:41.000Z</time>
      </trkpt>
      <trkpt lat="43.70019" lon="1.15336">
        <ele>178</ele>
        <time>2015-02-07T19:08:44.000Z</time>
      </trkpt>
      <trkpt lat="43.70026" lon="1.15329">
        <ele>178</ele>
        <time>2015-02-07T19:08:48.000Z</time>
      </trkpt>
      <trkpt lat="43.70029" lon="1.15329">
        <ele>178</ele>
        <time>2015-02-07T19:08:49.000Z</time>
      </trkpt>
      <trkpt lat="43.70045" lon="1.1532">
        <ele>178</ele>
        <time>2015-02-07T19:08:56.000Z</time>
      </trkpt>
      <trkpt lat="43.70055" lon="1.15311">
        <ele>177.80000305176</ele>
        <time>2015-02-07T19:09:01.000Z</time>
      </trkpt>
      <trkpt lat="43.70064" lon="1.15298">
        <ele>177.80000305176</ele>
        <time>2015-02-07T19:09:06.000Z</time>
      </trkpt>
      <trkpt lat="43.7007" lon="1.15279">
        <ele>177.60000610352</ele>
        <time>2015-02-07T19:09:12.000Z</time>
      </trkpt>
      <trkpt lat="43.70071" lon="1.15262">
        <ele>177.60000610352</ele>
        <time>2015-02-07T19:09:17.000Z</time>
      </trkpt>
      <trkpt lat="43.7007" lon="1.15237">
        <ele>177.39999389648</ele>
        <time>2015-02-07T19:09:24.000Z</time>
      </trkpt>
      <trkpt lat="43.7007" lon="1.15218">
        <ele>177.39999389648</ele>
        <time>2015-02-07T19:09:30.000Z</time>
      </trkpt>
      <trkpt lat="43.70071" lon="1.15201">
        <ele>177.19999694824</ele>
        <time>2015-02-07T19:09:35.000Z</time>
      </trkpt>
      <trkpt lat="43.70068" lon="1.15177">
        <ele>177.19999694824</ele>
        <time>2015-02-07T19:09:42.000Z</time>
      </trkpt>
      <trkpt lat="43.70067" lon="1.15172">
        <ele>177</ele>
        <time>2015-02-07T19:09:44.000Z</time>
      </trkpt>
      <trkpt lat="43.70067" lon="1.15167">
        <ele>177</ele>
        <time>2015-02-07T19:09:46.000Z</time>
      </trkpt>
      <trkpt lat="43.70068" lon="1.15155">
        <ele>177</ele>
        <time>2015-02-07T19:09:50.000Z</time>
      </trkpt>
      <trkpt lat="43.70068" lon="1.15152">
        <ele>176.80000305176</ele>
        <time>2015-02-07T19:09:51.000Z</time>
      </trkpt>
      <trkpt lat="43.7007" lon="1.15135">
        <ele>176.80000305176</ele>
        <time>2015-02-07T19:09:57.000Z</time>
      </trkpt>
      <trkpt lat="43.70071" lon="1.15132">
        <ele>176.60000610352</ele>
        <time>2015-02-07T19:09:59.000Z</time>
      </trkpt>
      <trkpt lat="43.70072" lon="1.15127">
        <ele>176.60000610352</ele>
        <time>2015-02-07T19:10:01.000Z</time>
      </trkpt>
      <trkpt lat="43.70074" lon="1.15109">
        <ele>176.39999389648</ele>
        <time>2015-02-07T19:10:07.000Z</time>
      </trkpt>
      <trkpt lat="43.70076" lon="1.15085">
        <ele>176.39999389648</ele>
        <time>2015-02-07T19:10:14.000Z</time>
      </trkpt>
      <trkpt lat="43.70074" lon="1.15068">
        <ele>176.19999694824</ele>
        <time>2015-02-07T19:10:19.000Z</time>
      </trkpt>
      <trkpt lat="43.70068" lon="1.15053">
        <ele>176.19999694824</ele>
        <time>2015-02-07T19:10:24.000Z</time>
      </trkpt>
      <trkpt lat="43.70058" lon="1.15037">
        <ele>176.19999694824</ele>
        <time>2015-02-07T19:10:30.000Z</time>
      </trkpt>
      <trkpt lat="43.7005" lon="1.15024">
        <ele>176.19999694824</ele>
        <time>2015-02-07T19:10:35.000Z</time>
      </trkpt>
      <trkpt lat="43.70038" lon="1.15005">
        <ele>176.39999389648</ele>
        <time>2015-02-07T19:10:42.000Z</time>
      </trkpt>
      <trkpt lat="43.70031" lon="1.14987">
        <ele>176.39999389648</ele>
        <time>2015-02-07T19:10:48.000Z</time>
      </trkpt>
      <trkpt lat="43.70028" lon="1.14971">
        <ele>176.39999389648</ele>
        <time>2015-02-07T19:10:53.000Z</time>
      </trkpt>
      <trkpt lat="43.7002" lon="1.14955">
        <ele>176.39999389648</ele>
        <time>2015-02-07T19:10:59.000Z</time>
      </trkpt>
      <trkpt lat="43.70015" lon="1.14953">
        <ele>176.39999389648</ele>
        <time>2015-02-07T19:11:02.000Z</time>
      </trkpt>
      <trkpt lat="43.70012" lon="1.14954">
        <ele>176.39999389648</ele>
        <time>2015-02-07T19:11:04.000Z</time>
      </trkpt>
      <trkpt lat="43.70002" lon="1.1495">
        <ele>176.39999389648</ele>
        <time>2015-02-07T19:11:09.000Z</time>
      </trkpt>
      <trkpt lat="43.7" lon="1.1494">
        <ele>176.39999389648</ele>
        <time>2015-02-07T19:11:13.000Z</time>
      </trkpt>
      <trkpt lat="43.70001" lon="1.14933">
        <ele>176.39999389648</ele>
        <time>2015-02-07T19:11:15.000Z</time>
      </trkpt>
      <trkpt lat="43.70004" lon="1.14928">
        <ele>176.39999389648</ele>
        <time>2015-02-07T19:11:17.000Z</time>
      </trkpt>
      <trkpt lat="43.70006" lon="1.14926">
        <ele>176.39999389648</ele>
        <time>2015-02-07T19:11:18.000Z</time>
      </trkpt>
      <trkpt lat="43.70012" lon="1.14908">
        <ele>176.19999694824</ele>
        <time>2015-02-07T19:11:24.000Z</time>
      </trkpt>
      <trkpt lat="43.70012" lon="1.14887">
        <ele>176</ele>
        <time>2015-02-07T19:11:30.000Z</time>
      </trkpt>
      <trkpt lat="43.70014" lon="1.14863">
        <ele>176</ele>
        <time>2015-02-07T19:11:37.000Z</time>
      </trkpt>
      <trkpt lat="43.70014" lon="1.14843">
        <ele>175.80000305176</ele>
        <time>2015-02-07T19:11:43.000Z</time>
      </trkpt>
      <trkpt lat="43.70016" lon="1.14819">
        <ele>175.80000305176</ele>
        <time>2015-02-07T19:11:50.000Z</time>
      </trkpt>
      <trkpt lat="43.70017" lon="1.14796">
        <ele>176</ele>
        <time>2015-02-07T19:11:57.000Z</time>
      </trkpt>
      <trkpt lat="43.70019" lon="1.14773">
        <ele>176</ele>
        <time>2015-02-07T19:12:04.000Z</time>
      </trkpt>
      <trkpt lat="43.7002" lon="1.1475">
        <ele>176.39999389648</ele>
        <time>2015-02-07T19:12:11.000Z</time>
      </trkpt>
      <trkpt lat="43.7002" lon="1.14729">
        <ele>176.60000610352</ele>
        <time>2015-02-07T19:12:18.000Z</time>
      </trkpt>
      <trkpt lat="43.70019" lon="1.14717">
        <ele>176.80000305176</ele>
        <time>2015-02-07T19:12:22.000Z</time>
      </trkpt>
      <trkpt lat="43.70017" lon="1.14698">
        <ele>176.80000305176</ele>
        <time>2015-02-07T19:12:28.000Z</time>
      </trkpt>
      <trkpt lat="43.70017" lon="1.1468">
        <ele>177</ele>
        <time>2015-02-07T19:12:34.000Z</time>
      </trkpt>
      <trkpt lat="43.70016" lon="1.14661">
        <ele>177.19999694824</ele>
        <time>2015-02-07T19:12:40.000Z</time>
      </trkpt>
      <trkpt lat="43.70015" lon="1.14642">
        <ele>177.39999389648</ele>
        <time>2015-02-07T19:12:46.000Z</time>
      </trkpt>
      <trkpt lat="43.70013" lon="1.14625">
        <ele>177.80000305176</ele>
        <time>2015-02-07T19:12:51.000Z</time>
      </trkpt>
      <trkpt lat="43.70013" lon="1.14606">
        <ele>178.19999694824</ele>
        <time>2015-02-07T19:12:57.000Z</time>
      </trkpt>
      <trkpt lat="43.70012" lon="1.1458">
        <ele>178.60000610352</ele>
        <time>2015-02-07T19:13:04.000Z</time>
      </trkpt>
      <trkpt lat="43.7001" lon="1.14559">
        <ele>178.80000305176</ele>
        <time>2015-02-07T19:13:10.000Z</time>
      </trkpt>
      <trkpt lat="43.70009" lon="1.14537">
        <ele>178.80000305176</ele>
        <time>2015-02-07T19:13:16.000Z</time>
      </trkpt>
      <trkpt lat="43.7001" lon="1.14519">
        <ele>178.80000305176</ele>
        <time>2015-02-07T19:13:21.000Z</time>
      </trkpt>
      <trkpt lat="43.70012" lon="1.14493">
        <ele>178.80000305176</ele>
        <time>2015-02-07T19:13:28.000Z</time>
      </trkpt>
      <trkpt lat="43.70012" lon="1.1449">
        <ele>178.80000305176</ele>
        <time>2015-02-07T19:13:29.000Z</time>
      </trkpt>
      <trkpt lat="43.70016" lon="1.14469">
        <ele>178.80000305176</ele>
        <time>2015-02-07T19:13:35.000Z</time>
      </trkpt>
      <trkpt lat="43.70017" lon="1.14447">
        <ele>178.80000305176</ele>
        <time>2015-02-07T19:13:41.000Z</time>
      </trkpt>
      <trkpt lat="43.70017" lon="1.14429">
        <ele>178.80000305176</ele>
        <time>2015-02-07T19:13:46.000Z</time>
      </trkpt>
      <trkpt lat="43.70017" lon="1.14408">
        <ele>178.80000305176</ele>
        <time>2015-02-07T19:13:52.000Z</time>
      </trkpt>
      <trkpt lat="43.70019" lon="1.14387">
        <ele>178.80000305176</ele>
        <time>2015-02-07T19:13:58.000Z</time>
      </trkpt>
      <trkpt lat="43.7002" lon="1.14366">
        <ele>178.80000305176</ele>
        <time>2015-02-07T19:14:04.000Z</time>
      </trkpt>
      <trkpt lat="43.70017" lon="1.14354">
        <ele>179</ele>
        <time>2015-02-07T19:14:08.000Z</time>
      </trkpt>
      <trkpt lat="43.70015" lon="1.14355">
        <ele>178.80000305176</ele>
        <time>2015-02-07T19:14:09.000Z</time>
      </trkpt>
      <trkpt lat="43.7001" lon="1.14358">
        <ele>178.80000305176</ele>
        <time>2015-02-07T19:14:11.000Z</time>
      </trkpt>
      <trkpt lat="43.69998" lon="1.1436">
        <ele>178.80000305176</ele>
        <time>2015-02-07T19:14:16.000Z</time>
      </trkpt>
      <trkpt lat="43.69992" lon="1.14362">
        <ele>178.80000305176</ele>
        <time>2015-02-07T19:14:19.000Z</time>
      </trkpt>
      <trkpt lat="43.69985" lon="1.14365">
        <ele>178.80000305176</ele>
        <time>2015-02-07T19:14:22.000Z</time>
      </trkpt>
      <trkpt lat="43.69972" lon="1.14367">
        <ele>178.80000305176</ele>
        <time>2015-02-07T19:14:28.000Z</time>
      </trkpt>
      <trkpt lat="43.69961" lon="1.14369">
        <ele>178.60000610352</ele>
        <time>2015-02-07T19:14:33.000Z</time>
      </trkpt>
      <trkpt lat="43.6995" lon="1.14368">
        <ele>178.60000610352</ele>
        <time>2015-02-07T19:14:38.000Z</time>
      </trkpt>
      <trkpt lat="43.69939" lon="1.14367">
        <ele>178.60000610352</ele>
        <time>2015-02-07T19:14:44.000Z</time>
      </trkpt>
      <trkpt lat="43.6993" lon="1.14364">
        <ele>178.39999389648</ele>
        <time>2015-02-07T19:14:49.000Z</time>
      </trkpt>
      <trkpt lat="43.69918" lon="1.14361">
        <ele>178.39999389648</ele>
        <time>2015-02-07T19:14:55.000Z</time>
      </trkpt>
      <trkpt lat="43.69909" lon="1.14358">
        <ele>178.60000610352</ele>
        <time>2015-02-07T19:15:00.000Z</time>
      </trkpt>
      <trkpt lat="43.699" lon="1.14351">
        <ele>178.60000610352</ele>
        <time>2015-02-07T19:15:05.000Z</time>
      </trkpt>
      <trkpt lat="43.69892" lon="1.14342">
        <ele>178.80000305176</ele>
        <time>2015-02-07T19:15:11.000Z</time>
      </trkpt>
      <trkpt lat="43.6988" lon="1.14342">
        <ele>179</ele>
        <time>2015-02-07T19:15:16.000Z</time>
      </trkpt>
      <trkpt lat="43.69875" lon="1.14342">
        <ele>179</ele>
        <time>2015-02-07T19:15:18.000Z</time>
      </trkpt>
      <trkpt lat="43.69871" lon="1.14342">
        <ele>179.19999694824</ele>
        <time>2015-02-07T19:15:20.000Z</time>
      </trkpt>
      <trkpt lat="43.6986" lon="1.14342">
        <ele>179.60000610352</ele>
        <time>2015-02-07T19:15:27.000Z</time>
      </trkpt>
      <trkpt lat="43.69844" lon="1.14341">
        <ele>179.80000305176</ele>
        <time>2015-02-07T19:15:34.000Z</time>
      </trkpt>
      <trkpt lat="43.69833" lon="1.14342">
        <ele>180.39999389648</ele>
        <time>2015-02-07T19:15:39.000Z</time>
      </trkpt>
      <trkpt lat="43.69825" lon="1.14341">
        <ele>180.60000610352</ele>
        <time>2015-02-07T19:15:43.000Z</time>
      </trkpt>
      <trkpt lat="43.69815" lon="1.14344">
        <ele>181.19999694824</ele>
        <time>2015-02-07T19:15:47.000Z</time>
      </trkpt>
      <trkpt lat="43.69805" lon="1.14344">
        <ele>181.80000305176</ele>
        <time>2015-02-07T19:15:51.000Z</time>
      </trkpt>
      <trkpt lat="43.69801" lon="1.14345">
        <ele>182</ele>
        <time>2015-02-07T19:15:53.000Z</time>
      </trkpt>
      <trkpt lat="43.69786" lon="1.14346">
        <ele>183.19999694824</ele>
        <time>2015-02-07T19:15:59.000Z</time>
      </trkpt>
      <trkpt lat="43.6978" lon="1.14344">
        <ele>183.60000610352</ele>
        <time>2015-02-07T19:16:02.000Z</time>
      </trkpt>
      <trkpt lat="43.69775" lon="1.14345">
        <ele>184</ele>
        <time>2015-02-07T19:16:04.000Z</time>
      </trkpt>
      <trkpt lat="43.69774" lon="1.14344">
        <ele>184.19999694824</ele>
        <time>2015-02-07T19:16:05.000Z</time>
      </trkpt>
      <trkpt lat="43.69768" lon="1.1434">
        <ele>184.80000305176</ele>
        <time>2015-02-07T19:16:09.000Z</time>
      </trkpt>
      <trkpt lat="43.69764" lon="1.14338">
        <ele>185</ele>
        <time>2015-02-07T19:16:11.000Z</time>
      </trkpt>
      <trkpt lat="43.69754" lon="1.14335">
        <ele>185.60000610352</ele>
        <time>2015-02-07T19:16:16.000Z</time>
      </trkpt>
      <trkpt lat="43.69744" lon="1.14332">
        <ele>186.39999389648</ele>
        <time>2015-02-07T19:16:21.000Z</time>
      </trkpt>
      <trkpt lat="43.69734" lon="1.14327">
        <ele>187.19999694824</ele>
        <time>2015-02-07T19:16:26.000Z</time>
      </trkpt>
      <trkpt lat="43.69726" lon="1.14329">
        <ele>188</ele>
        <time>2015-02-07T19:16:30.000Z</time>
      </trkpt>
      <trkpt lat="43.69719" lon="1.14333">
        <ele>188.39999389648</ele>
        <time>2015-02-07T19:16:33.000Z</time>
      </trkpt>
      <trkpt lat="43.69712" lon="1.14337">
        <ele>189.19999694824</ele>
        <time>2015-02-07T19:16:37.000Z</time>
      </trkpt>
      <trkpt lat="43.69704" lon="1.14342">
        <ele>189.80000305176</ele>
        <time>2015-02-07T19:16:41.000Z</time>
      </trkpt>
      <trkpt lat="43.69699" lon="1.14346">
        <ele>190.19999694824</ele>
        <time>2015-02-07T19:16:44.000Z</time>
      </trkpt>
      <trkpt lat="43.69696" lon="1.14347">
        <ele>190.39999389648</ele>
        <time>2015-02-07T19:16:45.000Z</time>
      </trkpt>
      <trkpt lat="43.69688" lon="1.14354">
        <ele>190.80000305176</ele>
        <time>2015-02-07T19:16:49.000Z</time>
      </trkpt>
      <trkpt lat="43.69679" lon="1.14358">
        <ele>191.19999694824</ele>
        <time>2015-02-07T19:16:53.000Z</time>
      </trkpt>
      <trkpt lat="43.69671" lon="1.14364">
        <ele>191.80000305176</ele>
        <time>2015-02-07T19:16:57.000Z</time>
      </trkpt>
      <trkpt lat="43.6967" lon="1.14365">
        <ele>192</ele>
        <time>2015-02-07T19:16:58.000Z</time>
      </trkpt>
      <trkpt lat="43.69659" lon="1.14367">
        <ele>192.80000305176</ele>
        <time>2015-02-07T19:17:03.000Z</time>
      </trkpt>
      <trkpt lat="43.69651" lon="1.14368">
        <ele>193.19999694824</ele>
        <time>2015-02-07T19:17:06.000Z</time>
      </trkpt>
      <trkpt lat="43.69644" lon="1.1437">
        <ele>193.60000610352</ele>
        <time>2015-02-07T19:17:09.000Z</time>
      </trkpt>
      <trkpt lat="43.6964" lon="1.14375">
        <ele>194</ele>
        <time>2015-02-07T19:17:12.000Z</time>
      </trkpt>
      <trkpt lat="43.69638" lon="1.14378">
        <ele>194.19999694824</ele>
        <time>2015-02-07T19:17:13.000Z</time>
      </trkpt>
      <trkpt lat="43.69633" lon="1.14381">
        <ele>194.60000610352</ele>
        <time>2015-02-07T19:17:16.000Z</time>
      </trkpt>
      <trkpt lat="43.69632" lon="1.14382">
        <ele>194.60000610352</ele>
        <time>2015-02-07T19:17:17.000Z</time>
      </trkpt>
      <trkpt lat="43.69626" lon="1.14386">
        <ele>195.39999389648</ele>
        <time>2015-02-07T19:17:22.000Z</time>
      </trkpt>
      <trkpt lat="43.69625" lon="1.14386">
        <ele>195.60000610352</ele>
        <time>2015-02-07T19:17:23.000Z</time>
      </trkpt>
      <trkpt lat="43.6962" lon="1.14388">
        <ele>196.19999694824</ele>
        <time>2015-02-07T19:17:27.000Z</time>
      </trkpt>
      <trkpt lat="43.69619" lon="1.14389">
        <ele>196.39999389648</ele>
        <time>2015-02-07T19:17:28.000Z</time>
      </trkpt>
      <trkpt lat="43.69614" lon="1.14392">
        <ele>197.19999694824</ele>
        <time>2015-02-07T19:17:33.000Z</time>
      </trkpt>
      <trkpt lat="43.69608" lon="1.14393">
        <ele>198</ele>
        <time>2015-02-07T19:17:38.000Z</time>
      </trkpt>
      <trkpt lat="43.69603" lon="1.14384">
        <ele>199.39999389648</ele>
        <time>2015-02-07T19:17:45.000Z</time>
      </trkpt>
      <trkpt lat="43.69602" lon="1.14383">
        <ele>199.60000610352</ele>
        <time>2015-02-07T19:17:46.000Z</time>
      </trkpt>
      <trkpt lat="43.69601" lon="1.14382">
        <ele>199.60000610352</ele>
        <time>2015-02-07T19:17:47.000Z</time>
      </trkpt>
      <trkpt lat="43.69598" lon="1.1438">
        <ele>200.39999389648</ele>
        <time>2015-02-07T19:17:50.000Z</time>
      </trkpt>
      <trkpt lat="43.69595" lon="1.14382">
        <ele>200.60000610352</ele>
        <time>2015-02-07T19:17:52.000Z</time>
      </trkpt>
      <trkpt lat="43.69593" lon="1.14382">
        <ele>201</ele>
        <time>2015-02-07T19:17:54.000Z</time>
      </trkpt>
      <trkpt lat="43.69585" lon="1.14382">
        <ele>202.39999389648</ele>
        <time>2015-02-07T19:18:00.000Z</time>
      </trkpt>
      <trkpt lat="43.69581" lon="1.14383">
        <ele>203.19999694824</ele>
        <time>2015-02-07T19:18:05.000Z</time>
      </trkpt>
      <trkpt lat="43.6958" lon="1.14383">
        <ele>203.80000305176</ele>
        <time>2015-02-07T19:18:07.000Z</time>
      </trkpt>
      <trkpt lat="43.69577" lon="1.14381">
        <ele>204.80000305176</ele>
        <time>2015-02-07T19:18:12.000Z</time>
      </trkpt>
      <trkpt lat="43.69575" lon="1.14381">
        <ele>205.60000610352</ele>
        <time>2015-02-07T19:18:15.000Z</time>
      </trkpt>
      <trkpt lat="43.69573" lon="1.14381">
        <ele>206.19999694824</ele>
        <time>2015-02-07T19:18:18.000Z</time>
      </trkpt>
      <trkpt lat="43.69565" lon="1.14381">
        <ele>207.60000610352</ele>
        <time>2015-02-07T19:18:26.000Z</time>
      </trkpt>
      <trkpt lat="43.69561" lon="1.14381">
        <ele>208.39999389648</ele>
        <time>2015-02-07T19:18:30.000Z</time>
      </trkpt>
      <trkpt lat="43.6956" lon="1.14381">
        <ele>208.60000610352</ele>
        <time>2015-02-07T19:18:31.000Z</time>
      </trkpt>
      <trkpt lat="43.69559" lon="1.14381">
        <ele>208.80000305176</ele>
        <time>2015-02-07T19:18:33.000Z</time>
      </trkpt>
      <trkpt lat="43.69558" lon="1.14381">
        <ele>209.19999694824</ele>
        <time>2015-02-07T19:18:35.000Z</time>
      </trkpt>
      <trkpt lat="43.69556" lon="1.14381">
        <ele>209.60000610352</ele>
        <time>2015-02-07T19:18:37.000Z</time>
      </trkpt>
      <trkpt lat="43.6955" lon="1.14382">
        <ele>210.39999389648</ele>
        <time>2015-02-07T19:18:43.000Z</time>
      </trkpt>
      <trkpt lat="43.69549" lon="1.14383">
        <ele>210.80000305176</ele>
        <time>2015-02-07T19:18:45.000Z</time>
      </trkpt>
      <trkpt lat="43.69547" lon="1.14384">
        <ele>211.19999694824</ele>
        <time>2015-02-07T19:18:48.000Z</time>
      </trkpt>
      <trkpt lat="43.69545" lon="1.14384">
        <ele>211.39999389648</ele>
        <time>2015-02-07T19:18:49.000Z</time>
      </trkpt>
      <trkpt lat="43.69541" lon="1.14385">
        <ele>212</ele>
        <time>2015-02-07T19:18:54.000Z</time>
      </trkpt>
      <trkpt lat="43.6954" lon="1.14384">
        <ele>212.19999694824</ele>
        <time>2015-02-07T19:18:55.000Z</time>
      </trkpt>
      <trkpt lat="43.69536" lon="1.14383">
        <ele>212.60000610352</ele>
        <time>2015-02-07T19:18:58.000Z</time>
      </trkpt>
      <trkpt lat="43.69536" lon="1.14383">
        <ele>212.60000610352</ele>
        <time>2015-02-07T19:18:59.000Z</time>
      </trkpt>
      <trkpt lat="43.69533" lon="1.14382">
        <ele>212.80000305176</ele>
        <time>2015-02-07T19:19:02.000Z</time>
      </trkpt>
      <trkpt lat="43.69531" lon="1.14381">
        <ele>213</ele>
        <time>2015-02-07T19:19:04.000Z</time>
      </trkpt>
      <trkpt lat="43.69524" lon="1.14377">
        <ele>213.39999389648</ele>
        <time>2015-02-07T19:19:09.000Z</time>
      </trkpt>
      <trkpt lat="43.69517" lon="1.1437">
        <ele>214.19999694824</ele>
        <time>2015-02-07T19:19:15.000Z</time>
      </trkpt>
      <trkpt lat="43.69515" lon="1.14368">
        <ele>214.60000610352</ele>
        <time>2015-02-07T19:19:17.000Z</time>
      </trkpt>
      <trkpt lat="43.69512" lon="1.14364">
        <ele>215</ele>
        <time>2015-02-07T19:19:20.000Z</time>
      </trkpt>
      <trkpt lat="43.69511" lon="1.14363">
        <ele>215</ele>
        <time>2015-02-07T19:19:21.000Z</time>
      </trkpt>
      <trkpt lat="43.69506" lon="1.14359">
        <ele>215.60000610352</ele>
        <time>2015-02-07T19:19:25.000Z</time>
      </trkpt>
      <trkpt lat="43.69501" lon="1.14355">
        <ele>216.19999694824</ele>
        <time>2015-02-07T19:19:30.000Z</time>
      </trkpt>
      <trkpt lat="43.69501" lon="1.14353">
        <ele>216.19999694824</ele>
        <time>2015-02-07T19:19:31.000Z</time>
      </trkpt>
      <trkpt lat="43.69496" lon="1.14346">
        <ele>217.39999389648</ele>
        <time>2015-02-07T19:19:36.000Z</time>
      </trkpt>
      <trkpt lat="43.69494" lon="1.14344">
        <ele>217.80000305176</ele>
        <time>2015-02-07T19:19:38.000Z</time>
      </trkpt>
      <trkpt lat="43.69491" lon="1.14337">
        <ele>218.80000305176</ele>
        <time>2015-02-07T19:19:42.000Z</time>
      </trkpt>
      <trkpt lat="43.69491" lon="1.14335">
        <ele>219</ele>
        <time>2015-02-07T19:19:43.000Z</time>
      </trkpt>
      <trkpt lat="43.69491" lon="1.14333">
        <ele>219.39999389648</ele>
        <time>2015-02-07T19:19:44.000Z</time>
      </trkpt>
      <trkpt lat="43.69494" lon="1.14328">
        <ele>220</ele>
        <time>2015-02-07T19:19:47.000Z</time>
      </trkpt>
      <trkpt lat="43.69498" lon="1.14321">
        <ele>220.39999389648</ele>
        <time>2015-02-07T19:19:50.000Z</time>
      </trkpt>
      <trkpt lat="43.69506" lon="1.14311">
        <ele>220.80000305176</ele>
        <time>2015-02-07T19:19:54.000Z</time>
      </trkpt>
      <trkpt lat="43.69517" lon="1.14298">
        <ele>221.39999389648</ele>
        <time>2015-02-07T19:20:00.000Z</time>
      </trkpt>
      <trkpt lat="43.69525" lon="1.14292">
        <ele>221.60000610352</ele>
        <time>2015-02-07T19:20:04.000Z</time>
      </trkpt>
      <trkpt lat="43.69537" lon="1.14282">
        <ele>222</ele>
        <time>2015-02-07T19:20:10.000Z</time>
      </trkpt>
      <trkpt lat="43.69539" lon="1.14276">
        <ele>222.19999694824</ele>
        <time>2015-02-07T19:20:14.000Z</time>
      </trkpt>
      <trkpt lat="43.69539" lon="1.14274">
        <ele>222.39999389648</ele>
        <time>2015-02-07T19:20:15.000Z</time>
      </trkpt>
      <trkpt lat="43.69539" lon="1.14269">
        <ele>222.80000305176</ele>
        <time>2015-02-07T19:20:22.000Z</time>
      </trkpt>
      <trkpt lat="43.6954" lon="1.14268">
        <ele>223</ele>
        <time>2015-02-07T19:20:27.000Z</time>
      </trkpt>
      <trkpt lat="43.6954" lon="1.14263">
        <ele>223.39999389648</ele>
        <time>2015-02-07T19:20:32.000Z</time>
      </trkpt>
      <trkpt lat="43.6954" lon="1.14258">
        <ele>223.60000610352</ele>
        <time>2015-02-07T19:20:38.000Z</time>
      </trkpt>
      <trkpt lat="43.69539" lon="1.14251">
        <ele>224.19999694824</ele>
        <time>2015-02-07T19:20:45.000Z</time>
      </trkpt>
      <trkpt lat="43.69538" lon="1.14241">
        <ele>224.80000305176</ele>
        <time>2015-02-07T19:20:53.000Z</time>
      </trkpt>
      <trkpt lat="43.69536" lon="1.14229">
        <ele>225.60000610352</ele>
        <time>2015-02-07T19:21:01.000Z</time>
      </trkpt>
      <trkpt lat="43.69533" lon="1.14214">
        <ele>226.60000610352</ele>
        <time>2015-02-07T19:21:10.000Z</time>
      </trkpt>
      <trkpt lat="43.69532" lon="1.14205">
        <ele>227.39999389648</ele>
        <time>2015-02-07T19:21:16.000Z</time>
      </trkpt>
      <trkpt lat="43.69531" lon="1.14194">
        <ele>228.39999389648</ele>
        <time>2015-02-07T19:21:24.000Z</time>
      </trkpt>
      <trkpt lat="43.6953" lon="1.14186">
        <ele>229.39999389648</ele>
        <time>2015-02-07T19:21:31.000Z</time>
      </trkpt>
      <trkpt lat="43.6953" lon="1.14185">
        <ele>229.39999389648</ele>
        <time>2015-02-07T19:21:32.000Z</time>
      </trkpt>
      <trkpt lat="43.69529" lon="1.14176">
        <ele>230.39999389648</ele>
        <time>2015-02-07T19:21:38.000Z</time>
      </trkpt>
      <trkpt lat="43.69528" lon="1.14163">
        <ele>231.60000610352</ele>
        <time>2015-02-07T19:21:47.000Z</time>
      </trkpt>
      <trkpt lat="43.69527" lon="1.14153">
        <ele>232.80000305176</ele>
        <time>2015-02-07T19:21:54.000Z</time>
      </trkpt>
      <trkpt lat="43.69525" lon="1.14143">
        <ele>233.60000610352</ele>
        <time>2015-02-07T19:21:59.000Z</time>
      </trkpt>
      <trkpt lat="43.69523" lon="1.14128">
        <ele>234.80000305176</ele>
        <time>2015-02-07T19:22:06.000Z</time>
      </trkpt>
      <trkpt lat="43.69521" lon="1.14112">
        <ele>236</ele>
        <time>2015-02-07T19:22:12.000Z</time>
      </trkpt>
      <trkpt lat="43.69519" lon="1.14088">
        <ele>237.60000610352</ele>
        <time>2015-02-07T19:22:20.000Z</time>
      </trkpt>
      <trkpt lat="43.69517" lon="1.1407">
        <ele>238.80000305176</ele>
        <time>2015-02-07T19:22:26.000Z</time>
      </trkpt>
      <trkpt lat="43.69514" lon="1.14062">
        <ele>239.39999389648</ele>
        <time>2015-02-07T19:22:30.000Z</time>
      </trkpt>
      <trkpt lat="43.69512" lon="1.14061">
        <ele>239.60000610352</ele>
        <time>2015-02-07T19:22:31.000Z</time>
      </trkpt>
      <trkpt lat="43.69506" lon="1.14059">
        <ele>240</ele>
        <time>2015-02-07T19:22:34.000Z</time>
      </trkpt>
      <trkpt lat="43.69501" lon="1.14061">
        <ele>240.60000610352</ele>
        <time>2015-02-07T19:22:37.000Z</time>
      </trkpt>
      <trkpt lat="43.69488" lon="1.14061">
        <ele>242</ele>
        <time>2015-02-07T19:22:44.000Z</time>
      </trkpt>
      <trkpt lat="43.69479" lon="1.14062">
        <ele>243.19999694824</ele>
        <time>2015-02-07T19:22:49.000Z</time>
      </trkpt>
      <trkpt lat="43.69464" lon="1.14062">
        <ele>245.19999694824</ele>
        <time>2015-02-07T19:22:57.000Z</time>
      </trkpt>
      <trkpt lat="43.69453" lon="1.14062">
        <ele>246.60000610352</ele>
        <time>2015-02-07T19:23:03.000Z</time>
      </trkpt>
      <trkpt lat="43.69442" lon="1.1406">
        <ele>247.60000610352</ele>
        <time>2015-02-07T19:23:08.000Z</time>
      </trkpt>
      <trkpt lat="43.69434" lon="1.14054">
        <ele>248.60000610352</ele>
        <time>2015-02-07T19:23:13.000Z</time>
      </trkpt>
      <trkpt lat="43.69429" lon="1.14037">
        <ele>249.19999694824</ele>
        <time>2015-02-07T19:23:18.000Z</time>
      </trkpt>
      <trkpt lat="43.69427" lon="1.14014">
        <ele>249.60000610352</ele>
        <time>2015-02-07T19:23:24.000Z</time>
      </trkpt>
      <trkpt lat="43.6942" lon="1.1399">
        <ele>249.80000305176</ele>
        <time>2015-02-07T19:23:30.000Z</time>
      </trkpt>
      <trkpt lat="43.69412" lon="1.1397">
        <ele>249.60000610352</ele>
        <time>2015-02-07T19:23:36.000Z</time>
      </trkpt>
      <trkpt lat="43.69404" lon="1.13949">
        <ele>249.60000610352</ele>
        <time>2015-02-07T19:23:42.000Z</time>
      </trkpt>
      <trkpt lat="43.69404" lon="1.13929">
        <ele>249.60000610352</ele>
        <time>2015-02-07T19:23:47.000Z</time>
      </trkpt>
      <trkpt lat="43.6941" lon="1.13909">
        <ele>249.39999389648</ele>
        <time>2015-02-07T19:23:53.000Z</time>
      </trkpt>
      <trkpt lat="43.6942" lon="1.13893">
        <ele>249</ele>
        <time>2015-02-07T19:23:59.000Z</time>
      </trkpt>
      <trkpt lat="43.69432" lon="1.13879">
        <ele>248.60000610352</ele>
        <time>2015-02-07T19:24:05.000Z</time>
      </trkpt>
      <trkpt lat="43.69445" lon="1.1386">
        <ele>247.80000305176</ele>
        <time>2015-02-07T19:24:13.000Z</time>
      </trkpt>
      <trkpt lat="43.69456" lon="1.13849">
        <ele>247.19999694824</ele>
        <time>2015-02-07T19:24:19.000Z</time>
      </trkpt>
      <trkpt lat="43.69468" lon="1.13839">
        <ele>246.60000610352</ele>
        <time>2015-02-07T19:24:25.000Z</time>
      </trkpt>
      <trkpt lat="43.69482" lon="1.13831">
        <ele>245.80000305176</ele>
        <time>2015-02-07T19:24:31.000Z</time>
      </trkpt>
      <trkpt lat="43.69495" lon="1.13819">
        <ele>244.80000305176</ele>
        <time>2015-02-07T19:24:37.000Z</time>
      </trkpt>
      <trkpt lat="43.69502" lon="1.13807">
        <ele>244</ele>
        <time>2015-02-07T19:24:42.000Z</time>
      </trkpt>
      <trkpt lat="43.69504" lon="1.13802">
        <ele>243.60000610352</ele>
        <time>2015-02-07T19:24:44.000Z</time>
      </trkpt>
      <trkpt lat="43.69506" lon="1.13795">
        <ele>243.39999389648</ele>
        <time>2015-02-07T19:24:46.000Z</time>
      </trkpt>
      <trkpt lat="43.69506" lon="1.13777">
        <ele>242.39999389648</ele>
        <time>2015-02-07T19:24:52.000Z</time>
      </trkpt>
      <trkpt lat="43.69504" lon="1.13763">
        <ele>241.39999389648</ele>
        <time>2015-02-07T19:24:58.000Z</time>
      </trkpt>
      <trkpt lat="43.69512" lon="1.1376">
        <ele>240.60000610352</ele>
        <time>2015-02-07T19:25:02.000Z</time>
      </trkpt>
      <trkpt lat="43.69522" lon="1.13762">
        <ele>239.80000305176</ele>
        <time>2015-02-07T19:25:06.000Z</time>
      </trkpt>
      <trkpt lat="43.69526" lon="1.13762">
        <ele>239.39999389648</ele>
        <time>2015-02-07T19:25:08.000Z</time>
      </trkpt>
      <trkpt lat="43.69536" lon="1.13765">
        <ele>238.39999389648</ele>
        <time>2015-02-07T19:25:13.000Z</time>
      </trkpt>
      <trkpt lat="43.69548" lon="1.13769">
        <ele>237.19999694824</ele>
        <time>2015-02-07T19:25:19.000Z</time>
      </trkpt>
      <trkpt lat="43.69561" lon="1.13774">
        <ele>235.80000305176</ele>
        <time>2015-02-07T19:25:25.000Z</time>
      </trkpt>
      <trkpt lat="43.6957" lon="1.13775">
        <ele>234.80000305176</ele>
        <time>2015-02-07T19:25:30.000Z</time>
      </trkpt>
      <trkpt lat="43.69584" lon="1.13777">
        <ele>233.80000305176</ele>
        <time>2015-02-07T19:25:35.000Z</time>
      </trkpt>
      <trkpt lat="43.696" lon="1.13776">
        <ele>232.60000610352</ele>
        <time>2015-02-07T19:25:41.000Z</time>
      </trkpt>
      <trkpt lat="43.69614" lon="1.13773">
        <ele>231.39999389648</ele>
        <time>2015-02-07T19:25:47.000Z</time>
      </trkpt>
      <trkpt lat="43.69626" lon="1.13775">
        <ele>230.19999694824</ele>
        <time>2015-02-07T19:25:52.000Z</time>
      </trkpt>
      <trkpt lat="43.69639" lon="1.13775">
        <ele>229.19999694824</ele>
        <time>2015-02-07T19:25:57.000Z</time>
      </trkpt>
      <trkpt lat="43.69658" lon="1.13773">
        <ele>227.60000610352</ele>
        <time>2015-02-07T19:26:04.000Z</time>
      </trkpt>
      <trkpt lat="43.69674" lon="1.13769">
        <ele>226</ele>
        <time>2015-02-07T19:26:10.000Z</time>
      </trkpt>
      <trkpt lat="43.69689" lon="1.13765">
        <ele>224.60000610352</ele>
        <time>2015-02-07T19:26:16.000Z</time>
      </trkpt>
      <trkpt lat="43.69707" lon="1.1376">
        <ele>223</ele>
        <time>2015-02-07T19:26:23.000Z</time>
      </trkpt>
      <trkpt lat="43.69719" lon="1.13757">
        <ele>221.80000305176</ele>
        <time>2015-02-07T19:26:28.000Z</time>
      </trkpt>
      <trkpt lat="43.69724" lon="1.13756">
        <ele>221.19999694824</ele>
        <time>2015-02-07T19:26:30.000Z</time>
      </trkpt>
      <trkpt lat="43.69733" lon="1.13752">
        <ele>220.39999389648</ele>
        <time>2015-02-07T19:26:34.000Z</time>
      </trkpt>
      <trkpt lat="43.69748" lon="1.13746">
        <ele>219</ele>
        <time>2015-02-07T19:26:40.000Z</time>
      </trkpt>
      <trkpt lat="43.69761" lon="1.13742">
        <ele>217.60000610352</ele>
        <time>2015-02-07T19:26:45.000Z</time>
      </trkpt>
      <trkpt lat="43.69776" lon="1.13738">
        <ele>216.19999694824</ele>
        <time>2015-02-07T19:26:51.000Z</time>
      </trkpt>
      <trkpt lat="43.69791" lon="1.13734">
        <ele>214.80000305176</ele>
        <time>2015-02-07T19:26:57.000Z</time>
      </trkpt>
      <trkpt lat="43.69806" lon="1.13731">
        <ele>213.19999694824</ele>
        <time>2015-02-07T19:27:03.000Z</time>
      </trkpt>
      <trkpt lat="43.69821" lon="1.13728">
        <ele>211.80000305176</ele>
        <time>2015-02-07T19:27:09.000Z</time>
      </trkpt>
      <trkpt lat="43.69839" lon="1.13724">
        <ele>210.19999694824</ele>
        <time>2015-02-07T19:27:16.000Z</time>
      </trkpt>
      <trkpt lat="43.69858" lon="1.13719">
        <ele>208.19999694824</ele>
        <time>2015-02-07T19:27:24.000Z</time>
      </trkpt>
      <trkpt lat="43.69871" lon="1.13709">
        <ele>206.80000305176</ele>
        <time>2015-02-07T19:27:30.000Z</time>
      </trkpt>
      <trkpt lat="43.69874" lon="1.13696">
        <ele>205.80000305176</ele>
        <time>2015-02-07T19:27:35.000Z</time>
      </trkpt>
      <trkpt lat="43.69878" lon="1.13682">
        <ele>204.60000610352</ele>
        <time>2015-02-07T19:27:40.000Z</time>
      </trkpt>
      <trkpt lat="43.69881" lon="1.13675">
        <ele>203.80000305176</ele>
        <time>2015-02-07T19:27:44.000Z</time>
      </trkpt>
      <trkpt lat="43.69888" lon="1.13666">
        <ele>202.60000610352</ele>
        <time>2015-02-07T19:27:49.000Z</time>
      </trkpt>
      <trkpt lat="43.69895" lon="1.13652">
        <ele>201.39999389648</ele>
        <time>2015-02-07T19:27:55.000Z</time>
      </trkpt>
      <trkpt lat="43.69903" lon="1.13642">
        <ele>200.39999389648</ele>
        <time>2015-02-07T19:28:00.000Z</time>
      </trkpt>
      <trkpt lat="43.69903" lon="1.13628">
        <ele>199.60000610352</ele>
        <time>2015-02-07T19:28:05.000Z</time>
      </trkpt>
      <trkpt lat="43.69903" lon="1.13626">
        <ele>199.19999694824</ele>
        <time>2015-02-07T19:28:07.000Z</time>
      </trkpt>
      <trkpt lat="43.69903" lon="1.13621">
        <ele>198.80000305176</ele>
        <time>2015-02-07T19:28:09.000Z</time>
      </trkpt>
      <trkpt lat="43.69904" lon="1.13611">
        <ele>198.19999694824</ele>
        <time>2015-02-07T19:28:12.000Z</time>
      </trkpt>
      <trkpt lat="43.69905" lon="1.13601">
        <ele>197.60000610352</ele>
        <time>2015-02-07T19:28:15.000Z</time>
      </trkpt>
      <trkpt lat="43.69907" lon="1.13578">
        <ele>196.60000610352</ele>
        <time>2015-02-07T19:28:22.000Z</time>
      </trkpt>
      <trkpt lat="43.69915" lon="1.13563">
        <ele>195.80000305176</ele>
        <time>2015-02-07T19:28:27.000Z</time>
      </trkpt>
      <trkpt lat="43.69928" lon="1.13562">
        <ele>195.39999389648</ele>
        <time>2015-02-07T19:28:32.000Z</time>
      </trkpt>
      <trkpt lat="43.6994" lon="1.13561">
        <ele>194.80000305176</ele>
        <time>2015-02-07T19:28:37.000Z</time>
      </trkpt>
      <trkpt lat="43.69954" lon="1.13561">
        <ele>194.19999694824</ele>
        <time>2015-02-07T19:28:42.000Z</time>
      </trkpt>
      <trkpt lat="43.69967" lon="1.13563">
        <ele>193.60000610352</ele>
        <time>2015-02-07T19:28:47.000Z</time>
      </trkpt>
      <trkpt lat="43.69981" lon="1.13561">
        <ele>193</ele>
        <time>2015-02-07T19:28:53.000Z</time>
      </trkpt>
      <trkpt lat="43.69994" lon="1.13562">
        <ele>192.60000610352</ele>
        <time>2015-02-07T19:28:58.000Z</time>
      </trkpt>
      <trkpt lat="43.70008" lon="1.13563">
        <ele>192</ele>
        <time>2015-02-07T19:29:04.000Z</time>
      </trkpt>
      <trkpt lat="43.70025" lon="1.13565">
        <ele>191.60000610352</ele>
        <time>2015-02-07T19:29:11.000Z</time>
      </trkpt>
      <trkpt lat="43.70038" lon="1.13566">
        <ele>191.19999694824</ele>
        <time>2015-02-07T19:29:17.000Z</time>
      </trkpt>
      <trkpt lat="43.70049" lon="1.13566">
        <ele>191</ele>
        <time>2015-02-07T19:29:22.000Z</time>
      </trkpt>
      <trkpt lat="43.70057" lon="1.13557">
        <ele>190.80000305176</ele>
        <time>2015-02-07T19:29:26.000Z</time>
      </trkpt>
      <trkpt lat="43.70065" lon="1.13548">
        <ele>190.60000610352</ele>
        <time>2015-02-07T19:29:32.000Z</time>
      </trkpt>
      <trkpt lat="43.70069" lon="1.13542">
        <ele>190.39999389648</ele>
        <time>2015-02-07T19:29:36.000Z</time>
      </trkpt>
      <trkpt lat="43.7007" lon="1.13541">
        <ele>190.39999389648</ele>
        <time>2015-02-07T19:29:37.000Z</time>
      </trkpt>
      <trkpt lat="43.70077" lon="1.13535">
        <ele>190.19999694824</ele>
        <time>2015-02-07T19:29:42.000Z</time>
      </trkpt>
      <trkpt lat="43.70078" lon="1.13534">
        <ele>190</ele>
        <time>2015-02-07T19:29:43.000Z</time>
      </trkpt>
      <trkpt lat="43.70087" lon="1.13526">
        <ele>189.80000305176</ele>
        <time>2015-02-07T19:29:49.000Z</time>
      </trkpt>
      <trkpt lat="43.70098" lon="1.13517">
        <ele>189.60000610352</ele>
        <time>2015-02-07T19:29:55.000Z</time>
      </trkpt>
      <trkpt lat="43.70107" lon="1.13507">
        <ele>189.19999694824</ele>
        <time>2015-02-07T19:30:01.000Z</time>
      </trkpt>
      <trkpt lat="43.70118" lon="1.13496">
        <ele>189</ele>
        <time>2015-02-07T19:30:08.000Z</time>
      </trkpt>
      <trkpt lat="43.70131" lon="1.13482">
        <ele>188.80000305176</ele>
        <time>2015-02-07T19:30:16.000Z</time>
      </trkpt>
      <trkpt lat="43.70143" lon="1.1347">
        <ele>188.39999389648</ele>
        <time>2015-02-07T19:30:24.000Z</time>
      </trkpt>
      <trkpt lat="43.70145" lon="1.13469">
        <ele>188.39999389648</ele>
        <time>2015-02-07T19:30:25.000Z</time>
      </trkpt>
      <trkpt lat="43.70148" lon="1.13465">
        <ele>188.39999389648</ele>
        <time>2015-02-07T19:30:28.000Z</time>
      </trkpt>
      <trkpt lat="43.70153" lon="1.1346">
        <ele>188.19999694824</ele>
        <time>2015-02-07T19:30:33.000Z</time>
      </trkpt>
      <trkpt lat="43.70154" lon="1.13459">
        <ele>188.19999694824</ele>
        <time>2015-02-07T19:30:34.000Z</time>
      </trkpt>
      <trkpt lat="43.70161" lon="1.13452">
        <ele>188</ele>
        <time>2015-02-07T19:30:38.000Z</time>
      </trkpt>
      <trkpt lat="43.70164" lon="1.13451">
        <ele>188</ele>
        <time>2015-02-07T19:30:40.000Z</time>
      </trkpt>
      <trkpt lat="43.70168" lon="1.13448">
        <ele>188</ele>
        <time>2015-02-07T19:30:43.000Z</time>
      </trkpt>
      <trkpt lat="43.70173" lon="1.13442">
        <ele>187.80000305176</ele>
        <time>2015-02-07T19:30:48.000Z</time>
      </trkpt>
      <trkpt lat="43.70174" lon="1.13441">
        <ele>187.80000305176</ele>
        <time>2015-02-07T19:30:49.000Z</time>
      </trkpt>
      <trkpt lat="43.70184" lon="1.13432">
        <ele>187.60000610352</ele>
        <time>2015-02-07T19:30:56.000Z</time>
      </trkpt>
      <trkpt lat="43.70187" lon="1.13427">
        <ele>187.39999389648</ele>
        <time>2015-02-07T19:31:00.000Z</time>
      </trkpt>
      <trkpt lat="43.70188" lon="1.13427">
        <ele>187.39999389648</ele>
        <time>2015-02-07T19:31:01.000Z</time>
      </trkpt>
      <trkpt lat="43.70194" lon="1.13421">
        <ele>187.39999389648</ele>
        <time>2015-02-07T19:31:06.000Z</time>
      </trkpt>
      <trkpt lat="43.70196" lon="1.1342">
        <ele>187.39999389648</ele>
        <time>2015-02-07T19:31:07.000Z</time>
      </trkpt>
      <trkpt lat="43.70202" lon="1.13414">
        <ele>187.19999694824</ele>
        <time>2015-02-07T19:31:12.000Z</time>
      </trkpt>
      <trkpt lat="43.70208" lon="1.13407">
        <ele>187.19999694824</ele>
        <time>2015-02-07T19:31:18.000Z</time>
      </trkpt>
      <trkpt lat="43.70213" lon="1.13402">
        <ele>187.19999694824</ele>
        <time>2015-02-07T19:31:23.000Z</time>
      </trkpt>
      <trkpt lat="43.70216" lon="1.13398">
        <ele>187.19999694824</ele>
        <time>2015-02-07T19:31:27.000Z</time>
      </trkpt>
      <trkpt lat="43.70218" lon="1.13395">
        <ele>187.39999389648</ele>
        <time>2015-02-07T19:31:29.000Z</time>
      </trkpt>
      <trkpt lat="43.70223" lon="1.13387">
        <ele>187.39999389648</ele>
        <time>2015-02-07T19:31:34.000Z</time>
      </trkpt>
      <trkpt lat="43.70233" lon="1.13376">
        <ele>187.60000610352</ele>
        <time>2015-02-07T19:31:40.000Z</time>
      </trkpt>
      <trkpt lat="43.70244" lon="1.13363">
        <ele>187.80000305176</ele>
        <time>2015-02-07T19:31:48.000Z</time>
      </trkpt>
      <trkpt lat="43.70251" lon="1.13355">
        <ele>188.19999694824</ele>
        <time>2015-02-07T19:31:54.000Z</time>
      </trkpt>
      <trkpt lat="43.70263" lon="1.13345">
        <ele>188.60000610352</ele>
        <time>2015-02-07T19:32:01.000Z</time>
      </trkpt>
      <trkpt lat="43.70269" lon="1.13339">
        <ele>188.80000305176</ele>
        <time>2015-02-07T19:32:06.000Z</time>
      </trkpt>
      <trkpt lat="43.7028" lon="1.1333">
        <ele>189</ele>
        <time>2015-02-07T19:32:13.000Z</time>
      </trkpt>
      <trkpt lat="43.70286" lon="1.13322">
        <ele>189</ele>
        <time>2015-02-07T19:32:19.000Z</time>
      </trkpt>
      <trkpt lat="43.7029" lon="1.13316">
        <ele>189.19999694824</ele>
        <time>2015-02-07T19:32:24.000Z</time>
      </trkpt>
      <trkpt lat="43.70291" lon="1.13314">
        <ele>189.19999694824</ele>
        <time>2015-02-07T19:32:25.000Z</time>
      </trkpt>
      <trkpt lat="43.70296" lon="1.1331">
        <ele>189.19999694824</ele>
        <time>2015-02-07T19:32:28.000Z</time>
      </trkpt>
      <trkpt lat="43.703" lon="1.13305">
        <ele>189.19999694824</ele>
        <time>2015-02-07T19:32:31.000Z</time>
      </trkpt>
      <trkpt lat="43.70311" lon="1.13294">
        <ele>189.39999389648</ele>
        <time>2015-02-07T19:32:38.000Z</time>
      </trkpt>
      <trkpt lat="43.70321" lon="1.13284">
        <ele>189.60000610352</ele>
        <time>2015-02-07T19:32:45.000Z</time>
      </trkpt>
      <trkpt lat="43.70322" lon="1.13282">
        <ele>189.60000610352</ele>
        <time>2015-02-07T19:32:47.000Z</time>
      </trkpt>
      <trkpt lat="43.70324" lon="1.13281">
        <ele>189.60000610352</ele>
        <time>2015-02-07T19:32:49.000Z</time>
      </trkpt>
      <trkpt lat="43.70329" lon="1.13276">
        <ele>189.80000305176</ele>
        <time>2015-02-07T19:32:54.000Z</time>
      </trkpt>
      <trkpt lat="43.70333" lon="1.13273">
        <ele>190</ele>
        <time>2015-02-07T19:32:59.000Z</time>
      </trkpt>
      <trkpt lat="43.70337" lon="1.13267">
        <ele>190.19999694824</ele>
        <time>2015-02-07T19:33:03.000Z</time>
      </trkpt>
      <trkpt lat="43.70338" lon="1.13265">
        <ele>190.39999389648</ele>
        <time>2015-02-07T19:33:04.000Z</time>
      </trkpt>
      <trkpt lat="43.70339" lon="1.13263">
        <ele>190.39999389648</ele>
        <time>2015-02-07T19:33:05.000Z</time>
      </trkpt>
      <trkpt lat="43.70343" lon="1.13255">
        <ele>190.60000610352</ele>
        <time>2015-02-07T19:33:09.000Z</time>
      </trkpt>
      <trkpt lat="43.70344" lon="1.13252">
        <ele>190.60000610352</ele>
        <time>2015-02-07T19:33:10.000Z</time>
      </trkpt>
      <trkpt lat="43.70348" lon="1.13242">
        <ele>191</ele>
        <time>2015-02-07T19:33:15.000Z</time>
      </trkpt>
      <trkpt lat="43.70353" lon="1.1323">
        <ele>191.39999389648</ele>
        <time>2015-02-07T19:33:21.000Z</time>
      </trkpt>
      <trkpt lat="43.70357" lon="1.13218">
        <ele>192</ele>
        <time>2015-02-07T19:33:27.000Z</time>
      </trkpt>
      <trkpt lat="43.70361" lon="1.13208">
        <ele>192.60000610352</ele>
        <time>2015-02-07T19:33:33.000Z</time>
      </trkpt>
      <trkpt lat="43.70362" lon="1.13206">
        <ele>192.80000305176</ele>
        <time>2015-02-07T19:33:35.000Z</time>
      </trkpt>
      <trkpt lat="43.70364" lon="1.13201">
        <ele>193</ele>
        <time>2015-02-07T19:33:38.000Z</time>
      </trkpt>
      <trkpt lat="43.70369" lon="1.13194">
        <ele>193.39999389648</ele>
        <time>2015-02-07T19:33:43.000Z</time>
      </trkpt>
      <trkpt lat="43.7037" lon="1.13191">
        <ele>193.60000610352</ele>
        <time>2015-02-07T19:33:45.000Z</time>
      </trkpt>
      <trkpt lat="43.70373" lon="1.13185">
        <ele>194</ele>
        <time>2015-02-07T19:33:48.000Z</time>
      </trkpt>
      <trkpt lat="43.70374" lon="1.13182">
        <ele>194</ele>
        <time>2015-02-07T19:33:50.000Z</time>
      </trkpt>
      <trkpt lat="43.70377" lon="1.13172">
        <ele>194.60000610352</ele>
        <time>2015-02-07T19:33:56.000Z</time>
      </trkpt>
      <trkpt lat="43.70379" lon="1.13163">
        <ele>195.19999694824</ele>
        <time>2015-02-07T19:34:01.000Z</time>
      </trkpt>
      <trkpt lat="43.70381" lon="1.13159">
        <ele>195.19999694824</ele>
        <time>2015-02-07T19:34:03.000Z</time>
      </trkpt>
      <trkpt lat="43.70384" lon="1.13148">
        <ele>196</ele>
        <time>2015-02-07T19:34:10.000Z</time>
      </trkpt>
      <trkpt lat="43.70387" lon="1.13133">
        <ele>196.60000610352</ele>
        <time>2015-02-07T19:34:18.000Z</time>
      </trkpt>
      <trkpt lat="43.70391" lon="1.1312">
        <ele>197.39999389648</ele>
        <time>2015-02-07T19:34:25.000Z</time>
      </trkpt>
      <trkpt lat="43.70392" lon="1.13118">
        <ele>197.39999389648</ele>
        <time>2015-02-07T19:34:26.000Z</time>
      </trkpt>
      <trkpt lat="43.70397" lon="1.13109">
        <ele>197.80000305176</ele>
        <time>2015-02-07T19:34:30.000Z</time>
      </trkpt>
      <trkpt lat="43.70403" lon="1.13096">
        <ele>198.39999389648</ele>
        <time>2015-02-07T19:34:36.000Z</time>
      </trkpt>
      <trkpt lat="43.70408" lon="1.13085">
        <ele>199</ele>
        <time>2015-02-07T19:34:41.000Z</time>
      </trkpt>
      <trkpt lat="43.70413" lon="1.13072">
        <ele>199.39999389648</ele>
        <time>2015-02-07T19:34:47.000Z</time>
      </trkpt>
      <trkpt lat="43.70419" lon="1.1306">
        <ele>199.80000305176</ele>
        <time>2015-02-07T19:34:53.000Z</time>
      </trkpt>
      <trkpt lat="43.70426" lon="1.13047">
        <ele>200</ele>
        <time>2015-02-07T19:34:59.000Z</time>
      </trkpt>
      <trkpt lat="43.70435" lon="1.13033">
        <ele>200.39999389648</ele>
        <time>2015-02-07T19:35:06.000Z</time>
      </trkpt>
      <trkpt lat="43.70442" lon="1.13019">
        <ele>201</ele>
        <time>2015-02-07T19:35:12.000Z</time>
      </trkpt>
      <trkpt lat="43.70449" lon="1.13009">
        <ele>201.39999389648</ele>
        <time>2015-02-07T19:35:17.000Z</time>
      </trkpt>
      <trkpt lat="43.70454" lon="1.12999">
        <ele>201.80000305176</ele>
        <time>2015-02-07T19:35:23.000Z</time>
      </trkpt>
      <trkpt lat="43.70454" lon="1.12997">
        <ele>202</ele>
        <time>2015-02-07T19:35:24.000Z</time>
      </trkpt>
      <trkpt lat="43.7046" lon="1.12991">
        <ele>202.19999694824</ele>
        <time>2015-02-07T19:35:28.000Z</time>
      </trkpt>
      <trkpt lat="43.70466" lon="1.12981">
        <ele>202.39999389648</ele>
        <time>2015-02-07T19:35:33.000Z</time>
      </trkpt>
      <trkpt lat="43.70475" lon="1.12966">
        <ele>203</ele>
        <time>2015-02-07T19:35:40.000Z</time>
      </trkpt>
      <trkpt lat="43.70481" lon="1.12957">
        <ele>203</ele>
        <time>2015-02-07T19:35:45.000Z</time>
      </trkpt>
      <trkpt lat="43.70486" lon="1.1295">
        <ele>203.39999389648</ele>
        <time>2015-02-07T19:35:49.000Z</time>
      </trkpt>
      <trkpt lat="43.70487" lon="1.12948">
        <ele>203.39999389648</ele>
        <time>2015-02-07T19:35:50.000Z</time>
      </trkpt>
      <trkpt lat="43.70495" lon="1.12937">
        <ele>203.80000305176</ele>
        <time>2015-02-07T19:35:57.000Z</time>
      </trkpt>
      <trkpt lat="43.70502" lon="1.12926">
        <ele>204.19999694824</ele>
        <time>2015-02-07T19:36:04.000Z</time>
      </trkpt>
      <trkpt lat="43.70505" lon="1.12922">
        <ele>204.19999694824</ele>
        <time>2015-02-07T19:36:07.000Z</time>
      </trkpt>
      <trkpt lat="43.70508" lon="1.12918">
        <ele>204.39999389648</ele>
        <time>2015-02-07T19:36:09.000Z</time>
      </trkpt>
      <trkpt lat="43.70511" lon="1.12916">
        <ele>204.39999389648</ele>
        <time>2015-02-07T19:36:11.000Z</time>
      </trkpt>
      <trkpt lat="43.70515" lon="1.1291">
        <ele>204.39999389648</ele>
        <time>2015-02-07T19:36:14.000Z</time>
      </trkpt>
      <trkpt lat="43.70518" lon="1.12903">
        <ele>204.39999389648</ele>
        <time>2015-02-07T19:36:18.000Z</time>
      </trkpt>
      <trkpt lat="43.70526" lon="1.12892">
        <ele>204.60000610352</ele>
        <time>2015-02-07T19:36:24.000Z</time>
      </trkpt>
      <trkpt lat="43.70533" lon="1.12882">
        <ele>204.60000610352</ele>
        <time>2015-02-07T19:36:30.000Z</time>
      </trkpt>
      <trkpt lat="43.70537" lon="1.12872">
        <ele>204.80000305176</ele>
        <time>2015-02-07T19:36:35.000Z</time>
      </trkpt>
      <trkpt lat="43.70538" lon="1.12871">
        <ele>205</ele>
        <time>2015-02-07T19:36:36.000Z</time>
      </trkpt>
      <trkpt lat="43.70541" lon="1.12864">
        <ele>205</ele>
        <time>2015-02-07T19:36:42.000Z</time>
      </trkpt>
      <trkpt lat="43.70545" lon="1.12861">
        <ele>205.19999694824</ele>
        <time>2015-02-07T19:36:45.000Z</time>
      </trkpt>
      <trkpt lat="43.7055" lon="1.12857">
        <ele>205.39999389648</ele>
        <time>2015-02-07T19:36:50.000Z</time>
      </trkpt>
      <trkpt lat="43.70551" lon="1.12857">
        <ele>205.39999389648</ele>
        <time>2015-02-07T19:36:51.000Z</time>
      </trkpt>
      <trkpt lat="43.70552" lon="1.12856">
        <ele>205.39999389648</ele>
        <time>2015-02-07T19:36:53.000Z</time>
      </trkpt>
      <trkpt lat="43.70556" lon="1.12851">
        <ele>205.80000305176</ele>
        <time>2015-02-07T19:36:57.000Z</time>
      </trkpt>
      <trkpt lat="43.70559" lon="1.12849">
        <ele>205.80000305176</ele>
        <time>2015-02-07T19:37:00.000Z</time>
      </trkpt>
      <trkpt lat="43.70562" lon="1.12847">
        <ele>206</ele>
        <time>2015-02-07T19:37:03.000Z</time>
      </trkpt>
      <trkpt lat="43.70563" lon="1.12846">
        <ele>206</ele>
        <time>2015-02-07T19:37:04.000Z</time>
      </trkpt>
      <trkpt lat="43.7057" lon="1.12841">
        <ele>206.39999389648</ele>
        <time>2015-02-07T19:37:10.000Z</time>
      </trkpt>
      <trkpt lat="43.70574" lon="1.12839">
        <ele>206.60000610352</ele>
        <time>2015-02-07T19:37:14.000Z</time>
      </trkpt>
      <trkpt lat="43.70577" lon="1.12838">
        <ele>206.60000610352</ele>
        <time>2015-02-07T19:37:16.000Z</time>
      </trkpt>
      <trkpt lat="43.70583" lon="1.12835">
        <ele>206.80000305176</ele>
        <time>2015-02-07T19:37:22.000Z</time>
      </trkpt>
      <trkpt lat="43.7059" lon="1.1283">
        <ele>207.19999694824</ele>
        <time>2015-02-07T19:37:28.000Z</time>
      </trkpt>
      <trkpt lat="43.70597" lon="1.12824">
        <ele>207.60000610352</ele>
        <time>2015-02-07T19:37:34.000Z</time>
      </trkpt>
      <trkpt lat="43.70605" lon="1.12818">
        <ele>208</ele>
        <time>2015-02-07T19:37:41.000Z</time>
      </trkpt>
      <trkpt lat="43.70614" lon="1.12812">
        <ele>208.39999389648</ele>
        <time>2015-02-07T19:37:46.000Z</time>
      </trkpt>
      <trkpt lat="43.70624" lon="1.12807">
        <ele>208.80000305176</ele>
        <time>2015-02-07T19:37:52.000Z</time>
      </trkpt>
      <trkpt lat="43.70634" lon="1.12801">
        <ele>209.39999389648</ele>
        <time>2015-02-07T19:37:58.000Z</time>
      </trkpt>
      <trkpt lat="43.70639" lon="1.12797">
        <ele>210</ele>
        <time>2015-02-07T19:38:03.000Z</time>
      </trkpt>
      <trkpt lat="43.70647" lon="1.12793">
        <ele>210.60000610352</ele>
        <time>2015-02-07T19:38:10.000Z</time>
      </trkpt>
      <trkpt lat="43.70648" lon="1.12793">
        <ele>210.80000305176</ele>
        <time>2015-02-07T19:38:11.000Z</time>
      </trkpt>
      <trkpt lat="43.70655" lon="1.12788">
        <ele>211.39999389648</ele>
        <time>2015-02-07T19:38:17.000Z</time>
      </trkpt>
      <trkpt lat="43.70661" lon="1.12784">
        <ele>212</ele>
        <time>2015-02-07T19:38:23.000Z</time>
      </trkpt>
      <trkpt lat="43.70664" lon="1.12781">
        <ele>212.39999389648</ele>
        <time>2015-02-07T19:38:27.000Z</time>
      </trkpt>
      <trkpt lat="43.70666" lon="1.1278">
        <ele>212.60000610352</ele>
        <time>2015-02-07T19:38:29.000Z</time>
      </trkpt>
      <trkpt lat="43.70673" lon="1.12777">
        <ele>213.39999389648</ele>
        <time>2015-02-07T19:38:35.000Z</time>
      </trkpt>
      <trkpt lat="43.70674" lon="1.12775">
        <ele>213.60000610352</ele>
        <time>2015-02-07T19:38:37.000Z</time>
      </trkpt>
      <trkpt lat="43.70678" lon="1.12772">
        <ele>214</ele>
        <time>2015-02-07T19:38:41.000Z</time>
      </trkpt>
      <trkpt lat="43.7068" lon="1.12767">
        <ele>214.60000610352</ele>
        <time>2015-02-07T19:38:45.000Z</time>
      </trkpt>
      <trkpt lat="43.70684" lon="1.12763">
        <ele>215.19999694824</ele>
        <time>2015-02-07T19:38:49.000Z</time>
      </trkpt>
      <trkpt lat="43.7069" lon="1.12758">
        <ele>216</ele>
        <time>2015-02-07T19:38:55.000Z</time>
      </trkpt>
      <trkpt lat="43.70691" lon="1.12757">
        <ele>216.19999694824</ele>
        <time>2015-02-07T19:38:56.000Z</time>
      </trkpt>
      <trkpt lat="43.70696" lon="1.12752">
        <ele>216.80000305176</ele>
        <time>2015-02-07T19:39:01.000Z</time>
      </trkpt>
      <trkpt lat="43.70701" lon="1.12747">
        <ele>217.39999389648</ele>
        <time>2015-02-07T19:39:06.000Z</time>
      </trkpt>
      <trkpt lat="43.70706" lon="1.12742">
        <ele>218.19999694824</ele>
        <time>2015-02-07T19:39:11.000Z</time>
      </trkpt>
      <trkpt lat="43.70712" lon="1.12737">
        <ele>219</ele>
        <time>2015-02-07T19:39:16.000Z</time>
      </trkpt>
      <trkpt lat="43.70719" lon="1.12729">
        <ele>220</ele>
        <time>2015-02-07T19:39:24.000Z</time>
      </trkpt>
      <trkpt lat="43.70727" lon="1.12722">
        <ele>220.80000305176</ele>
        <time>2015-02-07T19:39:31.000Z</time>
      </trkpt>
      <trkpt lat="43.70734" lon="1.12717">
        <ele>221.60000610352</ele>
        <time>2015-02-07T19:39:37.000Z</time>
      </trkpt>
      <trkpt lat="43.7074" lon="1.12711">
        <ele>222.39999389648</ele>
        <time>2015-02-07T19:39:43.000Z</time>
      </trkpt>
      <trkpt lat="43.70747" lon="1.12706">
        <ele>223</ele>
        <time>2015-02-07T19:39:49.000Z</time>
      </trkpt>
      <trkpt lat="43.70755" lon="1.12701">
        <ele>223.80000305176</ele>
        <time>2015-02-07T19:39:54.000Z</time>
      </trkpt>
      <trkpt lat="43.70766" lon="1.12694">
        <ele>224.80000305176</ele>
        <time>2015-02-07T19:40:00.000Z</time>
      </trkpt>
      <trkpt lat="43.70777" lon="1.12686">
        <ele>226</ele>
        <time>2015-02-07T19:40:07.000Z</time>
      </trkpt>
      <trkpt lat="43.7078" lon="1.12684">
        <ele>226.19999694824</ele>
        <time>2015-02-07T19:40:09.000Z</time>
      </trkpt>
      <trkpt lat="43.70784" lon="1.12682">
        <ele>226.80000305176</ele>
        <time>2015-02-07T19:40:12.000Z</time>
      </trkpt>
      <trkpt lat="43.70791" lon="1.12676">
        <ele>228</ele>
        <time>2015-02-07T19:40:19.000Z</time>
      </trkpt>
      <trkpt lat="43.70797" lon="1.12674">
        <ele>228.80000305176</ele>
        <time>2015-02-07T19:40:24.000Z</time>
      </trkpt>
      <trkpt lat="43.70798" lon="1.12672">
        <ele>229</ele>
        <time>2015-02-07T19:40:25.000Z</time>
      </trkpt>
      <trkpt lat="43.70803" lon="1.1267">
        <ele>229.39999389648</ele>
        <time>2015-02-07T19:40:29.000Z</time>
      </trkpt>
      <trkpt lat="43.7081" lon="1.12665">
        <ele>230.39999389648</ele>
        <time>2015-02-07T19:40:36.000Z</time>
      </trkpt>
      <trkpt lat="43.70814" lon="1.12664">
        <ele>231</ele>
        <time>2015-02-07T19:40:40.000Z</time>
      </trkpt>
      <trkpt lat="43.70815" lon="1.12664">
        <ele>231.19999694824</ele>
        <time>2015-02-07T19:40:41.000Z</time>
      </trkpt>
      <trkpt lat="43.7082" lon="1.12662">
        <ele>231.80000305176</ele>
        <time>2015-02-07T19:40:45.000Z</time>
      </trkpt>
      <trkpt lat="43.70824" lon="1.1266">
        <ele>232.39999389648</ele>
        <time>2015-02-07T19:40:49.000Z</time>
      </trkpt>
      <trkpt lat="43.70825" lon="1.12659">
        <ele>232.60000610352</ele>
        <time>2015-02-07T19:40:51.000Z</time>
      </trkpt>
      <trkpt lat="43.70829" lon="1.12657">
        <ele>233.39999389648</ele>
        <time>2015-02-07T19:40:55.000Z</time>
      </trkpt>
      <trkpt lat="43.70838" lon="1.12653">
        <ele>234.80000305176</ele>
        <time>2015-02-07T19:41:05.000Z</time>
      </trkpt>
      <trkpt lat="43.70845" lon="1.12649">
        <ele>236</ele>
        <time>2015-02-07T19:41:12.000Z</time>
      </trkpt>
      <trkpt lat="43.70848" lon="1.12646">
        <ele>236.80000305176</ele>
        <time>2015-02-07T19:41:17.000Z</time>
      </trkpt>
      <trkpt lat="43.70855" lon="1.12644">
        <ele>238</ele>
        <time>2015-02-07T19:41:25.000Z</time>
      </trkpt>
      <trkpt lat="43.70856" lon="1.12643">
        <ele>238.19999694824</ele>
        <time>2015-02-07T19:41:26.000Z</time>
      </trkpt>
      <trkpt lat="43.70859" lon="1.12642">
        <ele>238.60000610352</ele>
        <time>2015-02-07T19:41:29.000Z</time>
      </trkpt>
      <trkpt lat="43.70863" lon="1.12638">
        <ele>239.19999694824</ele>
        <time>2015-02-07T19:41:33.000Z</time>
      </trkpt>
      <trkpt lat="43.70864" lon="1.12638">
        <ele>239.39999389648</ele>
        <time>2015-02-07T19:41:34.000Z</time>
      </trkpt>
      <trkpt lat="43.70869" lon="1.12636">
        <ele>240</ele>
        <time>2015-02-07T19:41:39.000Z</time>
      </trkpt>
      <trkpt lat="43.70877" lon="1.12632">
        <ele>241.39999389648</ele>
        <time>2015-02-07T19:41:47.000Z</time>
      </trkpt>
      <trkpt lat="43.70886" lon="1.12628">
        <ele>242.80000305176</ele>
        <time>2015-02-07T19:41:55.000Z</time>
      </trkpt>
      <trkpt lat="43.70892" lon="1.12624">
        <ele>244.19999694824</ele>
        <time>2015-02-07T19:42:02.000Z</time>
      </trkpt>
      <trkpt lat="43.70899" lon="1.12621">
        <ele>245.80000305176</ele>
        <time>2015-02-07T19:42:09.000Z</time>
      </trkpt>
      <trkpt lat="43.70908" lon="1.12618">
        <ele>247.60000610352</ele>
        <time>2015-02-07T19:42:18.000Z</time>
      </trkpt>
      <trkpt lat="43.70914" lon="1.12614">
        <ele>249</ele>
        <time>2015-02-07T19:42:25.000Z</time>
      </trkpt>
      <trkpt lat="43.70919" lon="1.12612">
        <ele>250</ele>
        <time>2015-02-07T19:42:30.000Z</time>
      </trkpt>
      <trkpt lat="43.70924" lon="1.1261">
        <ele>251</ele>
        <time>2015-02-07T19:42:35.000Z</time>
      </trkpt>
      <trkpt lat="43.70926" lon="1.1261">
        <ele>251.39999389648</ele>
        <time>2015-02-07T19:42:37.000Z</time>
      </trkpt>
      <trkpt lat="43.70929" lon="1.12608">
        <ele>252</ele>
        <time>2015-02-07T19:42:41.000Z</time>
      </trkpt>
      <trkpt lat="43.7093" lon="1.12607">
        <ele>252.39999389648</ele>
        <time>2015-02-07T19:42:43.000Z</time>
      </trkpt>
      <trkpt lat="43.70934" lon="1.12606">
        <ele>253.19999694824</ele>
        <time>2015-02-07T19:42:47.000Z</time>
      </trkpt>
      <trkpt lat="43.70936" lon="1.12604">
        <ele>253.60000610352</ele>
        <time>2015-02-07T19:42:50.000Z</time>
      </trkpt>
      <trkpt lat="43.7094" lon="1.12603">
        <ele>254.19999694824</ele>
        <time>2015-02-07T19:42:53.000Z</time>
      </trkpt>
      <trkpt lat="43.70941" lon="1.12603">
        <ele>254.60000610352</ele>
        <time>2015-02-07T19:42:55.000Z</time>
      </trkpt>
      <trkpt lat="43.70944" lon="1.12603">
        <ele>255.19999694824</ele>
        <time>2015-02-07T19:42:58.000Z</time>
      </trkpt>
      <trkpt lat="43.70947" lon="1.126">
        <ele>255.60000610352</ele>
        <time>2015-02-07T19:43:01.000Z</time>
      </trkpt>
      <trkpt lat="43.7095" lon="1.12597">
        <ele>256.20001220703</ele>
        <time>2015-02-07T19:43:05.000Z</time>
      </trkpt>
      <trkpt lat="43.70951" lon="1.12596">
        <ele>256.60000610352</ele>
        <time>2015-02-07T19:43:07.000Z</time>
      </trkpt>
      <trkpt lat="43.70955" lon="1.12592">
        <ele>257.39999389648</ele>
        <time>2015-02-07T19:43:12.000Z</time>
      </trkpt>
      <trkpt lat="43.70958" lon="1.12588">
        <ele>258.60000610352</ele>
        <time>2015-02-07T19:43:18.000Z</time>
      </trkpt>
      <trkpt lat="43.7096" lon="1.12583">
        <ele>259.60000610352</ele>
        <time>2015-02-07T19:43:23.000Z</time>
      </trkpt>
      <trkpt lat="43.70957" lon="1.12567">
        <ele>260.79998779297</ele>
        <time>2015-02-07T19:43:31.000Z</time>
      </trkpt>
      <trkpt lat="43.70951" lon="1.12552">
        <ele>261.79998779297</ele>
        <time>2015-02-07T19:43:37.000Z</time>
      </trkpt>
      <trkpt lat="43.70945" lon="1.12535">
        <ele>262.60000610352</ele>
        <time>2015-02-07T19:43:43.000Z</time>
      </trkpt>
      <trkpt lat="43.70936" lon="1.12517">
        <ele>263.79998779297</ele>
        <time>2015-02-07T19:43:50.000Z</time>
      </trkpt>
      <trkpt lat="43.70929" lon="1.12505">
        <ele>264.79998779297</ele>
        <time>2015-02-07T19:43:55.000Z</time>
      </trkpt>
      <trkpt lat="43.7092" lon="1.12488">
        <ele>266</ele>
        <time>2015-02-07T19:44:02.000Z</time>
      </trkpt>
      <trkpt lat="43.70915" lon="1.12475">
        <ele>267</ele>
        <time>2015-02-07T19:44:07.000Z</time>
      </trkpt>
      <trkpt lat="43.70908" lon="1.12464">
        <ele>267.79998779297</ele>
        <time>2015-02-07T19:44:12.000Z</time>
      </trkpt>
      <trkpt lat="43.70902" lon="1.12455">
        <ele>268.60000610352</ele>
        <time>2015-02-07T19:44:17.000Z</time>
      </trkpt>
      <trkpt lat="43.70893" lon="1.12442">
        <ele>269.79998779297</ele>
        <time>2015-02-07T19:44:23.000Z</time>
      </trkpt>
      <trkpt lat="43.70885" lon="1.1243">
        <ele>270.79998779297</ele>
        <time>2015-02-07T19:44:29.000Z</time>
      </trkpt>
      <trkpt lat="43.70878" lon="1.12416">
        <ele>271.79998779297</ele>
        <time>2015-02-07T19:44:35.000Z</time>
      </trkpt>
      <trkpt lat="43.70869" lon="1.12401">
        <ele>272.60000610352</ele>
        <time>2015-02-07T19:44:41.000Z</time>
      </trkpt>
      <trkpt lat="43.70859" lon="1.12384">
        <ele>273.39999389648</ele>
        <time>2015-02-07T19:44:48.000Z</time>
      </trkpt>
      <trkpt lat="43.70857" lon="1.12381">
        <ele>273.60000610352</ele>
        <time>2015-02-07T19:44:49.000Z</time>
      </trkpt>
      <trkpt lat="43.70847" lon="1.12371">
        <ele>274.20001220703</ele>
        <time>2015-02-07T19:44:54.000Z</time>
      </trkpt>
      <trkpt lat="43.70831" lon="1.12357">
        <ele>275</ele>
        <time>2015-02-07T19:45:02.000Z</time>
      </trkpt>
      <trkpt lat="43.70815" lon="1.12346">
        <ele>275.60000610352</ele>
        <time>2015-02-07T19:45:09.000Z</time>
      </trkpt>
      <trkpt lat="43.70801" lon="1.12333">
        <ele>276</ele>
        <time>2015-02-07T19:45:16.000Z</time>
      </trkpt>
      <trkpt lat="43.7079" lon="1.12324">
        <ele>276</ele>
        <time>2015-02-07T19:45:21.000Z</time>
      </trkpt>
      <trkpt lat="43.70777" lon="1.12315">
        <ele>276.20001220703</ele>
        <time>2015-02-07T19:45:27.000Z</time>
      </trkpt>
      <trkpt lat="43.70765" lon="1.12303">
        <ele>276.39999389648</ele>
        <time>2015-02-07T19:45:33.000Z</time>
      </trkpt>
      <trkpt lat="43.7076" lon="1.123">
        <ele>276.60000610352</ele>
        <time>2015-02-07T19:45:35.000Z</time>
      </trkpt>
      <trkpt lat="43.70753" lon="1.12298">
        <ele>276.79998779297</ele>
        <time>2015-02-07T19:45:38.000Z</time>
      </trkpt>
      <trkpt lat="43.70737" lon="1.12297">
        <ele>277</ele>
        <time>2015-02-07T19:45:44.000Z</time>
      </trkpt>
      <trkpt lat="43.70724" lon="1.12299">
        <ele>277.20001220703</ele>
        <time>2015-02-07T19:45:49.000Z</time>
      </trkpt>
      <trkpt lat="43.70711" lon="1.123">
        <ele>277.20001220703</ele>
        <time>2015-02-07T19:45:54.000Z</time>
      </trkpt>
      <trkpt lat="43.70698" lon="1.12292">
        <ele>277.20001220703</ele>
        <time>2015-02-07T19:45:59.000Z</time>
      </trkpt>
      <trkpt lat="43.70696" lon="1.1229">
        <ele>277.20001220703</ele>
        <time>2015-02-07T19:46:00.000Z</time>
      </trkpt>
      <trkpt lat="43.70678" lon="1.12276">
        <ele>277.20001220703</ele>
        <time>2015-02-07T19:46:08.000Z</time>
      </trkpt>
      <trkpt lat="43.70663" lon="1.12264">
        <ele>277.20001220703</ele>
        <time>2015-02-07T19:46:14.000Z</time>
      </trkpt>
      <trkpt lat="43.7065" lon="1.12257">
        <ele>277.20001220703</ele>
        <time>2015-02-07T19:46:19.000Z</time>
      </trkpt>
      <trkpt lat="43.70633" lon="1.12253">
        <ele>277</ele>
        <time>2015-02-07T19:46:25.000Z</time>
      </trkpt>
      <trkpt lat="43.70613" lon="1.12256">
        <ele>277</ele>
        <time>2015-02-07T19:46:32.000Z</time>
      </trkpt>
      <trkpt lat="43.70598" lon="1.12256">
        <ele>276.79998779297</ele>
        <time>2015-02-07T19:46:38.000Z</time>
      </trkpt>
      <trkpt lat="43.70581" lon="1.12255">
        <ele>276.60000610352</ele>
        <time>2015-02-07T19:46:44.000Z</time>
      </trkpt>
      <trkpt lat="43.70567" lon="1.12249">
        <ele>276.39999389648</ele>
        <time>2015-02-07T19:46:49.000Z</time>
      </trkpt>
      <trkpt lat="43.7056" lon="1.12233">
        <ele>276.20001220703</ele>
        <time>2015-02-07T19:46:54.000Z</time>
      </trkpt>
      <trkpt lat="43.70559" lon="1.12209">
        <ele>275.79998779297</ele>
        <time>2015-02-07T19:47:00.000Z</time>
      </trkpt>
      <trkpt lat="43.70561" lon="1.12185">
        <ele>275.60000610352</ele>
        <time>2015-02-07T19:47:06.000Z</time>
      </trkpt>
      <trkpt lat="43.70564" lon="1.12162">
        <ele>275.20001220703</ele>
        <time>2015-02-07T19:47:12.000Z</time>
      </trkpt>
      <trkpt lat="43.70567" lon="1.12141">
        <ele>274.79998779297</ele>
        <time>2015-02-07T19:47:18.000Z</time>
      </trkpt>
      <trkpt lat="43.70569" lon="1.12117">
        <ele>274.20001220703</ele>
        <time>2015-02-07T19:47:24.000Z</time>
      </trkpt>
      <trkpt lat="43.70567" lon="1.12093">
        <ele>273.60000610352</ele>
        <time>2015-02-07T19:47:30.000Z</time>
      </trkpt>
      <trkpt lat="43.70563" lon="1.12066">
        <ele>273</ele>
        <time>2015-02-07T19:47:37.000Z</time>
      </trkpt>
      <trkpt lat="43.7056" lon="1.12042">
        <ele>272.39999389648</ele>
        <time>2015-02-07T19:47:43.000Z</time>
      </trkpt>
      <trkpt lat="43.70557" lon="1.12017">
        <ele>271.79998779297</ele>
        <time>2015-02-07T19:47:49.000Z</time>
      </trkpt>
      <trkpt lat="43.70553" lon="1.11994">
        <ele>271.20001220703</ele>
        <time>2015-02-07T19:47:55.000Z</time>
      </trkpt>
      <trkpt lat="43.7055" lon="1.11974">
        <ele>270.79998779297</ele>
        <time>2015-02-07T19:48:00.000Z</time>
      </trkpt>
      <trkpt lat="43.7055" lon="1.1195">
        <ele>270.20001220703</ele>
        <time>2015-02-07T19:48:06.000Z</time>
      </trkpt>
      <trkpt lat="43.70551" lon="1.11926">
        <ele>269.39999389648</ele>
        <time>2015-02-07T19:48:12.000Z</time>
      </trkpt>
      <trkpt lat="43.70551" lon="1.11906">
        <ele>268.79998779297</ele>
        <time>2015-02-07T19:48:17.000Z</time>
      </trkpt>
      <trkpt lat="43.70546" lon="1.11882">
        <ele>268.20001220703</ele>
        <time>2015-02-07T19:48:23.000Z</time>
      </trkpt>
      <trkpt lat="43.70538" lon="1.1186">
        <ele>267.60000610352</ele>
        <time>2015-02-07T19:48:29.000Z</time>
      </trkpt>
      <trkpt lat="43.70536" lon="1.11856">
        <ele>267.39999389648</ele>
        <time>2015-02-07T19:48:30.000Z</time>
      </trkpt>
      <trkpt lat="43.7053" lon="1.11838">
        <ele>266.79998779297</ele>
        <time>2015-02-07T19:48:35.000Z</time>
      </trkpt>
      <trkpt lat="43.70525" lon="1.11815">
        <ele>266.20001220703</ele>
        <time>2015-02-07T19:48:41.000Z</time>
      </trkpt>
      <trkpt lat="43.70519" lon="1.11793">
        <ele>265.60000610352</ele>
        <time>2015-02-07T19:48:47.000Z</time>
      </trkpt>
      <trkpt lat="43.70509" lon="1.1178">
        <ele>265</ele>
        <time>2015-02-07T19:48:52.000Z</time>
      </trkpt>
      <trkpt lat="43.70494" lon="1.11775">
        <ele>264.39999389648</ele>
        <time>2015-02-07T19:48:57.000Z</time>
      </trkpt>
      <trkpt lat="43.70479" lon="1.11771">
        <ele>263.79998779297</ele>
        <time>2015-02-07T19:49:03.000Z</time>
      </trkpt>
      <trkpt lat="43.70462" lon="1.1177">
        <ele>263.20001220703</ele>
        <time>2015-02-07T19:49:09.000Z</time>
      </trkpt>
      <trkpt lat="43.70448" lon="1.11769">
        <ele>262.60000610352</ele>
        <time>2015-02-07T19:49:14.000Z</time>
      </trkpt>
      <trkpt lat="43.70428" lon="1.11769">
        <ele>261.79998779297</ele>
        <time>2015-02-07T19:49:21.000Z</time>
      </trkpt>
      <trkpt lat="43.70415" lon="1.11756">
        <ele>261.20001220703</ele>
        <time>2015-02-07T19:49:27.000Z</time>
      </trkpt>
      <trkpt lat="43.70412" lon="1.11745">
        <ele>261</ele>
        <time>2015-02-07T19:49:30.000Z</time>
      </trkpt>
      <trkpt lat="43.70411" lon="1.11741">
        <ele>260.79998779297</ele>
        <time>2015-02-07T19:49:31.000Z</time>
      </trkpt>
      <trkpt lat="43.70413" lon="1.11721">
        <ele>260.20001220703</ele>
        <time>2015-02-07T19:49:36.000Z</time>
      </trkpt>
      <trkpt lat="43.70414" lon="1.11699">
        <ele>259.60000610352</ele>
        <time>2015-02-07T19:49:42.000Z</time>
      </trkpt>
      <trkpt lat="43.70409" lon="1.11683">
        <ele>259</ele>
        <time>2015-02-07T19:49:47.000Z</time>
      </trkpt>
      <trkpt lat="43.70404" lon="1.11678">
        <ele>258.79998779297</ele>
        <time>2015-02-07T19:49:49.000Z</time>
      </trkpt>
      <trkpt lat="43.70398" lon="1.11678">
        <ele>258.60000610352</ele>
        <time>2015-02-07T19:49:51.000Z</time>
      </trkpt>
      <trkpt lat="43.7038" lon="1.11676">
        <ele>258</ele>
        <time>2015-02-07T19:49:57.000Z</time>
      </trkpt>
      <trkpt lat="43.70363" lon="1.1168">
        <ele>257.20001220703</ele>
        <time>2015-02-07T19:50:03.000Z</time>
      </trkpt>
      <trkpt lat="43.70347" lon="1.11688">
        <ele>256.79998779297</ele>
        <time>2015-02-07T19:50:09.000Z</time>
      </trkpt>
      <trkpt lat="43.70339" lon="1.11693">
        <ele>256.60000610352</ele>
        <time>2015-02-07T19:50:12.000Z</time>
      </trkpt>
      <trkpt lat="43.70329" lon="1.11701">
        <ele>256.20001220703</ele>
        <time>2015-02-07T19:50:16.000Z</time>
      </trkpt>
      <trkpt lat="43.70314" lon="1.11711">
        <ele>255.80000305176</ele>
        <time>2015-02-07T19:50:22.000Z</time>
      </trkpt>
      <trkpt lat="43.70306" lon="1.11722">
        <ele>255.39999389648</ele>
        <time>2015-02-07T19:50:26.000Z</time>
      </trkpt>
      <trkpt lat="43.70304" lon="1.11724">
        <ele>255.19999694824</ele>
        <time>2015-02-07T19:50:27.000Z</time>
      </trkpt>
      <trkpt lat="43.70292" lon="1.11738">
        <ele>254.60000610352</ele>
        <time>2015-02-07T19:50:33.000Z</time>
      </trkpt>
      <trkpt lat="43.70282" lon="1.11743">
        <ele>254.19999694824</ele>
        <time>2015-02-07T19:50:37.000Z</time>
      </trkpt>
      <trkpt lat="43.70267" lon="1.11745">
        <ele>253.39999389648</ele>
        <time>2015-02-07T19:50:43.000Z</time>
      </trkpt>
      <trkpt lat="43.70254" lon="1.11747">
        <ele>252.80000305176</ele>
        <time>2015-02-07T19:50:48.000Z</time>
      </trkpt>
      <trkpt lat="43.70237" lon="1.11748">
        <ele>251.80000305176</ele>
        <time>2015-02-07T19:50:54.000Z</time>
      </trkpt>
      <trkpt lat="43.70218" lon="1.11746">
        <ele>250.60000610352</ele>
        <time>2015-02-07T19:51:01.000Z</time>
      </trkpt>
      <trkpt lat="43.70205" lon="1.11744">
        <ele>249.80000305176</ele>
        <time>2015-02-07T19:51:06.000Z</time>
      </trkpt>
      <trkpt lat="43.7019" lon="1.11742">
        <ele>248.80000305176</ele>
        <time>2015-02-07T19:51:12.000Z</time>
      </trkpt>
      <trkpt lat="43.7017" lon="1.11737">
        <ele>247.19999694824</ele>
        <time>2015-02-07T19:51:20.000Z</time>
      </trkpt>
      <trkpt lat="43.70156" lon="1.11737">
        <ele>246.19999694824</ele>
        <time>2015-02-07T19:51:25.000Z</time>
      </trkpt>
      <trkpt lat="43.70139" lon="1.11734">
        <ele>245</ele>
        <time>2015-02-07T19:51:31.000Z</time>
      </trkpt>
      <trkpt lat="43.70133" lon="1.11734">
        <ele>244.39999389648</ele>
        <time>2015-02-07T19:51:34.000Z</time>
      </trkpt>
      <trkpt lat="43.70118" lon="1.11732">
        <ele>243.19999694824</ele>
        <time>2015-02-07T19:51:39.000Z</time>
      </trkpt>
      <trkpt lat="43.70104" lon="1.11732">
        <ele>242.19999694824</ele>
        <time>2015-02-07T19:51:44.000Z</time>
      </trkpt>
      <trkpt lat="43.70086" lon="1.1173">
        <ele>240.80000305176</ele>
        <time>2015-02-07T19:51:50.000Z</time>
      </trkpt>
      <trkpt lat="43.70068" lon="1.11727">
        <ele>239.60000610352</ele>
        <time>2015-02-07T19:51:56.000Z</time>
      </trkpt>
      <trkpt lat="43.70049" lon="1.11726">
        <ele>238</ele>
        <time>2015-02-07T19:52:03.000Z</time>
      </trkpt>
      <trkpt lat="43.70046" lon="1.11726">
        <ele>237.80000305176</ele>
        <time>2015-02-07T19:52:04.000Z</time>
      </trkpt>
      <trkpt lat="43.7003" lon="1.11722">
        <ele>236.39999389648</ele>
        <time>2015-02-07T19:52:10.000Z</time>
      </trkpt>
      <trkpt lat="43.70013" lon="1.11709">
        <ele>234.80000305176</ele>
        <time>2015-02-07T19:52:17.000Z</time>
      </trkpt>
      <trkpt lat="43.7001" lon="1.11708">
        <ele>234.60000610352</ele>
        <time>2015-02-07T19:52:18.000Z</time>
      </trkpt>
      <trkpt lat="43.69995" lon="1.117">
        <ele>233</ele>
        <time>2015-02-07T19:52:24.000Z</time>
      </trkpt>
      <trkpt lat="43.69977" lon="1.11694">
        <ele>231</ele>
        <time>2015-02-07T19:52:31.000Z</time>
      </trkpt>
      <trkpt lat="43.69961" lon="1.11691">
        <ele>229.19999694824</ele>
        <time>2015-02-07T19:52:37.000Z</time>
      </trkpt>
      <trkpt lat="43.69946" lon="1.11692">
        <ele>227.80000305176</ele>
        <time>2015-02-07T19:52:42.000Z</time>
      </trkpt>
      <trkpt lat="43.69929" lon="1.11693">
        <ele>226</ele>
        <time>2015-02-07T19:52:48.000Z</time>
      </trkpt>
      <trkpt lat="43.69911" lon="1.11692">
        <ele>224</ele>
        <time>2015-02-07T19:52:55.000Z</time>
      </trkpt>
      <trkpt lat="43.69909" lon="1.11691">
        <ele>223.60000610352</ele>
        <time>2015-02-07T19:52:56.000Z</time>
      </trkpt>
      <trkpt lat="43.69896" lon="1.11689">
        <ele>222.19999694824</ele>
        <time>2015-02-07T19:53:01.000Z</time>
      </trkpt>
      <trkpt lat="43.6988" lon="1.11686">
        <ele>220.60000610352</ele>
        <time>2015-02-07T19:53:07.000Z</time>
      </trkpt>
      <trkpt lat="43.69867" lon="1.11679">
        <ele>218.80000305176</ele>
        <time>2015-02-07T19:53:13.000Z</time>
      </trkpt>
      <trkpt lat="43.69854" lon="1.11677">
        <ele>217.39999389648</ele>
        <time>2015-02-07T19:53:19.000Z</time>
      </trkpt>
      <trkpt lat="43.69841" lon="1.11675">
        <ele>215.80000305176</ele>
        <time>2015-02-07T19:53:25.000Z</time>
      </trkpt>
      <trkpt lat="43.69831" lon="1.11674">
        <ele>214.80000305176</ele>
        <time>2015-02-07T19:53:30.000Z</time>
      </trkpt>
      <trkpt lat="43.69818" lon="1.11673">
        <ele>213.39999389648</ele>
        <time>2015-02-07T19:53:37.000Z</time>
      </trkpt>
      <trkpt lat="43.6981" lon="1.11675">
        <ele>212.39999389648</ele>
        <time>2015-02-07T19:53:42.000Z</time>
      </trkpt>
      <trkpt lat="43.698" lon="1.11674">
        <ele>211.39999389648</ele>
        <time>2015-02-07T19:53:48.000Z</time>
      </trkpt>
      <trkpt lat="43.69787" lon="1.11672">
        <ele>210.39999389648</ele>
        <time>2015-02-07T19:53:56.000Z</time>
      </trkpt>
      <trkpt lat="43.6978" lon="1.11675">
        <ele>209.80000305176</ele>
        <time>2015-02-07T19:54:00.000Z</time>
      </trkpt>
      <trkpt lat="43.6978" lon="1.11678">
        <ele>209.60000610352</ele>
        <time>2015-02-07T19:54:01.000Z</time>
      </trkpt>
      <trkpt lat="43.69776" lon="1.11685">
        <ele>209.39999389648</ele>
        <time>2015-02-07T19:54:04.000Z</time>
      </trkpt>
      <trkpt lat="43.69773" lon="1.1169">
        <ele>209</ele>
        <time>2015-02-07T19:54:07.000Z</time>
      </trkpt>
      <trkpt lat="43.69771" lon="1.11695">
        <ele>208.80000305176</ele>
        <time>2015-02-07T19:54:09.000Z</time>
      </trkpt>
      <trkpt lat="43.69769" lon="1.117">
        <ele>208.39999389648</ele>
        <time>2015-02-07T19:54:11.000Z</time>
      </trkpt>
      <trkpt lat="43.69767" lon="1.11701">
        <ele>208.19999694824</ele>
        <time>2015-02-07T19:54:12.000Z</time>
      </trkpt>
      <trkpt lat="43.69762" lon="1.11704">
        <ele>208</ele>
        <time>2015-02-07T19:54:14.000Z</time>
      </trkpt>
      <trkpt lat="43.69758" lon="1.11712">
        <ele>207.39999389648</ele>
        <time>2015-02-07T19:54:19.000Z</time>
      </trkpt>
      <trkpt lat="43.69759" lon="1.11714">
        <ele>207.19999694824</ele>
        <time>2015-02-07T19:54:20.000Z</time>
      </trkpt>
      <trkpt lat="43.6976" lon="1.11716">
        <ele>207.19999694824</ele>
        <time>2015-02-07T19:54:21.000Z</time>
      </trkpt>
      <trkpt lat="43.6976" lon="1.11719">
        <ele>206.80000305176</ele>
        <time>2015-02-07T19:54:23.000Z</time>
      </trkpt>
      <trkpt lat="43.69756" lon="1.11727">
        <ele>206.39999389648</ele>
        <time>2015-02-07T19:54:27.000Z</time>
      </trkpt>
      <trkpt lat="43.69751" lon="1.11732">
        <ele>206.19999694824</ele>
        <time>2015-02-07T19:54:30.000Z</time>
      </trkpt>
      <trkpt lat="43.69749" lon="1.11734">
        <ele>205.80000305176</ele>
        <time>2015-02-07T19:54:34.000Z</time>
      </trkpt>
      <trkpt lat="43.69748" lon="1.11739">
        <ele>205.39999389648</ele>
        <time>2015-02-07T19:54:38.000Z</time>
      </trkpt>
      <trkpt lat="43.69748" lon="1.1174">
        <ele>205.19999694824</ele>
        <time>2015-02-07T19:54:40.000Z</time>
      </trkpt>
      <trkpt lat="43.69747" lon="1.11741">
        <ele>205</ele>
        <time>2015-02-07T19:54:43.000Z</time>
      </trkpt>
      <trkpt lat="43.69746" lon="1.11742">
        <ele>205</ele>
        <time>2015-02-07T19:54:44.000Z</time>
      </trkpt>
      <trkpt lat="43.69742" lon="1.1174">
        <ele>204.80000305176</ele>
        <time>2015-02-07T19:54:47.000Z</time>
      </trkpt>
      <trkpt lat="43.69741" lon="1.11739">
        <ele>204.80000305176</ele>
        <time>2015-02-07T19:54:48.000Z</time>
      </trkpt>
      <trkpt lat="43.69739" lon="1.11735">
        <ele>204.60000610352</ele>
        <time>2015-02-07T19:54:50.000Z</time>
      </trkpt>
      <trkpt lat="43.69738" lon="1.11733">
        <ele>204.60000610352</ele>
        <time>2015-02-07T19:54:51.000Z</time>
      </trkpt>
      <trkpt lat="43.69735" lon="1.1173">
        <ele>204.39999389648</ele>
        <time>2015-02-07T19:54:54.000Z</time>
      </trkpt>
      <trkpt lat="43.69734" lon="1.11731">
        <ele>204.39999389648</ele>
        <time>2015-02-07T19:54:55.000Z</time>
      </trkpt>
      <trkpt lat="43.69732" lon="1.11731">
        <ele>204.39999389648</ele>
        <time>2015-02-07T19:54:56.000Z</time>
      </trkpt>
      <trkpt lat="43.69726" lon="1.11733">
        <ele>204.19999694824</ele>
        <time>2015-02-07T19:55:00.000Z</time>
      </trkpt>
      <trkpt lat="43.69725" lon="1.11735">
        <ele>204.19999694824</ele>
        <time>2015-02-07T19:55:01.000Z</time>
      </trkpt>
      <trkpt lat="43.69721" lon="1.11739">
        <ele>204</ele>
        <time>2015-02-07T19:55:03.000Z</time>
      </trkpt>
      <trkpt lat="43.69718" lon="1.11743">
        <ele>204</ele>
        <time>2015-02-07T19:55:06.000Z</time>
      </trkpt>
      <trkpt lat="43.69716" lon="1.11744">
        <ele>204</ele>
        <time>2015-02-07T19:55:07.000Z</time>
      </trkpt>
      <trkpt lat="43.69715" lon="1.11745">
        <ele>204</ele>
        <time>2015-02-07T19:55:08.000Z</time>
      </trkpt>
      <trkpt lat="43.6971" lon="1.1175">
        <ele>203.80000305176</ele>
        <time>2015-02-07T19:55:11.000Z</time>
      </trkpt>
      <trkpt lat="43.69707" lon="1.11757">
        <ele>203.80000305176</ele>
        <time>2015-02-07T19:55:14.000Z</time>
      </trkpt>
      <trkpt lat="43.69704" lon="1.11766">
        <ele>203.80000305176</ele>
        <time>2015-02-07T19:55:18.000Z</time>
      </trkpt>
      <trkpt lat="43.697" lon="1.11773">
        <ele>203.80000305176</ele>
        <time>2015-02-07T19:55:21.000Z</time>
      </trkpt>
      <trkpt lat="43.69696" lon="1.11781">
        <ele>203.60000610352</ele>
        <time>2015-02-07T19:55:26.000Z</time>
      </trkpt>
      <trkpt lat="43.69695" lon="1.11782">
        <ele>203.60000610352</ele>
        <time>2015-02-07T19:55:27.000Z</time>
      </trkpt>
      <trkpt lat="43.6969" lon="1.11788">
        <ele>203.39999389648</ele>
        <time>2015-02-07T19:55:30.000Z</time>
      </trkpt>
      <trkpt lat="43.69686" lon="1.11792">
        <ele>203.39999389648</ele>
        <time>2015-02-07T19:55:33.000Z</time>
      </trkpt>
      <trkpt lat="43.69686" lon="1.11794">
        <ele>203.39999389648</ele>
        <time>2015-02-07T19:55:34.000Z</time>
      </trkpt>
      <trkpt lat="43.69682" lon="1.11803">
        <ele>203.39999389648</ele>
        <time>2015-02-07T19:55:38.000Z</time>
      </trkpt>
      <trkpt lat="43.69681" lon="1.11805">
        <ele>203.39999389648</ele>
        <time>2015-02-07T19:55:39.000Z</time>
      </trkpt>
      <trkpt lat="43.69678" lon="1.11811">
        <ele>203.19999694824</ele>
        <time>2015-02-07T19:55:42.000Z</time>
      </trkpt>
      <trkpt lat="43.69675" lon="1.11816">
        <ele>203.19999694824</ele>
        <time>2015-02-07T19:55:44.000Z</time>
      </trkpt>
      <trkpt lat="43.69668" lon="1.11823">
        <ele>203.19999694824</ele>
        <time>2015-02-07T19:55:48.000Z</time>
      </trkpt>
      <trkpt lat="43.69663" lon="1.1183">
        <ele>203.39999389648</ele>
        <time>2015-02-07T19:55:52.000Z</time>
      </trkpt>
      <trkpt lat="43.69658" lon="1.11835">
        <ele>203.39999389648</ele>
        <time>2015-02-07T19:55:56.000Z</time>
      </trkpt>
      <trkpt lat="43.69652" lon="1.11842">
        <ele>203.39999389648</ele>
        <time>2015-02-07T19:56:00.000Z</time>
      </trkpt>
      <trkpt lat="43.69645" lon="1.11848">
        <ele>203.60000610352</ele>
        <time>2015-02-07T19:56:05.000Z</time>
      </trkpt>
      <trkpt lat="43.69642" lon="1.11849">
        <ele>203.80000305176</ele>
        <time>2015-02-07T19:56:07.000Z</time>
      </trkpt>
      <trkpt lat="43.6964" lon="1.11852">
        <ele>204.19999694824</ele>
        <time>2015-02-07T19:56:10.000Z</time>
      </trkpt>
      <trkpt lat="43.69636" lon="1.11854">
        <ele>204.39999389648</ele>
        <time>2015-02-07T19:56:13.000Z</time>
      </trkpt>
      <trkpt lat="43.69635" lon="1.11855">
        <ele>204.39999389648</ele>
        <time>2015-02-07T19:56:14.000Z</time>
      </trkpt>
      <trkpt lat="43.69629" lon="1.11854">
        <ele>205</ele>
        <time>2015-02-07T19:56:19.000Z</time>
      </trkpt>
      <trkpt lat="43.69621" lon="1.11856">
        <ele>205.60000610352</ele>
        <time>2015-02-07T19:56:24.000Z</time>
      </trkpt>
      <trkpt lat="43.69614" lon="1.11854">
        <ele>206</ele>
        <time>2015-02-07T19:56:27.000Z</time>
      </trkpt>
      <trkpt lat="43.69608" lon="1.11849">
        <ele>206.60000610352</ele>
        <time>2015-02-07T19:56:30.000Z</time>
      </trkpt>
      <trkpt lat="43.69606" lon="1.11847">
        <ele>206.60000610352</ele>
        <time>2015-02-07T19:56:31.000Z</time>
      </trkpt>
      <trkpt lat="43.69606" lon="1.11845">
        <ele>206.80000305176</ele>
        <time>2015-02-07T19:56:32.000Z</time>
      </trkpt>
      <trkpt lat="43.69602" lon="1.11839">
        <ele>207.19999694824</ele>
        <time>2015-02-07T19:56:35.000Z</time>
      </trkpt>
      <trkpt lat="43.69595" lon="1.11834">
        <ele>207.80000305176</ele>
        <time>2015-02-07T19:56:39.000Z</time>
      </trkpt>
      <trkpt lat="43.69593" lon="1.11833">
        <ele>207.80000305176</ele>
        <time>2015-02-07T19:56:40.000Z</time>
      </trkpt>
      <trkpt lat="43.69588" lon="1.11832">
        <ele>208</ele>
        <time>2015-02-07T19:56:42.000Z</time>
      </trkpt>
      <trkpt lat="43.69585" lon="1.11831">
        <ele>208.39999389648</ele>
        <time>2015-02-07T19:56:44.000Z</time>
      </trkpt>
      <trkpt lat="43.69575" lon="1.11825">
        <ele>209</ele>
        <time>2015-02-07T19:56:49.000Z</time>
      </trkpt>
      <trkpt lat="43.69573" lon="1.11825">
        <ele>209</ele>
        <time>2015-02-07T19:56:50.000Z</time>
      </trkpt>
      <trkpt lat="43.69563" lon="1.11814">
        <ele>209.60000610352</ele>
        <time>2015-02-07T19:56:55.000Z</time>
      </trkpt>
      <trkpt lat="43.69553" lon="1.118">
        <ele>210.19999694824</ele>
        <time>2015-02-07T19:57:01.000Z</time>
      </trkpt>
      <trkpt lat="43.69546" lon="1.11792">
        <ele>210.60000610352</ele>
        <time>2015-02-07T19:57:05.000Z</time>
      </trkpt>
      <trkpt lat="43.69541" lon="1.11788">
        <ele>210.60000610352</ele>
        <time>2015-02-07T19:57:07.000Z</time>
      </trkpt>
      <trkpt lat="43.69533" lon="1.11777">
        <ele>211.19999694824</ele>
        <time>2015-02-07T19:57:12.000Z</time>
      </trkpt>
      <trkpt lat="43.69522" lon="1.11763">
        <ele>211.80000305176</ele>
        <time>2015-02-07T19:57:18.000Z</time>
      </trkpt>
      <trkpt lat="43.69515" lon="1.11753">
        <ele>212.19999694824</ele>
        <time>2015-02-07T19:57:22.000Z</time>
      </trkpt>
      <trkpt lat="43.6951" lon="1.11746">
        <ele>212.39999389648</ele>
        <time>2015-02-07T19:57:25.000Z</time>
      </trkpt>
      <trkpt lat="43.69509" lon="1.11744">
        <ele>212.39999389648</ele>
        <time>2015-02-07T19:57:26.000Z</time>
      </trkpt>
      <trkpt lat="43.69507" lon="1.11742">
        <ele>212.60000610352</ele>
        <time>2015-02-07T19:57:27.000Z</time>
      </trkpt>
      <trkpt lat="43.69501" lon="1.11735">
        <ele>212.80000305176</ele>
        <time>2015-02-07T19:57:30.000Z</time>
      </trkpt>
      <trkpt lat="43.6949" lon="1.11727">
        <ele>213.19999694824</ele>
        <time>2015-02-07T19:57:35.000Z</time>
      </trkpt>
      <trkpt lat="43.69481" lon="1.11733">
        <ele>213.39999389648</ele>
        <time>2015-02-07T19:57:39.000Z</time>
      </trkpt>
      <trkpt lat="43.69477" lon="1.11736">
        <ele>213.60000610352</ele>
        <time>2015-02-07T19:57:41.000Z</time>
      </trkpt>
      <trkpt lat="43.69468" lon="1.1174">
        <ele>213.80000305176</ele>
        <time>2015-02-07T19:57:45.000Z</time>
      </trkpt>
      <trkpt lat="43.69466" lon="1.11739">
        <ele>213.80000305176</ele>
        <time>2015-02-07T19:57:46.000Z</time>
      </trkpt>
      <trkpt lat="43.69464" lon="1.11735">
        <ele>213.80000305176</ele>
        <time>2015-02-07T19:57:48.000Z</time>
      </trkpt>
      <trkpt lat="43.69454" lon="1.11726">
        <ele>214</ele>
        <time>2015-02-07T19:57:53.000Z</time>
      </trkpt>
      <trkpt lat="43.69452" lon="1.11724">
        <ele>214</ele>
        <time>2015-02-07T19:57:54.000Z</time>
      </trkpt>
      <trkpt lat="43.69448" lon="1.11718">
        <ele>214</ele>
        <time>2015-02-07T19:57:57.000Z</time>
      </trkpt>
      <trkpt lat="43.69446" lon="1.1171">
        <ele>213.80000305176</ele>
        <time>2015-02-07T19:58:02.000Z</time>
      </trkpt>
      <trkpt lat="43.69445" lon="1.11705">
        <ele>213.80000305176</ele>
        <time>2015-02-07T19:58:04.000Z</time>
      </trkpt>
      <trkpt lat="43.69444" lon="1.11701">
        <ele>213.80000305176</ele>
        <time>2015-02-07T19:58:07.000Z</time>
      </trkpt>
      <trkpt lat="43.69442" lon="1.11694">
        <ele>213.80000305176</ele>
        <time>2015-02-07T19:58:11.000Z</time>
      </trkpt>
      <trkpt lat="43.69442" lon="1.11691">
        <ele>213.60000610352</ele>
        <time>2015-02-07T19:58:13.000Z</time>
      </trkpt>
      <trkpt lat="43.69441" lon="1.11688">
        <ele>213.60000610352</ele>
        <time>2015-02-07T19:58:15.000Z</time>
      </trkpt>
      <trkpt lat="43.6944" lon="1.11685">
        <ele>213.60000610352</ele>
        <time>2015-02-07T19:58:17.000Z</time>
      </trkpt>
      <trkpt lat="43.69438" lon="1.11681">
        <ele>213.39999389648</ele>
        <time>2015-02-07T19:58:20.000Z</time>
      </trkpt>
      <trkpt lat="43.69438" lon="1.11679">
        <ele>213.39999389648</ele>
        <time>2015-02-07T19:58:21.000Z</time>
      </trkpt>
      <trkpt lat="43.69437" lon="1.11675">
        <ele>213.39999389648</ele>
        <time>2015-02-07T19:58:24.000Z</time>
      </trkpt>
      <trkpt lat="43.69436" lon="1.11672">
        <ele>213.39999389648</ele>
        <time>2015-02-07T19:58:26.000Z</time>
      </trkpt>
      <trkpt lat="43.6943" lon="1.11662">
        <ele>213.19999694824</ele>
        <time>2015-02-07T19:58:34.000Z</time>
      </trkpt>
      <trkpt lat="43.69428" lon="1.11654">
        <ele>213.19999694824</ele>
        <time>2015-02-07T19:58:39.000Z</time>
      </trkpt>
      <trkpt lat="43.69422" lon="1.11648">
        <ele>213.19999694824</ele>
        <time>2015-02-07T19:58:45.000Z</time>
      </trkpt>
      <trkpt lat="43.69417" lon="1.1164">
        <ele>213.39999389648</ele>
        <time>2015-02-07T19:58:50.000Z</time>
      </trkpt>
      <trkpt lat="43.69416" lon="1.11639">
        <ele>213.39999389648</ele>
        <time>2015-02-07T19:58:51.000Z</time>
      </trkpt>
      <trkpt lat="43.69414" lon="1.11629">
        <ele>213.39999389648</ele>
        <time>2015-02-07T19:58:57.000Z</time>
      </trkpt>
      <trkpt lat="43.69414" lon="1.11622">
        <ele>213.60000610352</ele>
        <time>2015-02-07T19:59:01.000Z</time>
      </trkpt>
      <trkpt lat="43.69412" lon="1.1162">
        <ele>213.80000305176</ele>
        <time>2015-02-07T19:59:03.000Z</time>
      </trkpt>
      <trkpt lat="43.69408" lon="1.11609">
        <ele>214</ele>
        <time>2015-02-07T19:59:09.000Z</time>
      </trkpt>
      <trkpt lat="43.69406" lon="1.11606">
        <ele>214.19999694824</ele>
        <time>2015-02-07T19:59:11.000Z</time>
      </trkpt>
      <trkpt lat="43.694" lon="1.11599">
        <ele>214.39999389648</ele>
        <time>2015-02-07T19:59:15.000Z</time>
      </trkpt>
      <trkpt lat="43.694" lon="1.11598">
        <ele>214.60000610352</ele>
        <time>2015-02-07T19:59:16.000Z</time>
      </trkpt>
      <trkpt lat="43.69394" lon="1.11598">
        <ele>215</ele>
        <time>2015-02-07T19:59:22.000Z</time>
      </trkpt>
      <trkpt lat="43.69391" lon="1.11599">
        <ele>215.19999694824</ele>
        <time>2015-02-07T19:59:25.000Z</time>
      </trkpt>
      <trkpt lat="43.69391" lon="1.11599">
        <ele>215.19999694824</ele>
        <time>2015-02-07T19:59:26.000Z</time>
      </trkpt>
      <trkpt lat="43.69387" lon="1.116">
        <ele>215.60000610352</ele>
        <time>2015-02-07T19:59:30.000Z</time>
      </trkpt>
      <trkpt lat="43.69383" lon="1.116">
        <ele>215.80000305176</ele>
        <time>2015-02-07T19:59:35.000Z</time>
      </trkpt>
      <trkpt lat="43.6938" lon="1.116">
        <ele>216</ele>
        <time>2015-02-07T19:59:39.000Z</time>
      </trkpt>
      <trkpt lat="43.69379" lon="1.11601">
        <ele>216.19999694824</ele>
        <time>2015-02-07T19:59:42.000Z</time>
      </trkpt>
      <trkpt lat="43.69378" lon="1.11602">
        <ele>216.60000610352</ele>
        <time>2015-02-07T19:59:46.000Z</time>
      </trkpt>
      <trkpt lat="43.69373" lon="1.11596">
        <ele>217</ele>
        <time>2015-02-07T19:59:51.000Z</time>
      </trkpt>
      <trkpt lat="43.69374" lon="1.11598">
        <ele>217.19999694824</ele>
        <time>2015-02-07T19:59:54.000Z</time>
      </trkpt>
      <trkpt lat="43.69372" lon="1.11599">
        <ele>217.39999389648</ele>
        <time>2015-02-07T19:59:57.000Z</time>
      </trkpt>
      <trkpt lat="43.69371" lon="1.11599">
        <ele>217.39999389648</ele>
        <time>2015-02-07T19:59:58.000Z</time>
      </trkpt>
      <trkpt lat="43.69372" lon="1.11601">
        <ele>217.60000610352</ele>
        <time>2015-02-07T20:00:01.000Z</time>
      </trkpt>
      <trkpt lat="43.69373" lon="1.116">
        <ele>217.60000610352</ele>
        <time>2015-02-07T20:00:02.000Z</time>
      </trkpt>
      <trkpt lat="43.69378" lon="1.11602">
        <ele>218</ele>
        <time>2015-02-07T20:00:06.000Z</time>
      </trkpt>
      <trkpt lat="43.6938" lon="1.11604">
        <ele>218.19999694824</ele>
        <time>2015-02-07T20:00:09.000Z</time>
      </trkpt>
      <trkpt lat="43.6938" lon="1.11604">
        <ele>218.39999389648</ele>
        <time>2015-02-07T20:00:10.000Z</time>
      </trkpt>
      <trkpt lat="43.69377" lon="1.11604">
        <ele>218.60000610352</ele>
        <time>2015-02-07T20:00:13.000Z</time>
      </trkpt>
      <trkpt lat="43.69378" lon="1.11604">
        <ele>218.80000305176</ele>
        <time>2015-02-07T20:00:15.000Z</time>
      </trkpt>
      <trkpt lat="43.69376" lon="1.11605">
        <ele>219.39999389648</ele>
        <time>2015-02-07T20:00:23.000Z</time>
      </trkpt>
      <trkpt lat="43.69377" lon="1.11606">
        <ele>219.60000610352</ele>
        <time>2015-02-07T20:00:26.000Z</time>
      </trkpt>
      <trkpt lat="43.69379" lon="1.11606">
        <ele>219.80000305176</ele>
        <time>2015-02-07T20:00:28.000Z</time>
      </trkpt>
      <trkpt lat="43.69389" lon="1.11607">
        <ele>220.80000305176</ele>
        <time>2015-02-07T20:00:42.000Z</time>
      </trkpt>
      <trkpt lat="43.69387" lon="1.11603">
        <ele>221</ele>
        <time>2015-02-07T20:00:59.000Z</time>
      </trkpt>
      <trkpt lat="43.69386" lon="1.116">
        <ele>220.80000305176</ele>
        <time>2015-02-07T20:01:05.000Z</time>
      </trkpt>
      <trkpt lat="43.69385" lon="1.11598">
        <ele>220.80000305176</ele>
        <time>2015-02-07T20:01:07.000Z</time>
      </trkpt>
      <trkpt lat="43.69381" lon="1.11597">
        <ele>220.80000305176</ele>
        <time>2015-02-07T20:01:12.000Z</time>
      </trkpt>
      <trkpt lat="43.69374" lon="1.11595">
        <ele>220.80000305176</ele>
        <time>2015-02-07T20:01:16.000Z</time>
      </trkpt>
      <trkpt lat="43.69372" lon="1.11596">
        <ele>220.80000305176</ele>
        <time>2015-02-07T20:01:17.000Z</time>
      </trkpt>
      <trkpt lat="43.69369" lon="1.11595">
        <ele>220.80000305176</ele>
        <time>2015-02-07T20:01:20.000Z</time>
      </trkpt>
      <trkpt lat="43.69369" lon="1.11596">
        <ele>220.80000305176</ele>
        <time>2015-02-07T20:01:21.000Z</time>
      </trkpt>
      <trkpt lat="43.6937" lon="1.11598">
        <ele>220.80000305176</ele>
        <time>2015-02-07T20:01:23.000Z</time>
      </trkpt>
      <trkpt lat="43.69374" lon="1.116">
        <ele>220.80000305176</ele>
        <time>2015-02-07T20:01:26.000Z</time>
      </trkpt>
      <trkpt lat="43.69377" lon="1.11603">
        <ele>220.80000305176</ele>
        <time>2015-02-07T20:01:28.000Z</time>
      </trkpt>
      <trkpt lat="43.69377" lon="1.11602">
        <ele>220.80000305176</ele>
        <time>2015-02-07T20:01:31.000Z</time>
      </trkpt>
      <trkpt lat="43.69371" lon="1.11599">
        <ele>220.80000305176</ele>
        <time>2015-02-07T20:01:34.000Z</time>
      </trkpt>
      <trkpt lat="43.69369" lon="1.11595">
        <ele>220.80000305176</ele>
        <time>2015-02-07T20:01:37.000Z</time>
      </trkpt>
      <trkpt lat="43.69368" lon="1.11594">
        <ele>220.80000305176</ele>
        <time>2015-02-07T20:01:40.000Z</time>
      </trkpt>
      <trkpt lat="43.6937" lon="1.11596">
        <ele>220.80000305176</ele>
        <time>2015-02-07T20:01:42.000Z</time>
      </trkpt>
      <trkpt lat="43.6937" lon="1.11596">
        <ele>220.80000305176</ele>
        <time>2015-02-07T20:01:43.000Z</time>
      </trkpt>
      <trkpt lat="43.69373" lon="1.116">
        <ele>220.80000305176</ele>
        <time>2015-02-07T20:01:47.000Z</time>
      </trkpt>
      <trkpt lat="43.69373" lon="1.116">
        <ele>220.80000305176</ele>
        <time>2015-02-07T20:01:48.000Z</time>
      </trkpt>
      <trkpt lat="43.69374" lon="1.116">
        <ele>221</ele>
        <time>2015-02-07T20:01:49.000Z</time>
      </trkpt>
      <trkpt lat="43.69375" lon="1.11601">
        <ele>221.19999694824</ele>
        <time>2015-02-07T20:01:53.000Z</time>
      </trkpt>
      <trkpt lat="43.69377" lon="1.116">
        <ele>221.39999389648</ele>
        <time>2015-02-07T20:01:55.000Z</time>
      </trkpt>
      <trkpt lat="43.69378" lon="1.116">
        <ele>221.60000610352</ele>
        <time>2015-02-07T20:01:58.000Z</time>
      </trkpt>
      <trkpt lat="43.69379" lon="1.11601">
        <ele>221.60000610352</ele>
        <time>2015-02-07T20:01:59.000Z</time>
      </trkpt>
      <trkpt lat="43.69379" lon="1.11599">
        <ele>221.80000305176</ele>
        <time>2015-02-07T20:02:02.000Z</time>
      </trkpt>
      <trkpt lat="43.69376" lon="1.11595">
        <ele>222</ele>
        <time>2015-02-07T20:02:04.000Z</time>
      </trkpt>
      <trkpt lat="43.6937" lon="1.11592">
        <ele>222</ele>
        <time>2015-02-07T20:02:07.000Z</time>
      </trkpt>
      <trkpt lat="43.69369" lon="1.11592">
        <ele>222</ele>
        <time>2015-02-07T20:02:08.000Z</time>
      </trkpt>
      <trkpt lat="43.6937" lon="1.11594">
        <ele>222</ele>
        <time>2015-02-07T20:02:11.000Z</time>
      </trkpt>
      <trkpt lat="43.69371" lon="1.11596">
        <ele>222</ele>
        <time>2015-02-07T20:02:12.000Z</time>
      </trkpt>
      <trkpt lat="43.69377" lon="1.11599">
        <ele>222.19999694824</ele>
        <time>2015-02-07T20:02:15.000Z</time>
      </trkpt>
      <trkpt lat="43.69377" lon="1.11599">
        <ele>222.19999694824</ele>
        <time>2015-02-07T20:02:16.000Z</time>
      </trkpt>
      <trkpt lat="43.69379" lon="1.11598">
        <ele>222.19999694824</ele>
        <time>2015-02-07T20:02:17.000Z</time>
      </trkpt>
      <trkpt lat="43.69382" lon="1.11599">
        <ele>222.19999694824</ele>
        <time>2015-02-07T20:02:21.000Z</time>
      </trkpt>
      <trkpt lat="43.69388" lon="1.11602">
        <ele>222.39999389648</ele>
        <time>2015-02-07T20:02:25.000Z</time>
      </trkpt>
      <trkpt lat="43.69394" lon="1.11603">
        <ele>222.60000610352</ele>
        <time>2015-02-07T20:02:29.000Z</time>
      </trkpt>
      <trkpt lat="43.69395" lon="1.11604">
        <ele>222.80000305176</ele>
        <time>2015-02-07T20:02:30.000Z</time>
      </trkpt>
      <trkpt lat="43.69392" lon="1.11605">
        <ele>223.19999694824</ele>
        <time>2015-02-07T20:02:36.000Z</time>
      </trkpt>
      <trkpt lat="43.69385" lon="1.11605">
        <ele>223.39999389648</ele>
        <time>2015-02-07T20:02:42.000Z</time>
      </trkpt>
      <trkpt lat="43.69382" lon="1.11604">
        <ele>223.60000610352</ele>
        <time>2015-02-07T20:02:45.000Z</time>
      </trkpt>
      <trkpt lat="43.69379" lon="1.11605">
        <ele>224</ele>
        <time>2015-02-07T20:02:49.000Z</time>
      </trkpt>
      <trkpt lat="43.6938" lon="1.11607">
        <ele>224.80000305176</ele>
        <time>2015-02-07T20:02:54.000Z</time>
      </trkpt>
      <trkpt lat="43.69382" lon="1.11609">
        <ele>225</ele>
        <time>2015-02-07T20:02:56.000Z</time>
      </trkpt>
      <trkpt lat="43.69382" lon="1.11611">
        <ele>225.60000610352</ele>
        <time>2015-02-07T20:02:59.000Z</time>
      </trkpt>
      <trkpt lat="43.69381" lon="1.11607">
        <ele>227</ele>
        <time>2015-02-07T20:03:08.000Z</time>
      </trkpt>
      <trkpt lat="43.69382" lon="1.11609">
        <ele>227.19999694824</ele>
        <time>2015-02-07T20:03:10.000Z</time>
      </trkpt>
      <trkpt lat="43.69383" lon="1.11609">
        <ele>227.60000610352</ele>
        <time>2015-02-07T20:03:13.000Z</time>
      </trkpt>
      <trkpt lat="43.69387" lon="1.11611">
        <ele>229.19999694824</ele>
        <time>2015-02-07T20:03:23.000Z</time>
      </trkpt>
      <trkpt lat="43.69383" lon="1.11607">
        <ele>229.60000610352</ele>
        <time>2015-02-07T20:03:26.000Z</time>
      </trkpt>
      <trkpt lat="43.69385" lon="1.11606">
        <ele>230.19999694824</ele>
        <time>2015-02-07T20:03:31.000Z</time>
      </trkpt>
      <trkpt lat="43.69386" lon="1.11606">
        <ele>230.60000610352</ele>
        <time>2015-02-07T20:03:37.000Z</time>
      </trkpt>
      <trkpt lat="43.69385" lon="1.11608">
        <ele>231</ele>
        <time>2015-02-07T20:03:43.000Z</time>
      </trkpt>
      <trkpt lat="43.6939" lon="1.11606">
        <ele>231.39999389648</ele>
        <time>2015-02-07T20:03:50.000Z</time>
      </trkpt>
      <trkpt lat="43.69394" lon="1.11607">
        <ele>231.60000610352</ele>
        <time>2015-02-07T20:03:52.000Z</time>
      </trkpt>
      <trkpt lat="43.69393" lon="1.11607">
        <ele>232</ele>
        <time>2015-02-07T20:03:55.000Z</time>
      </trkpt>
      <trkpt lat="43.69392" lon="1.11605">
        <ele>232</ele>
        <time>2015-02-07T20:03:56.000Z</time>
      </trkpt>
      <trkpt lat="43.69389" lon="1.11602">
        <ele>232.19999694824</ele>
        <time>2015-02-07T20:03:59.000Z</time>
      </trkpt>
      <trkpt lat="43.69386" lon="1.116">
        <ele>232.60000610352</ele>
        <time>2015-02-07T20:04:02.000Z</time>
      </trkpt>
      <trkpt lat="43.69386" lon="1.11601">
        <ele>232.80000305176</ele>
        <time>2015-02-07T20:04:06.000Z</time>
      </trkpt>
      <trkpt lat="43.69382" lon="1.11597">
        <ele>233</ele>
        <time>2015-02-07T20:04:12.000Z</time>
      </trkpt>
      <trkpt lat="43.69376" lon="1.11592">
        <ele>233</ele>
        <time>2015-02-07T20:04:15.000Z</time>
      </trkpt>
      <trkpt lat="43.69374" lon="1.11593">
        <ele>233.19999694824</ele>
        <time>2015-02-07T20:04:18.000Z</time>
      </trkpt>
      <trkpt lat="43.69376" lon="1.11594">
        <ele>233</ele>
        <time>2015-02-07T20:04:19.000Z</time>
      </trkpt>
      <trkpt lat="43.69379" lon="1.11595">
        <ele>233</ele>
        <time>2015-02-07T20:04:21.000Z</time>
      </trkpt>
      <trkpt lat="43.69382" lon="1.11593">
        <ele>233</ele>
        <time>2015-02-07T20:04:23.000Z</time>
      </trkpt>
      <trkpt lat="43.69385" lon="1.11589">
        <ele>233</ele>
        <time>2015-02-07T20:04:27.000Z</time>
      </trkpt>
      <trkpt lat="43.69391" lon="1.11591">
        <ele>232.80000305176</ele>
        <time>2015-02-07T20:04:30.000Z</time>
      </trkpt>
      <trkpt lat="43.69391" lon="1.11591">
        <ele>232.80000305176</ele>
        <time>2015-02-07T20:04:31.000Z</time>
      </trkpt>
      <trkpt lat="43.6939" lon="1.11591">
        <ele>232.80000305176</ele>
        <time>2015-02-07T20:04:33.000Z</time>
      </trkpt>
      <trkpt lat="43.6939" lon="1.11591">
        <ele>232.80000305176</ele>
        <time>2015-02-07T20:04:34.000Z</time>
      </trkpt>
      <trkpt lat="43.69394" lon="1.11581">
        <ele>232.60000610352</ele>
        <time>2015-02-07T20:04:39.000Z</time>
      </trkpt>
      <trkpt lat="43.69402" lon="1.11569">
        <ele>232.39999389648</ele>
        <time>2015-02-07T20:04:43.000Z</time>
      </trkpt>
      <trkpt lat="43.69411" lon="1.11566">
        <ele>232</ele>
        <time>2015-02-07T20:04:47.000Z</time>
      </trkpt>
      <trkpt lat="43.69416" lon="1.11563">
        <ele>231.80000305176</ele>
        <time>2015-02-07T20:04:50.000Z</time>
      </trkpt>
      <trkpt lat="43.6942" lon="1.11562">
        <ele>231.80000305176</ele>
        <time>2015-02-07T20:04:51.000Z</time>
      </trkpt>
      <trkpt lat="43.69432" lon="1.11556">
        <ele>231.39999389648</ele>
        <time>2015-02-07T20:04:56.000Z</time>
      </trkpt>
      <trkpt lat="43.69433" lon="1.11554">
        <ele>231.39999389648</ele>
        <time>2015-02-07T20:04:57.000Z</time>
      </trkpt>
      <trkpt lat="43.69439" lon="1.1155">
        <ele>231</ele>
        <time>2015-02-07T20:05:00.000Z</time>
      </trkpt>
      <trkpt lat="43.69448" lon="1.11545">
        <ele>230.80000305176</ele>
        <time>2015-02-07T20:05:04.000Z</time>
      </trkpt>
      <trkpt lat="43.69459" lon="1.11537">
        <ele>230.19999694824</ele>
        <time>2015-02-07T20:05:09.000Z</time>
      </trkpt>
      <trkpt lat="43.69474" lon="1.11522">
        <ele>229.60000610352</ele>
        <time>2015-02-07T20:05:16.000Z</time>
      </trkpt>
      <trkpt lat="43.69484" lon="1.11516">
        <ele>229</ele>
        <time>2015-02-07T20:05:20.000Z</time>
      </trkpt>
      <trkpt lat="43.69493" lon="1.11509">
        <ele>228.60000610352</ele>
        <time>2015-02-07T20:05:24.000Z</time>
      </trkpt>
      <trkpt lat="43.69504" lon="1.11497">
        <ele>228</ele>
        <time>2015-02-07T20:05:29.000Z</time>
      </trkpt>
      <trkpt lat="43.69511" lon="1.11492">
        <ele>227.60000610352</ele>
        <time>2015-02-07T20:05:32.000Z</time>
      </trkpt>
      <trkpt lat="43.69512" lon="1.1149">
        <ele>227.39999389648</ele>
        <time>2015-02-07T20:05:33.000Z</time>
      </trkpt>
      <trkpt lat="43.69512" lon="1.11489">
        <ele>227.19999694824</ele>
        <time>2015-02-07T20:05:34.000Z</time>
      </trkpt>
      <trkpt lat="43.6951" lon="1.11484">
        <ele>226.80000305176</ele>
        <time>2015-02-07T20:05:37.000Z</time>
      </trkpt>
      <trkpt lat="43.69506" lon="1.11478">
        <ele>226.19999694824</ele>
        <time>2015-02-07T20:05:40.000Z</time>
      </trkpt>
      <trkpt lat="43.69504" lon="1.11476">
        <ele>226</ele>
        <time>2015-02-07T20:05:41.000Z</time>
      </trkpt>
      <trkpt lat="43.69501" lon="1.11474">
        <ele>225.80000305176</ele>
        <time>2015-02-07T20:05:43.000Z</time>
      </trkpt>
      <trkpt lat="43.69499" lon="1.11472">
        <ele>225.39999389648</ele>
        <time>2015-02-07T20:05:45.000Z</time>
      </trkpt>
      <trkpt lat="43.69497" lon="1.11468">
        <ele>224.60000610352</ele>
        <time>2015-02-07T20:05:50.000Z</time>
      </trkpt>
      <trkpt lat="43.69497" lon="1.11467">
        <ele>224.39999389648</ele>
        <time>2015-02-07T20:05:51.000Z</time>
      </trkpt>
      <trkpt lat="43.69497" lon="1.11463">
        <ele>224</ele>
        <time>2015-02-07T20:05:54.000Z</time>
      </trkpt>
      <trkpt lat="43.69495" lon="1.11457">
        <ele>223.60000610352</ele>
        <time>2015-02-07T20:05:57.000Z</time>
      </trkpt>
      <trkpt lat="43.69489" lon="1.11448">
        <ele>222.80000305176</ele>
        <time>2015-02-07T20:06:02.000Z</time>
      </trkpt>
      <trkpt lat="43.69485" lon="1.11443">
        <ele>222.39999389648</ele>
        <time>2015-02-07T20:06:05.000Z</time>
      </trkpt>
      <trkpt lat="43.69484" lon="1.11442">
        <ele>222.19999694824</ele>
        <time>2015-02-07T20:06:06.000Z</time>
      </trkpt>
      <trkpt lat="43.69484" lon="1.11441">
        <ele>222</ele>
        <time>2015-02-07T20:06:07.000Z</time>
      </trkpt>
      <trkpt lat="43.69481" lon="1.11435">
        <ele>221.39999389648</ele>
        <time>2015-02-07T20:06:11.000Z</time>
      </trkpt>
      <trkpt lat="43.69482" lon="1.11433">
        <ele>221</ele>
        <time>2015-02-07T20:06:14.000Z</time>
      </trkpt>
      <trkpt lat="43.69482" lon="1.11432">
        <ele>220.80000305176</ele>
        <time>2015-02-07T20:06:15.000Z</time>
      </trkpt>
      <trkpt lat="43.69481" lon="1.11434">
        <ele>220</ele>
        <time>2015-02-07T20:06:21.000Z</time>
      </trkpt>
      <trkpt lat="43.69482" lon="1.11438">
        <ele>219.60000610352</ele>
        <time>2015-02-07T20:06:24.000Z</time>
      </trkpt>
      <trkpt lat="43.69482" lon="1.11439">
        <ele>219.39999389648</ele>
        <time>2015-02-07T20:06:25.000Z</time>
      </trkpt>
      <trkpt lat="43.69484" lon="1.11443">
        <ele>219</ele>
        <time>2015-02-07T20:06:28.000Z</time>
      </trkpt>
      <trkpt lat="43.69486" lon="1.11446">
        <ele>218.80000305176</ele>
        <time>2015-02-07T20:06:30.000Z</time>
      </trkpt>
      <trkpt lat="43.69486" lon="1.11447">
        <ele>218.60000610352</ele>
        <time>2015-02-07T20:06:31.000Z</time>
      </trkpt>
      <trkpt lat="43.69489" lon="1.11451">
        <ele>218.19999694824</ele>
        <time>2015-02-07T20:06:33.000Z</time>
      </trkpt>
      <trkpt lat="43.69494" lon="1.11455">
        <ele>217.80000305176</ele>
        <time>2015-02-07T20:06:36.000Z</time>
      </trkpt>
      <trkpt lat="43.69501" lon="1.11464">
        <ele>217</ele>
        <time>2015-02-07T20:06:40.000Z</time>
      </trkpt>
      <trkpt lat="43.69503" lon="1.11469">
        <ele>216.39999389648</ele>
        <time>2015-02-07T20:06:44.000Z</time>
      </trkpt>
      <trkpt lat="43.69508" lon="1.11472">
        <ele>215.80000305176</ele>
        <time>2015-02-07T20:06:48.000Z</time>
      </trkpt>
      <trkpt lat="43.69512" lon="1.1147">
        <ele>215.19999694824</ele>
        <time>2015-02-07T20:06:51.000Z</time>
      </trkpt>
      <trkpt lat="43.69516" lon="1.1147">
        <ele>215</ele>
        <time>2015-02-07T20:06:53.000Z</time>
      </trkpt>
      <trkpt lat="43.69518" lon="1.1147">
        <ele>214.39999389648</ele>
        <time>2015-02-07T20:06:57.000Z</time>
      </trkpt>
      <trkpt lat="43.69522" lon="1.11468">
        <ele>213.60000610352</ele>
        <time>2015-02-07T20:07:02.000Z</time>
      </trkpt>
      <trkpt lat="43.69523" lon="1.11469">
        <ele>213.19999694824</ele>
        <time>2015-02-07T20:07:06.000Z</time>
      </trkpt>
      <trkpt lat="43.69524" lon="1.11466">
        <ele>212.80000305176</ele>
        <time>2015-02-07T20:07:08.000Z</time>
      </trkpt>
      <trkpt lat="43.69524" lon="1.11466">
        <ele>212.60000610352</ele>
        <time>2015-02-07T20:07:10.000Z</time>
      </trkpt>
      <trkpt lat="43.69521" lon="1.1146">
        <ele>212</ele>
        <time>2015-02-07T20:07:15.000Z</time>
      </trkpt>
      <trkpt lat="43.6952" lon="1.11453">
        <ele>211.60000610352</ele>
        <time>2015-02-07T20:07:18.000Z</time>
      </trkpt>
      <trkpt lat="43.69519" lon="1.11451">
        <ele>211.60000610352</ele>
        <time>2015-02-07T20:07:19.000Z</time>
      </trkpt>
      <trkpt lat="43.69513" lon="1.11442">
        <ele>211</ele>
        <time>2015-02-07T20:07:23.000Z</time>
      </trkpt>
      <trkpt lat="43.69503" lon="1.11429">
        <ele>210.39999389648</ele>
        <time>2015-02-07T20:07:29.000Z</time>
      </trkpt>
      <trkpt lat="43.69496" lon="1.11418">
        <ele>210</ele>
        <time>2015-02-07T20:07:34.000Z</time>
      </trkpt>
      <trkpt lat="43.6949" lon="1.11411">
        <ele>209.60000610352</ele>
        <time>2015-02-07T20:07:38.000Z</time>
      </trkpt>
      <trkpt lat="43.69488" lon="1.11409">
        <ele>209.60000610352</ele>
        <time>2015-02-07T20:07:39.000Z</time>
      </trkpt>
      <trkpt lat="43.69482" lon="1.11402">
        <ele>209.39999389648</ele>
        <time>2015-02-07T20:07:42.000Z</time>
      </trkpt>
      <trkpt lat="43.69477" lon="1.11395">
        <ele>209.19999694824</ele>
        <time>2015-02-07T20:07:45.000Z</time>
      </trkpt>
      <trkpt lat="43.69474" lon="1.1139">
        <ele>209</ele>
        <time>2015-02-07T20:07:47.000Z</time>
      </trkpt>
      <trkpt lat="43.69473" lon="1.11384">
        <ele>208.80000305176</ele>
        <time>2015-02-07T20:07:49.000Z</time>
      </trkpt>
      <trkpt lat="43.69475" lon="1.11371">
        <ele>208.39999389648</ele>
        <time>2015-02-07T20:07:55.000Z</time>
      </trkpt>
      <trkpt lat="43.69478" lon="1.11362">
        <ele>208.19999694824</ele>
        <time>2015-02-07T20:08:00.000Z</time>
      </trkpt>
      <trkpt lat="43.69487" lon="1.11351">
        <ele>208</ele>
        <time>2015-02-07T20:08:06.000Z</time>
      </trkpt>
      <trkpt lat="43.6949" lon="1.11349">
        <ele>207.80000305176</ele>
        <time>2015-02-07T20:08:08.000Z</time>
      </trkpt>
      <trkpt lat="43.69493" lon="1.11344">
        <ele>207.80000305176</ele>
        <time>2015-02-07T20:08:11.000Z</time>
      </trkpt>
      <trkpt lat="43.69491" lon="1.11347">
        <ele>207.60000610352</ele>
        <time>2015-02-07T20:08:16.000Z</time>
      </trkpt>
      <trkpt lat="43.6949" lon="1.11347">
        <ele>207.60000610352</ele>
        <time>2015-02-07T20:08:17.000Z</time>
      </trkpt>
      <trkpt lat="43.69489" lon="1.11348">
        <ele>207.60000610352</ele>
        <time>2015-02-07T20:08:19.000Z</time>
      </trkpt>
      <trkpt lat="43.69494" lon="1.1134">
        <ele>207.39999389648</ele>
        <time>2015-02-07T20:08:23.000Z</time>
      </trkpt>
      <trkpt lat="43.69502" lon="1.11326">
        <ele>207.19999694824</ele>
        <time>2015-02-07T20:08:29.000Z</time>
      </trkpt>
      <trkpt lat="43.69509" lon="1.11314">
        <ele>207.19999694824</ele>
        <time>2015-02-07T20:08:34.000Z</time>
      </trkpt>
      <trkpt lat="43.69518" lon="1.11295">
        <ele>207</ele>
        <time>2015-02-07T20:08:41.000Z</time>
      </trkpt>
      <trkpt lat="43.69522" lon="1.11285">
        <ele>207</ele>
        <time>2015-02-07T20:08:45.000Z</time>
      </trkpt>
      <trkpt lat="43.69524" lon="1.1128">
        <ele>207</ele>
        <time>2015-02-07T20:08:47.000Z</time>
      </trkpt>
      <trkpt lat="43.69531" lon="1.11265">
        <ele>207</ele>
        <time>2015-02-07T20:08:53.000Z</time>
      </trkpt>
      <trkpt lat="43.69538" lon="1.11247">
        <ele>207.19999694824</ele>
        <time>2015-02-07T20:09:00.000Z</time>
      </trkpt>
      <trkpt lat="43.69545" lon="1.11229">
        <ele>207.39999389648</ele>
        <time>2015-02-07T20:09:07.000Z</time>
      </trkpt>
      <trkpt lat="43.69549" lon="1.11209">
        <ele>207.80000305176</ele>
        <time>2015-02-07T20:09:14.000Z</time>
      </trkpt>
      <trkpt lat="43.69552" lon="1.11192">
        <ele>208.39999389648</ele>
        <time>2015-02-07T20:09:20.000Z</time>
      </trkpt>
      <trkpt lat="43.69554" lon="1.1118">
        <ele>208.80000305176</ele>
        <time>2015-02-07T20:09:24.000Z</time>
      </trkpt>
      <trkpt lat="43.69554" lon="1.11174">
        <ele>209</ele>
        <time>2015-02-07T20:09:26.000Z</time>
      </trkpt>
      <trkpt lat="43.69556" lon="1.11166">
        <ele>209</ele>
        <time>2015-02-07T20:09:29.000Z</time>
      </trkpt>
      <trkpt lat="43.69556" lon="1.1116">
        <ele>209.19999694824</ele>
        <time>2015-02-07T20:09:31.000Z</time>
      </trkpt>
      <trkpt lat="43.6956" lon="1.11141">
        <ele>209.60000610352</ele>
        <time>2015-02-07T20:09:38.000Z</time>
      </trkpt>
      <trkpt lat="43.69562" lon="1.1112">
        <ele>210.19999694824</ele>
        <time>2015-02-07T20:09:45.000Z</time>
      </trkpt>
      <trkpt lat="43.69565" lon="1.11104">
        <ele>211</ele>
        <time>2015-02-07T20:09:51.000Z</time>
      </trkpt>
      <trkpt lat="43.6957" lon="1.11084">
        <ele>212</ele>
        <time>2015-02-07T20:09:59.000Z</time>
      </trkpt>
      <trkpt lat="43.69574" lon="1.11067">
        <ele>212.60000610352</ele>
        <time>2015-02-07T20:10:05.000Z</time>
      </trkpt>
      <trkpt lat="43.69578" lon="1.11053">
        <ele>213.19999694824</ele>
        <time>2015-02-07T20:10:10.000Z</time>
      </trkpt>
      <trkpt lat="43.69585" lon="1.1103">
        <ele>214.39999389648</ele>
        <time>2015-02-07T20:10:18.000Z</time>
      </trkpt>
      <trkpt lat="43.69591" lon="1.11021">
        <ele>215</ele>
        <time>2015-02-07T20:10:22.000Z</time>
      </trkpt>
      <trkpt lat="43.69594" lon="1.11021">
        <ele>215.19999694824</ele>
        <time>2015-02-07T20:10:23.000Z</time>
      </trkpt>
      <trkpt lat="43.69601" lon="1.11032">
        <ele>215.80000305176</ele>
        <time>2015-02-07T20:10:27.000Z</time>
      </trkpt>
      <trkpt lat="43.69606" lon="1.11048">
        <ele>216.60000610352</ele>
        <time>2015-02-07T20:10:32.000Z</time>
      </trkpt>
      <trkpt lat="43.69619" lon="1.11066">
        <ele>217.60000610352</ele>
        <time>2015-02-07T20:10:39.000Z</time>
      </trkpt>
      <trkpt lat="43.69638" lon="1.11071">
        <ele>218.60000610352</ele>
        <time>2015-02-07T20:10:46.000Z</time>
      </trkpt>
      <trkpt lat="43.69653" lon="1.11073">
        <ele>219.39999389648</ele>
        <time>2015-02-07T20:10:51.000Z</time>
      </trkpt>
      <trkpt lat="43.69669" lon="1.11075">
        <ele>219.80000305176</ele>
        <time>2015-02-07T20:10:57.000Z</time>
      </trkpt>
      <trkpt lat="43.69684" lon="1.11076">
        <ele>220.19999694824</ele>
        <time>2015-02-07T20:11:02.000Z</time>
      </trkpt>
      <trkpt lat="43.69705" lon="1.11077">
        <ele>220.39999389648</ele>
        <time>2015-02-07T20:11:09.000Z</time>
      </trkpt>
      <trkpt lat="43.69721" lon="1.11081">
        <ele>220.39999389648</ele>
        <time>2015-02-07T20:11:14.000Z</time>
      </trkpt>
      <trkpt lat="43.69737" lon="1.11082">
        <ele>220.39999389648</ele>
        <time>2015-02-07T20:11:19.000Z</time>
      </trkpt>
      <trkpt lat="43.69753" lon="1.11084">
        <ele>220.19999694824</ele>
        <time>2015-02-07T20:11:24.000Z</time>
      </trkpt>
      <trkpt lat="43.69773" lon="1.11086">
        <ele>220</ele>
        <time>2015-02-07T20:11:31.000Z</time>
      </trkpt>
      <trkpt lat="43.6979" lon="1.11087">
        <ele>219.60000610352</ele>
        <time>2015-02-07T20:11:37.000Z</time>
      </trkpt>
      <trkpt lat="43.6981" lon="1.1109">
        <ele>219.19999694824</ele>
        <time>2015-02-07T20:11:44.000Z</time>
      </trkpt>
      <trkpt lat="43.69824" lon="1.11091">
        <ele>218.80000305176</ele>
        <time>2015-02-07T20:11:49.000Z</time>
      </trkpt>
      <trkpt lat="43.69838" lon="1.11093">
        <ele>218.39999389648</ele>
        <time>2015-02-07T20:11:54.000Z</time>
      </trkpt>
      <trkpt lat="43.69859" lon="1.11096">
        <ele>217.80000305176</ele>
        <time>2015-02-07T20:12:01.000Z</time>
      </trkpt>
      <trkpt lat="43.69871" lon="1.11098">
        <ele>217.39999389648</ele>
        <time>2015-02-07T20:12:05.000Z</time>
      </trkpt>
      <trkpt lat="43.6989" lon="1.111">
        <ele>216.60000610352</ele>
        <time>2015-02-07T20:12:12.000Z</time>
      </trkpt>
      <trkpt lat="43.69907" lon="1.11102">
        <ele>215.80000305176</ele>
        <time>2015-02-07T20:12:18.000Z</time>
      </trkpt>
      <trkpt lat="43.69921" lon="1.11105">
        <ele>215.19999694824</ele>
        <time>2015-02-07T20:12:23.000Z</time>
      </trkpt>
      <trkpt lat="43.69928" lon="1.11101">
        <ele>214.80000305176</ele>
        <time>2015-02-07T20:12:26.000Z</time>
      </trkpt>
      <trkpt lat="43.69929" lon="1.11098">
        <ele>214.80000305176</ele>
        <time>2015-02-07T20:12:27.000Z</time>
      </trkpt>
      <trkpt lat="43.69931" lon="1.1108">
        <ele>214.19999694824</ele>
        <time>2015-02-07T20:12:32.000Z</time>
      </trkpt>
      <trkpt lat="43.69931" lon="1.11062">
        <ele>213.60000610352</ele>
        <time>2015-02-07T20:12:37.000Z</time>
      </trkpt>
      <trkpt lat="43.69931" lon="1.11045">
        <ele>213.19999694824</ele>
        <time>2015-02-07T20:12:42.000Z</time>
      </trkpt>
      <trkpt lat="43.69927" lon="1.11036">
        <ele>212.80000305176</ele>
        <time>2015-02-07T20:12:46.000Z</time>
      </trkpt>
      <trkpt lat="43.69915" lon="1.1103">
        <ele>212.39999389648</ele>
        <time>2015-02-07T20:12:52.000Z</time>
      </trkpt>
      <trkpt lat="43.69904" lon="1.11023">
        <ele>212</ele>
        <time>2015-02-07T20:12:57.000Z</time>
      </trkpt>
      <trkpt lat="43.69902" lon="1.11018">
        <ele>211.80000305176</ele>
        <time>2015-02-07T20:12:59.000Z</time>
      </trkpt>
      <trkpt lat="43.69904" lon="1.11013">
        <ele>211.80000305176</ele>
        <time>2015-02-07T20:13:01.000Z</time>
      </trkpt>
      <trkpt lat="43.69909" lon="1.11">
        <ele>211.39999389648</ele>
        <time>2015-02-07T20:13:05.000Z</time>
      </trkpt>
      <trkpt lat="43.69909" lon="1.10997">
        <ele>211.39999389648</ele>
        <time>2015-02-07T20:13:06.000Z</time>
      </trkpt>
      <trkpt lat="43.69913" lon="1.10973">
        <ele>210.80000305176</ele>
        <time>2015-02-07T20:13:13.000Z</time>
      </trkpt>
      <trkpt lat="43.69918" lon="1.10949">
        <ele>210.39999389648</ele>
        <time>2015-02-07T20:13:20.000Z</time>
      </trkpt>
      <trkpt lat="43.69924" lon="1.10928">
        <ele>209.80000305176</ele>
        <time>2015-02-07T20:13:26.000Z</time>
      </trkpt>
      <trkpt lat="43.69928" lon="1.10911">
        <ele>209.39999389648</ele>
        <time>2015-02-07T20:13:31.000Z</time>
      </trkpt>
      <trkpt lat="43.69933" lon="1.10885">
        <ele>208.80000305176</ele>
        <time>2015-02-07T20:13:39.000Z</time>
      </trkpt>
      <trkpt lat="43.69936" lon="1.10858">
        <ele>208.19999694824</ele>
        <time>2015-02-07T20:13:47.000Z</time>
      </trkpt>
      <trkpt lat="43.69935" lon="1.10838">
        <ele>207.80000305176</ele>
        <time>2015-02-07T20:13:53.000Z</time>
      </trkpt>
      <trkpt lat="43.69936" lon="1.10822">
        <ele>207.39999389648</ele>
        <time>2015-02-07T20:13:58.000Z</time>
      </trkpt>
      <trkpt lat="43.69936" lon="1.10802">
        <ele>207</ele>
        <time>2015-02-07T20:14:04.000Z</time>
      </trkpt>
      <trkpt lat="43.69936" lon="1.10779">
        <ele>206.60000610352</ele>
        <time>2015-02-07T20:14:11.000Z</time>
      </trkpt>
      <trkpt lat="43.69935" lon="1.10763">
        <ele>206.39999389648</ele>
        <time>2015-02-07T20:14:16.000Z</time>
      </trkpt>
      <trkpt lat="43.69933" lon="1.10739">
        <ele>206</ele>
        <time>2015-02-07T20:14:23.000Z</time>
      </trkpt>
      <trkpt lat="43.69932" lon="1.10715">
        <ele>205.60000610352</ele>
        <time>2015-02-07T20:14:30.000Z</time>
      </trkpt>
      <trkpt lat="43.69929" lon="1.10691">
        <ele>205.19999694824</ele>
        <time>2015-02-07T20:14:37.000Z</time>
      </trkpt>
      <trkpt lat="43.69924" lon="1.10674">
        <ele>205</ele>
        <time>2015-02-07T20:14:43.000Z</time>
      </trkpt>
      <trkpt lat="43.69922" lon="1.10673">
        <ele>205</ele>
        <time>2015-02-07T20:14:44.000Z</time>
      </trkpt>
      <trkpt lat="43.69916" lon="1.10673">
        <ele>204.80000305176</ele>
        <time>2015-02-07T20:14:47.000Z</time>
      </trkpt>
      <trkpt lat="43.69903" lon="1.10677">
        <ele>204.39999389648</ele>
        <time>2015-02-07T20:14:53.000Z</time>
      </trkpt>
      <trkpt lat="43.69889" lon="1.1068">
        <ele>204.19999694824</ele>
        <time>2015-02-07T20:14:59.000Z</time>
      </trkpt>
      <trkpt lat="43.69873" lon="1.10685">
        <ele>204</ele>
        <time>2015-02-07T20:15:06.000Z</time>
      </trkpt>
      <trkpt lat="43.69859" lon="1.10686">
        <ele>203.80000305176</ele>
        <time>2015-02-07T20:15:12.000Z</time>
      </trkpt>
      <trkpt lat="43.69861" lon="1.10678">
        <ele>203.80000305176</ele>
        <time>2015-02-07T20:15:15.000Z</time>
      </trkpt>
      <trkpt lat="43.69866" lon="1.10677">
        <ele>203.80000305176</ele>
        <time>2015-02-07T20:15:17.000Z</time>
      </trkpt>
      <trkpt lat="43.6987" lon="1.10676">
        <ele>203.60000610352</ele>
        <time>2015-02-07T20:15:19.000Z</time>
      </trkpt>
      <trkpt lat="43.69886" lon="1.10672">
        <ele>203.39999389648</ele>
        <time>2015-02-07T20:15:26.000Z</time>
      </trkpt>
      <trkpt lat="43.69905" lon="1.10667">
        <ele>203.19999694824</ele>
        <time>2015-02-07T20:15:34.000Z</time>
      </trkpt>
      <trkpt lat="43.69908" lon="1.10666">
        <ele>203.19999694824</ele>
        <time>2015-02-07T20:15:35.000Z</time>
      </trkpt>
      <trkpt lat="43.69924" lon="1.10661">
        <ele>203</ele>
        <time>2015-02-07T20:15:42.000Z</time>
      </trkpt>
      <trkpt lat="43.69931" lon="1.10653">
        <ele>203</ele>
        <time>2015-02-07T20:15:46.000Z</time>
      </trkpt>
      <trkpt lat="43.69933" lon="1.1065">
        <ele>202.80000305176</ele>
        <time>2015-02-07T20:15:47.000Z</time>
      </trkpt>
      <trkpt lat="43.69937" lon="1.10634">
        <ele>202.80000305176</ele>
        <time>2015-02-07T20:15:52.000Z</time>
      </trkpt>
      <trkpt lat="43.69943" lon="1.10617">
        <ele>202.60000610352</ele>
        <time>2015-02-07T20:15:58.000Z</time>
      </trkpt>
      <trkpt lat="43.6995" lon="1.10603">
        <ele>202.39999389648</ele>
        <time>2015-02-07T20:16:03.000Z</time>
      </trkpt>
      <trkpt lat="43.69957" lon="1.10588">
        <ele>202.19999694824</ele>
        <time>2015-02-07T20:16:08.000Z</time>
      </trkpt>
      <trkpt lat="43.69964" lon="1.1057">
        <ele>202.19999694824</ele>
        <time>2015-02-07T20:16:14.000Z</time>
      </trkpt>
      <trkpt lat="43.6997" lon="1.10551">
        <ele>202.19999694824</ele>
        <time>2015-02-07T20:16:20.000Z</time>
      </trkpt>
      <trkpt lat="43.69976" lon="1.10531">
        <ele>202</ele>
        <time>2015-02-07T20:16:26.000Z</time>
      </trkpt>
      <trkpt lat="43.69981" lon="1.10515">
        <ele>201.80000305176</ele>
        <time>2015-02-07T20:16:31.000Z</time>
      </trkpt>
      <trkpt lat="43.69982" lon="1.10498">
        <ele>201.60000610352</ele>
        <time>2015-02-07T20:16:36.000Z</time>
      </trkpt>
      <trkpt lat="43.69986" lon="1.10483">
        <ele>201.39999389648</ele>
        <time>2015-02-07T20:16:41.000Z</time>
      </trkpt>
      <trkpt lat="43.69987" lon="1.10466">
        <ele>201.19999694824</ele>
        <time>2015-02-07T20:16:46.000Z</time>
      </trkpt>
      <trkpt lat="43.6999" lon="1.10446">
        <ele>201</ele>
        <time>2015-02-07T20:16:52.000Z</time>
      </trkpt>
      <trkpt lat="43.69994" lon="1.10426">
        <ele>200.80000305176</ele>
        <time>2015-02-07T20:16:58.000Z</time>
      </trkpt>
      <trkpt lat="43.69999" lon="1.10402">
        <ele>200.39999389648</ele>
        <time>2015-02-07T20:17:05.000Z</time>
      </trkpt>
      <trkpt lat="43.7" lon="1.10398">
        <ele>200.39999389648</ele>
        <time>2015-02-07T20:17:06.000Z</time>
      </trkpt>
      <trkpt lat="43.70007" lon="1.10376">
        <ele>200.19999694824</ele>
        <time>2015-02-07T20:17:13.000Z</time>
      </trkpt>
      <trkpt lat="43.70015" lon="1.10354">
        <ele>199.80000305176</ele>
        <time>2015-02-07T20:17:20.000Z</time>
      </trkpt>
      <trkpt lat="43.70016" lon="1.10351">
        <ele>199.80000305176</ele>
        <time>2015-02-07T20:17:21.000Z</time>
      </trkpt>
      <trkpt lat="43.70018" lon="1.10327">
        <ele>199.39999389648</ele>
        <time>2015-02-07T20:17:28.000Z</time>
      </trkpt>
      <trkpt lat="43.70011" lon="1.10314">
        <ele>199.19999694824</ele>
        <time>2015-02-07T20:17:33.000Z</time>
      </trkpt>
      <trkpt lat="43.70001" lon="1.10298">
        <ele>199</ele>
        <time>2015-02-07T20:17:39.000Z</time>
      </trkpt>
      <trkpt lat="43.69993" lon="1.10288">
        <ele>198.80000305176</ele>
        <time>2015-02-07T20:17:44.000Z</time>
      </trkpt>
      <trkpt lat="43.69991" lon="1.10284">
        <ele>198.80000305176</ele>
        <time>2015-02-07T20:17:46.000Z</time>
      </trkpt>
      <trkpt lat="43.69992" lon="1.10277">
        <ele>198.80000305176</ele>
        <time>2015-02-07T20:17:49.000Z</time>
      </trkpt>
      <trkpt lat="43.69994" lon="1.10272">
        <ele>198.80000305176</ele>
        <time>2015-02-07T20:17:52.000Z</time>
      </trkpt>
      <trkpt lat="43.69993" lon="1.10269">
        <ele>198.60000610352</ele>
        <time>2015-02-07T20:17:53.000Z</time>
      </trkpt>
      <trkpt lat="43.69994" lon="1.10262">
        <ele>198.60000610352</ele>
        <time>2015-02-07T20:17:56.000Z</time>
      </trkpt>
      <trkpt lat="43.69994" lon="1.1026">
        <ele>198.60000610352</ele>
        <time>2015-02-07T20:17:57.000Z</time>
      </trkpt>
      <trkpt lat="43.69999" lon="1.10254">
        <ele>198.60000610352</ele>
        <time>2015-02-07T20:18:01.000Z</time>
      </trkpt>
      <trkpt lat="43.70004" lon="1.10247">
        <ele>198.39999389648</ele>
        <time>2015-02-07T20:18:05.000Z</time>
      </trkpt>
      <trkpt lat="43.70007" lon="1.10234">
        <ele>198.39999389648</ele>
        <time>2015-02-07T20:18:10.000Z</time>
      </trkpt>
      <trkpt lat="43.70006" lon="1.10233">
        <ele>198.39999389648</ele>
        <time>2015-02-07T20:18:11.000Z</time>
      </trkpt>
      <trkpt lat="43.70002" lon="1.10231">
        <ele>198.39999389648</ele>
        <time>2015-02-07T20:18:13.000Z</time>
      </trkpt>
      <trkpt lat="43.69993" lon="1.10224">
        <ele>198.60000610352</ele>
        <time>2015-02-07T20:18:18.000Z</time>
      </trkpt>
      <trkpt lat="43.69984" lon="1.10217">
        <ele>198.60000610352</ele>
        <time>2015-02-07T20:18:24.000Z</time>
      </trkpt>
      <trkpt lat="43.69984" lon="1.10217">
        <ele>198.60000610352</ele>
        <time>2015-02-07T20:18:26.000Z</time>
      </trkpt>
      <trkpt lat="43.69983" lon="1.10217">
        <ele>198.60000610352</ele>
        <time>2015-02-07T20:18:28.000Z</time>
      </trkpt>
      <trkpt lat="43.69983" lon="1.1022">
        <ele>198.80000305176</ele>
        <time>2015-02-07T20:18:31.000Z</time>
      </trkpt>
      <trkpt lat="43.69978" lon="1.10228">
        <ele>199</ele>
        <time>2015-02-07T20:18:36.000Z</time>
      </trkpt>
      <trkpt lat="43.6997" lon="1.10232">
        <ele>199.19999694824</ele>
        <time>2015-02-07T20:18:41.000Z</time>
      </trkpt>
      <trkpt lat="43.69964" lon="1.10237">
        <ele>199.60000610352</ele>
        <time>2015-02-07T20:18:45.000Z</time>
      </trkpt>
      <trkpt lat="43.69957" lon="1.10244">
        <ele>200</ele>
        <time>2015-02-07T20:18:49.000Z</time>
      </trkpt>
      <trkpt lat="43.69955" lon="1.10246">
        <ele>200</ele>
        <time>2015-02-07T20:18:50.000Z</time>
      </trkpt>
      <trkpt lat="43.69948" lon="1.10251">
        <ele>200.60000610352</ele>
        <time>2015-02-07T20:18:54.000Z</time>
      </trkpt>
      <trkpt lat="43.69946" lon="1.10251">
        <ele>200.80000305176</ele>
        <time>2015-02-07T20:18:55.000Z</time>
      </trkpt>
      <trkpt lat="43.69936" lon="1.10256">
        <ele>201.60000610352</ele>
        <time>2015-02-07T20:19:01.000Z</time>
      </trkpt>
      <trkpt lat="43.69931" lon="1.10258">
        <ele>202</ele>
        <time>2015-02-07T20:19:04.000Z</time>
      </trkpt>
      <trkpt lat="43.69929" lon="1.10259">
        <ele>202.19999694824</ele>
        <time>2015-02-07T20:19:06.000Z</time>
      </trkpt>
      <trkpt lat="43.6992" lon="1.10262">
        <ele>203.19999694824</ele>
        <time>2015-02-07T20:19:12.000Z</time>
      </trkpt>
      <trkpt lat="43.69911" lon="1.10261">
        <ele>204</ele>
        <time>2015-02-07T20:19:16.000Z</time>
      </trkpt>
      <trkpt lat="43.69904" lon="1.1026">
        <ele>204.39999389648</ele>
        <time>2015-02-07T20:19:20.000Z</time>
      </trkpt>
      <trkpt lat="43.69892" lon="1.1026">
        <ele>205.39999389648</ele>
        <time>2015-02-07T20:19:25.000Z</time>
      </trkpt>
      <trkpt lat="43.69885" lon="1.10259">
        <ele>206</ele>
        <time>2015-02-07T20:19:29.000Z</time>
      </trkpt>
      <trkpt lat="43.69883" lon="1.10258">
        <ele>206.19999694824</ele>
        <time>2015-02-07T20:19:30.000Z</time>
      </trkpt>
      <trkpt lat="43.69878" lon="1.10256">
        <ele>206.60000610352</ele>
        <time>2015-02-07T20:19:33.000Z</time>
      </trkpt>
      <trkpt lat="43.69877" lon="1.10254">
        <ele>206.80000305176</ele>
        <time>2015-02-07T20:19:34.000Z</time>
      </trkpt>
      <trkpt lat="43.69875" lon="1.10253">
        <ele>207</ele>
        <time>2015-02-07T20:19:35.000Z</time>
      </trkpt>
      <trkpt lat="43.69868" lon="1.10247">
        <ele>207.80000305176</ele>
        <time>2015-02-07T20:19:40.000Z</time>
      </trkpt>
      <trkpt lat="43.69867" lon="1.10247">
        <ele>208</ele>
        <time>2015-02-07T20:19:41.000Z</time>
      </trkpt>
      <trkpt lat="43.69863" lon="1.10242">
        <ele>208.60000610352</ele>
        <time>2015-02-07T20:19:46.000Z</time>
      </trkpt>
      <trkpt lat="43.6986" lon="1.10236">
        <ele>209.39999389648</ele>
        <time>2015-02-07T20:19:51.000Z</time>
      </trkpt>
      <trkpt lat="43.69853" lon="1.10231">
        <ele>210</ele>
        <time>2015-02-07T20:19:57.000Z</time>
      </trkpt>
      <trkpt lat="43.69852" lon="1.1023">
        <ele>210.19999694824</ele>
        <time>2015-02-07T20:19:58.000Z</time>
      </trkpt>
      <trkpt lat="43.69847" lon="1.10226">
        <ele>210.80000305176</ele>
        <time>2015-02-07T20:20:03.000Z</time>
      </trkpt>
      <trkpt lat="43.69846" lon="1.10225">
        <ele>210.80000305176</ele>
        <time>2015-02-07T20:20:04.000Z</time>
      </trkpt>
      <trkpt lat="43.69844" lon="1.10223">
        <ele>211.19999694824</ele>
        <time>2015-02-07T20:20:07.000Z</time>
      </trkpt>
      <trkpt lat="43.69844" lon="1.10222">
        <ele>211.39999389648</ele>
        <time>2015-02-07T20:20:08.000Z</time>
      </trkpt>
      <trkpt lat="43.69842" lon="1.10219">
        <ele>212.19999694824</ele>
        <time>2015-02-07T20:20:12.000Z</time>
      </trkpt>
      <trkpt lat="43.6984" lon="1.10218">
        <ele>212.39999389648</ele>
        <time>2015-02-07T20:20:13.000Z</time>
      </trkpt>
      <trkpt lat="43.69839" lon="1.10215">
        <ele>212.80000305176</ele>
        <time>2015-02-07T20:20:15.000Z</time>
      </trkpt>
      <trkpt lat="43.69833" lon="1.10207">
        <ele>213.80000305176</ele>
        <time>2015-02-07T20:20:21.000Z</time>
      </trkpt>
      <trkpt lat="43.69825" lon="1.10204">
        <ele>214.60000610352</ele>
        <time>2015-02-07T20:20:26.000Z</time>
      </trkpt>
      <trkpt lat="43.69823" lon="1.10203">
        <ele>214.80000305176</ele>
        <time>2015-02-07T20:20:27.000Z</time>
      </trkpt>
      <trkpt lat="43.69818" lon="1.10201">
        <ele>215.60000610352</ele>
        <time>2015-02-07T20:20:31.000Z</time>
      </trkpt>
      <trkpt lat="43.6981" lon="1.10198">
        <ele>216.80000305176</ele>
        <time>2015-02-07T20:20:37.000Z</time>
      </trkpt>
      <trkpt lat="43.69809" lon="1.10198">
        <ele>217</ele>
        <time>2015-02-07T20:20:38.000Z</time>
      </trkpt>
      <trkpt lat="43.69804" lon="1.10196">
        <ele>217.60000610352</ele>
        <time>2015-02-07T20:20:42.000Z</time>
      </trkpt>
      <trkpt lat="43.69803" lon="1.10195">
        <ele>217.80000305176</ele>
        <time>2015-02-07T20:20:43.000Z</time>
      </trkpt>
      <trkpt lat="43.69802" lon="1.10194">
        <ele>218.19999694824</ele>
        <time>2015-02-07T20:20:45.000Z</time>
      </trkpt>
      <trkpt lat="43.698" lon="1.1019">
        <ele>218.60000610352</ele>
        <time>2015-02-07T20:20:48.000Z</time>
      </trkpt>
      <trkpt lat="43.69798" lon="1.10186">
        <ele>219.19999694824</ele>
        <time>2015-02-07T20:20:51.000Z</time>
      </trkpt>
      <trkpt lat="43.69797" lon="1.10183">
        <ele>219.39999389648</ele>
        <time>2015-02-07T20:20:53.000Z</time>
      </trkpt>
      <trkpt lat="43.69796" lon="1.10181">
        <ele>219.60000610352</ele>
        <time>2015-02-07T20:20:54.000Z</time>
      </trkpt>
      <trkpt lat="43.69791" lon="1.10177">
        <ele>220.80000305176</ele>
        <time>2015-02-07T20:21:00.000Z</time>
      </trkpt>
      <trkpt lat="43.69783" lon="1.10176">
        <ele>221.39999389648</ele>
        <time>2015-02-07T20:21:03.000Z</time>
      </trkpt>
      <trkpt lat="43.69778" lon="1.10178">
        <ele>222.19999694824</ele>
        <time>2015-02-07T20:21:06.000Z</time>
      </trkpt>
      <trkpt lat="43.69776" lon="1.10178">
        <ele>222.39999389648</ele>
        <time>2015-02-07T20:21:07.000Z</time>
      </trkpt>
      <trkpt lat="43.69775" lon="1.1018">
        <ele>222.60000610352</ele>
        <time>2015-02-07T20:21:08.000Z</time>
      </trkpt>
      <trkpt lat="43.69769" lon="1.10182">
        <ele>223.39999389648</ele>
        <time>2015-02-07T20:21:11.000Z</time>
      </trkpt>
      <trkpt lat="43.69763" lon="1.10181">
        <ele>224.39999389648</ele>
        <time>2015-02-07T20:21:15.000Z</time>
      </trkpt>
      <trkpt lat="43.69756" lon="1.10178">
        <ele>225.39999389648</ele>
        <time>2015-02-07T20:21:19.000Z</time>
      </trkpt>
      <trkpt lat="43.6975" lon="1.10173">
        <ele>226.19999694824</ele>
        <time>2015-02-07T20:21:23.000Z</time>
      </trkpt>
      <trkpt lat="43.69742" lon="1.10165">
        <ele>227.39999389648</ele>
        <time>2015-02-07T20:21:29.000Z</time>
      </trkpt>
      <trkpt lat="43.69734" lon="1.10163">
        <ele>228.39999389648</ele>
        <time>2015-02-07T20:21:34.000Z</time>
      </trkpt>
      <trkpt lat="43.69725" lon="1.10157">
        <ele>229.39999389648</ele>
        <time>2015-02-07T20:21:39.000Z</time>
      </trkpt>
      <trkpt lat="43.69721" lon="1.10155">
        <ele>229.80000305176</ele>
        <time>2015-02-07T20:21:41.000Z</time>
      </trkpt>
      <trkpt lat="43.69719" lon="1.10154">
        <ele>230.19999694824</ele>
        <time>2015-02-07T20:21:43.000Z</time>
      </trkpt>
      <trkpt lat="43.69712" lon="1.10157">
        <ele>231</ele>
        <time>2015-02-07T20:21:48.000Z</time>
      </trkpt>
      <trkpt lat="43.69703" lon="1.10159">
        <ele>231.80000305176</ele>
        <time>2015-02-07T20:21:52.000Z</time>
      </trkpt>
      <trkpt lat="43.69694" lon="1.1016">
        <ele>232.60000610352</ele>
        <time>2015-02-07T20:21:56.000Z</time>
      </trkpt>
      <trkpt lat="43.69687" lon="1.10163">
        <ele>233.19999694824</ele>
        <time>2015-02-07T20:21:59.000Z</time>
      </trkpt>
      <trkpt lat="43.69684" lon="1.10163">
        <ele>233.19999694824</ele>
        <time>2015-02-07T20:22:00.000Z</time>
      </trkpt>
      <trkpt lat="43.69676" lon="1.10168">
        <ele>233.80000305176</ele>
        <time>2015-02-07T20:22:04.000Z</time>
      </trkpt>
      <trkpt lat="43.69668" lon="1.10177">
        <ele>234.60000610352</ele>
        <time>2015-02-07T20:22:09.000Z</time>
      </trkpt>
      <trkpt lat="43.69663" lon="1.10192">
        <ele>235.60000610352</ele>
        <time>2015-02-07T20:22:14.000Z</time>
      </trkpt>
      <trkpt lat="43.69661" lon="1.10194">
        <ele>235.80000305176</ele>
        <time>2015-02-07T20:22:15.000Z</time>
      </trkpt>
      <trkpt lat="43.6966" lon="1.102">
        <ele>236.19999694824</ele>
        <time>2015-02-07T20:22:17.000Z</time>
      </trkpt>
      <trkpt lat="43.69654" lon="1.10211">
        <ele>236.80000305176</ele>
        <time>2015-02-07T20:22:21.000Z</time>
      </trkpt>
      <trkpt lat="43.69652" lon="1.10213">
        <ele>237</ele>
        <time>2015-02-07T20:22:22.000Z</time>
      </trkpt>
      <trkpt lat="43.69648" lon="1.10211">
        <ele>237.39999389648</ele>
        <time>2015-02-07T20:22:25.000Z</time>
      </trkpt>
      <trkpt lat="43.69647" lon="1.1021">
        <ele>237.60000610352</ele>
        <time>2015-02-07T20:22:26.000Z</time>
      </trkpt>
      <trkpt lat="43.69644" lon="1.10206">
        <ele>238</ele>
        <time>2015-02-07T20:22:29.000Z</time>
      </trkpt>
      <trkpt lat="43.69639" lon="1.10203">
        <ele>238.19999694824</ele>
        <time>2015-02-07T20:22:32.000Z</time>
      </trkpt>
      <trkpt lat="43.69632" lon="1.10195">
        <ele>238.80000305176</ele>
        <time>2015-02-07T20:22:37.000Z</time>
      </trkpt>
      <trkpt lat="43.69628" lon="1.1019">
        <ele>239</ele>
        <time>2015-02-07T20:22:40.000Z</time>
      </trkpt>
      <trkpt lat="43.69624" lon="1.10186">
        <ele>239.19999694824</ele>
        <time>2015-02-07T20:22:42.000Z</time>
      </trkpt>
      <trkpt lat="43.6961" lon="1.1018">
        <ele>239.60000610352</ele>
        <time>2015-02-07T20:22:49.000Z</time>
      </trkpt>
      <trkpt lat="43.69602" lon="1.10177">
        <ele>240</ele>
        <time>2015-02-07T20:22:53.000Z</time>
      </trkpt>
      <trkpt lat="43.69594" lon="1.10178">
        <ele>240.19999694824</ele>
        <time>2015-02-07T20:22:57.000Z</time>
      </trkpt>
      <trkpt lat="43.69584" lon="1.10174">
        <ele>240.60000610352</ele>
        <time>2015-02-07T20:23:02.000Z</time>
      </trkpt>
      <trkpt lat="43.69582" lon="1.10173">
        <ele>240.60000610352</ele>
        <time>2015-02-07T20:23:03.000Z</time>
      </trkpt>
      <trkpt lat="43.6957" lon="1.10165">
        <ele>241</ele>
        <time>2015-02-07T20:23:08.000Z</time>
      </trkpt>
      <trkpt lat="43.6956" lon="1.1016">
        <ele>241.39999389648</ele>
        <time>2015-02-07T20:23:12.000Z</time>
      </trkpt>
      <trkpt lat="43.69551" lon="1.10162">
        <ele>242</ele>
        <time>2015-02-07T20:23:18.000Z</time>
      </trkpt>
      <trkpt lat="43.69549" lon="1.10164">
        <ele>242.19999694824</ele>
        <time>2015-02-07T20:23:20.000Z</time>
      </trkpt>
      <trkpt lat="43.69545" lon="1.10167">
        <ele>242.39999389648</ele>
        <time>2015-02-07T20:23:23.000Z</time>
      </trkpt>
      <trkpt lat="43.69539" lon="1.10169">
        <ele>242.80000305176</ele>
        <time>2015-02-07T20:23:28.000Z</time>
      </trkpt>
      <trkpt lat="43.69533" lon="1.10172">
        <ele>243.39999389648</ele>
        <time>2015-02-07T20:23:34.000Z</time>
      </trkpt>
      <trkpt lat="43.69525" lon="1.10174">
        <ele>244</ele>
        <time>2015-02-07T20:23:39.000Z</time>
      </trkpt>
      <trkpt lat="43.69524" lon="1.10175">
        <ele>244.19999694824</ele>
        <time>2015-02-07T20:23:40.000Z</time>
      </trkpt>
      <trkpt lat="43.69518" lon="1.10176">
        <ele>244.80000305176</ele>
        <time>2015-02-07T20:23:45.000Z</time>
      </trkpt>
      <trkpt lat="43.69516" lon="1.10177">
        <ele>245</ele>
        <time>2015-02-07T20:23:47.000Z</time>
      </trkpt>
      <trkpt lat="43.69514" lon="1.10178">
        <ele>245.19999694824</ele>
        <time>2015-02-07T20:23:49.000Z</time>
      </trkpt>
      <trkpt lat="43.6951" lon="1.10181">
        <ele>245.80000305176</ele>
        <time>2015-02-07T20:23:53.000Z</time>
      </trkpt>
      <trkpt lat="43.69509" lon="1.10181">
        <ele>245.80000305176</ele>
        <time>2015-02-07T20:23:54.000Z</time>
      </trkpt>
      <trkpt lat="43.69504" lon="1.10184">
        <ele>246.80000305176</ele>
        <time>2015-02-07T20:24:00.000Z</time>
      </trkpt>
      <trkpt lat="43.69503" lon="1.10185">
        <ele>246.80000305176</ele>
        <time>2015-02-07T20:24:01.000Z</time>
      </trkpt>
      <trkpt lat="43.69499" lon="1.10187">
        <ele>247.60000610352</ele>
        <time>2015-02-07T20:24:06.000Z</time>
      </trkpt>
      <trkpt lat="43.69494" lon="1.10188">
        <ele>248.19999694824</ele>
        <time>2015-02-07T20:24:10.000Z</time>
      </trkpt>
      <trkpt lat="43.69493" lon="1.10189">
        <ele>248.39999389648</ele>
        <time>2015-02-07T20:24:11.000Z</time>
      </trkpt>
      <trkpt lat="43.69485" lon="1.10188">
        <ele>249.39999389648</ele>
        <time>2015-02-07T20:24:19.000Z</time>
      </trkpt>
      <trkpt lat="43.69477" lon="1.10191">
        <ele>250</ele>
        <time>2015-02-07T20:24:26.000Z</time>
      </trkpt>
      <trkpt lat="43.69471" lon="1.10195">
        <ele>250.60000610352</ele>
        <time>2015-02-07T20:24:31.000Z</time>
      </trkpt>
      <trkpt lat="43.6947" lon="1.10196">
        <ele>250.80000305176</ele>
        <time>2015-02-07T20:24:32.000Z</time>
      </trkpt>
      <trkpt lat="43.69466" lon="1.10201">
        <ele>251.39999389648</ele>
        <time>2015-02-07T20:24:37.000Z</time>
      </trkpt>
      <trkpt lat="43.69461" lon="1.10207">
        <ele>251.60000610352</ele>
        <time>2015-02-07T20:24:40.000Z</time>
      </trkpt>
      <trkpt lat="43.69459" lon="1.10208">
        <ele>251.80000305176</ele>
        <time>2015-02-07T20:24:41.000Z</time>
      </trkpt>
      <trkpt lat="43.6945" lon="1.10214">
        <ele>252.19999694824</ele>
        <time>2015-02-07T20:24:46.000Z</time>
      </trkpt>
      <trkpt lat="43.69445" lon="1.10215">
        <ele>252.39999389648</ele>
        <time>2015-02-07T20:24:48.000Z</time>
      </trkpt>
      <trkpt lat="43.69435" lon="1.10216">
        <ele>252.60000610352</ele>
        <time>2015-02-07T20:24:52.000Z</time>
      </trkpt>
      <trkpt lat="43.69417" lon="1.10218">
        <ele>252.80000305176</ele>
        <time>2015-02-07T20:24:59.000Z</time>
      </trkpt>
      <trkpt lat="43.694" lon="1.10216">
        <ele>252.60000610352</ele>
        <time>2015-02-07T20:25:06.000Z</time>
      </trkpt>
      <trkpt lat="43.69384" lon="1.10211">
        <ele>252.39999389648</ele>
        <time>2015-02-07T20:25:13.000Z</time>
      </trkpt>
      <trkpt lat="43.69371" lon="1.10202">
        <ele>252.19999694824</ele>
        <time>2015-02-07T20:25:19.000Z</time>
      </trkpt>
      <trkpt lat="43.69357" lon="1.10194">
        <ele>251.80000305176</ele>
        <time>2015-02-07T20:25:25.000Z</time>
      </trkpt>
      <trkpt lat="43.69344" lon="1.10184">
        <ele>251.39999389648</ele>
        <time>2015-02-07T20:25:31.000Z</time>
      </trkpt>
      <trkpt lat="43.69328" lon="1.10172">
        <ele>250.60000610352</ele>
        <time>2015-02-07T20:25:38.000Z</time>
      </trkpt>
      <trkpt lat="43.69326" lon="1.10171">
        <ele>250.60000610352</ele>
        <time>2015-02-07T20:25:39.000Z</time>
      </trkpt>
      <trkpt lat="43.69317" lon="1.10173">
        <ele>250.19999694824</ele>
        <time>2015-02-07T20:25:43.000Z</time>
      </trkpt>
      <trkpt lat="43.69315" lon="1.10175">
        <ele>250</ele>
        <time>2015-02-07T20:25:45.000Z</time>
      </trkpt>
      <trkpt lat="43.69314" lon="1.10177">
        <ele>249.80000305176</ele>
        <time>2015-02-07T20:25:47.000Z</time>
      </trkpt>
      <trkpt lat="43.69314" lon="1.10177">
        <ele>249</ele>
        <time>2015-02-07T20:25:55.000Z</time>
      </trkpt>
      <trkpt lat="43.69316" lon="1.10181">
        <ele>248.80000305176</ele>
        <time>2015-02-07T20:25:58.000Z</time>
      </trkpt>
      <trkpt lat="43.69322" lon="1.10198">
        <ele>248.39999389648</ele>
        <time>2015-02-07T20:26:03.000Z</time>
      </trkpt>
      <trkpt lat="43.69329" lon="1.10223">
        <ele>247.80000305176</ele>
        <time>2015-02-07T20:26:10.000Z</time>
      </trkpt>
      <trkpt lat="43.69336" lon="1.10243">
        <ele>247.39999389648</ele>
        <time>2015-02-07T20:26:16.000Z</time>
      </trkpt>
      <trkpt lat="43.69343" lon="1.10266">
        <ele>247</ele>
        <time>2015-02-07T20:26:23.000Z</time>
      </trkpt>
      <trkpt lat="43.69348" lon="1.10292">
        <ele>246.60000610352</ele>
        <time>2015-02-07T20:26:30.000Z</time>
      </trkpt>
      <trkpt lat="43.69348" lon="1.10301">
        <ele>246.60000610352</ele>
        <time>2015-02-07T20:26:33.000Z</time>
      </trkpt>
      <trkpt lat="43.69343" lon="1.10307">
        <ele>246.39999389648</ele>
        <time>2015-02-07T20:26:35.000Z</time>
      </trkpt>
      <trkpt lat="43.69339" lon="1.10311">
        <ele>246.39999389648</ele>
        <time>2015-02-07T20:26:37.000Z</time>
      </trkpt>
      <trkpt lat="43.69328" lon="1.10321">
        <ele>246</ele>
        <time>2015-02-07T20:26:42.000Z</time>
      </trkpt>
      <trkpt lat="43.69314" lon="1.10337">
        <ele>245.60000610352</ele>
        <time>2015-02-07T20:26:49.000Z</time>
      </trkpt>
      <trkpt lat="43.69312" lon="1.10339">
        <ele>245.60000610352</ele>
        <time>2015-02-07T20:26:50.000Z</time>
      </trkpt>
      <trkpt lat="43.693" lon="1.10352">
        <ele>245.19999694824</ele>
        <time>2015-02-07T20:26:56.000Z</time>
      </trkpt>
      <trkpt lat="43.6929" lon="1.10363">
        <ele>245</ele>
        <time>2015-02-07T20:27:01.000Z</time>
      </trkpt>
      <trkpt lat="43.69278" lon="1.10376">
        <ele>244.39999389648</ele>
        <time>2015-02-07T20:27:08.000Z</time>
      </trkpt>
      <trkpt lat="43.69265" lon="1.1039">
        <ele>244</ele>
        <time>2015-02-07T20:27:14.000Z</time>
      </trkpt>
      <trkpt lat="43.69254" lon="1.10403">
        <ele>243.60000610352</ele>
        <time>2015-02-07T20:27:20.000Z</time>
      </trkpt>
      <trkpt lat="43.69241" lon="1.10417">
        <ele>243</ele>
        <time>2015-02-07T20:27:27.000Z</time>
      </trkpt>
      <trkpt lat="43.69225" lon="1.10434">
        <ele>242.19999694824</ele>
        <time>2015-02-07T20:27:35.000Z</time>
      </trkpt>
      <trkpt lat="43.69211" lon="1.10449">
        <ele>241.39999389648</ele>
        <time>2015-02-07T20:27:42.000Z</time>
      </trkpt>
      <trkpt lat="43.69208" lon="1.10451">
        <ele>241.19999694824</ele>
        <time>2015-02-07T20:27:43.000Z</time>
      </trkpt>
      <trkpt lat="43.69193" lon="1.10466">
        <ele>240.39999389648</ele>
        <time>2015-02-07T20:27:50.000Z</time>
      </trkpt>
      <trkpt lat="43.69179" lon="1.10481">
        <ele>239.60000610352</ele>
        <time>2015-02-07T20:27:57.000Z</time>
      </trkpt>
      <trkpt lat="43.69169" lon="1.10491">
        <ele>239</ele>
        <time>2015-02-07T20:28:02.000Z</time>
      </trkpt>
      <trkpt lat="43.69157" lon="1.10505">
        <ele>238</ele>
        <time>2015-02-07T20:28:08.000Z</time>
      </trkpt>
      <trkpt lat="43.69143" lon="1.10522">
        <ele>237.19999694824</ele>
        <time>2015-02-07T20:28:15.000Z</time>
      </trkpt>
      <trkpt lat="43.69141" lon="1.10524">
        <ele>237</ele>
        <time>2015-02-07T20:28:16.000Z</time>
      </trkpt>
      <trkpt lat="43.69126" lon="1.1054">
        <ele>236</ele>
        <time>2015-02-07T20:28:23.000Z</time>
      </trkpt>
      <trkpt lat="43.69113" lon="1.10558">
        <ele>234.80000305176</ele>
        <time>2015-02-07T20:28:30.000Z</time>
      </trkpt>
      <trkpt lat="43.69103" lon="1.10569">
        <ele>234</ele>
        <time>2015-02-07T20:28:35.000Z</time>
      </trkpt>
      <trkpt lat="43.69094" lon="1.10578">
        <ele>233.19999694824</ele>
        <time>2015-02-07T20:28:40.000Z</time>
      </trkpt>
      <trkpt lat="43.69093" lon="1.10576">
        <ele>233.19999694824</ele>
        <time>2015-02-07T20:28:41.000Z</time>
      </trkpt>
      <trkpt lat="43.69091" lon="1.10566">
        <ele>232.39999389648</ele>
        <time>2015-02-07T20:28:45.000Z</time>
      </trkpt>
      <trkpt lat="43.69085" lon="1.10543">
        <ele>231</ele>
        <time>2015-02-07T20:28:53.000Z</time>
      </trkpt>
      <trkpt lat="43.69081" lon="1.10529">
        <ele>230</ele>
        <time>2015-02-07T20:28:58.000Z</time>
      </trkpt>
      <trkpt lat="43.69076" lon="1.10512">
        <ele>229</ele>
        <time>2015-02-07T20:29:04.000Z</time>
      </trkpt>
      <trkpt lat="43.69073" lon="1.10492">
        <ele>228</ele>
        <time>2015-02-07T20:29:10.000Z</time>
      </trkpt>
      <trkpt lat="43.69071" lon="1.10474">
        <ele>227.19999694824</ele>
        <time>2015-02-07T20:29:16.000Z</time>
      </trkpt>
      <trkpt lat="43.69071" lon="1.10465">
        <ele>226.80000305176</ele>
        <time>2015-02-07T20:29:19.000Z</time>
      </trkpt>
      <trkpt lat="43.6907" lon="1.10459">
        <ele>226.60000610352</ele>
        <time>2015-02-07T20:29:21.000Z</time>
      </trkpt>
      <trkpt lat="43.69071" lon="1.10453">
        <ele>226.39999389648</ele>
        <time>2015-02-07T20:29:23.000Z</time>
      </trkpt>
      <trkpt lat="43.69071" lon="1.10444">
        <ele>226</ele>
        <time>2015-02-07T20:29:26.000Z</time>
      </trkpt>
      <trkpt lat="43.69071" lon="1.10438">
        <ele>225.80000305176</ele>
        <time>2015-02-07T20:29:28.000Z</time>
      </trkpt>
      <trkpt lat="43.69072" lon="1.10435">
        <ele>225.60000610352</ele>
        <time>2015-02-07T20:29:31.000Z</time>
      </trkpt>
      <trkpt lat="43.69066" lon="1.10437">
        <ele>225</ele>
        <time>2015-02-07T20:29:36.000Z</time>
      </trkpt>
      <trkpt lat="43.69065" lon="1.10435">
        <ele>225</ele>
        <time>2015-02-07T20:29:37.000Z</time>
      </trkpt>
      <trkpt lat="43.69065" lon="1.1043">
        <ele>224.80000305176</ele>
        <time>2015-02-07T20:29:39.000Z</time>
      </trkpt>
      <trkpt lat="43.69066" lon="1.10415">
        <ele>224.39999389648</ele>
        <time>2015-02-07T20:29:44.000Z</time>
      </trkpt>
      <trkpt lat="43.69066" lon="1.10413">
        <ele>224.39999389648</ele>
        <time>2015-02-07T20:29:45.000Z</time>
      </trkpt>
      <trkpt lat="43.69067" lon="1.10395">
        <ele>224</ele>
        <time>2015-02-07T20:29:51.000Z</time>
      </trkpt>
      <trkpt lat="43.69068" lon="1.10375">
        <ele>223.60000610352</ele>
        <time>2015-02-07T20:29:58.000Z</time>
      </trkpt>
      <trkpt lat="43.69067" lon="1.10358">
        <ele>223.39999389648</ele>
        <time>2015-02-07T20:30:04.000Z</time>
      </trkpt>
      <trkpt lat="43.69063" lon="1.10342">
        <ele>223.19999694824</ele>
        <time>2015-02-07T20:30:10.000Z</time>
      </trkpt>
      <trkpt lat="43.69057" lon="1.10321">
        <ele>223</ele>
        <time>2015-02-07T20:30:18.000Z</time>
      </trkpt>
      <trkpt lat="43.69051" lon="1.10305">
        <ele>222.80000305176</ele>
        <time>2015-02-07T20:30:25.000Z</time>
      </trkpt>
      <trkpt lat="43.69044" lon="1.1029">
        <ele>222.80000305176</ele>
        <time>2015-02-07T20:30:32.000Z</time>
      </trkpt>
      <trkpt lat="43.69038" lon="1.10278">
        <ele>222.60000610352</ele>
        <time>2015-02-07T20:30:38.000Z</time>
      </trkpt>
      <trkpt lat="43.69032" lon="1.10262">
        <ele>222.60000610352</ele>
        <time>2015-02-07T20:30:45.000Z</time>
      </trkpt>
      <trkpt lat="43.69026" lon="1.10247">
        <ele>222.80000305176</ele>
        <time>2015-02-07T20:30:52.000Z</time>
      </trkpt>
      <trkpt lat="43.6902" lon="1.10235">
        <ele>223</ele>
        <time>2015-02-07T20:30:58.000Z</time>
      </trkpt>
      <trkpt lat="43.69015" lon="1.10221">
        <ele>223.19999694824</ele>
        <time>2015-02-07T20:31:04.000Z</time>
      </trkpt>
      <trkpt lat="43.69007" lon="1.10204">
        <ele>223.60000610352</ele>
        <time>2015-02-07T20:31:12.000Z</time>
      </trkpt>
      <trkpt lat="43.68999" lon="1.10188">
        <ele>223.80000305176</ele>
        <time>2015-02-07T20:31:20.000Z</time>
      </trkpt>
      <trkpt lat="43.68992" lon="1.10176">
        <ele>224.39999389648</ele>
        <time>2015-02-07T20:31:26.000Z</time>
      </trkpt>
      <trkpt lat="43.68984" lon="1.10161">
        <ele>225</ele>
        <time>2015-02-07T20:31:33.000Z</time>
      </trkpt>
      <trkpt lat="43.68978" lon="1.10144">
        <ele>225.60000610352</ele>
        <time>2015-02-07T20:31:40.000Z</time>
      </trkpt>
      <trkpt lat="43.68971" lon="1.1013">
        <ele>226</ele>
        <time>2015-02-07T20:31:46.000Z</time>
      </trkpt>
      <trkpt lat="43.68962" lon="1.10112">
        <ele>226.80000305176</ele>
        <time>2015-02-07T20:31:54.000Z</time>
      </trkpt>
      <trkpt lat="43.68954" lon="1.10095">
        <ele>227.60000610352</ele>
        <time>2015-02-07T20:32:01.000Z</time>
      </trkpt>
      <trkpt lat="43.68946" lon="1.10081">
        <ele>228.19999694824</ele>
        <time>2015-02-07T20:32:07.000Z</time>
      </trkpt>
      <trkpt lat="43.68939" lon="1.10068">
        <ele>228.60000610352</ele>
        <time>2015-02-07T20:32:13.000Z</time>
      </trkpt>
      <trkpt lat="43.68931" lon="1.10056">
        <ele>229</ele>
        <time>2015-02-07T20:32:19.000Z</time>
      </trkpt>
      <trkpt lat="43.68929" lon="1.10052">
        <ele>229</ele>
        <time>2015-02-07T20:32:21.000Z</time>
      </trkpt>
      <trkpt lat="43.68926" lon="1.10045">
        <ele>229.19999694824</ele>
        <time>2015-02-07T20:32:24.000Z</time>
      </trkpt>
      <trkpt lat="43.68918" lon="1.1003">
        <ele>229.60000610352</ele>
        <time>2015-02-07T20:32:31.000Z</time>
      </trkpt>
      <trkpt lat="43.68911" lon="1.10018">
        <ele>230</ele>
        <time>2015-02-07T20:32:37.000Z</time>
      </trkpt>
      <trkpt lat="43.68904" lon="1.10006">
        <ele>230.39999389648</ele>
        <time>2015-02-07T20:32:43.000Z</time>
      </trkpt>
      <trkpt lat="43.68894" lon="1.09992">
        <ele>231</ele>
        <time>2015-02-07T20:32:50.000Z</time>
      </trkpt>
      <trkpt lat="43.68885" lon="1.09977">
        <ele>231.39999389648</ele>
        <time>2015-02-07T20:32:57.000Z</time>
      </trkpt>
      <trkpt lat="43.68878" lon="1.09965">
        <ele>231.80000305176</ele>
        <time>2015-02-07T20:33:03.000Z</time>
      </trkpt>
      <trkpt lat="43.68869" lon="1.09947">
        <ele>232.39999389648</ele>
        <time>2015-02-07T20:33:11.000Z</time>
      </trkpt>
      <trkpt lat="43.68862" lon="1.09934">
        <ele>232.80000305176</ele>
        <time>2015-02-07T20:33:17.000Z</time>
      </trkpt>
      <trkpt lat="43.68853" lon="1.0992">
        <ele>233.60000610352</ele>
        <time>2015-02-07T20:33:24.000Z</time>
      </trkpt>
      <trkpt lat="43.68846" lon="1.09908">
        <ele>234.19999694824</ele>
        <time>2015-02-07T20:33:30.000Z</time>
      </trkpt>
      <trkpt lat="43.68839" lon="1.09896">
        <ele>235</ele>
        <time>2015-02-07T20:33:36.000Z</time>
      </trkpt>
      <trkpt lat="43.68832" lon="1.09884">
        <ele>235.80000305176</ele>
        <time>2015-02-07T20:33:42.000Z</time>
      </trkpt>
      <trkpt lat="43.68826" lon="1.09881">
        <ele>236.39999389648</ele>
        <time>2015-02-07T20:33:47.000Z</time>
      </trkpt>
      <trkpt lat="43.68824" lon="1.0988">
        <ele>236.60000610352</ele>
        <time>2015-02-07T20:33:49.000Z</time>
      </trkpt>
      <trkpt lat="43.68823" lon="1.09875">
        <ele>237</ele>
        <time>2015-02-07T20:33:52.000Z</time>
      </trkpt>
      <trkpt lat="43.68822" lon="1.09873">
        <ele>237.19999694824</ele>
        <time>2015-02-07T20:33:54.000Z</time>
      </trkpt>
      <trkpt lat="43.6882" lon="1.09872">
        <ele>237.39999389648</ele>
        <time>2015-02-07T20:33:56.000Z</time>
      </trkpt>
      <trkpt lat="43.68819" lon="1.09872">
        <ele>237.60000610352</ele>
        <time>2015-02-07T20:33:57.000Z</time>
      </trkpt>
      <trkpt lat="43.68814" lon="1.09884">
        <ele>238.19999694824</ele>
        <time>2015-02-07T20:34:02.000Z</time>
      </trkpt>
      <trkpt lat="43.68809" lon="1.09897">
        <ele>238.80000305176</ele>
        <time>2015-02-07T20:34:07.000Z</time>
      </trkpt>
      <trkpt lat="43.68803" lon="1.09908">
        <ele>239.19999694824</ele>
        <time>2015-02-07T20:34:12.000Z</time>
      </trkpt>
      <trkpt lat="43.68797" lon="1.09921">
        <ele>239.80000305176</ele>
        <time>2015-02-07T20:34:17.000Z</time>
      </trkpt>
      <trkpt lat="43.68791" lon="1.09933">
        <ele>240.19999694824</ele>
        <time>2015-02-07T20:34:23.000Z</time>
      </trkpt>
      <trkpt lat="43.68785" lon="1.09945">
        <ele>240.60000610352</ele>
        <time>2015-02-07T20:34:29.000Z</time>
      </trkpt>
      <trkpt lat="43.68782" lon="1.09952">
        <ele>240.60000610352</ele>
        <time>2015-02-07T20:34:32.000Z</time>
      </trkpt>
      <trkpt lat="43.68781" lon="1.09953">
        <ele>240.80000305176</ele>
        <time>2015-02-07T20:34:33.000Z</time>
      </trkpt>
      <trkpt lat="43.68778" lon="1.09958">
        <ele>240.80000305176</ele>
        <time>2015-02-07T20:34:36.000Z</time>
      </trkpt>
      <trkpt lat="43.68776" lon="1.09963">
        <ele>240.80000305176</ele>
        <time>2015-02-07T20:34:38.000Z</time>
      </trkpt>
      <trkpt lat="43.68772" lon="1.09978">
        <ele>241</ele>
        <time>2015-02-07T20:34:44.000Z</time>
      </trkpt>
      <trkpt lat="43.68769" lon="1.09991">
        <ele>241.19999694824</ele>
        <time>2015-02-07T20:34:49.000Z</time>
      </trkpt>
      <trkpt lat="43.68764" lon="1.10006">
        <ele>241.80000305176</ele>
        <time>2015-02-07T20:34:55.000Z</time>
      </trkpt>
      <trkpt lat="43.68761" lon="1.10014">
        <ele>242.19999694824</ele>
        <time>2015-02-07T20:34:59.000Z</time>
      </trkpt>
      <trkpt lat="43.6876" lon="1.10016">
        <ele>242.39999389648</ele>
        <time>2015-02-07T20:35:00.000Z</time>
      </trkpt>
      <trkpt lat="43.68754" lon="1.1003">
        <ele>243.39999389648</ele>
        <time>2015-02-07T20:35:06.000Z</time>
      </trkpt>
      <trkpt lat="43.68748" lon="1.10043">
        <ele>244.39999389648</ele>
        <time>2015-02-07T20:35:12.000Z</time>
      </trkpt>
      <trkpt lat="43.68745" lon="1.10049">
        <ele>244.80000305176</ele>
        <time>2015-02-07T20:35:15.000Z</time>
      </trkpt>
      <trkpt lat="43.68744" lon="1.10054">
        <ele>245</ele>
        <time>2015-02-07T20:35:17.000Z</time>
      </trkpt>
      <trkpt lat="43.68742" lon="1.10058">
        <ele>245.39999389648</ele>
        <time>2015-02-07T20:35:19.000Z</time>
      </trkpt>
      <trkpt lat="43.68739" lon="1.10062">
        <ele>245.80000305176</ele>
        <time>2015-02-07T20:35:21.000Z</time>
      </trkpt>
      <trkpt lat="43.68738" lon="1.10064">
        <ele>246</ele>
        <time>2015-02-07T20:35:22.000Z</time>
      </trkpt>
      <trkpt lat="43.68735" lon="1.10067">
        <ele>246.39999389648</ele>
        <time>2015-02-07T20:35:25.000Z</time>
      </trkpt>
      <trkpt lat="43.68734" lon="1.10068">
        <ele>246.60000610352</ele>
        <time>2015-02-07T20:35:26.000Z</time>
      </trkpt>
      <trkpt lat="43.68731" lon="1.10072">
        <ele>247</ele>
        <time>2015-02-07T20:35:29.000Z</time>
      </trkpt>
      <trkpt lat="43.68731" lon="1.10074">
        <ele>247.19999694824</ele>
        <time>2015-02-07T20:35:30.000Z</time>
      </trkpt>
      <trkpt lat="43.68729" lon="1.1008">
        <ele>247.60000610352</ele>
        <time>2015-02-07T20:35:33.000Z</time>
      </trkpt>
      <trkpt lat="43.68723" lon="1.10089">
        <ele>248.39999389648</ele>
        <time>2015-02-07T20:35:38.000Z</time>
      </trkpt>
      <trkpt lat="43.68718" lon="1.10098">
        <ele>249.19999694824</ele>
        <time>2015-02-07T20:35:45.000Z</time>
      </trkpt>
      <trkpt lat="43.68715" lon="1.10102">
        <ele>249.39999389648</ele>
        <time>2015-02-07T20:35:47.000Z</time>
      </trkpt>
      <trkpt lat="43.68712" lon="1.10107">
        <ele>249.60000610352</ele>
        <time>2015-02-07T20:35:50.000Z</time>
      </trkpt>
      <trkpt lat="43.68705" lon="1.10118">
        <ele>250.19999694824</ele>
        <time>2015-02-07T20:35:56.000Z</time>
      </trkpt>
      <trkpt lat="43.68704" lon="1.10119">
        <ele>250.39999389648</ele>
        <time>2015-02-07T20:35:57.000Z</time>
      </trkpt>
      <trkpt lat="43.68701" lon="1.10125">
        <ele>250.80000305176</ele>
        <time>2015-02-07T20:36:01.000Z</time>
      </trkpt>
      <trkpt lat="43.687" lon="1.10125">
        <ele>250.80000305176</ele>
        <time>2015-02-07T20:36:02.000Z</time>
      </trkpt>
      <trkpt lat="43.68695" lon="1.10127">
        <ele>251.19999694824</ele>
        <time>2015-02-07T20:36:06.000Z</time>
      </trkpt>
      <trkpt lat="43.68694" lon="1.10127">
        <ele>251.39999389648</ele>
        <time>2015-02-07T20:36:07.000Z</time>
      </trkpt>
      <trkpt lat="43.68689" lon="1.10127">
        <ele>251.80000305176</ele>
        <time>2015-02-07T20:36:12.000Z</time>
      </trkpt>
      <trkpt lat="43.68682" lon="1.10128">
        <ele>252</ele>
        <time>2015-02-07T20:36:16.000Z</time>
      </trkpt>
      <trkpt lat="43.68679" lon="1.10128">
        <ele>252.19999694824</ele>
        <time>2015-02-07T20:36:18.000Z</time>
      </trkpt>
      <trkpt lat="43.68677" lon="1.10129">
        <ele>252.39999389648</ele>
        <time>2015-02-07T20:36:21.000Z</time>
      </trkpt>
      <trkpt lat="43.68676" lon="1.1013">
        <ele>252.60000610352</ele>
        <time>2015-02-07T20:36:23.000Z</time>
      </trkpt>
      <trkpt lat="43.68675" lon="1.10131">
        <ele>252.80000305176</ele>
        <time>2015-02-07T20:36:24.000Z</time>
      </trkpt>
      <trkpt lat="43.68672" lon="1.10138">
        <ele>253.39999389648</ele>
        <time>2015-02-07T20:36:30.000Z</time>
      </trkpt>
      <trkpt lat="43.68664" lon="1.1015">
        <ele>254.19999694824</ele>
        <time>2015-02-07T20:36:36.000Z</time>
      </trkpt>
      <trkpt lat="43.68655" lon="1.10158">
        <ele>255</ele>
        <time>2015-02-07T20:36:42.000Z</time>
      </trkpt>
      <trkpt lat="43.68644" lon="1.10164">
        <ele>256</ele>
        <time>2015-02-07T20:36:49.000Z</time>
      </trkpt>
      <trkpt lat="43.68635" lon="1.10168">
        <ele>257</ele>
        <time>2015-02-07T20:36:56.000Z</time>
      </trkpt>
      <trkpt lat="43.68624" lon="1.10173">
        <ele>257.79998779297</ele>
        <time>2015-02-07T20:37:03.000Z</time>
      </trkpt>
      <trkpt lat="43.68613" lon="1.10178">
        <ele>258.39999389648</ele>
        <time>2015-02-07T20:37:09.000Z</time>
      </trkpt>
      <trkpt lat="43.68609" lon="1.1018">
        <ele>258.60000610352</ele>
        <time>2015-02-07T20:37:11.000Z</time>
      </trkpt>
      <trkpt lat="43.68605" lon="1.10182">
        <ele>259</ele>
        <time>2015-02-07T20:37:13.000Z</time>
      </trkpt>
      <trkpt lat="43.68592" lon="1.10187">
        <ele>259.60000610352</ele>
        <time>2015-02-07T20:37:20.000Z</time>
      </trkpt>
      <trkpt lat="43.68584" lon="1.10191">
        <ele>260.39999389648</ele>
        <time>2015-02-07T20:37:25.000Z</time>
      </trkpt>
      <trkpt lat="43.68574" lon="1.10198">
        <ele>261.20001220703</ele>
        <time>2015-02-07T20:37:30.000Z</time>
      </trkpt>
      <trkpt lat="43.68563" lon="1.10206">
        <ele>261.79998779297</ele>
        <time>2015-02-07T20:37:36.000Z</time>
      </trkpt>
      <trkpt lat="43.68554" lon="1.10212">
        <ele>262.39999389648</ele>
        <time>2015-02-07T20:37:41.000Z</time>
      </trkpt>
      <trkpt lat="43.68553" lon="1.10214">
        <ele>262.39999389648</ele>
        <time>2015-02-07T20:37:42.000Z</time>
      </trkpt>
      <trkpt lat="43.68547" lon="1.10218">
        <ele>262.79998779297</ele>
        <time>2015-02-07T20:37:47.000Z</time>
      </trkpt>
      <trkpt lat="43.68544" lon="1.1022">
        <ele>263</ele>
        <time>2015-02-07T20:37:49.000Z</time>
      </trkpt>
      <trkpt lat="43.68537" lon="1.10227">
        <ele>264</ele>
        <time>2015-02-07T20:37:55.000Z</time>
      </trkpt>
      <trkpt lat="43.68525" lon="1.10236">
        <ele>265</ele>
        <time>2015-02-07T20:38:02.000Z</time>
      </trkpt>
      <trkpt lat="43.68515" lon="1.10245">
        <ele>266</ele>
        <time>2015-02-07T20:38:08.000Z</time>
      </trkpt>
      <trkpt lat="43.68504" lon="1.10256">
        <ele>267</ele>
        <time>2015-02-07T20:38:15.000Z</time>
      </trkpt>
      <trkpt lat="43.68495" lon="1.10264">
        <ele>267.79998779297</ele>
        <time>2015-02-07T20:38:20.000Z</time>
      </trkpt>
      <trkpt lat="43.68484" lon="1.10273">
        <ele>268.60000610352</ele>
        <time>2015-02-07T20:38:26.000Z</time>
      </trkpt>
      <trkpt lat="43.68472" lon="1.10284">
        <ele>269.39999389648</ele>
        <time>2015-02-07T20:38:33.000Z</time>
      </trkpt>
      <trkpt lat="43.68462" lon="1.10293">
        <ele>270</ele>
        <time>2015-02-07T20:38:38.000Z</time>
      </trkpt>
      <trkpt lat="43.68446" lon="1.10308">
        <ele>270.79998779297</ele>
        <time>2015-02-07T20:38:46.000Z</time>
      </trkpt>
      <trkpt lat="43.68434" lon="1.10322">
        <ele>271.60000610352</ele>
        <time>2015-02-07T20:38:52.000Z</time>
      </trkpt>
      <trkpt lat="43.68421" lon="1.10339">
        <ele>272.39999389648</ele>
        <time>2015-02-07T20:38:59.000Z</time>
      </trkpt>
      <trkpt lat="43.68412" lon="1.10348">
        <ele>272.79998779297</ele>
        <time>2015-02-07T20:39:04.000Z</time>
      </trkpt>
      <trkpt lat="43.68398" lon="1.10361">
        <ele>273.60000610352</ele>
        <time>2015-02-07T20:39:11.000Z</time>
      </trkpt>
      <trkpt lat="43.68386" lon="1.10376">
        <ele>274.60000610352</ele>
        <time>2015-02-07T20:39:18.000Z</time>
      </trkpt>
      <trkpt lat="43.68378" lon="1.1039">
        <ele>275.20001220703</ele>
        <time>2015-02-07T20:39:23.000Z</time>
      </trkpt>
      <trkpt lat="43.6837" lon="1.10406">
        <ele>276.20001220703</ele>
        <time>2015-02-07T20:39:29.000Z</time>
      </trkpt>
      <trkpt lat="43.68359" lon="1.1043">
        <ele>278</ele>
        <time>2015-02-07T20:39:37.000Z</time>
      </trkpt>
      <trkpt lat="43.68351" lon="1.10444">
        <ele>278.79998779297</ele>
        <time>2015-02-07T20:39:42.000Z</time>
      </trkpt>
      <trkpt lat="43.68343" lon="1.10458">
        <ele>279.79998779297</ele>
        <time>2015-02-07T20:39:47.000Z</time>
      </trkpt>
      <trkpt lat="43.68334" lon="1.10473">
        <ele>280.60000610352</ele>
        <time>2015-02-07T20:39:52.000Z</time>
      </trkpt>
      <trkpt lat="43.68321" lon="1.10491">
        <ele>281.39999389648</ele>
        <time>2015-02-07T20:39:59.000Z</time>
      </trkpt>
      <trkpt lat="43.68319" lon="1.10494">
        <ele>281.60000610352</ele>
        <time>2015-02-07T20:40:00.000Z</time>
      </trkpt>
      <trkpt lat="43.68308" lon="1.10513">
        <ele>282</ele>
        <time>2015-02-07T20:40:07.000Z</time>
      </trkpt>
      <trkpt lat="43.68295" lon="1.10532">
        <ele>282.20001220703</ele>
        <time>2015-02-07T20:40:14.000Z</time>
      </trkpt>
      <trkpt lat="43.68292" lon="1.10538">
        <ele>282</ele>
        <time>2015-02-07T20:40:16.000Z</time>
      </trkpt>
      <trkpt lat="43.68284" lon="1.10556">
        <ele>282</ele>
        <time>2015-02-07T20:40:22.000Z</time>
      </trkpt>
      <trkpt lat="43.68278" lon="1.10569">
        <ele>282</ele>
        <time>2015-02-07T20:40:27.000Z</time>
      </trkpt>
      <trkpt lat="43.68274" lon="1.10581">
        <ele>281.79998779297</ele>
        <time>2015-02-07T20:40:31.000Z</time>
      </trkpt>
      <trkpt lat="43.68268" lon="1.10599">
        <ele>281.79998779297</ele>
        <time>2015-02-07T20:40:37.000Z</time>
      </trkpt>
      <trkpt lat="43.68263" lon="1.10624">
        <ele>281.60000610352</ele>
        <time>2015-02-07T20:40:45.000Z</time>
      </trkpt>
      <trkpt lat="43.68261" lon="1.10647">
        <ele>281.60000610352</ele>
        <time>2015-02-07T20:40:52.000Z</time>
      </trkpt>
      <trkpt lat="43.6826" lon="1.10665">
        <ele>281.39999389648</ele>
        <time>2015-02-07T20:40:58.000Z</time>
      </trkpt>
      <trkpt lat="43.6826" lon="1.1068">
        <ele>281.20001220703</ele>
        <time>2015-02-07T20:41:03.000Z</time>
      </trkpt>
      <trkpt lat="43.68259" lon="1.107">
        <ele>281</ele>
        <time>2015-02-07T20:41:10.000Z</time>
      </trkpt>
      <trkpt lat="43.68256" lon="1.10715">
        <ele>280.79998779297</ele>
        <time>2015-02-07T20:41:15.000Z</time>
      </trkpt>
      <trkpt lat="43.68254" lon="1.10734">
        <ele>280.60000610352</ele>
        <time>2015-02-07T20:41:21.000Z</time>
      </trkpt>
      <trkpt lat="43.68251" lon="1.10753">
        <ele>280.60000610352</ele>
        <time>2015-02-07T20:41:27.000Z</time>
      </trkpt>
      <trkpt lat="43.68251" lon="1.10768">
        <ele>280.39999389648</ele>
        <time>2015-02-07T20:41:32.000Z</time>
      </trkpt>
      <trkpt lat="43.68251" lon="1.10786">
        <ele>280.39999389648</ele>
        <time>2015-02-07T20:41:38.000Z</time>
      </trkpt>
      <trkpt lat="43.68251" lon="1.10802">
        <ele>280.39999389648</ele>
        <time>2015-02-07T20:41:43.000Z</time>
      </trkpt>
      <trkpt lat="43.6825" lon="1.10821">
        <ele>280.39999389648</ele>
        <time>2015-02-07T20:41:49.000Z</time>
      </trkpt>
      <trkpt lat="43.68249" lon="1.10842">
        <ele>280.60000610352</ele>
        <time>2015-02-07T20:41:56.000Z</time>
      </trkpt>
      <trkpt lat="43.68251" lon="1.10862">
        <ele>280.60000610352</ele>
        <time>2015-02-07T20:42:02.000Z</time>
      </trkpt>
      <trkpt lat="43.68253" lon="1.10878">
        <ele>280.60000610352</ele>
        <time>2015-02-07T20:42:07.000Z</time>
      </trkpt>
      <trkpt lat="43.68252" lon="1.10895">
        <ele>280.39999389648</ele>
        <time>2015-02-07T20:42:12.000Z</time>
      </trkpt>
      <trkpt lat="43.68249" lon="1.10916">
        <ele>280.39999389648</ele>
        <time>2015-02-07T20:42:18.000Z</time>
      </trkpt>
      <trkpt lat="43.68249" lon="1.10936">
        <ele>280.60000610352</ele>
        <time>2015-02-07T20:42:24.000Z</time>
      </trkpt>
      <trkpt lat="43.68253" lon="1.10947">
        <ele>280.60000610352</ele>
        <time>2015-02-07T20:42:28.000Z</time>
      </trkpt>
      <trkpt lat="43.68261" lon="1.10957">
        <ele>280.60000610352</ele>
        <time>2015-02-07T20:42:32.000Z</time>
      </trkpt>
      <trkpt lat="43.6827" lon="1.10973">
        <ele>280.60000610352</ele>
        <time>2015-02-07T20:42:38.000Z</time>
      </trkpt>
      <trkpt lat="43.68277" lon="1.10983">
        <ele>280.60000610352</ele>
        <time>2015-02-07T20:42:42.000Z</time>
      </trkpt>
      <trkpt lat="43.68286" lon="1.10995">
        <ele>280.60000610352</ele>
        <time>2015-02-07T20:42:48.000Z</time>
      </trkpt>
      <trkpt lat="43.68297" lon="1.11009">
        <ele>280.39999389648</ele>
        <time>2015-02-07T20:42:54.000Z</time>
      </trkpt>
      <trkpt lat="43.68306" lon="1.1102">
        <ele>280.39999389648</ele>
        <time>2015-02-07T20:42:59.000Z</time>
      </trkpt>
      <trkpt lat="43.68318" lon="1.11032">
        <ele>280.20001220703</ele>
        <time>2015-02-07T20:43:05.000Z</time>
      </trkpt>
      <trkpt lat="43.68329" lon="1.11044">
        <ele>280</ele>
        <time>2015-02-07T20:43:11.000Z</time>
      </trkpt>
      <trkpt lat="43.68341" lon="1.11057">
        <ele>279.79998779297</ele>
        <time>2015-02-07T20:43:17.000Z</time>
      </trkpt>
      <trkpt lat="43.68351" lon="1.11066">
        <ele>279.60000610352</ele>
        <time>2015-02-07T20:43:22.000Z</time>
      </trkpt>
      <trkpt lat="43.68367" lon="1.11082">
        <ele>279.39999389648</ele>
        <time>2015-02-07T20:43:30.000Z</time>
      </trkpt>
      <trkpt lat="43.68378" lon="1.11096">
        <ele>279.20001220703</ele>
        <time>2015-02-07T20:43:36.000Z</time>
      </trkpt>
      <trkpt lat="43.68389" lon="1.11113">
        <ele>278.79998779297</ele>
        <time>2015-02-07T20:43:43.000Z</time>
      </trkpt>
      <trkpt lat="43.684" lon="1.11131">
        <ele>278.39999389648</ele>
        <time>2015-02-07T20:43:50.000Z</time>
      </trkpt>
      <trkpt lat="43.68409" lon="1.11148">
        <ele>278.20001220703</ele>
        <time>2015-02-07T20:43:56.000Z</time>
      </trkpt>
      <trkpt lat="43.68417" lon="1.11163">
        <ele>277.79998779297</ele>
        <time>2015-02-07T20:44:02.000Z</time>
      </trkpt>
      <trkpt lat="43.68423" lon="1.11177">
        <ele>277.60000610352</ele>
        <time>2015-02-07T20:44:07.000Z</time>
      </trkpt>
      <trkpt lat="43.68425" lon="1.11182">
        <ele>277.39999389648</ele>
        <time>2015-02-07T20:44:09.000Z</time>
      </trkpt>
      <trkpt lat="43.68429" lon="1.11195">
        <ele>277.20001220703</ele>
        <time>2015-02-07T20:44:14.000Z</time>
      </trkpt>
      <trkpt lat="43.68434" lon="1.11211">
        <ele>277</ele>
        <time>2015-02-07T20:44:20.000Z</time>
      </trkpt>
      <trkpt lat="43.68437" lon="1.11232">
        <ele>276.79998779297</ele>
        <time>2015-02-07T20:44:27.000Z</time>
      </trkpt>
      <trkpt lat="43.68437" lon="1.11247">
        <ele>276.60000610352</ele>
        <time>2015-02-07T20:44:32.000Z</time>
      </trkpt>
      <trkpt lat="43.68438" lon="1.11263">
        <ele>276.20001220703</ele>
        <time>2015-02-07T20:44:40.000Z</time>
      </trkpt>
      <trkpt lat="43.68438" lon="1.11273">
        <ele>276</ele>
        <time>2015-02-07T20:44:45.000Z</time>
      </trkpt>
      <trkpt lat="43.68441" lon="1.11278">
        <ele>276</ele>
        <time>2015-02-07T20:44:48.000Z</time>
      </trkpt>
      <trkpt lat="43.68442" lon="1.1128">
        <ele>276</ele>
        <time>2015-02-07T20:44:49.000Z</time>
      </trkpt>
      <trkpt lat="43.68443" lon="1.11285">
        <ele>275.79998779297</ele>
        <time>2015-02-07T20:44:51.000Z</time>
      </trkpt>
      <trkpt lat="43.68443" lon="1.11291">
        <ele>275.79998779297</ele>
        <time>2015-02-07T20:44:53.000Z</time>
      </trkpt>
      <trkpt lat="43.6844" lon="1.11308">
        <ele>275.60000610352</ele>
        <time>2015-02-07T20:44:58.000Z</time>
      </trkpt>
      <trkpt lat="43.68438" lon="1.1131">
        <ele>275.60000610352</ele>
        <time>2015-02-07T20:44:59.000Z</time>
      </trkpt>
      <trkpt lat="43.68432" lon="1.11318">
        <ele>275.39999389648</ele>
        <time>2015-02-07T20:45:03.000Z</time>
      </trkpt>
      <trkpt lat="43.68429" lon="1.11319">
        <ele>275.39999389648</ele>
        <time>2015-02-07T20:45:04.000Z</time>
      </trkpt>
      <trkpt lat="43.68423" lon="1.11323">
        <ele>275.20001220703</ele>
        <time>2015-02-07T20:45:08.000Z</time>
      </trkpt>
      <trkpt lat="43.68424" lon="1.11325">
        <ele>275.20001220703</ele>
        <time>2015-02-07T20:45:09.000Z</time>
      </trkpt>
      <trkpt lat="43.68421" lon="1.11325">
        <ele>275</ele>
        <time>2015-02-07T20:45:14.000Z</time>
      </trkpt>
      <trkpt lat="43.68417" lon="1.11326">
        <ele>275</ele>
        <time>2015-02-07T20:45:17.000Z</time>
      </trkpt>
      <trkpt lat="43.68414" lon="1.11331">
        <ele>274.79998779297</ele>
        <time>2015-02-07T20:45:19.000Z</time>
      </trkpt>
      <trkpt lat="43.6841" lon="1.11336">
        <ele>274.79998779297</ele>
        <time>2015-02-07T20:45:21.000Z</time>
      </trkpt>
      <trkpt lat="43.68404" lon="1.11342">
        <ele>274.60000610352</ele>
        <time>2015-02-07T20:45:24.000Z</time>
      </trkpt>
      <trkpt lat="43.68394" lon="1.11355">
        <ele>274.39999389648</ele>
        <time>2015-02-07T20:45:30.000Z</time>
      </trkpt>
      <trkpt lat="43.68384" lon="1.11371">
        <ele>274.20001220703</ele>
        <time>2015-02-07T20:45:37.000Z</time>
      </trkpt>
      <trkpt lat="43.68372" lon="1.11386">
        <ele>273.60000610352</ele>
        <time>2015-02-07T20:45:44.000Z</time>
      </trkpt>
      <trkpt lat="43.6836" lon="1.11402">
        <ele>273</ele>
        <time>2015-02-07T20:45:51.000Z</time>
      </trkpt>
      <trkpt lat="43.68348" lon="1.11418">
        <ele>272.39999389648</ele>
        <time>2015-02-07T20:45:58.000Z</time>
      </trkpt>
      <trkpt lat="43.68342" lon="1.11423">
        <ele>272</ele>
        <time>2015-02-07T20:46:01.000Z</time>
      </trkpt>
      <trkpt lat="43.68339" lon="1.11424">
        <ele>271.79998779297</ele>
        <time>2015-02-07T20:46:03.000Z</time>
      </trkpt>
      <trkpt lat="43.68333" lon="1.11422">
        <ele>271.39999389648</ele>
        <time>2015-02-07T20:46:06.000Z</time>
      </trkpt>
      <trkpt lat="43.68329" lon="1.1142">
        <ele>271.20001220703</ele>
        <time>2015-02-07T20:46:08.000Z</time>
      </trkpt>
      <trkpt lat="43.68315" lon="1.11413">
        <ele>270.60000610352</ele>
        <time>2015-02-07T20:46:14.000Z</time>
      </trkpt>
      <trkpt lat="43.68311" lon="1.11412">
        <ele>270.39999389648</ele>
        <time>2015-02-07T20:46:16.000Z</time>
      </trkpt>
      <trkpt lat="43.68305" lon="1.11417">
        <ele>270</ele>
        <time>2015-02-07T20:46:19.000Z</time>
      </trkpt>
      <trkpt lat="43.68296" lon="1.11422">
        <ele>269.39999389648</ele>
        <time>2015-02-07T20:46:24.000Z</time>
      </trkpt>
      <trkpt lat="43.68293" lon="1.11425">
        <ele>269</ele>
        <time>2015-02-07T20:46:26.000Z</time>
      </trkpt>
      <trkpt lat="43.68291" lon="1.11426">
        <ele>268.79998779297</ele>
        <time>2015-02-07T20:46:28.000Z</time>
      </trkpt>
      <trkpt lat="43.68291" lon="1.11428">
        <ele>268.60000610352</ele>
        <time>2015-02-07T20:46:29.000Z</time>
      </trkpt>
      <trkpt lat="43.68289" lon="1.11441">
        <ele>268</ele>
        <time>2015-02-07T20:46:34.000Z</time>
      </trkpt>
      <trkpt lat="43.68288" lon="1.1145">
        <ele>267.39999389648</ele>
        <time>2015-02-07T20:46:38.000Z</time>
      </trkpt>
      <trkpt lat="43.68292" lon="1.11455">
        <ele>266.79998779297</ele>
        <time>2015-02-07T20:46:42.000Z</time>
      </trkpt>
      <trkpt lat="43.68292" lon="1.11461">
        <ele>266.39999389648</ele>
        <time>2015-02-07T20:46:46.000Z</time>
      </trkpt>
      <trkpt lat="43.68288" lon="1.11469">
        <ele>265.60000610352</ele>
        <time>2015-02-07T20:46:51.000Z</time>
      </trkpt>
      <trkpt lat="43.68287" lon="1.11475">
        <ele>265.39999389648</ele>
        <time>2015-02-07T20:46:53.000Z</time>
      </trkpt>
      <trkpt lat="43.68286" lon="1.11477">
        <ele>265.20001220703</ele>
        <time>2015-02-07T20:46:54.000Z</time>
      </trkpt>
      <trkpt lat="43.68285" lon="1.11478">
        <ele>265.20001220703</ele>
        <time>2015-02-07T20:46:55.000Z</time>
      </trkpt>
      <trkpt lat="43.68282" lon="1.11488">
        <ele>264.39999389648</ele>
        <time>2015-02-07T20:47:00.000Z</time>
      </trkpt>
      <trkpt lat="43.68285" lon="1.11499">
        <ele>263.79998779297</ele>
        <time>2015-02-07T20:47:05.000Z</time>
      </trkpt>
      <trkpt lat="43.68285" lon="1.115">
        <ele>263.60000610352</ele>
        <time>2015-02-07T20:47:06.000Z</time>
      </trkpt>
      <trkpt lat="43.68285" lon="1.11503">
        <ele>263.60000610352</ele>
        <time>2015-02-07T20:47:07.000Z</time>
      </trkpt>
      <trkpt lat="43.68287" lon="1.11506">
        <ele>263.20001220703</ele>
        <time>2015-02-07T20:47:09.000Z</time>
      </trkpt>
      <trkpt lat="43.68288" lon="1.11513">
        <ele>263</ele>
        <time>2015-02-07T20:47:12.000Z</time>
      </trkpt>
      <trkpt lat="43.68289" lon="1.11517">
        <ele>262.60000610352</ele>
        <time>2015-02-07T20:47:14.000Z</time>
      </trkpt>
      <trkpt lat="43.68291" lon="1.11525">
        <ele>262.20001220703</ele>
        <time>2015-02-07T20:47:18.000Z</time>
      </trkpt>
      <trkpt lat="43.68293" lon="1.11529">
        <ele>262</ele>
        <time>2015-02-07T20:47:21.000Z</time>
      </trkpt>
      <trkpt lat="43.68293" lon="1.1153">
        <ele>261.79998779297</ele>
        <time>2015-02-07T20:47:22.000Z</time>
      </trkpt>
      <trkpt lat="43.6829" lon="1.11532">
        <ele>261.79998779297</ele>
        <time>2015-02-07T20:47:23.000Z</time>
      </trkpt>
      <trkpt lat="43.68288" lon="1.11537">
        <ele>261.39999389648</ele>
        <time>2015-02-07T20:47:26.000Z</time>
      </trkpt>
      <trkpt lat="43.6829" lon="1.11548">
        <ele>261</ele>
        <time>2015-02-07T20:47:31.000Z</time>
      </trkpt>
      <trkpt lat="43.6829" lon="1.11554">
        <ele>260.79998779297</ele>
        <time>2015-02-07T20:47:35.000Z</time>
      </trkpt>
      <trkpt lat="43.68295" lon="1.11564">
        <ele>260.39999389648</ele>
        <time>2015-02-07T20:47:40.000Z</time>
      </trkpt>
      <trkpt lat="43.68294" lon="1.11573">
        <ele>260</ele>
        <time>2015-02-07T20:47:44.000Z</time>
      </trkpt>
      <trkpt lat="43.68296" lon="1.11584">
        <ele>259.79998779297</ele>
        <time>2015-02-07T20:47:48.000Z</time>
      </trkpt>
      <trkpt lat="43.68303" lon="1.11591">
        <ele>259.60000610352</ele>
        <time>2015-02-07T20:47:52.000Z</time>
      </trkpt>
      <trkpt lat="43.68304" lon="1.11593">
        <ele>259.39999389648</ele>
        <time>2015-02-07T20:47:54.000Z</time>
      </trkpt>
      <trkpt lat="43.68304" lon="1.11593">
        <ele>259.39999389648</ele>
        <time>2015-02-07T20:47:55.000Z</time>
      </trkpt>
      <trkpt lat="43.68305" lon="1.11593">
        <ele>259.20001220703</ele>
        <time>2015-02-07T20:47:56.000Z</time>
      </trkpt>
      <trkpt lat="43.68312" lon="1.11597">
        <ele>258.79998779297</ele>
        <time>2015-02-07T20:48:01.000Z</time>
      </trkpt>
      <trkpt lat="43.68313" lon="1.11599">
        <ele>258.79998779297</ele>
        <time>2015-02-07T20:48:02.000Z</time>
      </trkpt>
      <trkpt lat="43.68317" lon="1.11606">
        <ele>258.60000610352</ele>
        <time>2015-02-07T20:48:05.000Z</time>
      </trkpt>
      <trkpt lat="43.68319" lon="1.11608">
        <ele>258.60000610352</ele>
        <time>2015-02-07T20:48:06.000Z</time>
      </trkpt>
      <trkpt lat="43.68325" lon="1.11619">
        <ele>258.20001220703</ele>
        <time>2015-02-07T20:48:11.000Z</time>
      </trkpt>
      <trkpt lat="43.68326" lon="1.11622">
        <ele>258</ele>
        <time>2015-02-07T20:48:12.000Z</time>
      </trkpt>
      <trkpt lat="43.6833" lon="1.11632">
        <ele>257.60000610352</ele>
        <time>2015-02-07T20:48:16.000Z</time>
      </trkpt>
      <trkpt lat="43.68332" lon="1.1164">
        <ele>257.39999389648</ele>
        <time>2015-02-07T20:48:19.000Z</time>
      </trkpt>
      <trkpt lat="43.68329" lon="1.11645">
        <ele>257</ele>
        <time>2015-02-07T20:48:21.000Z</time>
      </trkpt>
      <trkpt lat="43.68327" lon="1.11648">
        <ele>256.79998779297</ele>
        <time>2015-02-07T20:48:23.000Z</time>
      </trkpt>
      <trkpt lat="43.68322" lon="1.11651">
        <ele>256.60000610352</ele>
        <time>2015-02-07T20:48:26.000Z</time>
      </trkpt>
      <trkpt lat="43.68317" lon="1.11652">
        <ele>256.20001220703</ele>
        <time>2015-02-07T20:48:30.000Z</time>
      </trkpt>
      <trkpt lat="43.68316" lon="1.11653">
        <ele>256</ele>
        <time>2015-02-07T20:48:31.000Z</time>
      </trkpt>
      <trkpt lat="43.68312" lon="1.11656">
        <ele>255.80000305176</ele>
        <time>2015-02-07T20:48:34.000Z</time>
      </trkpt>
      <trkpt lat="43.68308" lon="1.11657">
        <ele>255.39999389648</ele>
        <time>2015-02-07T20:48:38.000Z</time>
      </trkpt>
      <trkpt lat="43.68307" lon="1.11659">
        <ele>255.19999694824</ele>
        <time>2015-02-07T20:48:39.000Z</time>
      </trkpt>
      <trkpt lat="43.68301" lon="1.11673">
        <ele>254.80000305176</ele>
        <time>2015-02-07T20:48:44.000Z</time>
      </trkpt>
      <trkpt lat="43.68299" lon="1.11678">
        <ele>254.60000610352</ele>
        <time>2015-02-07T20:48:46.000Z</time>
      </trkpt>
      <trkpt lat="43.68297" lon="1.11684">
        <ele>254.39999389648</ele>
        <time>2015-02-07T20:48:49.000Z</time>
      </trkpt>
      <trkpt lat="43.68291" lon="1.11694">
        <ele>253.80000305176</ele>
        <time>2015-02-07T20:48:55.000Z</time>
      </trkpt>
      <trkpt lat="43.68288" lon="1.11701">
        <ele>253.60000610352</ele>
        <time>2015-02-07T20:49:01.000Z</time>
      </trkpt>
      <trkpt lat="43.68287" lon="1.11701">
        <ele>253.39999389648</ele>
        <time>2015-02-07T20:49:02.000Z</time>
      </trkpt>
      <trkpt lat="43.68284" lon="1.11705">
        <ele>253.19999694824</ele>
        <time>2015-02-07T20:49:06.000Z</time>
      </trkpt>
      <trkpt lat="43.6828" lon="1.11711">
        <ele>253</ele>
        <time>2015-02-07T20:49:12.000Z</time>
      </trkpt>
      <trkpt lat="43.68275" lon="1.1172">
        <ele>252.60000610352</ele>
        <time>2015-02-07T20:49:18.000Z</time>
      </trkpt>
      <trkpt lat="43.6827" lon="1.1173">
        <ele>252.39999389648</ele>
        <time>2015-02-07T20:49:26.000Z</time>
      </trkpt>
      <trkpt lat="43.68266" lon="1.11738">
        <ele>252.39999389648</ele>
        <time>2015-02-07T20:49:32.000Z</time>
      </trkpt>
      <trkpt lat="43.68264" lon="1.11741">
        <ele>252.19999694824</ele>
        <time>2015-02-07T20:49:34.000Z</time>
      </trkpt>
      <trkpt lat="43.68263" lon="1.11742">
        <ele>252.19999694824</ele>
        <time>2015-02-07T20:49:36.000Z</time>
      </trkpt>
      <trkpt lat="43.6826" lon="1.11748">
        <ele>252.19999694824</ele>
        <time>2015-02-07T20:49:41.000Z</time>
      </trkpt>
      <trkpt lat="43.68255" lon="1.11758">
        <ele>252.39999389648</ele>
        <time>2015-02-07T20:49:48.000Z</time>
      </trkpt>
      <trkpt lat="43.68251" lon="1.11765">
        <ele>252.39999389648</ele>
        <time>2015-02-07T20:49:54.000Z</time>
      </trkpt>
      <trkpt lat="43.68249" lon="1.11769">
        <ele>252.39999389648</ele>
        <time>2015-02-07T20:49:57.000Z</time>
      </trkpt>
      <trkpt lat="43.68251" lon="1.11772">
        <ele>252.19999694824</ele>
        <time>2015-02-07T20:50:00.000Z</time>
      </trkpt>
      <trkpt lat="43.68256" lon="1.1177">
        <ele>252.19999694824</ele>
        <time>2015-02-07T20:50:04.000Z</time>
      </trkpt>
      <trkpt lat="43.68262" lon="1.11767">
        <ele>252.19999694824</ele>
        <time>2015-02-07T20:50:09.000Z</time>
      </trkpt>
      <trkpt lat="43.68268" lon="1.11765">
        <ele>252</ele>
        <time>2015-02-07T20:50:13.000Z</time>
      </trkpt>
      <trkpt lat="43.68272" lon="1.11774">
        <ele>252</ele>
        <time>2015-02-07T20:50:17.000Z</time>
      </trkpt>
      <trkpt lat="43.68276" lon="1.1178">
        <ele>251.60000610352</ele>
        <time>2015-02-07T20:50:21.000Z</time>
      </trkpt>
      <trkpt lat="43.68283" lon="1.11789">
        <ele>251.39999389648</ele>
        <time>2015-02-07T20:50:26.000Z</time>
      </trkpt>
      <trkpt lat="43.68286" lon="1.11799">
        <ele>251.19999694824</ele>
        <time>2015-02-07T20:50:30.000Z</time>
      </trkpt>
      <trkpt lat="43.68289" lon="1.11803">
        <ele>251.19999694824</ele>
        <time>2015-02-07T20:50:32.000Z</time>
      </trkpt>
      <trkpt lat="43.68293" lon="1.11804">
        <ele>251.19999694824</ele>
        <time>2015-02-07T20:50:34.000Z</time>
      </trkpt>
      <trkpt lat="43.68294" lon="1.11805">
        <ele>251</ele>
        <time>2015-02-07T20:50:35.000Z</time>
      </trkpt>
      <trkpt lat="43.68301" lon="1.11801">
        <ele>250.80000305176</ele>
        <time>2015-02-07T20:50:39.000Z</time>
      </trkpt>
      <trkpt lat="43.68311" lon="1.11794">
        <ele>250.60000610352</ele>
        <time>2015-02-07T20:50:44.000Z</time>
      </trkpt>
      <trkpt lat="43.68314" lon="1.11794">
        <ele>250.39999389648</ele>
        <time>2015-02-07T20:50:45.000Z</time>
      </trkpt>
      <trkpt lat="43.68323" lon="1.11799">
        <ele>250.19999694824</ele>
        <time>2015-02-07T20:50:49.000Z</time>
      </trkpt>
      <trkpt lat="43.68333" lon="1.11813">
        <ele>249.80000305176</ele>
        <time>2015-02-07T20:50:55.000Z</time>
      </trkpt>
      <trkpt lat="43.68345" lon="1.11828">
        <ele>249.39999389648</ele>
        <time>2015-02-07T20:51:02.000Z</time>
      </trkpt>
      <trkpt lat="43.68357" lon="1.11845">
        <ele>248.60000610352</ele>
        <time>2015-02-07T20:51:10.000Z</time>
      </trkpt>
      <trkpt lat="43.68367" lon="1.11857">
        <ele>248.19999694824</ele>
        <time>2015-02-07T20:51:15.000Z</time>
      </trkpt>
      <trkpt lat="43.68379" lon="1.11865">
        <ele>247.80000305176</ele>
        <time>2015-02-07T20:51:20.000Z</time>
      </trkpt>
      <trkpt lat="43.68388" lon="1.11869">
        <ele>247.39999389648</ele>
        <time>2015-02-07T20:51:24.000Z</time>
      </trkpt>
      <trkpt lat="43.68402" lon="1.11879">
        <ele>246.80000305176</ele>
        <time>2015-02-07T20:51:31.000Z</time>
      </trkpt>
      <trkpt lat="43.68411" lon="1.11887">
        <ele>246.19999694824</ele>
        <time>2015-02-07T20:51:36.000Z</time>
      </trkpt>
      <trkpt lat="43.6842" lon="1.11899">
        <ele>245.60000610352</ele>
        <time>2015-02-07T20:51:42.000Z</time>
      </trkpt>
      <trkpt lat="43.68428" lon="1.11912">
        <ele>245</ele>
        <time>2015-02-07T20:51:48.000Z</time>
      </trkpt>
      <trkpt lat="43.68434" lon="1.11927">
        <ele>244.39999389648</ele>
        <time>2015-02-07T20:51:54.000Z</time>
      </trkpt>
      <trkpt lat="43.68439" lon="1.1194">
        <ele>243.80000305176</ele>
        <time>2015-02-07T20:51:59.000Z</time>
      </trkpt>
      <trkpt lat="43.68446" lon="1.11953">
        <ele>243.19999694824</ele>
        <time>2015-02-07T20:52:05.000Z</time>
      </trkpt>
      <trkpt lat="43.68454" lon="1.11965">
        <ele>242.80000305176</ele>
        <time>2015-02-07T20:52:11.000Z</time>
      </trkpt>
      <trkpt lat="43.68462" lon="1.11979">
        <ele>242.19999694824</ele>
        <time>2015-02-07T20:52:17.000Z</time>
      </trkpt>
      <trkpt lat="43.68466" lon="1.11982">
        <ele>242</ele>
        <time>2015-02-07T20:52:19.000Z</time>
      </trkpt>
      <trkpt lat="43.68472" lon="1.11985">
        <ele>241.80000305176</ele>
        <time>2015-02-07T20:52:22.000Z</time>
      </trkpt>
      <trkpt lat="43.68488" lon="1.11995">
        <ele>241.19999694824</ele>
        <time>2015-02-07T20:52:29.000Z</time>
      </trkpt>
      <trkpt lat="43.685" lon="1.12005">
        <ele>240.60000610352</ele>
        <time>2015-02-07T20:52:35.000Z</time>
      </trkpt>
      <trkpt lat="43.68513" lon="1.12017">
        <ele>240</ele>
        <time>2015-02-07T20:52:42.000Z</time>
      </trkpt>
      <trkpt lat="43.68523" lon="1.1203">
        <ele>239.39999389648</ele>
        <time>2015-02-07T20:52:48.000Z</time>
      </trkpt>
      <trkpt lat="43.68532" lon="1.12044">
        <ele>238.80000305176</ele>
        <time>2015-02-07T20:52:54.000Z</time>
      </trkpt>
      <trkpt lat="43.68541" lon="1.12054">
        <ele>238.19999694824</ele>
        <time>2015-02-07T20:53:00.000Z</time>
      </trkpt>
      <trkpt lat="43.68551" lon="1.12065">
        <ele>237.60000610352</ele>
        <time>2015-02-07T20:53:06.000Z</time>
      </trkpt>
      <trkpt lat="43.68557" lon="1.1208">
        <ele>236.80000305176</ele>
        <time>2015-02-07T20:53:12.000Z</time>
      </trkpt>
      <trkpt lat="43.68555" lon="1.12095">
        <ele>236.19999694824</ele>
        <time>2015-02-07T20:53:17.000Z</time>
      </trkpt>
      <trkpt lat="43.68554" lon="1.12097">
        <ele>236</ele>
        <time>2015-02-07T20:53:19.000Z</time>
      </trkpt>
      <trkpt lat="43.68552" lon="1.12101">
        <ele>235.80000305176</ele>
        <time>2015-02-07T20:53:21.000Z</time>
      </trkpt>
      <trkpt lat="43.68549" lon="1.12106">
        <ele>235.39999389648</ele>
        <time>2015-02-07T20:53:25.000Z</time>
      </trkpt>
      <trkpt lat="43.68547" lon="1.12112">
        <ele>235</ele>
        <time>2015-02-07T20:53:30.000Z</time>
      </trkpt>
      <trkpt lat="43.68547" lon="1.12121">
        <ele>234.60000610352</ele>
        <time>2015-02-07T20:53:35.000Z</time>
      </trkpt>
      <trkpt lat="43.68548" lon="1.12123">
        <ele>234.60000610352</ele>
        <time>2015-02-07T20:53:36.000Z</time>
      </trkpt>
      <trkpt lat="43.6855" lon="1.12129">
        <ele>234.19999694824</ele>
        <time>2015-02-07T20:53:39.000Z</time>
      </trkpt>
      <trkpt lat="43.6855" lon="1.12132">
        <ele>234.19999694824</ele>
        <time>2015-02-07T20:53:40.000Z</time>
      </trkpt>
      <trkpt lat="43.68551" lon="1.12134">
        <ele>234.19999694824</ele>
        <time>2015-02-07T20:53:41.000Z</time>
      </trkpt>
      <trkpt lat="43.68548" lon="1.12141">
        <ele>233.80000305176</ele>
        <time>2015-02-07T20:53:46.000Z</time>
      </trkpt>
      <trkpt lat="43.68547" lon="1.12147">
        <ele>233.39999389648</ele>
        <time>2015-02-07T20:53:49.000Z</time>
      </trkpt>
      <trkpt lat="43.68547" lon="1.12148">
        <ele>233.39999389648</ele>
        <time>2015-02-07T20:53:50.000Z</time>
      </trkpt>
      <trkpt lat="43.68547" lon="1.12153">
        <ele>233.19999694824</ele>
        <time>2015-02-07T20:53:53.000Z</time>
      </trkpt>
      <trkpt lat="43.68548" lon="1.12159">
        <ele>233</ele>
        <time>2015-02-07T20:53:56.000Z</time>
      </trkpt>
      <trkpt lat="43.68551" lon="1.12165">
        <ele>232.80000305176</ele>
        <time>2015-02-07T20:53:59.000Z</time>
      </trkpt>
      <trkpt lat="43.68552" lon="1.12168">
        <ele>232.60000610352</ele>
        <time>2015-02-07T20:54:01.000Z</time>
      </trkpt>
      <trkpt lat="43.68554" lon="1.12174">
        <ele>232.39999389648</ele>
        <time>2015-02-07T20:54:05.000Z</time>
      </trkpt>
      <trkpt lat="43.68555" lon="1.12179">
        <ele>232.19999694824</ele>
        <time>2015-02-07T20:54:08.000Z</time>
      </trkpt>
      <trkpt lat="43.68556" lon="1.12182">
        <ele>232</ele>
        <time>2015-02-07T20:54:10.000Z</time>
      </trkpt>
      <trkpt lat="43.68557" lon="1.12192">
        <ele>231.80000305176</ele>
        <time>2015-02-07T20:54:14.000Z</time>
      </trkpt>
      <trkpt lat="43.68558" lon="1.12197">
        <ele>231.80000305176</ele>
        <time>2015-02-07T20:54:16.000Z</time>
      </trkpt>
      <trkpt lat="43.68561" lon="1.12204">
        <ele>231.60000610352</ele>
        <time>2015-02-07T20:54:19.000Z</time>
      </trkpt>
      <trkpt lat="43.68565" lon="1.12215">
        <ele>231.60000610352</ele>
        <time>2015-02-07T20:54:24.000Z</time>
      </trkpt>
      <trkpt lat="43.68568" lon="1.1223">
        <ele>231.39999389648</ele>
        <time>2015-02-07T20:54:29.000Z</time>
      </trkpt>
      <trkpt lat="43.68567" lon="1.12239">
        <ele>231.19999694824</ele>
        <time>2015-02-07T20:54:32.000Z</time>
      </trkpt>
      <trkpt lat="43.68567" lon="1.12241">
        <ele>231.19999694824</ele>
        <time>2015-02-07T20:54:33.000Z</time>
      </trkpt>
      <trkpt lat="43.68565" lon="1.12252">
        <ele>231</ele>
        <time>2015-02-07T20:54:38.000Z</time>
      </trkpt>
      <trkpt lat="43.68564" lon="1.12254">
        <ele>231</ele>
        <time>2015-02-07T20:54:39.000Z</time>
      </trkpt>
      <trkpt lat="43.68563" lon="1.12268">
        <ele>231</ele>
        <time>2015-02-07T20:54:44.000Z</time>
      </trkpt>
      <trkpt lat="43.68561" lon="1.12279">
        <ele>231</ele>
        <time>2015-02-07T20:54:48.000Z</time>
      </trkpt>
      <trkpt lat="43.68561" lon="1.12294">
        <ele>230.80000305176</ele>
        <time>2015-02-07T20:54:53.000Z</time>
      </trkpt>
      <trkpt lat="43.68562" lon="1.12297">
        <ele>230.80000305176</ele>
        <time>2015-02-07T20:54:54.000Z</time>
      </trkpt>
      <trkpt lat="43.68564" lon="1.12305">
        <ele>230.80000305176</ele>
        <time>2015-02-07T20:54:57.000Z</time>
      </trkpt>
      <trkpt lat="43.6857" lon="1.12314">
        <ele>230.80000305176</ele>
        <time>2015-02-07T20:55:01.000Z</time>
      </trkpt>
      <trkpt lat="43.68582" lon="1.12321">
        <ele>230.80000305176</ele>
        <time>2015-02-07T20:55:07.000Z</time>
      </trkpt>
      <trkpt lat="43.68583" lon="1.12322">
        <ele>230.80000305176</ele>
        <time>2015-02-07T20:55:08.000Z</time>
      </trkpt>
      <trkpt lat="43.68592" lon="1.12325">
        <ele>230.80000305176</ele>
        <time>2015-02-07T20:55:11.000Z</time>
      </trkpt>
      <trkpt lat="43.68594" lon="1.12325">
        <ele>230.80000305176</ele>
        <time>2015-02-07T20:55:12.000Z</time>
      </trkpt>
      <trkpt lat="43.68605" lon="1.12334">
        <ele>230.80000305176</ele>
        <time>2015-02-07T20:55:17.000Z</time>
      </trkpt>
      <trkpt lat="43.68615" lon="1.12345">
        <ele>230.80000305176</ele>
        <time>2015-02-07T20:55:23.000Z</time>
      </trkpt>
      <trkpt lat="43.68629" lon="1.12353">
        <ele>230.60000610352</ele>
        <time>2015-02-07T20:55:29.000Z</time>
      </trkpt>
      <trkpt lat="43.68639" lon="1.12365">
        <ele>230.39999389648</ele>
        <time>2015-02-07T20:55:34.000Z</time>
      </trkpt>
      <trkpt lat="43.68644" lon="1.12373">
        <ele>230.19999694824</ele>
        <time>2015-02-07T20:55:37.000Z</time>
      </trkpt>
      <trkpt lat="43.68645" lon="1.12376">
        <ele>230.19999694824</ele>
        <time>2015-02-07T20:55:38.000Z</time>
      </trkpt>
      <trkpt lat="43.6865" lon="1.12392">
        <ele>230</ele>
        <time>2015-02-07T20:55:43.000Z</time>
      </trkpt>
      <trkpt lat="43.68655" lon="1.12407">
        <ele>229.60000610352</ele>
        <time>2015-02-07T20:55:48.000Z</time>
      </trkpt>
      <trkpt lat="43.68659" lon="1.12424">
        <ele>229.39999389648</ele>
        <time>2015-02-07T20:55:53.000Z</time>
      </trkpt>
      <trkpt lat="43.68664" lon="1.1244">
        <ele>229.19999694824</ele>
        <time>2015-02-07T20:55:58.000Z</time>
      </trkpt>
      <trkpt lat="43.68666" lon="1.12456">
        <ele>229</ele>
        <time>2015-02-07T20:56:03.000Z</time>
      </trkpt>
      <trkpt lat="43.68665" lon="1.12466">
        <ele>228.80000305176</ele>
        <time>2015-02-07T20:56:06.000Z</time>
      </trkpt>
      <trkpt lat="43.68664" lon="1.12471">
        <ele>228.60000610352</ele>
        <time>2015-02-07T20:56:08.000Z</time>
      </trkpt>
      <trkpt lat="43.6866" lon="1.12489">
        <ele>228.39999389648</ele>
        <time>2015-02-07T20:56:14.000Z</time>
      </trkpt>
      <trkpt lat="43.6866" lon="1.12492">
        <ele>228.39999389648</ele>
        <time>2015-02-07T20:56:15.000Z</time>
      </trkpt>
      <trkpt lat="43.68661" lon="1.12502">
        <ele>228.19999694824</ele>
        <time>2015-02-07T20:56:18.000Z</time>
      </trkpt>
      <trkpt lat="43.68664" lon="1.12517">
        <ele>228.19999694824</ele>
        <time>2015-02-07T20:56:23.000Z</time>
      </trkpt>
      <trkpt lat="43.68663" lon="1.12524">
        <ele>228</ele>
        <time>2015-02-07T20:56:25.000Z</time>
      </trkpt>
      <trkpt lat="43.68665" lon="1.12533">
        <ele>228</ele>
        <time>2015-02-07T20:56:28.000Z</time>
      </trkpt>
      <trkpt lat="43.68666" lon="1.12539">
        <ele>228</ele>
        <time>2015-02-07T20:56:30.000Z</time>
      </trkpt>
      <trkpt lat="43.68667" lon="1.12548">
        <ele>227.80000305176</ele>
        <time>2015-02-07T20:56:33.000Z</time>
      </trkpt>
      <trkpt lat="43.68666" lon="1.12564">
        <ele>227.80000305176</ele>
        <time>2015-02-07T20:56:38.000Z</time>
      </trkpt>
      <trkpt lat="43.68663" lon="1.12584">
        <ele>227.60000610352</ele>
        <time>2015-02-07T20:56:44.000Z</time>
      </trkpt>
      <trkpt lat="43.68667" lon="1.12603">
        <ele>227.60000610352</ele>
        <time>2015-02-07T20:56:50.000Z</time>
      </trkpt>
      <trkpt lat="43.68669" lon="1.12605">
        <ele>227.60000610352</ele>
        <time>2015-02-07T20:56:51.000Z</time>
      </trkpt>
      <trkpt lat="43.68674" lon="1.12604">
        <ele>227.39999389648</ele>
        <time>2015-02-07T20:56:53.000Z</time>
      </trkpt>
      <trkpt lat="43.68679" lon="1.12605">
        <ele>227.39999389648</ele>
        <time>2015-02-07T20:56:55.000Z</time>
      </trkpt>
      <trkpt lat="43.68685" lon="1.12605">
        <ele>227.39999389648</ele>
        <time>2015-02-07T20:56:58.000Z</time>
      </trkpt>
      <trkpt lat="43.68694" lon="1.12607">
        <ele>227.19999694824</ele>
        <time>2015-02-07T20:57:02.000Z</time>
      </trkpt>
      <trkpt lat="43.68698" lon="1.12604">
        <ele>227.19999694824</ele>
        <time>2015-02-07T20:57:04.000Z</time>
      </trkpt>
      <trkpt lat="43.687" lon="1.126">
        <ele>227.19999694824</ele>
        <time>2015-02-07T20:57:06.000Z</time>
      </trkpt>
      <trkpt lat="43.68705" lon="1.12597">
        <ele>227</ele>
        <time>2015-02-07T20:57:09.000Z</time>
      </trkpt>
      <trkpt lat="43.68709" lon="1.12596">
        <ele>226.80000305176</ele>
        <time>2015-02-07T20:57:11.000Z</time>
      </trkpt>
      <trkpt lat="43.68716" lon="1.12594">
        <ele>226.60000610352</ele>
        <time>2015-02-07T20:57:16.000Z</time>
      </trkpt>
      <trkpt lat="43.68721" lon="1.12598">
        <ele>226.39999389648</ele>
        <time>2015-02-07T20:57:20.000Z</time>
      </trkpt>
      <trkpt lat="43.68727" lon="1.12604">
        <ele>226.19999694824</ele>
        <time>2015-02-07T20:57:24.000Z</time>
      </trkpt>
      <trkpt lat="43.68728" lon="1.12606">
        <ele>226.19999694824</ele>
        <time>2015-02-07T20:57:25.000Z</time>
      </trkpt>
      <trkpt lat="43.68735" lon="1.1262">
        <ele>226</ele>
        <time>2015-02-07T20:57:30.000Z</time>
      </trkpt>
      <trkpt lat="43.6874" lon="1.12622">
        <ele>225.80000305176</ele>
        <time>2015-02-07T20:57:33.000Z</time>
      </trkpt>
      <trkpt lat="43.68743" lon="1.12623">
        <ele>225.60000610352</ele>
        <time>2015-02-07T20:57:34.000Z</time>
      </trkpt>
      <trkpt lat="43.68746" lon="1.12635">
        <ele>225.39999389648</ele>
        <time>2015-02-07T20:57:38.000Z</time>
      </trkpt>
      <trkpt lat="43.68747" lon="1.12642">
        <ele>225.19999694824</ele>
        <time>2015-02-07T20:57:41.000Z</time>
      </trkpt>
      <trkpt lat="43.68751" lon="1.12653">
        <ele>224.80000305176</ele>
        <time>2015-02-07T20:57:46.000Z</time>
      </trkpt>
      <trkpt lat="43.68756" lon="1.12665">
        <ele>224.60000610352</ele>
        <time>2015-02-07T20:57:50.000Z</time>
      </trkpt>
      <trkpt lat="43.68761" lon="1.12681">
        <ele>224.19999694824</ele>
        <time>2015-02-07T20:57:55.000Z</time>
      </trkpt>
      <trkpt lat="43.68764" lon="1.12694">
        <ele>223.80000305176</ele>
        <time>2015-02-07T20:57:59.000Z</time>
      </trkpt>
      <trkpt lat="43.6877" lon="1.12706">
        <ele>223.60000610352</ele>
        <time>2015-02-07T20:58:03.000Z</time>
      </trkpt>
      <trkpt lat="43.68771" lon="1.12713">
        <ele>223.39999389648</ele>
        <time>2015-02-07T20:58:05.000Z</time>
      </trkpt>
      <trkpt lat="43.68775" lon="1.12724">
        <ele>223</ele>
        <time>2015-02-07T20:58:09.000Z</time>
      </trkpt>
      <trkpt lat="43.6878" lon="1.12735">
        <ele>222.80000305176</ele>
        <time>2015-02-07T20:58:13.000Z</time>
      </trkpt>
      <trkpt lat="43.68783" lon="1.12739">
        <ele>222.60000610352</ele>
        <time>2015-02-07T20:58:16.000Z</time>
      </trkpt>
      <trkpt lat="43.68785" lon="1.1274">
        <ele>222.60000610352</ele>
        <time>2015-02-07T20:58:17.000Z</time>
      </trkpt>
      <trkpt lat="43.68788" lon="1.1274">
        <ele>222.39999389648</ele>
        <time>2015-02-07T20:58:20.000Z</time>
      </trkpt>
      <trkpt lat="43.68791" lon="1.1274">
        <ele>222.19999694824</ele>
        <time>2015-02-07T20:58:23.000Z</time>
      </trkpt>
      <trkpt lat="43.68794" lon="1.12739">
        <ele>222</ele>
        <time>2015-02-07T20:58:25.000Z</time>
      </trkpt>
      <trkpt lat="43.68797" lon="1.12738">
        <ele>221.80000305176</ele>
        <time>2015-02-07T20:58:27.000Z</time>
      </trkpt>
      <trkpt lat="43.68799" lon="1.12737">
        <ele>221.80000305176</ele>
        <time>2015-02-07T20:58:29.000Z</time>
      </trkpt>
      <trkpt lat="43.68803" lon="1.12734">
        <ele>221.39999389648</ele>
        <time>2015-02-07T20:58:34.000Z</time>
      </trkpt>
      <trkpt lat="43.68803" lon="1.12734">
        <ele>221.39999389648</ele>
        <time>2015-02-07T20:58:35.000Z</time>
      </trkpt>
      <trkpt lat="43.68807" lon="1.12732">
        <ele>221.19999694824</ele>
        <time>2015-02-07T20:58:39.000Z</time>
      </trkpt>
      <trkpt lat="43.68809" lon="1.12732">
        <ele>221.19999694824</ele>
        <time>2015-02-07T20:58:41.000Z</time>
      </trkpt>
      <trkpt lat="43.68814" lon="1.1273">
        <ele>221</ele>
        <time>2015-02-07T20:58:46.000Z</time>
      </trkpt>
      <trkpt lat="43.68815" lon="1.1273">
        <ele>220.80000305176</ele>
        <time>2015-02-07T20:58:47.000Z</time>
      </trkpt>
      <trkpt lat="43.68818" lon="1.12729">
        <ele>220.80000305176</ele>
        <time>2015-02-07T20:58:50.000Z</time>
      </trkpt>
      <trkpt lat="43.6882" lon="1.12729">
        <ele>220.60000610352</ele>
        <time>2015-02-07T20:58:53.000Z</time>
      </trkpt>
      <trkpt lat="43.68822" lon="1.12728">
        <ele>220.60000610352</ele>
        <time>2015-02-07T20:58:54.000Z</time>
      </trkpt>
      <trkpt lat="43.68826" lon="1.12728">
        <ele>220.39999389648</ele>
        <time>2015-02-07T20:58:58.000Z</time>
      </trkpt>
      <trkpt lat="43.68827" lon="1.12729">
        <ele>220.39999389648</ele>
        <time>2015-02-07T20:58:59.000Z</time>
      </trkpt>
      <trkpt lat="43.68832" lon="1.12733">
        <ele>220.19999694824</ele>
        <time>2015-02-07T20:59:03.000Z</time>
      </trkpt>
      <trkpt lat="43.68835" lon="1.12739">
        <ele>220</ele>
        <time>2015-02-07T20:59:07.000Z</time>
      </trkpt>
      <trkpt lat="43.68843" lon="1.12745">
        <ele>219.80000305176</ele>
        <time>2015-02-07T20:59:12.000Z</time>
      </trkpt>
      <trkpt lat="43.68844" lon="1.12753">
        <ele>219.60000610352</ele>
        <time>2015-02-07T20:59:15.000Z</time>
      </trkpt>
      <trkpt lat="43.68844" lon="1.12756">
        <ele>219.60000610352</ele>
        <time>2015-02-07T20:59:16.000Z</time>
      </trkpt>
      <trkpt lat="43.68846" lon="1.12771">
        <ele>219.39999389648</ele>
        <time>2015-02-07T20:59:21.000Z</time>
      </trkpt>
      <trkpt lat="43.68848" lon="1.12773">
        <ele>219.19999694824</ele>
        <time>2015-02-07T20:59:22.000Z</time>
      </trkpt>
      <trkpt lat="43.68854" lon="1.12778">
        <ele>219</ele>
        <time>2015-02-07T20:59:25.000Z</time>
      </trkpt>
      <trkpt lat="43.68858" lon="1.1278">
        <ele>219</ele>
        <time>2015-02-07T20:59:27.000Z</time>
      </trkpt>
      <trkpt lat="43.68859" lon="1.12783">
        <ele>219</ele>
        <time>2015-02-07T20:59:28.000Z</time>
      </trkpt>
      <trkpt lat="43.68864" lon="1.12788">
        <ele>218.80000305176</ele>
        <time>2015-02-07T20:59:30.000Z</time>
      </trkpt>
      <trkpt lat="43.68868" lon="1.12794">
        <ele>218.60000610352</ele>
        <time>2015-02-07T20:59:33.000Z</time>
      </trkpt>
      <trkpt lat="43.6887" lon="1.12796">
        <ele>218.60000610352</ele>
        <time>2015-02-07T20:59:34.000Z</time>
      </trkpt>
      <trkpt lat="43.68879" lon="1.12802">
        <ele>218.39999389648</ele>
        <time>2015-02-07T20:59:38.000Z</time>
      </trkpt>
      <trkpt lat="43.68889" lon="1.12807">
        <ele>218.39999389648</ele>
        <time>2015-02-07T20:59:43.000Z</time>
      </trkpt>
      <trkpt lat="43.68895" lon="1.12811">
        <ele>218.19999694824</ele>
        <time>2015-02-07T20:59:46.000Z</time>
      </trkpt>
      <trkpt lat="43.68897" lon="1.12813">
        <ele>218.19999694824</ele>
        <time>2015-02-07T20:59:47.000Z</time>
      </trkpt>
      <trkpt lat="43.68902" lon="1.12817">
        <ele>218.19999694824</ele>
        <time>2015-02-07T20:59:49.000Z</time>
      </trkpt>
      <trkpt lat="43.68903" lon="1.12819">
        <ele>218.19999694824</ele>
        <time>2015-02-07T20:59:50.000Z</time>
      </trkpt>
      <trkpt lat="43.68904" lon="1.12822">
        <ele>218</ele>
        <time>2015-02-07T20:59:51.000Z</time>
      </trkpt>
      <trkpt lat="43.68912" lon="1.12831">
        <ele>218</ele>
        <time>2015-02-07T20:59:55.000Z</time>
      </trkpt>
      <trkpt lat="43.68918" lon="1.12842">
        <ele>217.80000305176</ele>
        <time>2015-02-07T20:59:59.000Z</time>
      </trkpt>
      <trkpt lat="43.68919" lon="1.12846">
        <ele>217.80000305176</ele>
        <time>2015-02-07T21:00:00.000Z</time>
      </trkpt>
      <trkpt lat="43.68927" lon="1.1286">
        <ele>217.60000610352</ele>
        <time>2015-02-07T21:00:05.000Z</time>
      </trkpt>
      <trkpt lat="43.68931" lon="1.12868">
        <ele>217.39999389648</ele>
        <time>2015-02-07T21:00:08.000Z</time>
      </trkpt>
      <trkpt lat="43.68931" lon="1.12872">
        <ele>217.39999389648</ele>
        <time>2015-02-07T21:00:09.000Z</time>
      </trkpt>
      <trkpt lat="43.6893" lon="1.12881">
        <ele>217.19999694824</ele>
        <time>2015-02-07T21:00:12.000Z</time>
      </trkpt>
      <trkpt lat="43.68929" lon="1.12887">
        <ele>217</ele>
        <time>2015-02-07T21:00:14.000Z</time>
      </trkpt>
      <trkpt lat="43.68931" lon="1.12896">
        <ele>216.80000305176</ele>
        <time>2015-02-07T21:00:18.000Z</time>
      </trkpt>
      <trkpt lat="43.68933" lon="1.12904">
        <ele>216.60000610352</ele>
        <time>2015-02-07T21:00:21.000Z</time>
      </trkpt>
      <trkpt lat="43.68934" lon="1.12906">
        <ele>216.60000610352</ele>
        <time>2015-02-07T21:00:22.000Z</time>
      </trkpt>
      <trkpt lat="43.68939" lon="1.12918">
        <ele>216.19999694824</ele>
        <time>2015-02-07T21:00:27.000Z</time>
      </trkpt>
      <trkpt lat="43.68941" lon="1.12929">
        <ele>216</ele>
        <time>2015-02-07T21:00:30.000Z</time>
      </trkpt>
      <trkpt lat="43.68944" lon="1.12934">
        <ele>215.80000305176</ele>
        <time>2015-02-07T21:00:32.000Z</time>
      </trkpt>
      <trkpt lat="43.68949" lon="1.12936">
        <ele>215.80000305176</ele>
        <time>2015-02-07T21:00:34.000Z</time>
      </trkpt>
      <trkpt lat="43.68953" lon="1.12938">
        <ele>215.60000610352</ele>
        <time>2015-02-07T21:00:36.000Z</time>
      </trkpt>
      <trkpt lat="43.68956" lon="1.12939">
        <ele>215.39999389648</ele>
        <time>2015-02-07T21:00:39.000Z</time>
      </trkpt>
      <trkpt lat="43.6896" lon="1.12945">
        <ele>215.19999694824</ele>
        <time>2015-02-07T21:00:42.000Z</time>
      </trkpt>
      <trkpt lat="43.68967" lon="1.12958">
        <ele>215</ele>
        <time>2015-02-07T21:00:48.000Z</time>
      </trkpt>
      <trkpt lat="43.68979" lon="1.12967">
        <ele>214.80000305176</ele>
        <time>2015-02-07T21:00:53.000Z</time>
      </trkpt>
      <trkpt lat="43.68992" lon="1.12969">
        <ele>214.60000610352</ele>
        <time>2015-02-07T21:00:58.000Z</time>
      </trkpt>
      <trkpt lat="43.69002" lon="1.12973">
        <ele>214.39999389648</ele>
        <time>2015-02-07T21:01:02.000Z</time>
      </trkpt>
      <trkpt lat="43.69016" lon="1.12976">
        <ele>214</ele>
        <time>2015-02-07T21:01:07.000Z</time>
      </trkpt>
      <trkpt lat="43.69019" lon="1.12975">
        <ele>214</ele>
        <time>2015-02-07T21:01:08.000Z</time>
      </trkpt>
      <trkpt lat="43.69024" lon="1.12971">
        <ele>213.80000305176</ele>
        <time>2015-02-07T21:01:11.000Z</time>
      </trkpt>
      <trkpt lat="43.69026" lon="1.12974">
        <ele>213.80000305176</ele>
        <time>2015-02-07T21:01:13.000Z</time>
      </trkpt>
      <trkpt lat="43.69028" lon="1.12975">
        <ele>213.60000610352</ele>
        <time>2015-02-07T21:01:14.000Z</time>
      </trkpt>
      <trkpt lat="43.69033" lon="1.12975">
        <ele>213.60000610352</ele>
        <time>2015-02-07T21:01:17.000Z</time>
      </trkpt>
      <trkpt lat="43.69034" lon="1.12974">
        <ele>213.39999389648</ele>
        <time>2015-02-07T21:01:18.000Z</time>
      </trkpt>
      <trkpt lat="43.69035" lon="1.12972">
        <ele>213.39999389648</ele>
        <time>2015-02-07T21:01:21.000Z</time>
      </trkpt>
      <trkpt lat="43.69036" lon="1.12971">
        <ele>213.19999694824</ele>
        <time>2015-02-07T21:01:22.000Z</time>
      </trkpt>
      <trkpt lat="43.69039" lon="1.1297">
        <ele>213.19999694824</ele>
        <time>2015-02-07T21:01:25.000Z</time>
      </trkpt>
      <trkpt lat="43.69042" lon="1.12972">
        <ele>213</ele>
        <time>2015-02-07T21:01:26.000Z</time>
      </trkpt>
      <trkpt lat="43.6905" lon="1.12979">
        <ele>212.80000305176</ele>
        <time>2015-02-07T21:01:30.000Z</time>
      </trkpt>
      <trkpt lat="43.69051" lon="1.1298">
        <ele>212.80000305176</ele>
        <time>2015-02-07T21:01:31.000Z</time>
      </trkpt>
      <trkpt lat="43.69059" lon="1.12986">
        <ele>212.39999389648</ele>
        <time>2015-02-07T21:01:35.000Z</time>
      </trkpt>
      <trkpt lat="43.69069" lon="1.12988">
        <ele>212.19999694824</ele>
        <time>2015-02-07T21:01:40.000Z</time>
      </trkpt>
      <trkpt lat="43.69078" lon="1.12992">
        <ele>211.80000305176</ele>
        <time>2015-02-07T21:01:44.000Z</time>
      </trkpt>
      <trkpt lat="43.69081" lon="1.12994">
        <ele>211.80000305176</ele>
        <time>2015-02-07T21:01:46.000Z</time>
      </trkpt>
      <trkpt lat="43.69091" lon="1.12994">
        <ele>211.60000610352</ele>
        <time>2015-02-07T21:01:50.000Z</time>
      </trkpt>
      <trkpt lat="43.69092" lon="1.12996">
        <ele>211.60000610352</ele>
        <time>2015-02-07T21:01:51.000Z</time>
      </trkpt>
      <trkpt lat="43.69098" lon="1.12995">
        <ele>211.39999389648</ele>
        <time>2015-02-07T21:01:53.000Z</time>
      </trkpt>
      <trkpt lat="43.69105" lon="1.12996">
        <ele>211.39999389648</ele>
        <time>2015-02-07T21:01:57.000Z</time>
      </trkpt>
      <trkpt lat="43.69115" lon="1.12991">
        <ele>211.19999694824</ele>
        <time>2015-02-07T21:02:02.000Z</time>
      </trkpt>
      <trkpt lat="43.69117" lon="1.1299">
        <ele>211</ele>
        <time>2015-02-07T21:02:03.000Z</time>
      </trkpt>
      <trkpt lat="43.69125" lon="1.12989">
        <ele>211</ele>
        <time>2015-02-07T21:02:07.000Z</time>
      </trkpt>
      <trkpt lat="43.69126" lon="1.12991">
        <ele>210.80000305176</ele>
        <time>2015-02-07T21:02:08.000Z</time>
      </trkpt>
      <trkpt lat="43.69126" lon="1.12999">
        <ele>210.80000305176</ele>
        <time>2015-02-07T21:02:11.000Z</time>
      </trkpt>
      <trkpt lat="43.6912" lon="1.13013">
        <ele>210.39999389648</ele>
        <time>2015-02-07T21:02:17.000Z</time>
      </trkpt>
      <trkpt lat="43.69112" lon="1.13024">
        <ele>210</ele>
        <time>2015-02-07T21:02:23.000Z</time>
      </trkpt>
      <trkpt lat="43.6911" lon="1.13033">
        <ele>209.80000305176</ele>
        <time>2015-02-07T21:02:26.000Z</time>
      </trkpt>
      <trkpt lat="43.69112" lon="1.13038">
        <ele>209.80000305176</ele>
        <time>2015-02-07T21:02:28.000Z</time>
      </trkpt>
      <trkpt lat="43.69118" lon="1.13045">
        <ele>209.39999389648</ele>
        <time>2015-02-07T21:02:33.000Z</time>
      </trkpt>
      <trkpt lat="43.69119" lon="1.13046">
        <ele>209.39999389648</ele>
        <time>2015-02-07T21:02:34.000Z</time>
      </trkpt>
      <trkpt lat="43.69124" lon="1.13054">
        <ele>209</ele>
        <time>2015-02-07T21:02:39.000Z</time>
      </trkpt>
      <trkpt lat="43.6913" lon="1.13059">
        <ele>208.80000305176</ele>
        <time>2015-02-07T21:02:43.000Z</time>
      </trkpt>
      <trkpt lat="43.69136" lon="1.13066">
        <ele>208.39999389648</ele>
        <time>2015-02-07T21:02:47.000Z</time>
      </trkpt>
      <trkpt lat="43.69143" lon="1.13073">
        <ele>208.19999694824</ele>
        <time>2015-02-07T21:02:52.000Z</time>
      </trkpt>
      <trkpt lat="43.69148" lon="1.13075">
        <ele>208</ele>
        <time>2015-02-07T21:02:54.000Z</time>
      </trkpt>
      <trkpt lat="43.6915" lon="1.13076">
        <ele>208</ele>
        <time>2015-02-07T21:02:55.000Z</time>
      </trkpt>
      <trkpt lat="43.69154" lon="1.13087">
        <ele>207.60000610352</ele>
        <time>2015-02-07T21:03:00.000Z</time>
      </trkpt>
      <trkpt lat="43.69153" lon="1.1309">
        <ele>207.60000610352</ele>
        <time>2015-02-07T21:03:01.000Z</time>
      </trkpt>
      <trkpt lat="43.69151" lon="1.13097">
        <ele>207.19999694824</ele>
        <time>2015-02-07T21:03:06.000Z</time>
      </trkpt>
      <trkpt lat="43.69148" lon="1.13105">
        <ele>207</ele>
        <time>2015-02-07T21:03:10.000Z</time>
      </trkpt>
      <trkpt lat="43.69145" lon="1.13112">
        <ele>206.60000610352</ele>
        <time>2015-02-07T21:03:16.000Z</time>
      </trkpt>
      <trkpt lat="43.69142" lon="1.13118">
        <ele>206.39999389648</ele>
        <time>2015-02-07T21:03:21.000Z</time>
      </trkpt>
      <trkpt lat="43.69142" lon="1.13118">
        <ele>206.39999389648</ele>
        <time>2015-02-07T21:03:22.000Z</time>
      </trkpt>
      <trkpt lat="43.69141" lon="1.13121">
        <ele>206.19999694824</ele>
        <time>2015-02-07T21:03:25.000Z</time>
      </trkpt>
      <trkpt lat="43.6914" lon="1.13125">
        <ele>206</ele>
        <time>2015-02-07T21:03:28.000Z</time>
      </trkpt>
      <trkpt lat="43.6914" lon="1.13127">
        <ele>206</ele>
        <time>2015-02-07T21:03:30.000Z</time>
      </trkpt>
      <trkpt lat="43.69138" lon="1.13137">
        <ele>205.60000610352</ele>
        <time>2015-02-07T21:03:37.000Z</time>
      </trkpt>
      <trkpt lat="43.69138" lon="1.13139">
        <ele>205.60000610352</ele>
        <time>2015-02-07T21:03:39.000Z</time>
      </trkpt>
      <trkpt lat="43.69137" lon="1.13145">
        <ele>205.60000610352</ele>
        <time>2015-02-07T21:03:42.000Z</time>
      </trkpt>
      <trkpt lat="43.69137" lon="1.13156">
        <ele>205.39999389648</ele>
        <time>2015-02-07T21:03:48.000Z</time>
      </trkpt>
      <trkpt lat="43.69137" lon="1.13165">
        <ele>205.39999389648</ele>
        <time>2015-02-07T21:03:53.000Z</time>
      </trkpt>
      <trkpt lat="43.69135" lon="1.13174">
        <ele>205.19999694824</ele>
        <time>2015-02-07T21:03:59.000Z</time>
      </trkpt>
      <trkpt lat="43.69134" lon="1.13176">
        <ele>205.19999694824</ele>
        <time>2015-02-07T21:04:00.000Z</time>
      </trkpt>
      <trkpt lat="43.69132" lon="1.13181">
        <ele>205.19999694824</ele>
        <time>2015-02-07T21:04:03.000Z</time>
      </trkpt>
      <trkpt lat="43.69131" lon="1.13185">
        <ele>205.19999694824</ele>
        <time>2015-02-07T21:04:05.000Z</time>
      </trkpt>
      <trkpt lat="43.69127" lon="1.13193">
        <ele>205</ele>
        <time>2015-02-07T21:04:10.000Z</time>
      </trkpt>
      <trkpt lat="43.69121" lon="1.13204">
        <ele>205</ele>
        <time>2015-02-07T21:04:17.000Z</time>
      </trkpt>
      <trkpt lat="43.69117" lon="1.13211">
        <ele>205</ele>
        <time>2015-02-07T21:04:22.000Z</time>
      </trkpt>
      <trkpt lat="43.69113" lon="1.13221">
        <ele>205.19999694824</ele>
        <time>2015-02-07T21:04:28.000Z</time>
      </trkpt>
      <trkpt lat="43.69112" lon="1.13223">
        <ele>205.19999694824</ele>
        <time>2015-02-07T21:04:29.000Z</time>
      </trkpt>
      <trkpt lat="43.69109" lon="1.13229">
        <ele>205.19999694824</ele>
        <time>2015-02-07T21:04:33.000Z</time>
      </trkpt>
      <trkpt lat="43.69108" lon="1.13233">
        <ele>205.39999389648</ele>
        <time>2015-02-07T21:04:36.000Z</time>
      </trkpt>
      <trkpt lat="43.69107" lon="1.13237">
        <ele>205.39999389648</ele>
        <time>2015-02-07T21:04:38.000Z</time>
      </trkpt>
      <trkpt lat="43.69106" lon="1.13241">
        <ele>205.60000610352</ele>
        <time>2015-02-07T21:04:40.000Z</time>
      </trkpt>
      <trkpt lat="43.69102" lon="1.13251">
        <ele>205.80000305176</ele>
        <time>2015-02-07T21:04:45.000Z</time>
      </trkpt>
      <trkpt lat="43.69098" lon="1.13263">
        <ele>206.19999694824</ele>
        <time>2015-02-07T21:04:52.000Z</time>
      </trkpt>
      <trkpt lat="43.69093" lon="1.13271">
        <ele>206.60000610352</ele>
        <time>2015-02-07T21:04:58.000Z</time>
      </trkpt>
      <trkpt lat="43.6909" lon="1.13276">
        <ele>207</ele>
        <time>2015-02-07T21:05:02.000Z</time>
      </trkpt>
      <trkpt lat="43.6909" lon="1.13278">
        <ele>207</ele>
        <time>2015-02-07T21:05:03.000Z</time>
      </trkpt>
      <trkpt lat="43.69087" lon="1.13284">
        <ele>207.39999389648</ele>
        <time>2015-02-07T21:05:07.000Z</time>
      </trkpt>
      <trkpt lat="43.69084" lon="1.13287">
        <ele>207.60000610352</ele>
        <time>2015-02-07T21:05:09.000Z</time>
      </trkpt>
      <trkpt lat="43.69079" lon="1.13297">
        <ele>208.19999694824</ele>
        <time>2015-02-07T21:05:14.000Z</time>
      </trkpt>
      <trkpt lat="43.69076" lon="1.13304">
        <ele>209</ele>
        <time>2015-02-07T21:05:19.000Z</time>
      </trkpt>
      <trkpt lat="43.69076" lon="1.13306">
        <ele>209.19999694824</ele>
        <time>2015-02-07T21:05:20.000Z</time>
      </trkpt>
      <trkpt lat="43.69072" lon="1.13312">
        <ele>210</ele>
        <time>2015-02-07T21:05:24.000Z</time>
      </trkpt>
      <trkpt lat="43.69069" lon="1.13319">
        <ele>210.80000305176</ele>
        <time>2015-02-07T21:05:29.000Z</time>
      </trkpt>
      <trkpt lat="43.69065" lon="1.13326">
        <ele>211.60000610352</ele>
        <time>2015-02-07T21:05:33.000Z</time>
      </trkpt>
      <trkpt lat="43.69064" lon="1.13329">
        <ele>211.80000305176</ele>
        <time>2015-02-07T21:05:35.000Z</time>
      </trkpt>
      <trkpt lat="43.69058" lon="1.13343">
        <ele>213.19999694824</ele>
        <time>2015-02-07T21:05:43.000Z</time>
      </trkpt>
      <trkpt lat="43.69056" lon="1.13349">
        <ele>213.80000305176</ele>
        <time>2015-02-07T21:05:47.000Z</time>
      </trkpt>
      <trkpt lat="43.69055" lon="1.13352">
        <ele>214.19999694824</ele>
        <time>2015-02-07T21:05:49.000Z</time>
      </trkpt>
      <trkpt lat="43.69053" lon="1.13357">
        <ele>214.80000305176</ele>
        <time>2015-02-07T21:05:53.000Z</time>
      </trkpt>
      <trkpt lat="43.69052" lon="1.1336">
        <ele>215.19999694824</ele>
        <time>2015-02-07T21:05:55.000Z</time>
      </trkpt>
      <trkpt lat="43.6905" lon="1.13363">
        <ele>215.60000610352</ele>
        <time>2015-02-07T21:05:57.000Z</time>
      </trkpt>
      <trkpt lat="43.69049" lon="1.13367">
        <ele>216</ele>
        <time>2015-02-07T21:06:00.000Z</time>
      </trkpt>
      <trkpt lat="43.69046" lon="1.13375">
        <ele>216.80000305176</ele>
        <time>2015-02-07T21:06:05.000Z</time>
      </trkpt>
      <trkpt lat="43.69043" lon="1.13386">
        <ele>218</ele>
        <time>2015-02-07T21:06:12.000Z</time>
      </trkpt>
      <trkpt lat="43.6904" lon="1.13398">
        <ele>219.19999694824</ele>
        <time>2015-02-07T21:06:19.000Z</time>
      </trkpt>
      <trkpt lat="43.6904" lon="1.134">
        <ele>219.39999389648</ele>
        <time>2015-02-07T21:06:20.000Z</time>
      </trkpt>
      <trkpt lat="43.69036" lon="1.13409">
        <ele>220.39999389648</ele>
        <time>2015-02-07T21:06:26.000Z</time>
      </trkpt>
      <trkpt lat="43.69032" lon="1.1342">
        <ele>221.19999694824</ele>
        <time>2015-02-07T21:06:33.000Z</time>
      </trkpt>
      <trkpt lat="43.69029" lon="1.13431">
        <ele>222</ele>
        <time>2015-02-07T21:06:40.000Z</time>
      </trkpt>
      <trkpt lat="43.69026" lon="1.13439">
        <ele>222.60000610352</ele>
        <time>2015-02-07T21:06:44.000Z</time>
      </trkpt>
      <trkpt lat="43.69021" lon="1.13454">
        <ele>223.60000610352</ele>
        <time>2015-02-07T21:06:52.000Z</time>
      </trkpt>
      <trkpt lat="43.69019" lon="1.13463">
        <ele>224.39999389648</ele>
        <time>2015-02-07T21:06:58.000Z</time>
      </trkpt>
      <trkpt lat="43.69016" lon="1.13472">
        <ele>225.19999694824</ele>
        <time>2015-02-07T21:07:03.000Z</time>
      </trkpt>
      <trkpt lat="43.69015" lon="1.13474">
        <ele>225.39999389648</ele>
        <time>2015-02-07T21:07:04.000Z</time>
      </trkpt>
      <trkpt lat="43.69011" lon="1.13484">
        <ele>226.39999389648</ele>
        <time>2015-02-07T21:07:11.000Z</time>
      </trkpt>
      <trkpt lat="43.69009" lon="1.13487">
        <ele>226.60000610352</ele>
        <time>2015-02-07T21:07:12.000Z</time>
      </trkpt>
      <trkpt lat="43.69008" lon="1.1349">
        <ele>227</ele>
        <time>2015-02-07T21:07:14.000Z</time>
      </trkpt>
      <trkpt lat="43.69007" lon="1.13493">
        <ele>227.39999389648</ele>
        <time>2015-02-07T21:07:16.000Z</time>
      </trkpt>
      <trkpt lat="43.69005" lon="1.13503">
        <ele>228.19999694824</ele>
        <time>2015-02-07T21:07:21.000Z</time>
      </trkpt>
      <trkpt lat="43.69003" lon="1.13506">
        <ele>228.60000610352</ele>
        <time>2015-02-07T21:07:23.000Z</time>
      </trkpt>
      <trkpt lat="43.69001" lon="1.13512">
        <ele>229.19999694824</ele>
        <time>2015-02-07T21:07:27.000Z</time>
      </trkpt>
      <trkpt lat="43.68996" lon="1.13522">
        <ele>230.39999389648</ele>
        <time>2015-02-07T21:07:33.000Z</time>
      </trkpt>
      <trkpt lat="43.68991" lon="1.13535">
        <ele>232.19999694824</ele>
        <time>2015-02-07T21:07:42.000Z</time>
      </trkpt>
      <trkpt lat="43.68987" lon="1.13544">
        <ele>233.60000610352</ele>
        <time>2015-02-07T21:07:49.000Z</time>
      </trkpt>
      <trkpt lat="43.68984" lon="1.13554">
        <ele>235</ele>
        <time>2015-02-07T21:07:56.000Z</time>
      </trkpt>
      <trkpt lat="43.68984" lon="1.13558">
        <ele>235.39999389648</ele>
        <time>2015-02-07T21:07:58.000Z</time>
      </trkpt>
      <trkpt lat="43.68983" lon="1.13563">
        <ele>235.80000305176</ele>
        <time>2015-02-07T21:08:01.000Z</time>
      </trkpt>
      <trkpt lat="43.68982" lon="1.13564">
        <ele>236</ele>
        <time>2015-02-07T21:08:02.000Z</time>
      </trkpt>
      <trkpt lat="43.68981" lon="1.13567">
        <ele>236.39999389648</ele>
        <time>2015-02-07T21:08:04.000Z</time>
      </trkpt>
      <trkpt lat="43.68979" lon="1.13571">
        <ele>237</ele>
        <time>2015-02-07T21:08:08.000Z</time>
      </trkpt>
      <trkpt lat="43.68975" lon="1.13577">
        <ele>238</ele>
        <time>2015-02-07T21:08:14.000Z</time>
      </trkpt>
      <trkpt lat="43.6897" lon="1.13585">
        <ele>239.19999694824</ele>
        <time>2015-02-07T21:08:20.000Z</time>
      </trkpt>
      <trkpt lat="43.68964" lon="1.13594">
        <ele>240.80000305176</ele>
        <time>2015-02-07T21:08:28.000Z</time>
      </trkpt>
      <trkpt lat="43.68958" lon="1.13602">
        <ele>242.39999389648</ele>
        <time>2015-02-07T21:08:35.000Z</time>
      </trkpt>
      <trkpt lat="43.68952" lon="1.13609">
        <ele>244.19999694824</ele>
        <time>2015-02-07T21:08:43.000Z</time>
      </trkpt>
      <trkpt lat="43.68945" lon="1.13616">
        <ele>245.60000610352</ele>
        <time>2015-02-07T21:08:49.000Z</time>
      </trkpt>
      <trkpt lat="43.68944" lon="1.13618">
        <ele>246</ele>
        <time>2015-02-07T21:08:51.000Z</time>
      </trkpt>
      <trkpt lat="43.68943" lon="1.13622">
        <ele>246.60000610352</ele>
        <time>2015-02-07T21:08:53.000Z</time>
      </trkpt>
      <trkpt lat="43.6894" lon="1.1363">
        <ele>247.80000305176</ele>
        <time>2015-02-07T21:08:58.000Z</time>
      </trkpt>
      <trkpt lat="43.68939" lon="1.13632">
        <ele>248</ele>
        <time>2015-02-07T21:08:59.000Z</time>
      </trkpt>
      <trkpt lat="43.68936" lon="1.13641">
        <ele>249.19999694824</ele>
        <time>2015-02-07T21:09:04.000Z</time>
      </trkpt>
      <trkpt lat="43.68935" lon="1.13643">
        <ele>249.39999389648</ele>
        <time>2015-02-07T21:09:05.000Z</time>
      </trkpt>
      <trkpt lat="43.6893" lon="1.13657">
        <ele>251.19999694824</ele>
        <time>2015-02-07T21:09:12.000Z</time>
      </trkpt>
      <trkpt lat="43.68924" lon="1.13666">
        <ele>252.60000610352</ele>
        <time>2015-02-07T21:09:18.000Z</time>
      </trkpt>
      <trkpt lat="43.68922" lon="1.13668">
        <ele>252.80000305176</ele>
        <time>2015-02-07T21:09:19.000Z</time>
      </trkpt>
      <trkpt lat="43.68917" lon="1.13669">
        <ele>253.19999694824</ele>
        <time>2015-02-07T21:09:21.000Z</time>
      </trkpt>
      <trkpt lat="43.68915" lon="1.1367">
        <ele>253.39999389648</ele>
        <time>2015-02-07T21:09:22.000Z</time>
      </trkpt>
      <trkpt lat="43.68902" lon="1.13678">
        <ele>254.80000305176</ele>
        <time>2015-02-07T21:09:28.000Z</time>
      </trkpt>
      <trkpt lat="43.68884" lon="1.13685">
        <ele>256</ele>
        <time>2015-02-07T21:09:35.000Z</time>
      </trkpt>
      <trkpt lat="43.68866" lon="1.1369">
        <ele>256.79998779297</ele>
        <time>2015-02-07T21:09:42.000Z</time>
      </trkpt>
      <trkpt lat="43.68864" lon="1.13691">
        <ele>256.79998779297</ele>
        <time>2015-02-07T21:09:43.000Z</time>
      </trkpt>
      <trkpt lat="43.68849" lon="1.13696">
        <ele>257.39999389648</ele>
        <time>2015-02-07T21:09:49.000Z</time>
      </trkpt>
      <trkpt lat="43.68837" lon="1.13701">
        <ele>257.60000610352</ele>
        <time>2015-02-07T21:09:54.000Z</time>
      </trkpt>
      <trkpt lat="43.6882" lon="1.13711">
        <ele>257.39999389648</ele>
        <time>2015-02-07T21:10:01.000Z</time>
      </trkpt>
      <trkpt lat="43.68808" lon="1.13723">
        <ele>257.60000610352</ele>
        <time>2015-02-07T21:10:06.000Z</time>
      </trkpt>
      <trkpt lat="43.68801" lon="1.13738">
        <ele>257.60000610352</ele>
        <time>2015-02-07T21:10:11.000Z</time>
      </trkpt>
      <trkpt lat="43.68798" lon="1.1374">
        <ele>257.60000610352</ele>
        <time>2015-02-07T21:10:12.000Z</time>
      </trkpt>
      <trkpt lat="43.68794" lon="1.13748">
        <ele>257.60000610352</ele>
        <time>2015-02-07T21:10:15.000Z</time>
      </trkpt>
      <trkpt lat="43.6879" lon="1.13754">
        <ele>257.60000610352</ele>
        <time>2015-02-07T21:10:17.000Z</time>
      </trkpt>
      <trkpt lat="43.68779" lon="1.13767">
        <ele>257.60000610352</ele>
        <time>2015-02-07T21:10:23.000Z</time>
      </trkpt>
      <trkpt lat="43.68767" lon="1.13781">
        <ele>257.60000610352</ele>
        <time>2015-02-07T21:10:29.000Z</time>
      </trkpt>
      <trkpt lat="43.68756" lon="1.13794">
        <ele>257.60000610352</ele>
        <time>2015-02-07T21:10:35.000Z</time>
      </trkpt>
      <trkpt lat="43.68755" lon="1.13797">
        <ele>257.60000610352</ele>
        <time>2015-02-07T21:10:36.000Z</time>
      </trkpt>
      <trkpt lat="43.68756" lon="1.13805">
        <ele>257.60000610352</ele>
        <time>2015-02-07T21:10:39.000Z</time>
      </trkpt>
      <trkpt lat="43.68756" lon="1.13808">
        <ele>257.60000610352</ele>
        <time>2015-02-07T21:10:40.000Z</time>
      </trkpt>
      <trkpt lat="43.68758" lon="1.13816">
        <ele>257.79998779297</ele>
        <time>2015-02-07T21:10:43.000Z</time>
      </trkpt>
      <trkpt lat="43.68762" lon="1.13819">
        <ele>257.79998779297</ele>
        <time>2015-02-07T21:10:45.000Z</time>
      </trkpt>
      <trkpt lat="43.68772" lon="1.13822">
        <ele>258</ele>
        <time>2015-02-07T21:10:49.000Z</time>
      </trkpt>
      <trkpt lat="43.68775" lon="1.13822">
        <ele>258</ele>
        <time>2015-02-07T21:10:51.000Z</time>
      </trkpt>
      <trkpt lat="43.6879" lon="1.13827">
        <ele>258.79998779297</ele>
        <time>2015-02-07T21:10:57.000Z</time>
      </trkpt>
      <trkpt lat="43.68802" lon="1.13831">
        <ele>259.39999389648</ele>
        <time>2015-02-07T21:11:02.000Z</time>
      </trkpt>
      <trkpt lat="43.68816" lon="1.13839">
        <ele>260.20001220703</ele>
        <time>2015-02-07T21:11:08.000Z</time>
      </trkpt>
      <trkpt lat="43.68831" lon="1.13847">
        <ele>261.20001220703</ele>
        <time>2015-02-07T21:11:14.000Z</time>
      </trkpt>
      <trkpt lat="43.68843" lon="1.13855">
        <ele>262</ele>
        <time>2015-02-07T21:11:19.000Z</time>
      </trkpt>
      <trkpt lat="43.68849" lon="1.13864">
        <ele>262.60000610352</ele>
        <time>2015-02-07T21:11:23.000Z</time>
      </trkpt>
      <trkpt lat="43.68848" lon="1.13868">
        <ele>262.60000610352</ele>
        <time>2015-02-07T21:11:24.000Z</time>
      </trkpt>
      <trkpt lat="43.68843" lon="1.13883">
        <ele>263.20001220703</ele>
        <time>2015-02-07T21:11:29.000Z</time>
      </trkpt>
      <trkpt lat="43.6884" lon="1.13892">
        <ele>263.39999389648</ele>
        <time>2015-02-07T21:11:32.000Z</time>
      </trkpt>
      <trkpt lat="43.68838" lon="1.13902">
        <ele>263.79998779297</ele>
        <time>2015-02-07T21:11:35.000Z</time>
      </trkpt>
      <trkpt lat="43.68832" lon="1.13924">
        <ele>264.39999389648</ele>
        <time>2015-02-07T21:11:42.000Z</time>
      </trkpt>
      <trkpt lat="43.68827" lon="1.13942">
        <ele>264.60000610352</ele>
        <time>2015-02-07T21:11:48.000Z</time>
      </trkpt>
      <trkpt lat="43.68821" lon="1.1396">
        <ele>264.79998779297</ele>
        <time>2015-02-07T21:11:54.000Z</time>
      </trkpt>
      <trkpt lat="43.68817" lon="1.13979">
        <ele>264.79998779297</ele>
        <time>2015-02-07T21:12:00.000Z</time>
      </trkpt>
      <trkpt lat="43.68814" lon="1.13989">
        <ele>264.79998779297</ele>
        <time>2015-02-07T21:12:04.000Z</time>
      </trkpt>
      <trkpt lat="43.68812" lon="1.13992">
        <ele>264.79998779297</ele>
        <time>2015-02-07T21:12:06.000Z</time>
      </trkpt>
      <trkpt lat="43.68807" lon="1.14006">
        <ele>264.60000610352</ele>
        <time>2015-02-07T21:12:12.000Z</time>
      </trkpt>
      <trkpt lat="43.68801" lon="1.14019">
        <ele>264.60000610352</ele>
        <time>2015-02-07T21:12:18.000Z</time>
      </trkpt>
      <trkpt lat="43.68798" lon="1.14026">
        <ele>264.60000610352</ele>
        <time>2015-02-07T21:12:22.000Z</time>
      </trkpt>
      <trkpt lat="43.68797" lon="1.1403">
        <ele>264.39999389648</ele>
        <time>2015-02-07T21:12:24.000Z</time>
      </trkpt>
      <trkpt lat="43.68794" lon="1.14039">
        <ele>264.39999389648</ele>
        <time>2015-02-07T21:12:28.000Z</time>
      </trkpt>
      <trkpt lat="43.68792" lon="1.14043">
        <ele>264.20001220703</ele>
        <time>2015-02-07T21:12:30.000Z</time>
      </trkpt>
      <trkpt lat="43.68791" lon="1.14047">
        <ele>264.20001220703</ele>
        <time>2015-02-07T21:12:32.000Z</time>
      </trkpt>
      <trkpt lat="43.68785" lon="1.14059">
        <ele>264</ele>
        <time>2015-02-07T21:12:37.000Z</time>
      </trkpt>
      <trkpt lat="43.68781" lon="1.14072">
        <ele>263.79998779297</ele>
        <time>2015-02-07T21:12:43.000Z</time>
      </trkpt>
      <trkpt lat="43.68781" lon="1.14074">
        <ele>263.60000610352</ele>
        <time>2015-02-07T21:12:45.000Z</time>
      </trkpt>
      <trkpt lat="43.68776" lon="1.14078">
        <ele>263.60000610352</ele>
        <time>2015-02-07T21:12:48.000Z</time>
      </trkpt>
      <trkpt lat="43.68773" lon="1.1408">
        <ele>263.39999389648</ele>
        <time>2015-02-07T21:12:49.000Z</time>
      </trkpt>
      <trkpt lat="43.68771" lon="1.1408">
        <ele>263.39999389648</ele>
        <time>2015-02-07T21:12:51.000Z</time>
      </trkpt>
      <trkpt lat="43.68769" lon="1.1408">
        <ele>263.20001220703</ele>
        <time>2015-02-07T21:12:53.000Z</time>
      </trkpt>
      <trkpt lat="43.68763" lon="1.14078">
        <ele>263</ele>
        <time>2015-02-07T21:12:57.000Z</time>
      </trkpt>
      <trkpt lat="43.68761" lon="1.14079">
        <ele>263</ele>
        <time>2015-02-07T21:12:58.000Z</time>
      </trkpt>
      <trkpt lat="43.68753" lon="1.1408">
        <ele>262.60000610352</ele>
        <time>2015-02-07T21:13:03.000Z</time>
      </trkpt>
      <trkpt lat="43.68745" lon="1.1408">
        <ele>262.20001220703</ele>
        <time>2015-02-07T21:13:08.000Z</time>
      </trkpt>
      <trkpt lat="43.68742" lon="1.1408">
        <ele>262.20001220703</ele>
        <time>2015-02-07T21:13:09.000Z</time>
      </trkpt>
      <trkpt lat="43.6874" lon="1.14079">
        <ele>262</ele>
        <time>2015-02-07T21:13:10.000Z</time>
      </trkpt>
      <trkpt lat="43.68735" lon="1.14079">
        <ele>261.79998779297</ele>
        <time>2015-02-07T21:13:13.000Z</time>
      </trkpt>
      <trkpt lat="43.68722" lon="1.14084">
        <ele>261.20001220703</ele>
        <time>2015-02-07T21:13:20.000Z</time>
      </trkpt>
      <trkpt lat="43.68713" lon="1.14086">
        <ele>260.79998779297</ele>
        <time>2015-02-07T21:13:25.000Z</time>
      </trkpt>
      <trkpt lat="43.68712" lon="1.14088">
        <ele>260.79998779297</ele>
        <time>2015-02-07T21:13:26.000Z</time>
      </trkpt>
      <trkpt lat="43.68698" lon="1.14104">
        <ele>259.79998779297</ele>
        <time>2015-02-07T21:13:34.000Z</time>
      </trkpt>
      <trkpt lat="43.6869" lon="1.14114">
        <ele>259.39999389648</ele>
        <time>2015-02-07T21:13:39.000Z</time>
      </trkpt>
      <trkpt lat="43.68677" lon="1.14126">
        <ele>258.60000610352</ele>
        <time>2015-02-07T21:13:46.000Z</time>
      </trkpt>
      <trkpt lat="43.68665" lon="1.14137">
        <ele>257.79998779297</ele>
        <time>2015-02-07T21:13:53.000Z</time>
      </trkpt>
      <trkpt lat="43.68655" lon="1.14149">
        <ele>257</ele>
        <time>2015-02-07T21:14:00.000Z</time>
      </trkpt>
      <trkpt lat="43.68645" lon="1.14157">
        <ele>256</ele>
        <time>2015-02-07T21:14:06.000Z</time>
      </trkpt>
      <trkpt lat="43.6863" lon="1.14169">
        <ele>254.80000305176</ele>
        <time>2015-02-07T21:14:15.000Z</time>
      </trkpt>
      <trkpt lat="43.68622" lon="1.14177">
        <ele>253.80000305176</ele>
        <time>2015-02-07T21:14:21.000Z</time>
      </trkpt>
      <trkpt lat="43.68616" lon="1.14182">
        <ele>253.19999694824</ele>
        <time>2015-02-07T21:14:25.000Z</time>
      </trkpt>
      <trkpt lat="43.68607" lon="1.14191">
        <ele>252.19999694824</ele>
        <time>2015-02-07T21:14:32.000Z</time>
      </trkpt>
      <trkpt lat="43.68603" lon="1.14198">
        <ele>251.80000305176</ele>
        <time>2015-02-07T21:14:35.000Z</time>
      </trkpt>
      <trkpt lat="43.68602" lon="1.142">
        <ele>251.60000610352</ele>
        <time>2015-02-07T21:14:36.000Z</time>
      </trkpt>
      <trkpt lat="43.68599" lon="1.14203">
        <ele>251.19999694824</ele>
        <time>2015-02-07T21:14:38.000Z</time>
      </trkpt>
      <trkpt lat="43.68592" lon="1.14209">
        <ele>250.60000610352</ele>
        <time>2015-02-07T21:14:42.000Z</time>
      </trkpt>
      <trkpt lat="43.68586" lon="1.14213">
        <ele>249.80000305176</ele>
        <time>2015-02-07T21:14:47.000Z</time>
      </trkpt>
      <trkpt lat="43.6858" lon="1.14216">
        <ele>249.19999694824</ele>
        <time>2015-02-07T21:14:51.000Z</time>
      </trkpt>
      <trkpt lat="43.68574" lon="1.14218">
        <ele>248.60000610352</ele>
        <time>2015-02-07T21:14:54.000Z</time>
      </trkpt>
      <trkpt lat="43.68572" lon="1.14221">
        <ele>248.39999389648</ele>
        <time>2015-02-07T21:14:56.000Z</time>
      </trkpt>
      <trkpt lat="43.68563" lon="1.14226">
        <ele>247.19999694824</ele>
        <time>2015-02-07T21:15:02.000Z</time>
      </trkpt>
      <trkpt lat="43.68555" lon="1.14232">
        <ele>246</ele>
        <time>2015-02-07T21:15:08.000Z</time>
      </trkpt>
      <trkpt lat="43.68546" lon="1.14236">
        <ele>245</ele>
        <time>2015-02-07T21:15:14.000Z</time>
      </trkpt>
      <trkpt lat="43.68545" lon="1.14237">
        <ele>244.80000305176</ele>
        <time>2015-02-07T21:15:15.000Z</time>
      </trkpt>
      <trkpt lat="43.68536" lon="1.14241">
        <ele>243.80000305176</ele>
        <time>2015-02-07T21:15:20.000Z</time>
      </trkpt>
      <trkpt lat="43.68524" lon="1.14251">
        <ele>242.19999694824</ele>
        <time>2015-02-07T21:15:28.000Z</time>
      </trkpt>
      <trkpt lat="43.68516" lon="1.14256">
        <ele>241.39999389648</ele>
        <time>2015-02-07T21:15:33.000Z</time>
      </trkpt>
      <trkpt lat="43.68507" lon="1.14264">
        <ele>240.39999389648</ele>
        <time>2015-02-07T21:15:38.000Z</time>
      </trkpt>
      <trkpt lat="43.68492" lon="1.14273">
        <ele>238.60000610352</ele>
        <time>2015-02-07T21:15:48.000Z</time>
      </trkpt>
      <trkpt lat="43.68482" lon="1.14276">
        <ele>237.60000610352</ele>
        <time>2015-02-07T21:15:54.000Z</time>
      </trkpt>
      <trkpt lat="43.68472" lon="1.14281">
        <ele>236.39999389648</ele>
        <time>2015-02-07T21:16:00.000Z</time>
      </trkpt>
      <trkpt lat="43.68467" lon="1.14283">
        <ele>235.60000610352</ele>
        <time>2015-02-07T21:16:04.000Z</time>
      </trkpt>
      <trkpt lat="43.68465" lon="1.14284">
        <ele>235.39999389648</ele>
        <time>2015-02-07T21:16:05.000Z</time>
      </trkpt>
      <trkpt lat="43.68455" lon="1.14286">
        <ele>234.19999694824</ele>
        <time>2015-02-07T21:16:11.000Z</time>
      </trkpt>
      <trkpt lat="43.68443" lon="1.14286">
        <ele>233</ele>
        <time>2015-02-07T21:16:17.000Z</time>
      </trkpt>
      <trkpt lat="43.68428" lon="1.14288">
        <ele>231.39999389648</ele>
        <time>2015-02-07T21:16:25.000Z</time>
      </trkpt>
      <trkpt lat="43.68415" lon="1.1429">
        <ele>229.80000305176</ele>
        <time>2015-02-07T21:16:32.000Z</time>
      </trkpt>
      <trkpt lat="43.6841" lon="1.14291">
        <ele>229.39999389648</ele>
        <time>2015-02-07T21:16:34.000Z</time>
      </trkpt>
      <trkpt lat="43.68396" lon="1.14293">
        <ele>228</ele>
        <time>2015-02-07T21:16:41.000Z</time>
      </trkpt>
      <trkpt lat="43.68382" lon="1.14293">
        <ele>226.60000610352</ele>
        <time>2015-02-07T21:16:48.000Z</time>
      </trkpt>
      <trkpt lat="43.68366" lon="1.14293">
        <ele>225</ele>
        <time>2015-02-07T21:16:56.000Z</time>
      </trkpt>
      <trkpt lat="43.68363" lon="1.14293">
        <ele>224.19999694824</ele>
        <time>2015-02-07T21:17:01.000Z</time>
      </trkpt>
      <trkpt lat="43.68353" lon="1.14292">
        <ele>223.19999694824</ele>
        <time>2015-02-07T21:17:06.000Z</time>
      </trkpt>
      <trkpt lat="43.68342" lon="1.14291">
        <ele>222</ele>
        <time>2015-02-07T21:17:12.000Z</time>
      </trkpt>
      <trkpt lat="43.6833" lon="1.1429">
        <ele>220.80000305176</ele>
        <time>2015-02-07T21:17:18.000Z</time>
      </trkpt>
      <trkpt lat="43.6831" lon="1.14289">
        <ele>219.19999694824</ele>
        <time>2015-02-07T21:17:27.000Z</time>
      </trkpt>
      <trkpt lat="43.683" lon="1.14287">
        <ele>218.19999694824</ele>
        <time>2015-02-07T21:17:32.000Z</time>
      </trkpt>
      <trkpt lat="43.68281" lon="1.14283">
        <ele>216.39999389648</ele>
        <time>2015-02-07T21:17:41.000Z</time>
      </trkpt>
      <trkpt lat="43.68279" lon="1.14283">
        <ele>216.19999694824</ele>
        <time>2015-02-07T21:17:42.000Z</time>
      </trkpt>
      <trkpt lat="43.68275" lon="1.14283">
        <ele>215.80000305176</ele>
        <time>2015-02-07T21:17:44.000Z</time>
      </trkpt>
      <trkpt lat="43.6827" lon="1.14281">
        <ele>215.39999389648</ele>
        <time>2015-02-07T21:17:47.000Z</time>
      </trkpt>
      <trkpt lat="43.68262" lon="1.14279">
        <ele>214.39999389648</ele>
        <time>2015-02-07T21:17:52.000Z</time>
      </trkpt>
      <trkpt lat="43.68253" lon="1.14273">
        <ele>213</ele>
        <time>2015-02-07T21:17:59.000Z</time>
      </trkpt>
      <trkpt lat="43.68245" lon="1.14267">
        <ele>211.80000305176</ele>
        <time>2015-02-07T21:18:06.000Z</time>
      </trkpt>
      <trkpt lat="43.68243" lon="1.14267">
        <ele>211.60000610352</ele>
        <time>2015-02-07T21:18:08.000Z</time>
      </trkpt>
      <trkpt lat="43.68241" lon="1.14268">
        <ele>211.19999694824</ele>
        <time>2015-02-07T21:18:10.000Z</time>
      </trkpt>
      <trkpt lat="43.6824" lon="1.14268">
        <ele>211</ele>
        <time>2015-02-07T21:18:11.000Z</time>
      </trkpt>
      <trkpt lat="43.68239" lon="1.14267">
        <ele>210.80000305176</ele>
        <time>2015-02-07T21:18:13.000Z</time>
      </trkpt>
      <trkpt lat="43.68238" lon="1.14266">
        <ele>210.19999694824</ele>
        <time>2015-02-07T21:18:17.000Z</time>
      </trkpt>
      <trkpt lat="43.68233" lon="1.14265">
        <ele>209.39999389648</ele>
        <time>2015-02-07T21:18:22.000Z</time>
      </trkpt>
      <trkpt lat="43.68231" lon="1.14265">
        <ele>209</ele>
        <time>2015-02-07T21:18:24.000Z</time>
      </trkpt>
      <trkpt lat="43.68229" lon="1.14266">
        <ele>208.80000305176</ele>
        <time>2015-02-07T21:18:26.000Z</time>
      </trkpt>
      <trkpt lat="43.68224" lon="1.14266">
        <ele>208</ele>
        <time>2015-02-07T21:18:31.000Z</time>
      </trkpt>
      <trkpt lat="43.68223" lon="1.14266">
        <ele>207.60000610352</ele>
        <time>2015-02-07T21:18:33.000Z</time>
      </trkpt>
      <trkpt lat="43.68222" lon="1.14266">
        <ele>207.39999389648</ele>
        <time>2015-02-07T21:18:34.000Z</time>
      </trkpt>
      <trkpt lat="43.68215" lon="1.14269">
        <ele>206.39999389648</ele>
        <time>2015-02-07T21:18:42.000Z</time>
      </trkpt>
      <trkpt lat="43.68209" lon="1.14272">
        <ele>205.80000305176</ele>
        <time>2015-02-07T21:18:48.000Z</time>
      </trkpt>
      <trkpt lat="43.68204" lon="1.14277">
        <ele>205.19999694824</ele>
        <time>2015-02-07T21:18:53.000Z</time>
      </trkpt>
      <trkpt lat="43.68202" lon="1.14279">
        <ele>205.19999694824</ele>
        <time>2015-02-07T21:18:54.000Z</time>
      </trkpt>
      <trkpt lat="43.68199" lon="1.14281">
        <ele>204.80000305176</ele>
        <time>2015-02-07T21:18:57.000Z</time>
      </trkpt>
      <trkpt lat="43.68191" lon="1.14291">
        <ele>204.19999694824</ele>
        <time>2015-02-07T21:19:06.000Z</time>
      </trkpt>
      <trkpt lat="43.68187" lon="1.14297">
        <ele>203.80000305176</ele>
        <time>2015-02-07T21:19:11.000Z</time>
      </trkpt>
      <trkpt lat="43.68186" lon="1.14297">
        <ele>203.60000610352</ele>
        <time>2015-02-07T21:19:12.000Z</time>
      </trkpt>
      <trkpt lat="43.68182" lon="1.143">
        <ele>203.39999389648</ele>
        <time>2015-02-07T21:19:16.000Z</time>
      </trkpt>
      <trkpt lat="43.6818" lon="1.14301">
        <ele>203.19999694824</ele>
        <time>2015-02-07T21:19:18.000Z</time>
      </trkpt>
      <trkpt lat="43.68171" lon="1.14305">
        <ele>202.80000305176</ele>
        <time>2015-02-07T21:19:25.000Z</time>
      </trkpt>
      <trkpt lat="43.68163" lon="1.14306">
        <ele>202.60000610352</ele>
        <time>2015-02-07T21:19:32.000Z</time>
      </trkpt>
      <trkpt lat="43.68151" lon="1.14308">
        <ele>202</ele>
        <time>2015-02-07T21:19:41.000Z</time>
      </trkpt>
      <trkpt lat="43.68139" lon="1.14309">
        <ele>201.60000610352</ele>
        <time>2015-02-07T21:19:50.000Z</time>
      </trkpt>
      <trkpt lat="43.6813" lon="1.14309">
        <ele>201.39999389648</ele>
        <time>2015-02-07T21:19:58.000Z</time>
      </trkpt>
      <trkpt lat="43.68129" lon="1.14309">
        <ele>201.39999389648</ele>
        <time>2015-02-07T21:19:59.000Z</time>
      </trkpt>
      <trkpt lat="43.68123" lon="1.14309">
        <ele>201.19999694824</ele>
        <time>2015-02-07T21:20:04.000Z</time>
      </trkpt>
      <trkpt lat="43.68114" lon="1.14309">
        <ele>201</ele>
        <time>2015-02-07T21:20:12.000Z</time>
      </trkpt>
      <trkpt lat="43.6811" lon="1.14309">
        <ele>201</ele>
        <time>2015-02-07T21:20:16.000Z</time>
      </trkpt>
      <trkpt lat="43.68108" lon="1.1431">
        <ele>201</ele>
        <time>2015-02-07T21:20:18.000Z</time>
      </trkpt>
      <trkpt lat="43.68104" lon="1.1431">
        <ele>200.80000305176</ele>
        <time>2015-02-07T21:20:21.000Z</time>
      </trkpt>
      <trkpt lat="43.68104" lon="1.1431">
        <ele>200.80000305176</ele>
        <time>2015-02-07T21:20:22.000Z</time>
      </trkpt>
      <trkpt lat="43.68102" lon="1.1431">
        <ele>200.80000305176</ele>
        <time>2015-02-07T21:20:23.000Z</time>
      </trkpt>
      <trkpt lat="43.68098" lon="1.1431">
        <ele>200.80000305176</ele>
        <time>2015-02-07T21:20:28.000Z</time>
      </trkpt>
      <trkpt lat="43.68092" lon="1.14311">
        <ele>201</ele>
        <time>2015-02-07T21:20:34.000Z</time>
      </trkpt>
      <trkpt lat="43.68085" lon="1.14312">
        <ele>201.60000610352</ele>
        <time>2015-02-07T21:20:41.000Z</time>
      </trkpt>
      <trkpt lat="43.68083" lon="1.14312">
        <ele>201.80000305176</ele>
        <time>2015-02-07T21:20:44.000Z</time>
      </trkpt>
      <trkpt lat="43.68076" lon="1.14312">
        <ele>202.39999389648</ele>
        <time>2015-02-07T21:20:50.000Z</time>
      </trkpt>
      <trkpt lat="43.68063" lon="1.14313">
        <ele>203.80000305176</ele>
        <time>2015-02-07T21:21:02.000Z</time>
      </trkpt>
      <trkpt lat="43.68057" lon="1.14313">
        <ele>204.60000610352</ele>
        <time>2015-02-07T21:21:07.000Z</time>
      </trkpt>
      <trkpt lat="43.68055" lon="1.14313">
        <ele>204.80000305176</ele>
        <time>2015-02-07T21:21:09.000Z</time>
      </trkpt>
      <trkpt lat="43.68044" lon="1.14315">
        <ele>206.39999389648</ele>
        <time>2015-02-07T21:21:18.000Z</time>
      </trkpt>
      <trkpt lat="43.68036" lon="1.14316">
        <ele>207.39999389648</ele>
        <time>2015-02-07T21:21:24.000Z</time>
      </trkpt>
      <trkpt lat="43.68027" lon="1.14316">
        <ele>209</ele>
        <time>2015-02-07T21:21:32.000Z</time>
      </trkpt>
      <trkpt lat="43.6802" lon="1.14316">
        <ele>210.19999694824</ele>
        <time>2015-02-07T21:21:38.000Z</time>
      </trkpt>
      <trkpt lat="43.68018" lon="1.14316">
        <ele>210.60000610352</ele>
        <time>2015-02-07T21:21:40.000Z</time>
      </trkpt>
      <trkpt lat="43.68014" lon="1.14315">
        <ele>211.19999694824</ele>
        <time>2015-02-07T21:21:43.000Z</time>
      </trkpt>
      <trkpt lat="43.68012" lon="1.14316">
        <ele>211.60000610352</ele>
        <time>2015-02-07T21:21:45.000Z</time>
      </trkpt>
      <trkpt lat="43.68011" lon="1.14317">
        <ele>211.60000610352</ele>
        <time>2015-02-07T21:21:46.000Z</time>
      </trkpt>
      <trkpt lat="43.68006" lon="1.14315">
        <ele>212.39999389648</ele>
        <time>2015-02-07T21:21:50.000Z</time>
      </trkpt>
      <trkpt lat="43.67992" lon="1.14316">
        <ele>213.80000305176</ele>
        <time>2015-02-07T21:22:01.000Z</time>
      </trkpt>
      <trkpt lat="43.67982" lon="1.14315">
        <ele>214</ele>
        <time>2015-02-07T21:22:08.000Z</time>
      </trkpt>
      <trkpt lat="43.67963" lon="1.14315">
        <ele>214</ele>
        <time>2015-02-07T21:22:17.000Z</time>
      </trkpt>
      <trkpt lat="43.67947" lon="1.14316">
        <ele>213.80000305176</ele>
        <time>2015-02-07T21:22:25.000Z</time>
      </trkpt>
      <trkpt lat="43.67927" lon="1.14318">
        <ele>213.39999389648</ele>
        <time>2015-02-07T21:22:34.000Z</time>
      </trkpt>
      <trkpt lat="43.67924" lon="1.14318">
        <ele>213.39999389648</ele>
        <time>2015-02-07T21:22:35.000Z</time>
      </trkpt>
      <trkpt lat="43.67909" lon="1.1432">
        <ele>213</ele>
        <time>2015-02-07T21:22:41.000Z</time>
      </trkpt>
      <trkpt lat="43.679" lon="1.14321">
        <ele>212.80000305176</ele>
        <time>2015-02-07T21:22:45.000Z</time>
      </trkpt>
      <trkpt lat="43.67885" lon="1.14322">
        <ele>212</ele>
        <time>2015-02-07T21:22:53.000Z</time>
      </trkpt>
      <trkpt lat="43.67875" lon="1.14322">
        <ele>211.60000610352</ele>
        <time>2015-02-07T21:22:59.000Z</time>
      </trkpt>
      <trkpt lat="43.67866" lon="1.1432">
        <ele>211</ele>
        <time>2015-02-07T21:23:05.000Z</time>
      </trkpt>
      <trkpt lat="43.67857" lon="1.14319">
        <ele>210.19999694824</ele>
        <time>2015-02-07T21:23:11.000Z</time>
      </trkpt>
      <trkpt lat="43.67847" lon="1.14319">
        <ele>209.19999694824</ele>
        <time>2015-02-07T21:23:17.000Z</time>
      </trkpt>
      <trkpt lat="43.67836" lon="1.14319">
        <ele>208.60000610352</ele>
        <time>2015-02-07T21:23:22.000Z</time>
      </trkpt>
      <trkpt lat="43.67827" lon="1.14319">
        <ele>208</ele>
        <time>2015-02-07T21:23:27.000Z</time>
      </trkpt>
      <trkpt lat="43.6782" lon="1.14319">
        <ele>207.19999694824</ele>
        <time>2015-02-07T21:23:31.000Z</time>
      </trkpt>
      <trkpt lat="43.67818" lon="1.14319">
        <ele>207.19999694824</ele>
        <time>2015-02-07T21:23:32.000Z</time>
      </trkpt>
      <trkpt lat="43.67809" lon="1.14319">
        <ele>206.19999694824</ele>
        <time>2015-02-07T21:23:37.000Z</time>
      </trkpt>
      <trkpt lat="43.67799" lon="1.1432">
        <ele>205.19999694824</ele>
        <time>2015-02-07T21:23:43.000Z</time>
      </trkpt>
      <trkpt lat="43.67797" lon="1.1432">
        <ele>205</ele>
        <time>2015-02-07T21:23:44.000Z</time>
      </trkpt>
      <trkpt lat="43.67788" lon="1.1432">
        <ele>204.19999694824</ele>
        <time>2015-02-07T21:23:48.000Z</time>
      </trkpt>
      <trkpt lat="43.67772" lon="1.14322">
        <ele>203</ele>
        <time>2015-02-07T21:23:55.000Z</time>
      </trkpt>
      <trkpt lat="43.67759" lon="1.14319">
        <ele>201.80000305176</ele>
        <time>2015-02-07T21:24:01.000Z</time>
      </trkpt>
      <trkpt lat="43.67746" lon="1.1432">
        <ele>200.60000610352</ele>
        <time>2015-02-07T21:24:07.000Z</time>
      </trkpt>
      <trkpt lat="43.67739" lon="1.14314">
        <ele>199.80000305176</ele>
        <time>2015-02-07T21:24:11.000Z</time>
      </trkpt>
      <trkpt lat="43.67734" lon="1.14301">
        <ele>198.60000610352</ele>
        <time>2015-02-07T21:24:16.000Z</time>
      </trkpt>
      <trkpt lat="43.67728" lon="1.14285">
        <ele>197.39999389648</ele>
        <time>2015-02-07T21:24:22.000Z</time>
      </trkpt>
      <trkpt lat="43.67723" lon="1.14268">
        <ele>196.19999694824</ele>
        <time>2015-02-07T21:24:28.000Z</time>
      </trkpt>
      <trkpt lat="43.67719" lon="1.14245">
        <ele>194.80000305176</ele>
        <time>2015-02-07T21:24:36.000Z</time>
      </trkpt>
      <trkpt lat="43.67717" lon="1.14231">
        <ele>193.80000305176</ele>
        <time>2015-02-07T21:24:41.000Z</time>
      </trkpt>
      <trkpt lat="43.67714" lon="1.14217">
        <ele>193</ele>
        <time>2015-02-07T21:24:46.000Z</time>
      </trkpt>
      <trkpt lat="43.67713" lon="1.14214">
        <ele>192.80000305176</ele>
        <time>2015-02-07T21:24:47.000Z</time>
      </trkpt>
      <trkpt lat="43.6771" lon="1.14206">
        <ele>192.39999389648</ele>
        <time>2015-02-07T21:24:50.000Z</time>
      </trkpt>
      <trkpt lat="43.67707" lon="1.14198">
        <ele>192</ele>
        <time>2015-02-07T21:24:53.000Z</time>
      </trkpt>
      <trkpt lat="43.67705" lon="1.1419">
        <ele>191.60000610352</ele>
        <time>2015-02-07T21:24:56.000Z</time>
      </trkpt>
      <trkpt lat="43.677" lon="1.14166">
        <ele>190.39999389648</ele>
        <time>2015-02-07T21:25:04.000Z</time>
      </trkpt>
      <trkpt lat="43.67698" lon="1.1415">
        <ele>189.60000610352</ele>
        <time>2015-02-07T21:25:10.000Z</time>
      </trkpt>
      <trkpt lat="43.67695" lon="1.14134">
        <ele>188.80000305176</ele>
        <time>2015-02-07T21:25:16.000Z</time>
      </trkpt>
      <trkpt lat="43.6769" lon="1.14117">
        <ele>188.19999694824</ele>
        <time>2015-02-07T21:25:22.000Z</time>
      </trkpt>
      <trkpt lat="43.67686" lon="1.14105">
        <ele>187.60000610352</ele>
        <time>2015-02-07T21:25:27.000Z</time>
      </trkpt>
      <trkpt lat="43.67683" lon="1.141">
        <ele>187.19999694824</ele>
        <time>2015-02-07T21:25:30.000Z</time>
      </trkpt>
      <trkpt lat="43.6768" lon="1.14097">
        <ele>187</ele>
        <time>2015-02-07T21:25:32.000Z</time>
      </trkpt>
      <trkpt lat="43.67676" lon="1.14095">
        <ele>186.60000610352</ele>
        <time>2015-02-07T21:25:37.000Z</time>
      </trkpt>
      <trkpt lat="43.67671" lon="1.14095">
        <ele>186</ele>
        <time>2015-02-07T21:25:43.000Z</time>
      </trkpt>
      <trkpt lat="43.67666" lon="1.14093">
        <ele>185.60000610352</ele>
        <time>2015-02-07T21:25:49.000Z</time>
      </trkpt>
      <trkpt lat="43.67661" lon="1.14092">
        <ele>185.19999694824</ele>
        <time>2015-02-07T21:25:54.000Z</time>
      </trkpt>
      <trkpt lat="43.67659" lon="1.14092">
        <ele>185</ele>
        <time>2015-02-07T21:25:56.000Z</time>
      </trkpt>
      <trkpt lat="43.67658" lon="1.14091">
        <ele>185</ele>
        <time>2015-02-07T21:25:58.000Z</time>
      </trkpt>
      <trkpt lat="43.67655" lon="1.14091">
        <ele>184.80000305176</ele>
        <time>2015-02-07T21:26:02.000Z</time>
      </trkpt>
      <trkpt lat="43.67654" lon="1.14091">
        <ele>184.60000610352</ele>
        <time>2015-02-07T21:26:03.000Z</time>
      </trkpt>
      <trkpt lat="43.6765" lon="1.14088">
        <ele>184.39999389648</ele>
        <time>2015-02-07T21:26:08.000Z</time>
      </trkpt>
      <trkpt lat="43.67646" lon="1.14087">
        <ele>184.19999694824</ele>
        <time>2015-02-07T21:26:14.000Z</time>
      </trkpt>
      <trkpt lat="43.6764" lon="1.14084">
        <ele>184</ele>
        <time>2015-02-07T21:26:21.000Z</time>
      </trkpt>
      <trkpt lat="43.67638" lon="1.14083">
        <ele>184</ele>
        <time>2015-02-07T21:26:23.000Z</time>
      </trkpt>
      <trkpt lat="43.67631" lon="1.14079">
        <ele>183.80000305176</ele>
        <time>2015-02-07T21:26:31.000Z</time>
      </trkpt>
      <trkpt lat="43.67626" lon="1.14077">
        <ele>183.80000305176</ele>
        <time>2015-02-07T21:26:36.000Z</time>
      </trkpt>
      <trkpt lat="43.67619" lon="1.14074">
        <ele>184</ele>
        <time>2015-02-07T21:26:43.000Z</time>
      </trkpt>
      <trkpt lat="43.67612" lon="1.14071">
        <ele>184.60000610352</ele>
        <time>2015-02-07T21:26:51.000Z</time>
      </trkpt>
      <trkpt lat="43.67606" lon="1.14069">
        <ele>185</ele>
        <time>2015-02-07T21:26:57.000Z</time>
      </trkpt>
      <trkpt lat="43.67599" lon="1.14066">
        <ele>185.80000305176</ele>
        <time>2015-02-07T21:27:03.000Z</time>
      </trkpt>
      <trkpt lat="43.67591" lon="1.14062">
        <ele>186.60000610352</ele>
        <time>2015-02-07T21:27:10.000Z</time>
      </trkpt>
      <trkpt lat="43.67581" lon="1.14058">
        <ele>187.80000305176</ele>
        <time>2015-02-07T21:27:18.000Z</time>
      </trkpt>
      <trkpt lat="43.6757" lon="1.14052">
        <ele>189.39999389648</ele>
        <time>2015-02-07T21:27:27.000Z</time>
      </trkpt>
      <trkpt lat="43.67558" lon="1.14046">
        <ele>191</ele>
        <time>2015-02-07T21:27:37.000Z</time>
      </trkpt>
      <trkpt lat="43.67548" lon="1.14041">
        <ele>192.80000305176</ele>
        <time>2015-02-07T21:27:47.000Z</time>
      </trkpt>
      <trkpt lat="43.67538" lon="1.14037">
        <ele>194.60000610352</ele>
        <time>2015-02-07T21:27:56.000Z</time>
      </trkpt>
      <trkpt lat="43.67529" lon="1.14033">
        <ele>196.39999389648</ele>
        <time>2015-02-07T21:28:04.000Z</time>
      </trkpt>
      <trkpt lat="43.67522" lon="1.1403">
        <ele>197.80000305176</ele>
        <time>2015-02-07T21:28:10.000Z</time>
      </trkpt>
      <trkpt lat="43.6752" lon="1.1403">
        <ele>198.39999389648</ele>
        <time>2015-02-07T21:28:12.000Z</time>
      </trkpt>
      <trkpt lat="43.67518" lon="1.14029">
        <ele>198.80000305176</ele>
        <time>2015-02-07T21:28:14.000Z</time>
      </trkpt>
      <trkpt lat="43.6751" lon="1.14025">
        <ele>200.39999389648</ele>
        <time>2015-02-07T21:28:21.000Z</time>
      </trkpt>
      <trkpt lat="43.67505" lon="1.14023">
        <ele>201.39999389648</ele>
        <time>2015-02-07T21:28:25.000Z</time>
      </trkpt>
      <trkpt lat="43.67502" lon="1.14021">
        <ele>202.19999694824</ele>
        <time>2015-02-07T21:28:28.000Z</time>
      </trkpt>
      <trkpt lat="43.67496" lon="1.14019">
        <ele>203.39999389648</ele>
        <time>2015-02-07T21:28:33.000Z</time>
      </trkpt>
      <trkpt lat="43.67495" lon="1.14019">
        <ele>203.60000610352</ele>
        <time>2015-02-07T21:28:34.000Z</time>
      </trkpt>
      <trkpt lat="43.67488" lon="1.14016">
        <ele>204.80000305176</ele>
        <time>2015-02-07T21:28:40.000Z</time>
      </trkpt>
      <trkpt lat="43.67482" lon="1.14012">
        <ele>206</ele>
        <time>2015-02-07T21:28:45.000Z</time>
      </trkpt>
      <trkpt lat="43.67481" lon="1.14011">
        <ele>206.19999694824</ele>
        <time>2015-02-07T21:28:46.000Z</time>
      </trkpt>
      <trkpt lat="43.67477" lon="1.14009">
        <ele>207</ele>
        <time>2015-02-07T21:28:50.000Z</time>
      </trkpt>
      <trkpt lat="43.67473" lon="1.14008">
        <ele>207.80000305176</ele>
        <time>2015-02-07T21:28:54.000Z</time>
      </trkpt>
      <trkpt lat="43.67461" lon="1.14003">
        <ele>209.80000305176</ele>
        <time>2015-02-07T21:29:04.000Z</time>
      </trkpt>
      <trkpt lat="43.67457" lon="1.14">
        <ele>210.60000610352</ele>
        <time>2015-02-07T21:29:09.000Z</time>
      </trkpt>
      <trkpt lat="43.67451" lon="1.13997">
        <ele>211.60000610352</ele>
        <time>2015-02-07T21:29:14.000Z</time>
      </trkpt>
      <trkpt lat="43.6745" lon="1.13997">
        <ele>211.80000305176</ele>
        <time>2015-02-07T21:29:15.000Z</time>
      </trkpt>
      <trkpt lat="43.67443" lon="1.13992">
        <ele>212.80000305176</ele>
        <time>2015-02-07T21:29:22.000Z</time>
      </trkpt>
      <trkpt lat="43.67442" lon="1.13992">
        <ele>213</ele>
        <time>2015-02-07T21:29:23.000Z</time>
      </trkpt>
      <trkpt lat="43.67438" lon="1.13991">
        <ele>213.80000305176</ele>
        <time>2015-02-07T21:29:27.000Z</time>
      </trkpt>
      <trkpt lat="43.67437" lon="1.13989">
        <ele>214</ele>
        <time>2015-02-07T21:29:28.000Z</time>
      </trkpt>
      <trkpt lat="43.67434" lon="1.13988">
        <ele>214.39999389648</ele>
        <time>2015-02-07T21:29:31.000Z</time>
      </trkpt>
      <trkpt lat="43.67431" lon="1.13986">
        <ele>215</ele>
        <time>2015-02-07T21:29:34.000Z</time>
      </trkpt>
      <trkpt lat="43.67425" lon="1.13982">
        <ele>216</ele>
        <time>2015-02-07T21:29:41.000Z</time>
      </trkpt>
      <trkpt lat="43.67419" lon="1.13979">
        <ele>217</ele>
        <time>2015-02-07T21:29:48.000Z</time>
      </trkpt>
      <trkpt lat="43.67417" lon="1.13978">
        <ele>217.39999389648</ele>
        <time>2015-02-07T21:29:50.000Z</time>
      </trkpt>
      <trkpt lat="43.67413" lon="1.13976">
        <ele>218</ele>
        <time>2015-02-07T21:29:55.000Z</time>
      </trkpt>
      <trkpt lat="43.6741" lon="1.13975">
        <ele>218.39999389648</ele>
        <time>2015-02-07T21:29:58.000Z</time>
      </trkpt>
      <trkpt lat="43.67407" lon="1.13973">
        <ele>219</ele>
        <time>2015-02-07T21:30:02.000Z</time>
      </trkpt>
      <trkpt lat="43.67403" lon="1.13971">
        <ele>219.60000610352</ele>
        <time>2015-02-07T21:30:06.000Z</time>
      </trkpt>
      <trkpt lat="43.67401" lon="1.1397">
        <ele>220</ele>
        <time>2015-02-07T21:30:09.000Z</time>
      </trkpt>
      <trkpt lat="43.67391" lon="1.13967">
        <ele>221.60000610352</ele>
        <time>2015-02-07T21:30:18.000Z</time>
      </trkpt>
      <trkpt lat="43.67385" lon="1.13965">
        <ele>222.60000610352</ele>
        <time>2015-02-07T21:30:24.000Z</time>
      </trkpt>
      <trkpt lat="43.67376" lon="1.13963">
        <ele>223.80000305176</ele>
        <time>2015-02-07T21:30:31.000Z</time>
      </trkpt>
      <trkpt lat="43.6737" lon="1.13962">
        <ele>224.60000610352</ele>
        <time>2015-02-07T21:30:37.000Z</time>
      </trkpt>
      <trkpt lat="43.67361" lon="1.13962">
        <ele>225.80000305176</ele>
        <time>2015-02-07T21:30:44.000Z</time>
      </trkpt>
      <trkpt lat="43.67358" lon="1.13964">
        <ele>226.19999694824</ele>
        <time>2015-02-07T21:30:46.000Z</time>
      </trkpt>
      <trkpt lat="43.67356" lon="1.13964">
        <ele>226.39999389648</ele>
        <time>2015-02-07T21:30:48.000Z</time>
      </trkpt>
      <trkpt lat="43.67353" lon="1.13965">
        <ele>226.80000305176</ele>
        <time>2015-02-07T21:30:50.000Z</time>
      </trkpt>
      <trkpt lat="43.67347" lon="1.13965">
        <ele>227.60000610352</ele>
        <time>2015-02-07T21:30:55.000Z</time>
      </trkpt>
      <trkpt lat="43.67337" lon="1.13967">
        <ele>229.19999694824</ele>
        <time>2015-02-07T21:31:03.000Z</time>
      </trkpt>
      <trkpt lat="43.67328" lon="1.13968">
        <ele>230.60000610352</ele>
        <time>2015-02-07T21:31:10.000Z</time>
      </trkpt>
      <trkpt lat="43.6732" lon="1.13969">
        <ele>231.80000305176</ele>
        <time>2015-02-07T21:31:17.000Z</time>
      </trkpt>
      <trkpt lat="43.67318" lon="1.13969">
        <ele>232</ele>
        <time>2015-02-07T21:31:18.000Z</time>
      </trkpt>
      <trkpt lat="43.67315" lon="1.13969">
        <ele>232.60000610352</ele>
        <time>2015-02-07T21:31:21.000Z</time>
      </trkpt>
      <trkpt lat="43.67314" lon="1.13969">
        <ele>232.80000305176</ele>
        <time>2015-02-07T21:31:22.000Z</time>
      </trkpt>
      <trkpt lat="43.67306" lon="1.13968">
        <ele>233.80000305176</ele>
        <time>2015-02-07T21:31:27.000Z</time>
      </trkpt>
      <trkpt lat="43.67301" lon="1.13962">
        <ele>234.80000305176</ele>
        <time>2015-02-07T21:31:33.000Z</time>
      </trkpt>
      <trkpt lat="43.67298" lon="1.13954">
        <ele>235.60000610352</ele>
        <time>2015-02-07T21:31:38.000Z</time>
      </trkpt>
      <trkpt lat="43.67297" lon="1.13951">
        <ele>236</ele>
        <time>2015-02-07T21:31:40.000Z</time>
      </trkpt>
      <trkpt lat="43.67293" lon="1.13949">
        <ele>236.80000305176</ele>
        <time>2015-02-07T21:31:44.000Z</time>
      </trkpt>
      <trkpt lat="43.67288" lon="1.13948">
        <ele>237.60000610352</ele>
        <time>2015-02-07T21:31:49.000Z</time>
      </trkpt>
      <trkpt lat="43.67284" lon="1.13947">
        <ele>238.39999389648</ele>
        <time>2015-02-07T21:31:53.000Z</time>
      </trkpt>
      <trkpt lat="43.67281" lon="1.13945">
        <ele>238.80000305176</ele>
        <time>2015-02-07T21:31:56.000Z</time>
      </trkpt>
      <trkpt lat="43.6728" lon="1.13942">
        <ele>239.19999694824</ele>
        <time>2015-02-07T21:31:58.000Z</time>
      </trkpt>
      <trkpt lat="43.6728" lon="1.13937">
        <ele>240</ele>
        <time>2015-02-07T21:32:02.000Z</time>
      </trkpt>
      <trkpt lat="43.67282" lon="1.13928">
        <ele>240.80000305176</ele>
        <time>2015-02-07T21:32:07.000Z</time>
      </trkpt>
      <trkpt lat="43.6729" lon="1.1392">
        <ele>241.80000305176</ele>
        <time>2015-02-07T21:32:14.000Z</time>
      </trkpt>
      <trkpt lat="43.67298" lon="1.13912">
        <ele>242.80000305176</ele>
        <time>2015-02-07T21:32:21.000Z</time>
      </trkpt>
      <trkpt lat="43.67304" lon="1.13903">
        <ele>243.60000610352</ele>
        <time>2015-02-07T21:32:27.000Z</time>
      </trkpt>
      <trkpt lat="43.67313" lon="1.13892">
        <ele>244</ele>
        <time>2015-02-07T21:32:32.000Z</time>
      </trkpt>
      <trkpt lat="43.67322" lon="1.13868">
        <ele>244.19999694824</ele>
        <time>2015-02-07T21:32:41.000Z</time>
      </trkpt>
      <trkpt lat="43.67322" lon="1.1385">
        <ele>244.39999389648</ele>
        <time>2015-02-07T21:32:47.000Z</time>
      </trkpt>
      <trkpt lat="43.67316" lon="1.13833">
        <ele>244.39999389648</ele>
        <time>2015-02-07T21:32:53.000Z</time>
      </trkpt>
      <trkpt lat="43.67311" lon="1.13816">
        <ele>244.60000610352</ele>
        <time>2015-02-07T21:32:59.000Z</time>
      </trkpt>
      <trkpt lat="43.67306" lon="1.13802">
        <ele>244.80000305176</ele>
        <time>2015-02-07T21:33:04.000Z</time>
      </trkpt>
      <trkpt lat="43.67298" lon="1.13783">
        <ele>244.80000305176</ele>
        <time>2015-02-07T21:33:11.000Z</time>
      </trkpt>
      <trkpt lat="43.6729" lon="1.13767">
        <ele>244.80000305176</ele>
        <time>2015-02-07T21:33:17.000Z</time>
      </trkpt>
      <trkpt lat="43.67281" lon="1.13755">
        <ele>244.80000305176</ele>
        <time>2015-02-07T21:33:22.000Z</time>
      </trkpt>
      <trkpt lat="43.6727" lon="1.13745">
        <ele>244.80000305176</ele>
        <time>2015-02-07T21:33:28.000Z</time>
      </trkpt>
      <trkpt lat="43.67257" lon="1.13735">
        <ele>244.80000305176</ele>
        <time>2015-02-07T21:33:34.000Z</time>
      </trkpt>
      <trkpt lat="43.67242" lon="1.13726">
        <ele>245</ele>
        <time>2015-02-07T21:33:41.000Z</time>
      </trkpt>
      <trkpt lat="43.67231" lon="1.1372">
        <ele>245.19999694824</ele>
        <time>2015-02-07T21:33:46.000Z</time>
      </trkpt>
      <trkpt lat="43.67222" lon="1.13713">
        <ele>245.60000610352</ele>
        <time>2015-02-07T21:33:51.000Z</time>
      </trkpt>
      <trkpt lat="43.67211" lon="1.13706">
        <ele>246</ele>
        <time>2015-02-07T21:33:57.000Z</time>
      </trkpt>
      <trkpt lat="43.67207" lon="1.13704">
        <ele>246.39999389648</ele>
        <time>2015-02-07T21:33:59.000Z</time>
      </trkpt>
      <trkpt lat="43.67204" lon="1.13701">
        <ele>246.80000305176</ele>
        <time>2015-02-07T21:34:01.000Z</time>
      </trkpt>
      <trkpt lat="43.67201" lon="1.13699">
        <ele>247</ele>
        <time>2015-02-07T21:34:03.000Z</time>
      </trkpt>
      <trkpt lat="43.67193" lon="1.13694">
        <ele>247.60000610352</ele>
        <time>2015-02-07T21:34:07.000Z</time>
      </trkpt>
      <trkpt lat="43.67192" lon="1.13696">
        <ele>247.80000305176</ele>
        <time>2015-02-07T21:34:08.000Z</time>
      </trkpt>
      <trkpt lat="43.67193" lon="1.13701">
        <ele>248.19999694824</ele>
        <time>2015-02-07T21:34:10.000Z</time>
      </trkpt>
      <trkpt lat="43.67196" lon="1.1371">
        <ele>248.80000305176</ele>
        <time>2015-02-07T21:34:14.000Z</time>
      </trkpt>
      <trkpt lat="43.67197" lon="1.13719">
        <ele>249.19999694824</ele>
        <time>2015-02-07T21:34:17.000Z</time>
      </trkpt>
      <trkpt lat="43.672" lon="1.13723">
        <ele>249.60000610352</ele>
        <time>2015-02-07T21:34:19.000Z</time>
      </trkpt>
      <trkpt lat="43.672" lon="1.13727">
        <ele>249.60000610352</ele>
        <time>2015-02-07T21:34:20.000Z</time>
      </trkpt>
      <trkpt lat="43.67204" lon="1.13734">
        <ele>250</ele>
        <time>2015-02-07T21:34:23.000Z</time>
      </trkpt>
      <trkpt lat="43.67205" lon="1.13737">
        <ele>250.19999694824</ele>
        <time>2015-02-07T21:34:24.000Z</time>
      </trkpt>
      <trkpt lat="43.67214" lon="1.13752">
        <ele>251</ele>
        <time>2015-02-07T21:34:30.000Z</time>
      </trkpt>
      <trkpt lat="43.67222" lon="1.13768">
        <ele>251.80000305176</ele>
        <time>2015-02-07T21:34:36.000Z</time>
      </trkpt>
      <trkpt lat="43.67228" lon="1.13781">
        <ele>252.60000610352</ele>
        <time>2015-02-07T21:34:41.000Z</time>
      </trkpt>
      <trkpt lat="43.67234" lon="1.13794">
        <ele>253.39999389648</ele>
        <time>2015-02-07T21:34:46.000Z</time>
      </trkpt>
      <trkpt lat="43.67235" lon="1.13795">
        <ele>253.60000610352</ele>
        <time>2015-02-07T21:34:47.000Z</time>
      </trkpt>
      <trkpt lat="43.67238" lon="1.13801">
        <ele>253.80000305176</ele>
        <time>2015-02-07T21:34:50.000Z</time>
      </trkpt>
      <trkpt lat="43.67239" lon="1.13808">
        <ele>254.19999694824</ele>
        <time>2015-02-07T21:34:53.000Z</time>
      </trkpt>
      <trkpt lat="43.6724" lon="1.13809">
        <ele>254.39999389648</ele>
        <time>2015-02-07T21:34:54.000Z</time>
      </trkpt>
      <trkpt lat="43.67242" lon="1.13819">
        <ele>255</ele>
        <time>2015-02-07T21:35:00.000Z</time>
      </trkpt>
      <trkpt lat="43.67245" lon="1.13824">
        <ele>255.60000610352</ele>
        <time>2015-02-07T21:35:05.000Z</time>
      </trkpt>
      <trkpt lat="43.67247" lon="1.13827">
        <ele>256</ele>
        <time>2015-02-07T21:35:10.000Z</time>
      </trkpt>
      <trkpt lat="43.67246" lon="1.13831">
        <ele>256.60000610352</ele>
        <time>2015-02-07T21:35:16.000Z</time>
      </trkpt>
      <trkpt lat="43.67247" lon="1.13831">
        <ele>257.60000610352</ele>
        <time>2015-02-07T21:35:28.000Z</time>
      </trkpt>
      <trkpt lat="43.67246" lon="1.13832">
        <ele>258.20001220703</ele>
        <time>2015-02-07T21:35:36.000Z</time>
      </trkpt>
      <trkpt lat="43.67249" lon="1.13835">
        <ele>264.20001220703</ele>
        <time>2015-02-07T21:37:01.000Z</time>
      </trkpt>
      <trkpt lat="43.67249" lon="1.13833">
        <ele>263.79998779297</ele>
        <time>2015-02-07T21:37:51.000Z</time>
      </trkpt>
      <trkpt lat="43.67246" lon="1.13835">
        <ele>266</ele>
        <time>2015-02-07T21:38:45.000Z</time>
      </trkpt>
      <trkpt lat="43.67249" lon="1.13831">
        <ele>268.20001220703</ele>
        <time>2015-02-07T21:40:29.000Z</time>
      </trkpt>
      <trkpt lat="43.6725" lon="1.13836">
        <ele>267.39999389648</ele>
        <time>2015-02-07T21:41:19.000Z</time>
      </trkpt>
      <trkpt lat="43.67252" lon="1.13836">
        <ele>267</ele>
        <time>2015-02-07T21:41:35.000Z</time>
      </trkpt>
      <trkpt lat="43.6725" lon="1.13837">
        <ele>266.79998779297</ele>
        <time>2015-02-07T21:41:41.000Z</time>
      </trkpt>
      <trkpt lat="43.67251" lon="1.13837">
        <ele>266.79998779297</ele>
        <time>2015-02-07T21:41:49.000Z</time>
      </trkpt>
      <trkpt lat="43.67249" lon="1.13835">
        <ele>266</ele>
        <time>2015-02-07T21:42:24.000Z</time>
      </trkpt>
      <trkpt lat="43.6725" lon="1.13831">
        <ele>268.60000610352</ele>
        <time>2015-02-07T21:45:06.000Z</time>
      </trkpt>
      <trkpt lat="43.67251" lon="1.13832">
        <ele>268.60000610352</ele>
        <time>2015-02-07T21:45:12.000Z</time>
      </trkpt>
      <trkpt lat="43.67251" lon="1.13832">
        <ele>268.39999389648</ele>
        <time>2015-02-07T21:45:37.000Z</time>
      </trkpt>
      <trkpt lat="43.6725" lon="1.13834">
        <ele>267.39999389648</ele>
        <time>2015-02-07T21:46:18.000Z</time>
      </trkpt>
      <trkpt lat="43.67251" lon="1.13834">
        <ele>267.20001220703</ele>
        <time>2015-02-07T21:46:24.000Z</time>
      </trkpt>
      <trkpt lat="43.67251" lon="1.13831">
        <ele>266.39999389648</ele>
        <time>2015-02-07T21:46:47.000Z</time>
      </trkpt>
      <trkpt lat="43.67253" lon="1.13836">
        <ele>266.39999389648</ele>
        <time>2015-02-07T21:46:50.000Z</time>
      </trkpt>
      <trkpt lat="43.67254" lon="1.13839">
        <ele>266.39999389648</ele>
        <time>2015-02-07T21:46:51.000Z</time>
      </trkpt>
      <trkpt lat="43.67257" lon="1.13852">
        <ele>266.20001220703</ele>
        <time>2015-02-07T21:46:55.000Z</time>
      </trkpt>
      <trkpt lat="43.67258" lon="1.13857">
        <ele>266.20001220703</ele>
        <time>2015-02-07T21:46:57.000Z</time>
      </trkpt>
      <trkpt lat="43.67261" lon="1.13865">
        <ele>266.20001220703</ele>
        <time>2015-02-07T21:47:01.000Z</time>
      </trkpt>
      <trkpt lat="43.67263" lon="1.1388">
        <ele>266</ele>
        <time>2015-02-07T21:47:07.000Z</time>
      </trkpt>
      <trkpt lat="43.67262" lon="1.13883">
        <ele>266</ele>
        <time>2015-02-07T21:47:08.000Z</time>
      </trkpt>
      <trkpt lat="43.67259" lon="1.13886">
        <ele>265.79998779297</ele>
        <time>2015-02-07T21:47:10.000Z</time>
      </trkpt>
      <trkpt lat="43.67248" lon="1.13897">
        <ele>265.60000610352</ele>
        <time>2015-02-07T21:47:17.000Z</time>
      </trkpt>
      <trkpt lat="43.67237" lon="1.13908">
        <ele>265.39999389648</ele>
        <time>2015-02-07T21:47:22.000Z</time>
      </trkpt>
      <trkpt lat="43.67229" lon="1.13925">
        <ele>265.20001220703</ele>
        <time>2015-02-07T21:47:28.000Z</time>
      </trkpt>
      <trkpt lat="43.67231" lon="1.13931">
        <ele>265.20001220703</ele>
        <time>2015-02-07T21:47:30.000Z</time>
      </trkpt>
      <trkpt lat="43.67237" lon="1.13938">
        <ele>265</ele>
        <time>2015-02-07T21:47:33.000Z</time>
      </trkpt>
      <trkpt lat="43.67243" lon="1.13943">
        <ele>264.79998779297</ele>
        <time>2015-02-07T21:47:36.000Z</time>
      </trkpt>
      <trkpt lat="43.67249" lon="1.1395">
        <ele>264.60000610352</ele>
        <time>2015-02-07T21:47:39.000Z</time>
      </trkpt>
      <trkpt lat="43.67253" lon="1.13956">
        <ele>264.39999389648</ele>
        <time>2015-02-07T21:47:43.000Z</time>
      </trkpt>
      <trkpt lat="43.67253" lon="1.13957">
        <ele>264.39999389648</ele>
        <time>2015-02-07T21:47:44.000Z</time>
      </trkpt>
      <trkpt lat="43.67252" lon="1.13957">
        <ele>263.60000610352</ele>
        <time>2015-02-07T21:47:56.000Z</time>
      </trkpt>
      <trkpt lat="43.67251" lon="1.13957">
        <ele>262.79998779297</ele>
        <time>2015-02-07T21:48:07.000Z</time>
      </trkpt>
      <trkpt lat="43.67251" lon="1.13957">
        <ele>262.20001220703</ele>
        <time>2015-02-07T21:48:16.000Z</time>
      </trkpt>
      <trkpt lat="43.67251" lon="1.13958">
        <ele>261.79998779297</ele>
        <time>2015-02-07T21:48:24.000Z</time>
      </trkpt>
      <trkpt lat="43.67251" lon="1.13958">
        <ele>261</ele>
        <time>2015-02-07T21:48:36.000Z</time>
      </trkpt>
      <trkpt lat="43.67253" lon="1.13959">
        <ele>261</ele>
        <time>2015-02-07T21:48:39.000Z</time>
      </trkpt>
      <trkpt lat="43.67252" lon="1.13958">
        <ele>260.39999389648</ele>
        <time>2015-02-07T21:48:47.000Z</time>
      </trkpt>
      <trkpt lat="43.67253" lon="1.13958">
        <ele>260</ele>
        <time>2015-02-07T21:48:54.000Z</time>
      </trkpt>
      <trkpt lat="43.67252" lon="1.13958">
        <ele>259.79998779297</ele>
        <time>2015-02-07T21:48:58.000Z</time>
      </trkpt>
      <trkpt lat="43.67251" lon="1.13956">
        <ele>259.39999389648</ele>
        <time>2015-02-07T21:49:08.000Z</time>
      </trkpt>
      <trkpt lat="43.6725" lon="1.13956">
        <ele>259</ele>
        <time>2015-02-07T21:49:16.000Z</time>
      </trkpt>
      <trkpt lat="43.67249" lon="1.13957">
        <ele>258</ele>
        <time>2015-02-07T21:49:37.000Z</time>
      </trkpt>
      <trkpt lat="43.6725" lon="1.13957">
        <ele>257.60000610352</ele>
        <time>2015-02-07T21:49:46.000Z</time>
      </trkpt>
      <trkpt lat="43.67255" lon="1.13958">
        <ele>257.39999389648</ele>
        <time>2015-02-07T21:49:52.000Z</time>
      </trkpt>
      <trkpt lat="43.67263" lon="1.13957">
        <ele>257.20001220703</ele>
        <time>2015-02-07T21:49:57.000Z</time>
      </trkpt>
      <trkpt lat="43.67277" lon="1.13957">
        <ele>256.79998779297</ele>
        <time>2015-02-07T21:50:03.000Z</time>
      </trkpt>
      <trkpt lat="43.67293" lon="1.13963">
        <ele>256.39999389648</ele>
        <time>2015-02-07T21:50:09.000Z</time>
      </trkpt>
      <trkpt lat="43.67297" lon="1.13981">
        <ele>256</ele>
        <time>2015-02-07T21:50:14.000Z</time>
      </trkpt>
      <trkpt lat="43.67296" lon="1.14009">
        <ele>255.39999389648</ele>
        <time>2015-02-07T21:50:21.000Z</time>
      </trkpt>
      <trkpt lat="43.67296" lon="1.14013">
        <ele>255.39999389648</ele>
        <time>2015-02-07T21:50:22.000Z</time>
      </trkpt>
      <trkpt lat="43.67294" lon="1.1404">
        <ele>254.60000610352</ele>
        <time>2015-02-07T21:50:29.000Z</time>
      </trkpt>
      <trkpt lat="43.67293" lon="1.14063">
        <ele>254</ele>
        <time>2015-02-07T21:50:35.000Z</time>
      </trkpt>
      <trkpt lat="43.67292" lon="1.14086">
        <ele>253.19999694824</ele>
        <time>2015-02-07T21:50:41.000Z</time>
      </trkpt>
      <trkpt lat="43.67292" lon="1.1411">
        <ele>252.39999389648</ele>
        <time>2015-02-07T21:50:47.000Z</time>
      </trkpt>
      <trkpt lat="43.67294" lon="1.14126">
        <ele>252</ele>
        <time>2015-02-07T21:50:51.000Z</time>
      </trkpt>
      <trkpt lat="43.67297" lon="1.14146">
        <ele>251.19999694824</ele>
        <time>2015-02-07T21:50:56.000Z</time>
      </trkpt>
      <trkpt lat="43.67304" lon="1.14166">
        <ele>250.39999389648</ele>
        <time>2015-02-07T21:51:02.000Z</time>
      </trkpt>
      <trkpt lat="43.6731" lon="1.14179">
        <ele>250</ele>
        <time>2015-02-07T21:51:06.000Z</time>
      </trkpt>
      <trkpt lat="43.6732" lon="1.14203">
        <ele>249</ele>
        <time>2015-02-07T21:51:13.000Z</time>
      </trkpt>
      <trkpt lat="43.67321" lon="1.14207">
        <ele>248.80000305176</ele>
        <time>2015-02-07T21:51:14.000Z</time>
      </trkpt>
      <trkpt lat="43.67329" lon="1.14222">
        <ele>248</ele>
        <time>2015-02-07T21:51:19.000Z</time>
      </trkpt>
      <trkpt lat="43.67335" lon="1.14234">
        <ele>247.39999389648</ele>
        <time>2015-02-07T21:51:23.000Z</time>
      </trkpt>
      <trkpt lat="43.67345" lon="1.14251">
        <ele>246.60000610352</ele>
        <time>2015-02-07T21:51:29.000Z</time>
      </trkpt>
      <trkpt lat="43.67352" lon="1.14262">
        <ele>246</ele>
        <time>2015-02-07T21:51:33.000Z</time>
      </trkpt>
      <trkpt lat="43.67361" lon="1.14276">
        <ele>245.19999694824</ele>
        <time>2015-02-07T21:51:38.000Z</time>
      </trkpt>
      <trkpt lat="43.6737" lon="1.1429">
        <ele>244.39999389648</ele>
        <time>2015-02-07T21:51:43.000Z</time>
      </trkpt>
      <trkpt lat="43.6738" lon="1.14305">
        <ele>243.80000305176</ele>
        <time>2015-02-07T21:51:48.000Z</time>
      </trkpt>
      <trkpt lat="43.6739" lon="1.14319">
        <ele>243</ele>
        <time>2015-02-07T21:51:53.000Z</time>
      </trkpt>
      <trkpt lat="43.67403" lon="1.14339">
        <ele>241.80000305176</ele>
        <time>2015-02-07T21:52:00.000Z</time>
      </trkpt>
      <trkpt lat="43.67413" lon="1.14357">
        <ele>240.60000610352</ele>
        <time>2015-02-07T21:52:06.000Z</time>
      </trkpt>
      <trkpt lat="43.67423" lon="1.14379">
        <ele>239.19999694824</ele>
        <time>2015-02-07T21:52:13.000Z</time>
      </trkpt>
      <trkpt lat="43.67432" lon="1.14402">
        <ele>237.80000305176</ele>
        <time>2015-02-07T21:52:20.000Z</time>
      </trkpt>
      <trkpt lat="43.67439" lon="1.14419">
        <ele>236.80000305176</ele>
        <time>2015-02-07T21:52:25.000Z</time>
      </trkpt>
      <trkpt lat="43.67447" lon="1.14439">
        <ele>235.60000610352</ele>
        <time>2015-02-07T21:52:31.000Z</time>
      </trkpt>
      <trkpt lat="43.67458" lon="1.14462">
        <ele>234</ele>
        <time>2015-02-07T21:52:38.000Z</time>
      </trkpt>
      <trkpt lat="43.67459" lon="1.14466">
        <ele>233.80000305176</ele>
        <time>2015-02-07T21:52:39.000Z</time>
      </trkpt>
      <trkpt lat="43.67463" lon="1.14476">
        <ele>233.19999694824</ele>
        <time>2015-02-07T21:52:42.000Z</time>
      </trkpt>
      <trkpt lat="43.67468" lon="1.14499">
        <ele>231.80000305176</ele>
        <time>2015-02-07T21:52:48.000Z</time>
      </trkpt>
      <trkpt lat="43.67472" lon="1.14521">
        <ele>230.39999389648</ele>
        <time>2015-02-07T21:52:54.000Z</time>
      </trkpt>
      <trkpt lat="43.67477" lon="1.14544">
        <ele>229.19999694824</ele>
        <time>2015-02-07T21:53:00.000Z</time>
      </trkpt>
      <trkpt lat="43.67479" lon="1.14558">
        <ele>228.19999694824</ele>
        <time>2015-02-07T21:53:04.000Z</time>
      </trkpt>
      <trkpt lat="43.67482" lon="1.14577">
        <ele>227.19999694824</ele>
        <time>2015-02-07T21:53:09.000Z</time>
      </trkpt>
      <trkpt lat="43.67483" lon="1.14601">
        <ele>225.80000305176</ele>
        <time>2015-02-07T21:53:15.000Z</time>
      </trkpt>
      <trkpt lat="43.67484" lon="1.1462">
        <ele>224.80000305176</ele>
        <time>2015-02-07T21:53:20.000Z</time>
      </trkpt>
      <trkpt lat="43.67486" lon="1.14645">
        <ele>223.39999389648</ele>
        <time>2015-02-07T21:53:27.000Z</time>
      </trkpt>
      <trkpt lat="43.67486" lon="1.14649">
        <ele>223.19999694824</ele>
        <time>2015-02-07T21:53:28.000Z</time>
      </trkpt>
      <trkpt lat="43.67489" lon="1.14674">
        <ele>221.60000610352</ele>
        <time>2015-02-07T21:53:35.000Z</time>
      </trkpt>
      <trkpt lat="43.67493" lon="1.14693">
        <ele>220.60000610352</ele>
        <time>2015-02-07T21:53:40.000Z</time>
      </trkpt>
      <trkpt lat="43.67494" lon="1.1471">
        <ele>219.60000610352</ele>
        <time>2015-02-07T21:53:45.000Z</time>
      </trkpt>
      <trkpt lat="43.67499" lon="1.14728">
        <ele>218.60000610352</ele>
        <time>2015-02-07T21:53:50.000Z</time>
      </trkpt>
      <trkpt lat="43.67505" lon="1.14745">
        <ele>217.60000610352</ele>
        <time>2015-02-07T21:53:55.000Z</time>
      </trkpt>
      <trkpt lat="43.67512" lon="1.14763">
        <ele>216.60000610352</ele>
        <time>2015-02-07T21:54:00.000Z</time>
      </trkpt>
      <trkpt lat="43.67517" lon="1.14785">
        <ele>215.39999389648</ele>
        <time>2015-02-07T21:54:06.000Z</time>
      </trkpt>
      <trkpt lat="43.67523" lon="1.14812">
        <ele>214</ele>
        <time>2015-02-07T21:54:13.000Z</time>
      </trkpt>
      <trkpt lat="43.67529" lon="1.14838">
        <ele>212.80000305176</ele>
        <time>2015-02-07T21:54:20.000Z</time>
      </trkpt>
      <trkpt lat="43.67535" lon="1.14865">
        <ele>211.39999389648</ele>
        <time>2015-02-07T21:54:27.000Z</time>
      </trkpt>
      <trkpt lat="43.67536" lon="1.14869">
        <ele>211.19999694824</ele>
        <time>2015-02-07T21:54:28.000Z</time>
      </trkpt>
      <trkpt lat="43.6754" lon="1.14891">
        <ele>210.19999694824</ele>
        <time>2015-02-07T21:54:34.000Z</time>
      </trkpt>
      <trkpt lat="43.67546" lon="1.14913">
        <ele>209</ele>
        <time>2015-02-07T21:54:40.000Z</time>
      </trkpt>
      <trkpt lat="43.67553" lon="1.14934">
        <ele>208</ele>
        <time>2015-02-07T21:54:46.000Z</time>
      </trkpt>
      <trkpt lat="43.67559" lon="1.14954">
        <ele>206.80000305176</ele>
        <time>2015-02-07T21:54:52.000Z</time>
      </trkpt>
      <trkpt lat="43.6757" lon="1.14976">
        <ele>205.39999389648</ele>
        <time>2015-02-07T21:54:59.000Z</time>
      </trkpt>
      <trkpt lat="43.67571" lon="1.1498">
        <ele>205.19999694824</ele>
        <time>2015-02-07T21:55:00.000Z</time>
      </trkpt>
      <trkpt lat="43.67577" lon="1.14994">
        <ele>204.39999389648</ele>
        <time>2015-02-07T21:55:04.000Z</time>
      </trkpt>
      <trkpt lat="43.67586" lon="1.15015">
        <ele>202.80000305176</ele>
        <time>2015-02-07T21:55:11.000Z</time>
      </trkpt>
      <trkpt lat="43.67593" lon="1.15036">
        <ele>201.60000610352</ele>
        <time>2015-02-07T21:55:17.000Z</time>
      </trkpt>
      <trkpt lat="43.67597" lon="1.15054">
        <ele>200.60000610352</ele>
        <time>2015-02-07T21:55:22.000Z</time>
      </trkpt>
      <trkpt lat="43.67604" lon="1.15076">
        <ele>199.39999389648</ele>
        <time>2015-02-07T21:55:28.000Z</time>
      </trkpt>
      <trkpt lat="43.67613" lon="1.15101">
        <ele>198</ele>
        <time>2015-02-07T21:55:35.000Z</time>
      </trkpt>
      <trkpt lat="43.67621" lon="1.15117">
        <ele>197.19999694824</ele>
        <time>2015-02-07T21:55:40.000Z</time>
      </trkpt>
      <trkpt lat="43.67633" lon="1.15139">
        <ele>195.80000305176</ele>
        <time>2015-02-07T21:55:47.000Z</time>
      </trkpt>
      <trkpt lat="43.67635" lon="1.15142">
        <ele>195.60000610352</ele>
        <time>2015-02-07T21:55:48.000Z</time>
      </trkpt>
      <trkpt lat="43.67642" lon="1.1516">
        <ele>194.60000610352</ele>
        <time>2015-02-07T21:55:53.000Z</time>
      </trkpt>
      <trkpt lat="43.6765" lon="1.15183">
        <ele>193.19999694824</ele>
        <time>2015-02-07T21:55:59.000Z</time>
      </trkpt>
      <trkpt lat="43.67655" lon="1.15201">
        <ele>192</ele>
        <time>2015-02-07T21:56:04.000Z</time>
      </trkpt>
      <trkpt lat="43.67664" lon="1.1522">
        <ele>190.80000305176</ele>
        <time>2015-02-07T21:56:10.000Z</time>
      </trkpt>
      <trkpt lat="43.67674" lon="1.15237">
        <ele>189.60000610352</ele>
        <time>2015-02-07T21:56:16.000Z</time>
      </trkpt>
      <trkpt lat="43.67686" lon="1.15256">
        <ele>188</ele>
        <time>2015-02-07T21:56:23.000Z</time>
      </trkpt>
      <trkpt lat="43.67688" lon="1.15272">
        <ele>187</ele>
        <time>2015-02-07T21:56:28.000Z</time>
      </trkpt>
      <trkpt lat="43.67685" lon="1.15286">
        <ele>186.19999694824</ele>
        <time>2015-02-07T21:56:32.000Z</time>
      </trkpt>
      <trkpt lat="43.67682" lon="1.15303">
        <ele>185</ele>
        <time>2015-02-07T21:56:37.000Z</time>
      </trkpt>
      <trkpt lat="43.67677" lon="1.15329">
        <ele>183.80000305176</ele>
        <time>2015-02-07T21:56:44.000Z</time>
      </trkpt>
      <trkpt lat="43.67673" lon="1.15352">
        <ele>182.60000610352</ele>
        <time>2015-02-07T21:56:50.000Z</time>
      </trkpt>
      <trkpt lat="43.67669" lon="1.15378">
        <ele>181.39999389648</ele>
        <time>2015-02-07T21:56:57.000Z</time>
      </trkpt>
      <trkpt lat="43.67665" lon="1.154">
        <ele>180.19999694824</ele>
        <time>2015-02-07T21:57:03.000Z</time>
      </trkpt>
      <trkpt lat="43.67661" lon="1.15426">
        <ele>179</ele>
        <time>2015-02-07T21:57:10.000Z</time>
      </trkpt>
      <trkpt lat="43.67661" lon="1.1543">
        <ele>178.80000305176</ele>
        <time>2015-02-07T21:57:11.000Z</time>
      </trkpt>
      <trkpt lat="43.67656" lon="1.15452">
        <ele>177.80000305176</ele>
        <time>2015-02-07T21:57:17.000Z</time>
      </trkpt>
      <trkpt lat="43.67652" lon="1.15478">
        <ele>176.60000610352</ele>
        <time>2015-02-07T21:57:24.000Z</time>
      </trkpt>
      <trkpt lat="43.67647" lon="1.15499">
        <ele>175.80000305176</ele>
        <time>2015-02-07T21:57:30.000Z</time>
      </trkpt>
      <trkpt lat="43.67644" lon="1.15508">
        <ele>175.19999694824</ele>
        <time>2015-02-07T21:57:34.000Z</time>
      </trkpt>
      <trkpt lat="43.67645" lon="1.15508">
        <ele>174.39999389648</ele>
        <time>2015-02-07T21:57:40.000Z</time>
      </trkpt>
      <trkpt lat="43.67646" lon="1.15508">
        <ele>173.39999389648</ele>
        <time>2015-02-07T21:57:47.000Z</time>
      </trkpt>
      <trkpt lat="43.67645" lon="1.1551">
        <ele>173.19999694824</ele>
        <time>2015-02-07T21:57:49.000Z</time>
      </trkpt>
      <trkpt lat="43.67644" lon="1.15513">
        <ele>172.80000305176</ele>
        <time>2015-02-07T21:57:52.000Z</time>
      </trkpt>
      <trkpt lat="43.67642" lon="1.15522">
        <ele>172.19999694824</ele>
        <time>2015-02-07T21:57:57.000Z</time>
      </trkpt>
      <trkpt lat="43.67642" lon="1.15524">
        <ele>172.19999694824</ele>
        <time>2015-02-07T21:57:58.000Z</time>
      </trkpt>
      <trkpt lat="43.67641" lon="1.15529">
        <ele>171.80000305176</ele>
        <time>2015-02-07T21:58:01.000Z</time>
      </trkpt>
      <trkpt lat="43.6764" lon="1.15533">
        <ele>171.39999389648</ele>
        <time>2015-02-07T21:58:04.000Z</time>
      </trkpt>
      <trkpt lat="43.6764" lon="1.15535">
        <ele>171.39999389648</ele>
        <time>2015-02-07T21:58:05.000Z</time>
      </trkpt>
      <trkpt lat="43.67639" lon="1.15538">
        <ele>170.60000610352</ele>
        <time>2015-02-07T21:58:12.000Z</time>
      </trkpt>
      <trkpt lat="43.67638" lon="1.15544">
        <ele>170.19999694824</ele>
        <time>2015-02-07T21:58:17.000Z</time>
      </trkpt>
      <trkpt lat="43.67638" lon="1.15545">
        <ele>170</ele>
        <time>2015-02-07T21:58:18.000Z</time>
      </trkpt>
      <trkpt lat="43.67637" lon="1.1555">
        <ele>169.60000610352</ele>
        <time>2015-02-07T21:58:21.000Z</time>
      </trkpt>
      <trkpt lat="43.67637" lon="1.15552">
        <ele>169.60000610352</ele>
        <time>2015-02-07T21:58:22.000Z</time>
      </trkpt>
      <trkpt lat="43.67635" lon="1.15563">
        <ele>169</ele>
        <time>2015-02-07T21:58:28.000Z</time>
      </trkpt>
      <trkpt lat="43.67633" lon="1.15578">
        <ele>168.19999694824</ele>
        <time>2015-02-07T21:58:37.000Z</time>
      </trkpt>
      <trkpt lat="43.67631" lon="1.15594">
        <ele>167.39999389648</ele>
        <time>2015-02-07T21:58:46.000Z</time>
      </trkpt>
      <trkpt lat="43.67629" lon="1.15609">
        <ele>166.80000305176</ele>
        <time>2015-02-07T21:58:54.000Z</time>
      </trkpt>
      <trkpt lat="43.67626" lon="1.15621">
        <ele>166.19999694824</ele>
        <time>2015-02-07T21:59:01.000Z</time>
      </trkpt>
      <trkpt lat="43.67622" lon="1.15642">
        <ele>165.60000610352</ele>
        <time>2015-02-07T21:59:09.000Z</time>
      </trkpt>
      <trkpt lat="43.67618" lon="1.15661">
        <ele>165.19999694824</ele>
        <time>2015-02-07T21:59:14.000Z</time>
      </trkpt>
      <trkpt lat="43.67612" lon="1.15687">
        <ele>164.80000305176</ele>
        <time>2015-02-07T21:59:21.000Z</time>
      </trkpt>
      <trkpt lat="43.67605" lon="1.1571">
        <ele>164.19999694824</ele>
        <time>2015-02-07T21:59:28.000Z</time>
      </trkpt>
      <trkpt lat="43.676" lon="1.15736">
        <ele>163.80000305176</ele>
        <time>2015-02-07T21:59:35.000Z</time>
      </trkpt>
      <trkpt lat="43.676" lon="1.1574">
        <ele>163.80000305176</ele>
        <time>2015-02-07T21:59:36.000Z</time>
      </trkpt>
      <trkpt lat="43.67596" lon="1.15761">
        <ele>163.39999389648</ele>
        <time>2015-02-07T21:59:42.000Z</time>
      </trkpt>
      <trkpt lat="43.67595" lon="1.15783">
        <ele>163.19999694824</ele>
        <time>2015-02-07T21:59:48.000Z</time>
      </trkpt>
      <trkpt lat="43.67594" lon="1.15804">
        <ele>162.80000305176</ele>
        <time>2015-02-07T21:59:54.000Z</time>
      </trkpt>
      <trkpt lat="43.67593" lon="1.15823">
        <ele>162.60000610352</ele>
        <time>2015-02-07T21:59:59.000Z</time>
      </trkpt>
      <trkpt lat="43.67592" lon="1.15842">
        <ele>162.19999694824</ele>
        <time>2015-02-07T22:00:04.000Z</time>
      </trkpt>
      <trkpt lat="43.67592" lon="1.15868">
        <ele>162</ele>
        <time>2015-02-07T22:00:11.000Z</time>
      </trkpt>
      <trkpt lat="43.67593" lon="1.15887">
        <ele>161.80000305176</ele>
        <time>2015-02-07T22:00:16.000Z</time>
      </trkpt>
      <trkpt lat="43.67591" lon="1.15912">
        <ele>161.60000610352</ele>
        <time>2015-02-07T22:00:23.000Z</time>
      </trkpt>
      <trkpt lat="43.67588" lon="1.15936">
        <ele>161.60000610352</ele>
        <time>2015-02-07T22:00:30.000Z</time>
      </trkpt>
      <trkpt lat="43.67583" lon="1.15962">
        <ele>161.39999389648</ele>
        <time>2015-02-07T22:00:38.000Z</time>
      </trkpt>
      <trkpt lat="43.67583" lon="1.15965">
        <ele>161.39999389648</ele>
        <time>2015-02-07T22:00:39.000Z</time>
      </trkpt>
      <trkpt lat="43.6758" lon="1.15986">
        <ele>161.19999694824</ele>
        <time>2015-02-07T22:00:45.000Z</time>
      </trkpt>
      <trkpt lat="43.67576" lon="1.1601">
        <ele>161.19999694824</ele>
        <time>2015-02-07T22:00:52.000Z</time>
      </trkpt>
      <trkpt lat="43.67572" lon="1.1603">
        <ele>161.19999694824</ele>
        <time>2015-02-07T22:00:58.000Z</time>
      </trkpt>
      <trkpt lat="43.67566" lon="1.16054">
        <ele>161.19999694824</ele>
        <time>2015-02-07T22:01:05.000Z</time>
      </trkpt>
      <trkpt lat="43.67565" lon="1.16058">
        <ele>161.19999694824</ele>
        <time>2015-02-07T22:01:06.000Z</time>
      </trkpt>
      <trkpt lat="43.67559" lon="1.16074">
        <ele>161.19999694824</ele>
        <time>2015-02-07T22:01:11.000Z</time>
      </trkpt>
      <trkpt lat="43.67553" lon="1.16095">
        <ele>161.19999694824</ele>
        <time>2015-02-07T22:01:17.000Z</time>
      </trkpt>
      <trkpt lat="43.67548" lon="1.16116">
        <ele>161.19999694824</ele>
        <time>2015-02-07T22:01:23.000Z</time>
      </trkpt>
      <trkpt lat="43.67543" lon="1.16141">
        <ele>161.19999694824</ele>
        <time>2015-02-07T22:01:30.000Z</time>
      </trkpt>
      <trkpt lat="43.67542" lon="1.16144">
        <ele>161.39999389648</ele>
        <time>2015-02-07T22:01:31.000Z</time>
      </trkpt>
      <trkpt lat="43.6754" lon="1.16161">
        <ele>161.39999389648</ele>
        <time>2015-02-07T22:01:36.000Z</time>
      </trkpt>
      <trkpt lat="43.67535" lon="1.16182">
        <ele>161.39999389648</ele>
        <time>2015-02-07T22:01:42.000Z</time>
      </trkpt>
      <trkpt lat="43.67532" lon="1.16196">
        <ele>161.60000610352</ele>
        <time>2015-02-07T22:01:47.000Z</time>
      </trkpt>
      <trkpt lat="43.67532" lon="1.16199">
        <ele>161.60000610352</ele>
        <time>2015-02-07T22:01:48.000Z</time>
      </trkpt>
      <trkpt lat="43.67529" lon="1.16207">
        <ele>161.60000610352</ele>
        <time>2015-02-07T22:01:51.000Z</time>
      </trkpt>
      <trkpt lat="43.67525" lon="1.1622">
        <ele>161.60000610352</ele>
        <time>2015-02-07T22:01:56.000Z</time>
      </trkpt>
      <trkpt lat="43.6752" lon="1.16235">
        <ele>161.60000610352</ele>
        <time>2015-02-07T22:02:01.000Z</time>
      </trkpt>
      <trkpt lat="43.67517" lon="1.16246">
        <ele>161.39999389648</ele>
        <time>2015-02-07T22:02:06.000Z</time>
      </trkpt>
      <trkpt lat="43.67518" lon="1.16249">
        <ele>161.60000610352</ele>
        <time>2015-02-07T22:02:08.000Z</time>
      </trkpt>
      <trkpt lat="43.67519" lon="1.16251">
        <ele>161.39999389648</ele>
        <time>2015-02-07T22:02:11.000Z</time>
      </trkpt>
      <trkpt lat="43.67519" lon="1.1626">
        <ele>161.60000610352</ele>
        <time>2015-02-07T22:02:16.000Z</time>
      </trkpt>
      <trkpt lat="43.67518" lon="1.16268">
        <ele>161.60000610352</ele>
        <time>2015-02-07T22:02:20.000Z</time>
      </trkpt>
      <trkpt lat="43.67517" lon="1.1627">
        <ele>161.60000610352</ele>
        <time>2015-02-07T22:02:21.000Z</time>
      </trkpt>
      <trkpt lat="43.67514" lon="1.16282">
        <ele>161.80000305176</ele>
        <time>2015-02-07T22:02:26.000Z</time>
      </trkpt>
      <trkpt lat="43.67509" lon="1.16302">
        <ele>162.19999694824</ele>
        <time>2015-02-07T22:02:34.000Z</time>
      </trkpt>
      <trkpt lat="43.67507" lon="1.16318">
        <ele>162.60000610352</ele>
        <time>2015-02-07T22:02:40.000Z</time>
      </trkpt>
      <trkpt lat="43.67504" lon="1.1633">
        <ele>163</ele>
        <time>2015-02-07T22:02:45.000Z</time>
      </trkpt>
      <trkpt lat="43.675" lon="1.16346">
        <ele>163.39999389648</ele>
        <time>2015-02-07T22:02:51.000Z</time>
      </trkpt>
      <trkpt lat="43.67495" lon="1.16363">
        <ele>163.80000305176</ele>
        <time>2015-02-07T22:02:58.000Z</time>
      </trkpt>
      <trkpt lat="43.67495" lon="1.16366">
        <ele>163.80000305176</ele>
        <time>2015-02-07T22:02:59.000Z</time>
      </trkpt>
      <trkpt lat="43.67496" lon="1.16381">
        <ele>164.19999694824</ele>
        <time>2015-02-07T22:03:04.000Z</time>
      </trkpt>
      <trkpt lat="43.67496" lon="1.16401">
        <ele>164.60000610352</ele>
        <time>2015-02-07T22:03:10.000Z</time>
      </trkpt>
      <trkpt lat="43.67492" lon="1.16412">
        <ele>165</ele>
        <time>2015-02-07T22:03:14.000Z</time>
      </trkpt>
      <trkpt lat="43.67485" lon="1.1643">
        <ele>166</ele>
        <time>2015-02-07T22:03:21.000Z</time>
      </trkpt>
      <trkpt lat="43.67484" lon="1.16431">
        <ele>166.19999694824</ele>
        <time>2015-02-07T22:03:22.000Z</time>
      </trkpt>
      <trkpt lat="43.6748" lon="1.1644">
        <ele>166.80000305176</ele>
        <time>2015-02-07T22:03:27.000Z</time>
      </trkpt>
      <trkpt lat="43.67479" lon="1.16442">
        <ele>166.80000305176</ele>
        <time>2015-02-07T22:03:28.000Z</time>
      </trkpt>
      <trkpt lat="43.67477" lon="1.1645">
        <ele>167.39999389648</ele>
        <time>2015-02-07T22:03:31.000Z</time>
      </trkpt>
      <trkpt lat="43.67473" lon="1.1646">
        <ele>168</ele>
        <time>2015-02-07T22:03:36.000Z</time>
      </trkpt>
      <trkpt lat="43.67468" lon="1.16471">
        <ele>168.80000305176</ele>
        <time>2015-02-07T22:03:43.000Z</time>
      </trkpt>
      <trkpt lat="43.67467" lon="1.16473">
        <ele>169</ele>
        <time>2015-02-07T22:03:45.000Z</time>
      </trkpt>
      <trkpt lat="43.67464" lon="1.16478">
        <ele>169.19999694824</ele>
        <time>2015-02-07T22:03:48.000Z</time>
      </trkpt>
      <trkpt lat="43.67462" lon="1.16482">
        <ele>169.19999694824</ele>
        <time>2015-02-07T22:03:51.000Z</time>
      </trkpt>
      <trkpt lat="43.67462" lon="1.16485">
        <ele>169.39999389648</ele>
        <time>2015-02-07T22:03:53.000Z</time>
      </trkpt>
      <trkpt lat="43.67462" lon="1.16486">
        <ele>169.39999389648</ele>
        <time>2015-02-07T22:03:54.000Z</time>
      </trkpt>
      <trkpt lat="43.67462" lon="1.16487">
        <ele>169.39999389648</ele>
        <time>2015-02-07T22:03:55.000Z</time>
      </trkpt>
      <trkpt lat="43.67461" lon="1.1649">
        <ele>169.60000610352</ele>
        <time>2015-02-07T22:03:58.000Z</time>
      </trkpt>
      <trkpt lat="43.67461" lon="1.16491">
        <ele>169.60000610352</ele>
        <time>2015-02-07T22:03:59.000Z</time>
      </trkpt>
      <trkpt lat="43.67461" lon="1.165">
        <ele>170</ele>
        <time>2015-02-07T22:04:05.000Z</time>
      </trkpt>
      <trkpt lat="43.6746" lon="1.16503">
        <ele>170</ele>
        <time>2015-02-07T22:04:07.000Z</time>
      </trkpt>
      <trkpt lat="43.67458" lon="1.16509">
        <ele>170.19999694824</ele>
        <time>2015-02-07T22:04:11.000Z</time>
      </trkpt>
      <trkpt lat="43.67458" lon="1.1651">
        <ele>170.19999694824</ele>
        <time>2015-02-07T22:04:12.000Z</time>
      </trkpt>
      <trkpt lat="43.67455" lon="1.16517">
        <ele>170.19999694824</ele>
        <time>2015-02-07T22:04:16.000Z</time>
      </trkpt>
      <trkpt lat="43.67453" lon="1.16522">
        <ele>170.19999694824</ele>
        <time>2015-02-07T22:04:18.000Z</time>
      </trkpt>
      <trkpt lat="43.67448" lon="1.16536">
        <ele>170.39999389648</ele>
        <time>2015-02-07T22:04:25.000Z</time>
      </trkpt>
      <trkpt lat="43.67444" lon="1.16551">
        <ele>170.60000610352</ele>
        <time>2015-02-07T22:04:30.000Z</time>
      </trkpt>
      <trkpt lat="43.67441" lon="1.1656">
        <ele>170.80000305176</ele>
        <time>2015-02-07T22:04:33.000Z</time>
      </trkpt>
      <trkpt lat="43.67438" lon="1.16571">
        <ele>171.19999694824</ele>
        <time>2015-02-07T22:04:37.000Z</time>
      </trkpt>
      <trkpt lat="43.67436" lon="1.16583">
        <ele>171.60000610352</ele>
        <time>2015-02-07T22:04:41.000Z</time>
      </trkpt>
      <trkpt lat="43.67435" lon="1.16586">
        <ele>171.60000610352</ele>
        <time>2015-02-07T22:04:42.000Z</time>
      </trkpt>
      <trkpt lat="43.67432" lon="1.16601">
        <ele>172.19999694824</ele>
        <time>2015-02-07T22:04:47.000Z</time>
      </trkpt>
      <trkpt lat="43.6743" lon="1.16613">
        <ele>172.80000305176</ele>
        <time>2015-02-07T22:04:51.000Z</time>
      </trkpt>
      <trkpt lat="43.6743" lon="1.1662">
        <ele>173</ele>
        <time>2015-02-07T22:04:53.000Z</time>
      </trkpt>
      <trkpt lat="43.67431" lon="1.16626">
        <ele>173.39999389648</ele>
        <time>2015-02-07T22:04:55.000Z</time>
      </trkpt>
      <trkpt lat="43.67431" lon="1.16643">
        <ele>174.19999694824</ele>
        <time>2015-02-07T22:05:00.000Z</time>
      </trkpt>
      <trkpt lat="43.67431" lon="1.16657">
        <ele>175.19999694824</ele>
        <time>2015-02-07T22:05:05.000Z</time>
      </trkpt>
      <trkpt lat="43.67431" lon="1.1666">
        <ele>175.39999389648</ele>
        <time>2015-02-07T22:05:06.000Z</time>
      </trkpt>
      <trkpt lat="43.67431" lon="1.16678">
        <ele>176.19999694824</ele>
        <time>2015-02-07T22:05:11.000Z</time>
      </trkpt>
      <trkpt lat="43.67432" lon="1.16689">
        <ele>177</ele>
        <time>2015-02-07T22:05:15.000Z</time>
      </trkpt>
      <trkpt lat="43.67433" lon="1.16705">
        <ele>178</ele>
        <time>2015-02-07T22:05:20.000Z</time>
      </trkpt>
      <trkpt lat="43.67433" lon="1.16708">
        <ele>178.19999694824</ele>
        <time>2015-02-07T22:05:21.000Z</time>
      </trkpt>
      <trkpt lat="43.67433" lon="1.16724">
        <ele>179.39999389648</ele>
        <time>2015-02-07T22:05:27.000Z</time>
      </trkpt>
      <trkpt lat="43.67433" lon="1.1674">
        <ele>180.60000610352</ele>
        <time>2015-02-07T22:05:32.000Z</time>
      </trkpt>
      <trkpt lat="43.67433" lon="1.16753">
        <ele>181.39999389648</ele>
        <time>2015-02-07T22:05:36.000Z</time>
      </trkpt>
      <trkpt lat="43.67431" lon="1.16771">
        <ele>182.60000610352</ele>
        <time>2015-02-07T22:05:42.000Z</time>
      </trkpt>
      <trkpt lat="43.6743" lon="1.16787">
        <ele>183.39999389648</ele>
        <time>2015-02-07T22:05:47.000Z</time>
      </trkpt>
      <trkpt lat="43.67427" lon="1.16809">
        <ele>184.60000610352</ele>
        <time>2015-02-07T22:05:54.000Z</time>
      </trkpt>
      <trkpt lat="43.67424" lon="1.16824">
        <ele>185.39999389648</ele>
        <time>2015-02-07T22:05:59.000Z</time>
      </trkpt>
      <trkpt lat="43.67423" lon="1.16837">
        <ele>185.80000305176</ele>
        <time>2015-02-07T22:06:03.000Z</time>
      </trkpt>
      <trkpt lat="43.67423" lon="1.16843">
        <ele>186.19999694824</ele>
        <time>2015-02-07T22:06:05.000Z</time>
      </trkpt>
      <trkpt lat="43.67419" lon="1.16867">
        <ele>187.19999694824</ele>
        <time>2015-02-07T22:06:13.000Z</time>
      </trkpt>
      <trkpt lat="43.67417" lon="1.16885">
        <ele>187.80000305176</ele>
        <time>2015-02-07T22:06:19.000Z</time>
      </trkpt>
      <trkpt lat="43.67416" lon="1.16894">
        <ele>188.19999694824</ele>
        <time>2015-02-07T22:06:22.000Z</time>
      </trkpt>
      <trkpt lat="43.67415" lon="1.16904">
        <ele>188.60000610352</ele>
        <time>2015-02-07T22:06:25.000Z</time>
      </trkpt>
      <trkpt lat="43.67414" lon="1.1692">
        <ele>189</ele>
        <time>2015-02-07T22:06:30.000Z</time>
      </trkpt>
      <trkpt lat="43.67415" lon="1.16923">
        <ele>189.39999389648</ele>
        <time>2015-02-07T22:06:32.000Z</time>
      </trkpt>
      <trkpt lat="43.67415" lon="1.16926">
        <ele>189.39999389648</ele>
        <time>2015-02-07T22:06:34.000Z</time>
      </trkpt>
      <trkpt lat="43.67414" lon="1.1693">
        <ele>190.19999694824</ele>
        <time>2015-02-07T22:06:41.000Z</time>
      </trkpt>
      <trkpt lat="43.67415" lon="1.16931">
        <ele>190.39999389648</ele>
        <time>2015-02-07T22:06:42.000Z</time>
      </trkpt>
      <trkpt lat="43.67414" lon="1.16933">
        <ele>190.80000305176</ele>
        <time>2015-02-07T22:06:46.000Z</time>
      </trkpt>
      <trkpt lat="43.67412" lon="1.16947">
        <ele>191</ele>
        <time>2015-02-07T22:06:51.000Z</time>
      </trkpt>
      <trkpt lat="43.67412" lon="1.1695">
        <ele>191.19999694824</ele>
        <time>2015-02-07T22:06:52.000Z</time>
      </trkpt>
      <trkpt lat="43.67411" lon="1.16959">
        <ele>191.39999389648</ele>
        <time>2015-02-07T22:06:55.000Z</time>
      </trkpt>
      <trkpt lat="43.6741" lon="1.16978">
        <ele>191.80000305176</ele>
        <time>2015-02-07T22:07:01.000Z</time>
      </trkpt>
      <trkpt lat="43.67409" lon="1.16987">
        <ele>192</ele>
        <time>2015-02-07T22:07:04.000Z</time>
      </trkpt>
      <trkpt lat="43.67409" lon="1.16992">
        <ele>192</ele>
        <time>2015-02-07T22:07:06.000Z</time>
      </trkpt>
      <trkpt lat="43.67406" lon="1.17005">
        <ele>192.39999389648</ele>
        <time>2015-02-07T22:07:10.000Z</time>
      </trkpt>
      <trkpt lat="43.67406" lon="1.17012">
        <ele>192.39999389648</ele>
        <time>2015-02-07T22:07:12.000Z</time>
      </trkpt>
      <trkpt lat="43.67407" lon="1.17019">
        <ele>192.39999389648</ele>
        <time>2015-02-07T22:07:14.000Z</time>
      </trkpt>
      <trkpt lat="43.67407" lon="1.17022">
        <ele>192.60000610352</ele>
        <time>2015-02-07T22:07:15.000Z</time>
      </trkpt>
      <trkpt lat="43.67407" lon="1.17029">
        <ele>192.60000610352</ele>
        <time>2015-02-07T22:07:17.000Z</time>
      </trkpt>
      <trkpt lat="43.67407" lon="1.17048">
        <ele>192.60000610352</ele>
        <time>2015-02-07T22:07:23.000Z</time>
      </trkpt>
      <trkpt lat="43.67407" lon="1.1706">
        <ele>192.60000610352</ele>
        <time>2015-02-07T22:07:27.000Z</time>
      </trkpt>
      <trkpt lat="43.67409" lon="1.17064">
        <ele>192.39999389648</ele>
        <time>2015-02-07T22:07:28.000Z</time>
      </trkpt>
      <trkpt lat="43.67409" lon="1.17077">
        <ele>192.39999389648</ele>
        <time>2015-02-07T22:07:32.000Z</time>
      </trkpt>
      <trkpt lat="43.67411" lon="1.17091">
        <ele>192.39999389648</ele>
        <time>2015-02-07T22:07:36.000Z</time>
      </trkpt>
      <trkpt lat="43.67412" lon="1.17097">
        <ele>192.39999389648</ele>
        <time>2015-02-07T22:07:38.000Z</time>
      </trkpt>
      <trkpt lat="43.67414" lon="1.17119">
        <ele>192.39999389648</ele>
        <time>2015-02-07T22:07:44.000Z</time>
      </trkpt>
      <trkpt lat="43.67424" lon="1.17136">
        <ele>192.19999694824</ele>
        <time>2015-02-07T22:07:51.000Z</time>
      </trkpt>
      <trkpt lat="43.67434" lon="1.17148">
        <ele>192</ele>
        <time>2015-02-07T22:07:57.000Z</time>
      </trkpt>
      <trkpt lat="43.67437" lon="1.17152">
        <ele>192</ele>
        <time>2015-02-07T22:07:59.000Z</time>
      </trkpt>
      <trkpt lat="43.67441" lon="1.17156">
        <ele>192</ele>
        <time>2015-02-07T22:08:01.000Z</time>
      </trkpt>
      <trkpt lat="43.67448" lon="1.17164">
        <ele>191.80000305176</ele>
        <time>2015-02-07T22:08:05.000Z</time>
      </trkpt>
      <trkpt lat="43.67449" lon="1.17165">
        <ele>191.80000305176</ele>
        <time>2015-02-07T22:08:06.000Z</time>
      </trkpt>
      <trkpt lat="43.67453" lon="1.17169">
        <ele>191.80000305176</ele>
        <time>2015-02-07T22:08:08.000Z</time>
      </trkpt>
      <trkpt lat="43.67457" lon="1.17173">
        <ele>191.80000305176</ele>
        <time>2015-02-07T22:08:11.000Z</time>
      </trkpt>
      <trkpt lat="43.67459" lon="1.17175">
        <ele>191.80000305176</ele>
        <time>2015-02-07T22:08:12.000Z</time>
      </trkpt>
      <trkpt lat="43.67468" lon="1.17181">
        <ele>191.80000305176</ele>
        <time>2015-02-07T22:08:16.000Z</time>
      </trkpt>
      <trkpt lat="43.6747" lon="1.17183">
        <ele>191.80000305176</ele>
        <time>2015-02-07T22:08:17.000Z</time>
      </trkpt>
      <trkpt lat="43.67475" lon="1.1719">
        <ele>191.80000305176</ele>
        <time>2015-02-07T22:08:21.000Z</time>
      </trkpt>
      <trkpt lat="43.67488" lon="1.17202">
        <ele>191.60000610352</ele>
        <time>2015-02-07T22:08:28.000Z</time>
      </trkpt>
      <trkpt lat="43.67493" lon="1.17211">
        <ele>191.60000610352</ele>
        <time>2015-02-07T22:08:31.000Z</time>
      </trkpt>
      <trkpt lat="43.67493" lon="1.17215">
        <ele>191.60000610352</ele>
        <time>2015-02-07T22:08:32.000Z</time>
      </trkpt>
      <trkpt lat="43.6749" lon="1.17228">
        <ele>191.60000610352</ele>
        <time>2015-02-07T22:08:36.000Z</time>
      </trkpt>
      <trkpt lat="43.67489" lon="1.17234">
        <ele>191.60000610352</ele>
        <time>2015-02-07T22:08:38.000Z</time>
      </trkpt>
      <trkpt lat="43.67487" lon="1.17247">
        <ele>191.60000610352</ele>
        <time>2015-02-07T22:08:42.000Z</time>
      </trkpt>
      <trkpt lat="43.67482" lon="1.17272">
        <ele>191.60000610352</ele>
        <time>2015-02-07T22:08:49.000Z</time>
      </trkpt>
      <trkpt lat="43.6748" lon="1.1729">
        <ele>191.39999389648</ele>
        <time>2015-02-07T22:08:54.000Z</time>
      </trkpt>
      <trkpt lat="43.67479" lon="1.17295">
        <ele>191.39999389648</ele>
        <time>2015-02-07T22:08:55.000Z</time>
      </trkpt>
      <trkpt lat="43.67479" lon="1.17317">
        <ele>191.19999694824</ele>
        <time>2015-02-07T22:09:00.000Z</time>
      </trkpt>
      <trkpt lat="43.67479" lon="1.17336">
        <ele>191.19999694824</ele>
        <time>2015-02-07T22:09:05.000Z</time>
      </trkpt>
      <trkpt lat="43.67475" lon="1.17359">
        <ele>190.80000305176</ele>
        <time>2015-02-07T22:09:11.000Z</time>
      </trkpt>
      <trkpt lat="43.67468" lon="1.17381">
        <ele>190.60000610352</ele>
        <time>2015-02-07T22:09:17.000Z</time>
      </trkpt>
      <trkpt lat="43.67463" lon="1.17401">
        <ele>190.19999694824</ele>
        <time>2015-02-07T22:09:22.000Z</time>
      </trkpt>
      <trkpt lat="43.67457" lon="1.17428">
        <ele>189.60000610352</ele>
        <time>2015-02-07T22:09:29.000Z</time>
      </trkpt>
      <trkpt lat="43.67449" lon="1.17451">
        <ele>189.19999694824</ele>
        <time>2015-02-07T22:09:35.000Z</time>
      </trkpt>
      <trkpt lat="43.67443" lon="1.17468">
        <ele>188.80000305176</ele>
        <time>2015-02-07T22:09:40.000Z</time>
      </trkpt>
      <trkpt lat="43.67436" lon="1.17493">
        <ele>188.19999694824</ele>
        <time>2015-02-07T22:09:47.000Z</time>
      </trkpt>
      <trkpt lat="43.67429" lon="1.17515">
        <ele>187.60000610352</ele>
        <time>2015-02-07T22:09:53.000Z</time>
      </trkpt>
      <trkpt lat="43.67424" lon="1.17533">
        <ele>187.19999694824</ele>
        <time>2015-02-07T22:09:58.000Z</time>
      </trkpt>
      <trkpt lat="43.67416" lon="1.17555">
        <ele>186.60000610352</ele>
        <time>2015-02-07T22:10:04.000Z</time>
      </trkpt>
      <trkpt lat="43.67408" lon="1.17581">
        <ele>186</ele>
        <time>2015-02-07T22:10:11.000Z</time>
      </trkpt>
      <trkpt lat="43.67407" lon="1.17585">
        <ele>185.80000305176</ele>
        <time>2015-02-07T22:10:12.000Z</time>
      </trkpt>
      <trkpt lat="43.67403" lon="1.17608">
        <ele>185.19999694824</ele>
        <time>2015-02-07T22:10:18.000Z</time>
      </trkpt>
      <trkpt lat="43.67398" lon="1.1763">
        <ele>184.60000610352</ele>
        <time>2015-02-07T22:10:24.000Z</time>
      </trkpt>
      <trkpt lat="43.67397" lon="1.17645">
        <ele>184.19999694824</ele>
        <time>2015-02-07T22:10:28.000Z</time>
      </trkpt>
      <trkpt lat="43.67398" lon="1.17652">
        <ele>184</ele>
        <time>2015-02-07T22:10:30.000Z</time>
      </trkpt>
      <trkpt lat="43.67397" lon="1.17659">
        <ele>183.80000305176</ele>
        <time>2015-02-07T22:10:32.000Z</time>
      </trkpt>
      <trkpt lat="43.67395" lon="1.17674">
        <ele>183.39999389648</ele>
        <time>2015-02-07T22:10:36.000Z</time>
      </trkpt>
      <trkpt lat="43.67393" lon="1.17693">
        <ele>183</ele>
        <time>2015-02-07T22:10:41.000Z</time>
      </trkpt>
      <trkpt lat="43.6739" lon="1.17715">
        <ele>182.39999389648</ele>
        <time>2015-02-07T22:10:47.000Z</time>
      </trkpt>
      <trkpt lat="43.6739" lon="1.17719">
        <ele>182.19999694824</ele>
        <time>2015-02-07T22:10:48.000Z</time>
      </trkpt>
      <trkpt lat="43.67389" lon="1.17727">
        <ele>182</ele>
        <time>2015-02-07T22:10:50.000Z</time>
      </trkpt>
      <trkpt lat="43.67388" lon="1.17738">
        <ele>181.80000305176</ele>
        <time>2015-02-07T22:10:53.000Z</time>
      </trkpt>
      <trkpt lat="43.67388" lon="1.17745">
        <ele>181.60000610352</ele>
        <time>2015-02-07T22:10:55.000Z</time>
      </trkpt>
      <trkpt lat="43.67387" lon="1.17761">
        <ele>181.19999694824</ele>
        <time>2015-02-07T22:10:59.000Z</time>
      </trkpt>
      <trkpt lat="43.67384" lon="1.17787">
        <ele>180.60000610352</ele>
        <time>2015-02-07T22:11:06.000Z</time>
      </trkpt>
      <trkpt lat="43.67382" lon="1.17807">
        <ele>180.19999694824</ele>
        <time>2015-02-07T22:11:11.000Z</time>
      </trkpt>
      <trkpt lat="43.67381" lon="1.17823">
        <ele>179.80000305176</ele>
        <time>2015-02-07T22:11:15.000Z</time>
      </trkpt>
      <trkpt lat="43.67381" lon="1.17827">
        <ele>179.60000610352</ele>
        <time>2015-02-07T22:11:16.000Z</time>
      </trkpt>
      <trkpt lat="43.67381" lon="1.17843">
        <ele>179.39999389648</ele>
        <time>2015-02-07T22:11:20.000Z</time>
      </trkpt>
      <trkpt lat="43.67381" lon="1.17863">
        <ele>178.80000305176</ele>
        <time>2015-02-07T22:11:25.000Z</time>
      </trkpt>
      <trkpt lat="43.67381" lon="1.17867">
        <ele>178.80000305176</ele>
        <time>2015-02-07T22:11:26.000Z</time>
      </trkpt>
      <trkpt lat="43.67381" lon="1.17891">
        <ele>178.19999694824</ele>
        <time>2015-02-07T22:11:32.000Z</time>
      </trkpt>
      <trkpt lat="43.67381" lon="1.17916">
        <ele>177.60000610352</ele>
        <time>2015-02-07T22:11:38.000Z</time>
      </trkpt>
      <trkpt lat="43.67381" lon="1.1792">
        <ele>177.39999389648</ele>
        <time>2015-02-07T22:11:39.000Z</time>
      </trkpt>
      <trkpt lat="43.67382" lon="1.17944">
        <ele>176.80000305176</ele>
        <time>2015-02-07T22:11:45.000Z</time>
      </trkpt>
      <trkpt lat="43.67382" lon="1.17969">
        <ele>176.19999694824</ele>
        <time>2015-02-07T22:11:51.000Z</time>
      </trkpt>
      <trkpt lat="43.67382" lon="1.17973">
        <ele>176</ele>
        <time>2015-02-07T22:11:52.000Z</time>
      </trkpt>
      <trkpt lat="43.6738" lon="1.17999">
        <ele>175.19999694824</ele>
        <time>2015-02-07T22:11:58.000Z</time>
      </trkpt>
      <trkpt lat="43.67379" lon="1.18022">
        <ele>174.60000610352</ele>
        <time>2015-02-07T22:12:04.000Z</time>
      </trkpt>
      <trkpt lat="43.67377" lon="1.18051">
        <ele>173.60000610352</ele>
        <time>2015-02-07T22:12:11.000Z</time>
      </trkpt>
      <trkpt lat="43.67376" lon="1.18074">
        <ele>172.80000305176</ele>
        <time>2015-02-07T22:12:17.000Z</time>
      </trkpt>
      <trkpt lat="43.67375" lon="1.18098">
        <ele>172</ele>
        <time>2015-02-07T22:12:23.000Z</time>
      </trkpt>
      <trkpt lat="43.67372" lon="1.1812">
        <ele>171</ele>
        <time>2015-02-07T22:12:29.000Z</time>
      </trkpt>
      <trkpt lat="43.67368" lon="1.18135">
        <ele>170.39999389648</ele>
        <time>2015-02-07T22:12:33.000Z</time>
      </trkpt>
      <trkpt lat="43.67364" lon="1.18153">
        <ele>169.80000305176</ele>
        <time>2015-02-07T22:12:38.000Z</time>
      </trkpt>
      <trkpt lat="43.67358" lon="1.18175">
        <ele>168.80000305176</ele>
        <time>2015-02-07T22:12:44.000Z</time>
      </trkpt>
      <trkpt lat="43.67358" lon="1.18178">
        <ele>168.80000305176</ele>
        <time>2015-02-07T22:12:45.000Z</time>
      </trkpt>
      <trkpt lat="43.67358" lon="1.18186">
        <ele>168.39999389648</ele>
        <time>2015-02-07T22:12:47.000Z</time>
      </trkpt>
      <trkpt lat="43.67355" lon="1.18208">
        <ele>167.60000610352</ele>
        <time>2015-02-07T22:12:53.000Z</time>
      </trkpt>
      <trkpt lat="43.67354" lon="1.18227">
        <ele>166.80000305176</ele>
        <time>2015-02-07T22:12:58.000Z</time>
      </trkpt>
      <trkpt lat="43.67353" lon="1.18249">
        <ele>165.80000305176</ele>
        <time>2015-02-07T22:13:04.000Z</time>
      </trkpt>
      <trkpt lat="43.67351" lon="1.18269">
        <ele>165</ele>
        <time>2015-02-07T22:13:09.000Z</time>
      </trkpt>
      <trkpt lat="43.67348" lon="1.18288">
        <ele>164.19999694824</ele>
        <time>2015-02-07T22:13:14.000Z</time>
      </trkpt>
      <trkpt lat="43.67341" lon="1.18306">
        <ele>163.39999389648</ele>
        <time>2015-02-07T22:13:19.000Z</time>
      </trkpt>
      <trkpt lat="43.67334" lon="1.18324">
        <ele>162.60000610352</ele>
        <time>2015-02-07T22:13:24.000Z</time>
      </trkpt>
      <trkpt lat="43.67326" lon="1.18341">
        <ele>161.80000305176</ele>
        <time>2015-02-07T22:13:29.000Z</time>
      </trkpt>
      <trkpt lat="43.67316" lon="1.18359">
        <ele>160.80000305176</ele>
        <time>2015-02-07T22:13:35.000Z</time>
      </trkpt>
      <trkpt lat="43.67307" lon="1.18373">
        <ele>160</ele>
        <time>2015-02-07T22:13:40.000Z</time>
      </trkpt>
      <trkpt lat="43.67298" lon="1.18388">
        <ele>159.19999694824</ele>
        <time>2015-02-07T22:13:44.000Z</time>
      </trkpt>
      <trkpt lat="43.67284" lon="1.18407">
        <ele>158.19999694824</ele>
        <time>2015-02-07T22:13:50.000Z</time>
      </trkpt>
      <trkpt lat="43.67269" lon="1.18425">
        <ele>157</ele>
        <time>2015-02-07T22:13:57.000Z</time>
      </trkpt>
      <trkpt lat="43.67252" lon="1.1844">
        <ele>155.60000610352</ele>
        <time>2015-02-07T22:14:04.000Z</time>
      </trkpt>
      <trkpt lat="43.67248" lon="1.18445">
        <ele>155.19999694824</ele>
        <time>2015-02-07T22:14:06.000Z</time>
      </trkpt>
      <trkpt lat="43.67238" lon="1.18455">
        <ele>154.60000610352</ele>
        <time>2015-02-07T22:14:10.000Z</time>
      </trkpt>
      <trkpt lat="43.67227" lon="1.18468">
        <ele>153.60000610352</ele>
        <time>2015-02-07T22:14:16.000Z</time>
      </trkpt>
      <trkpt lat="43.67221" lon="1.18471">
        <ele>153.19999694824</ele>
        <time>2015-02-07T22:14:18.000Z</time>
      </trkpt>
      <trkpt lat="43.67214" lon="1.18468">
        <ele>152.80000305176</ele>
        <time>2015-02-07T22:14:20.000Z</time>
      </trkpt>
      <trkpt lat="43.67211" lon="1.18461">
        <ele>152.39999389648</ele>
        <time>2015-02-07T22:14:22.000Z</time>
      </trkpt>
      <trkpt lat="43.67209" lon="1.18458">
        <ele>152.19999694824</ele>
        <time>2015-02-07T22:14:23.000Z</time>
      </trkpt>
      <trkpt lat="43.67198" lon="1.18438">
        <ele>151</ele>
        <time>2015-02-07T22:14:30.000Z</time>
      </trkpt>
      <trkpt lat="43.67188" lon="1.1842">
        <ele>150</ele>
        <time>2015-02-07T22:14:36.000Z</time>
      </trkpt>
      <trkpt lat="43.67179" lon="1.18402">
        <ele>148.80000305176</ele>
        <time>2015-02-07T22:14:42.000Z</time>
      </trkpt>
      <trkpt lat="43.6717" lon="1.18384">
        <ele>147.80000305176</ele>
        <time>2015-02-07T22:14:48.000Z</time>
      </trkpt>
      <trkpt lat="43.6716" lon="1.18367">
        <ele>146.60000610352</ele>
        <time>2015-02-07T22:14:54.000Z</time>
      </trkpt>
      <trkpt lat="43.67152" lon="1.18353">
        <ele>145.80000305176</ele>
        <time>2015-02-07T22:14:59.000Z</time>
      </trkpt>
      <trkpt lat="43.67143" lon="1.18338">
        <ele>145</ele>
        <time>2015-02-07T22:15:04.000Z</time>
      </trkpt>
      <trkpt lat="43.67131" lon="1.18318">
        <ele>144</ele>
        <time>2015-02-07T22:15:11.000Z</time>
      </trkpt>
      <trkpt lat="43.6713" lon="1.18315">
        <ele>143.80000305176</ele>
        <time>2015-02-07T22:15:12.000Z</time>
      </trkpt>
      <trkpt lat="43.67118" lon="1.18296">
        <ele>142.80000305176</ele>
        <time>2015-02-07T22:15:19.000Z</time>
      </trkpt>
      <trkpt lat="43.67109" lon="1.18283">
        <ele>142</ele>
        <time>2015-02-07T22:15:24.000Z</time>
      </trkpt>
      <trkpt lat="43.67095" lon="1.18267">
        <ele>141.19999694824</ele>
        <time>2015-02-07T22:15:31.000Z</time>
      </trkpt>
      <trkpt lat="43.67093" lon="1.18265">
        <ele>141</ele>
        <time>2015-02-07T22:15:32.000Z</time>
      </trkpt>
      <trkpt lat="43.67076" lon="1.18252">
        <ele>140.19999694824</ele>
        <time>2015-02-07T22:15:39.000Z</time>
      </trkpt>
      <trkpt lat="43.6706" lon="1.1824">
        <ele>139.39999389648</ele>
        <time>2015-02-07T22:15:46.000Z</time>
      </trkpt>
      <trkpt lat="43.67058" lon="1.18238">
        <ele>139.39999389648</ele>
        <time>2015-02-07T22:15:47.000Z</time>
      </trkpt>
      <trkpt lat="43.67042" lon="1.18225">
        <ele>138.80000305176</ele>
        <time>2015-02-07T22:15:54.000Z</time>
      </trkpt>
      <trkpt lat="43.6704" lon="1.18223">
        <ele>138.80000305176</ele>
        <time>2015-02-07T22:15:55.000Z</time>
      </trkpt>
      <trkpt lat="43.67024" lon="1.18209">
        <ele>138.19999694824</ele>
        <time>2015-02-07T22:16:02.000Z</time>
      </trkpt>
      <trkpt lat="43.67009" lon="1.18194">
        <ele>137.80000305176</ele>
        <time>2015-02-07T22:16:09.000Z</time>
      </trkpt>
      <trkpt lat="43.66993" lon="1.1818">
        <ele>137.39999389648</ele>
        <time>2015-02-07T22:16:16.000Z</time>
      </trkpt>
      <trkpt lat="43.6698" lon="1.18169">
        <ele>137</ele>
        <time>2015-02-07T22:16:22.000Z</time>
      </trkpt>
      <trkpt lat="43.66966" lon="1.18159">
        <ele>136.80000305176</ele>
        <time>2015-02-07T22:16:28.000Z</time>
      </trkpt>
      <trkpt lat="43.6695" lon="1.18147">
        <ele>136.39999389648</ele>
        <time>2015-02-07T22:16:35.000Z</time>
      </trkpt>
      <trkpt lat="43.66935" lon="1.18138">
        <ele>136.19999694824</ele>
        <time>2015-02-07T22:16:41.000Z</time>
      </trkpt>
      <trkpt lat="43.6692" lon="1.18129">
        <ele>135.80000305176</ele>
        <time>2015-02-07T22:16:47.000Z</time>
      </trkpt>
      <trkpt lat="43.66906" lon="1.18122">
        <ele>135.60000610352</ele>
        <time>2015-02-07T22:16:52.000Z</time>
      </trkpt>
      <trkpt lat="43.66893" lon="1.18113">
        <ele>135.39999389648</ele>
        <time>2015-02-07T22:16:58.000Z</time>
      </trkpt>
      <trkpt lat="43.6688" lon="1.18106">
        <ele>135</ele>
        <time>2015-02-07T22:17:03.000Z</time>
      </trkpt>
      <trkpt lat="43.66863" lon="1.18097">
        <ele>134.60000610352</ele>
        <time>2015-02-07T22:17:10.000Z</time>
      </trkpt>
      <trkpt lat="43.66846" lon="1.18086">
        <ele>134.19999694824</ele>
        <time>2015-02-07T22:17:17.000Z</time>
      </trkpt>
      <trkpt lat="43.66834" lon="1.18079">
        <ele>133.80000305176</ele>
        <time>2015-02-07T22:17:22.000Z</time>
      </trkpt>
      <trkpt lat="43.6682" lon="1.18071">
        <ele>133.39999389648</ele>
        <time>2015-02-07T22:17:28.000Z</time>
      </trkpt>
      <trkpt lat="43.66805" lon="1.18061">
        <ele>133.19999694824</ele>
        <time>2015-02-07T22:17:34.000Z</time>
      </trkpt>
      <trkpt lat="43.66789" lon="1.18047">
        <ele>132.80000305176</ele>
        <time>2015-02-07T22:17:41.000Z</time>
      </trkpt>
      <trkpt lat="43.66774" lon="1.18033">
        <ele>132.39999389648</ele>
        <time>2015-02-07T22:17:48.000Z</time>
      </trkpt>
      <trkpt lat="43.66772" lon="1.18031">
        <ele>132.39999389648</ele>
        <time>2015-02-07T22:17:49.000Z</time>
      </trkpt>
      <trkpt lat="43.66764" lon="1.18023">
        <ele>132.19999694824</ele>
        <time>2015-02-07T22:17:53.000Z</time>
      </trkpt>
      <trkpt lat="43.66762" lon="1.18021">
        <ele>132.19999694824</ele>
        <time>2015-02-07T22:17:54.000Z</time>
      </trkpt>
      <trkpt lat="43.6675" lon="1.18013">
        <ele>132</ele>
        <time>2015-02-07T22:17:59.000Z</time>
      </trkpt>
      <trkpt lat="43.66733" lon="1.18001">
        <ele>131.60000610352</ele>
        <time>2015-02-07T22:18:06.000Z</time>
      </trkpt>
      <trkpt lat="43.66719" lon="1.17991">
        <ele>131.39999389648</ele>
        <time>2015-02-07T22:18:12.000Z</time>
      </trkpt>
      <trkpt lat="43.66706" lon="1.17978">
        <ele>131.19999694824</ele>
        <time>2015-02-07T22:18:18.000Z</time>
      </trkpt>
      <trkpt lat="43.66699" lon="1.17975">
        <ele>131</ele>
        <time>2015-02-07T22:18:21.000Z</time>
      </trkpt>
      <trkpt lat="43.66697" lon="1.17977">
        <ele>131</ele>
        <time>2015-02-07T22:18:22.000Z</time>
      </trkpt>
      <trkpt lat="43.66692" lon="1.17974">
        <ele>131</ele>
        <time>2015-02-07T22:18:25.000Z</time>
      </trkpt>
      <trkpt lat="43.66686" lon="1.17963">
        <ele>130.80000305176</ele>
        <time>2015-02-07T22:18:29.000Z</time>
      </trkpt>
      <trkpt lat="43.66682" lon="1.17971">
        <ele>130.80000305176</ele>
        <time>2015-02-07T22:18:32.000Z</time>
      </trkpt>
      <trkpt lat="43.66681" lon="1.17975">
        <ele>130.80000305176</ele>
        <time>2015-02-07T22:18:33.000Z</time>
      </trkpt>
      <trkpt lat="43.66676" lon="1.17991">
        <ele>130.60000610352</ele>
        <time>2015-02-07T22:18:38.000Z</time>
      </trkpt>
      <trkpt lat="43.66672" lon="1.18006">
        <ele>130.60000610352</ele>
        <time>2015-02-07T22:18:43.000Z</time>
      </trkpt>
      <trkpt lat="43.66667" lon="1.18025">
        <ele>130.60000610352</ele>
        <time>2015-02-07T22:18:49.000Z</time>
      </trkpt>
      <trkpt lat="43.66661" lon="1.18044">
        <ele>130.39999389648</ele>
        <time>2015-02-07T22:18:55.000Z</time>
      </trkpt>
      <trkpt lat="43.66655" lon="1.18063">
        <ele>130.39999389648</ele>
        <time>2015-02-07T22:19:01.000Z</time>
      </trkpt>
      <trkpt lat="43.66651" lon="1.18079">
        <ele>130.39999389648</ele>
        <time>2015-02-07T22:19:06.000Z</time>
      </trkpt>
      <trkpt lat="43.66645" lon="1.18099">
        <ele>130.19999694824</ele>
        <time>2015-02-07T22:19:12.000Z</time>
      </trkpt>
      <trkpt lat="43.6664" lon="1.18124">
        <ele>130</ele>
        <time>2015-02-07T22:19:19.000Z</time>
      </trkpt>
      <trkpt lat="43.66634" lon="1.18144">
        <ele>130</ele>
        <time>2015-02-07T22:19:25.000Z</time>
      </trkpt>
      <trkpt lat="43.66628" lon="1.18159">
        <ele>129.80000305176</ele>
        <time>2015-02-07T22:19:30.000Z</time>
      </trkpt>
      <trkpt lat="43.66626" lon="1.18176">
        <ele>129.80000305176</ele>
        <time>2015-02-07T22:19:35.000Z</time>
      </trkpt>
      <trkpt lat="43.66625" lon="1.18197">
        <ele>129.60000610352</ele>
        <time>2015-02-07T22:19:41.000Z</time>
      </trkpt>
      <trkpt lat="43.66626" lon="1.18218">
        <ele>129.60000610352</ele>
        <time>2015-02-07T22:19:47.000Z</time>
      </trkpt>
      <trkpt lat="43.66625" lon="1.18221">
        <ele>129.60000610352</ele>
        <time>2015-02-07T22:19:48.000Z</time>
      </trkpt>
      <trkpt lat="43.66624" lon="1.18239">
        <ele>129.39999389648</ele>
        <time>2015-02-07T22:19:53.000Z</time>
      </trkpt>
      <trkpt lat="43.66621" lon="1.18258">
        <ele>129.39999389648</ele>
        <time>2015-02-07T22:19:59.000Z</time>
      </trkpt>
      <trkpt lat="43.6662" lon="1.18276">
        <ele>129.19999694824</ele>
        <time>2015-02-07T22:20:04.000Z</time>
      </trkpt>
      <trkpt lat="43.66618" lon="1.18292">
        <ele>129</ele>
        <time>2015-02-07T22:20:09.000Z</time>
      </trkpt>
      <trkpt lat="43.66616" lon="1.18301">
        <ele>129</ele>
        <time>2015-02-07T22:20:13.000Z</time>
      </trkpt>
      <trkpt lat="43.66616" lon="1.18318">
        <ele>128.80000305176</ele>
        <time>2015-02-07T22:20:18.000Z</time>
      </trkpt>
      <trkpt lat="43.66621" lon="1.1833">
        <ele>128.60000610352</ele>
        <time>2015-02-07T22:20:23.000Z</time>
      </trkpt>
      <trkpt lat="43.66631" lon="1.18339">
        <ele>128.39999389648</ele>
        <time>2015-02-07T22:20:28.000Z</time>
      </trkpt>
      <trkpt lat="43.66643" lon="1.18348">
        <ele>128.19999694824</ele>
        <time>2015-02-07T22:20:34.000Z</time>
      </trkpt>
      <trkpt lat="43.66646" lon="1.18351">
        <ele>128</ele>
        <time>2015-02-07T22:20:36.000Z</time>
      </trkpt>
      <trkpt lat="43.66647" lon="1.18356">
        <ele>128</ele>
        <time>2015-02-07T22:20:38.000Z</time>
      </trkpt>
      <trkpt lat="43.66647" lon="1.18361">
        <ele>128</ele>
        <time>2015-02-07T22:20:40.000Z</time>
      </trkpt>
      <trkpt lat="43.66648" lon="1.1837">
        <ele>127.80000305176</ele>
        <time>2015-02-07T22:20:43.000Z</time>
      </trkpt>
      <trkpt lat="43.66651" lon="1.18382">
        <ele>127.80000305176</ele>
        <time>2015-02-07T22:20:48.000Z</time>
      </trkpt>
      <trkpt lat="43.66652" lon="1.18393">
        <ele>127.59999847412</ele>
        <time>2015-02-07T22:20:52.000Z</time>
      </trkpt>
      <trkpt lat="43.66652" lon="1.18403">
        <ele>127.40000152588</ele>
        <time>2015-02-07T22:20:56.000Z</time>
      </trkpt>
      <trkpt lat="43.66659" lon="1.18417">
        <ele>127.19999694824</ele>
        <time>2015-02-07T22:21:02.000Z</time>
      </trkpt>
      <trkpt lat="43.6667" lon="1.1843">
        <ele>127.19999694824</ele>
        <time>2015-02-07T22:21:08.000Z</time>
      </trkpt>
      <trkpt lat="43.66677" lon="1.18438">
        <ele>127.19999694824</ele>
        <time>2015-02-07T22:21:12.000Z</time>
      </trkpt>
      <trkpt lat="43.66685" lon="1.18449">
        <ele>127.19999694824</ele>
        <time>2015-02-07T22:21:17.000Z</time>
      </trkpt>
      <trkpt lat="43.66692" lon="1.18461">
        <ele>127.19999694824</ele>
        <time>2015-02-07T22:21:22.000Z</time>
      </trkpt>
      <trkpt lat="43.667" lon="1.18477">
        <ele>127.19999694824</ele>
        <time>2015-02-07T22:21:28.000Z</time>
      </trkpt>
      <trkpt lat="43.66705" lon="1.18491">
        <ele>127.19999694824</ele>
        <time>2015-02-07T22:21:33.000Z</time>
      </trkpt>
      <trkpt lat="43.66709" lon="1.18505">
        <ele>127.19999694824</ele>
        <time>2015-02-07T22:21:38.000Z</time>
      </trkpt>
      <trkpt lat="43.66712" lon="1.1852">
        <ele>127</ele>
        <time>2015-02-07T22:21:43.000Z</time>
      </trkpt>
      <trkpt lat="43.66713" lon="1.18536">
        <ele>127</ele>
        <time>2015-02-07T22:21:48.000Z</time>
      </trkpt>
      <trkpt lat="43.66709" lon="1.18554">
        <ele>126.80000305176</ele>
        <time>2015-02-07T22:21:54.000Z</time>
      </trkpt>
      <trkpt lat="43.66704" lon="1.18569">
        <ele>126.59999847412</ele>
        <time>2015-02-07T22:21:59.000Z</time>
      </trkpt>
      <trkpt lat="43.66696" lon="1.18584">
        <ele>126.59999847412</ele>
        <time>2015-02-07T22:22:05.000Z</time>
      </trkpt>
      <trkpt lat="43.66685" lon="1.18598">
        <ele>126.40000152588</ele>
        <time>2015-02-07T22:22:12.000Z</time>
      </trkpt>
      <trkpt lat="43.66679" lon="1.18611">
        <ele>126.40000152588</ele>
        <time>2015-02-07T22:22:17.000Z</time>
      </trkpt>
      <trkpt lat="43.6667" lon="1.18622">
        <ele>126.19999694824</ele>
        <time>2015-02-07T22:22:22.000Z</time>
      </trkpt>
      <trkpt lat="43.66667" lon="1.18624">
        <ele>126</ele>
        <time>2015-02-07T22:22:24.000Z</time>
      </trkpt>
      <trkpt lat="43.66664" lon="1.18626">
        <ele>126</ele>
        <time>2015-02-07T22:22:26.000Z</time>
      </trkpt>
      <trkpt lat="43.66652" lon="1.18635">
        <ele>125.80000305176</ele>
        <time>2015-02-07T22:22:32.000Z</time>
      </trkpt>
      <trkpt lat="43.66643" lon="1.18644">
        <ele>125.40000152588</ele>
        <time>2015-02-07T22:22:37.000Z</time>
      </trkpt>
      <trkpt lat="43.66633" lon="1.1866">
        <ele>125.19999694824</ele>
        <time>2015-02-07T22:22:43.000Z</time>
      </trkpt>
      <trkpt lat="43.66627" lon="1.18673">
        <ele>125</ele>
        <time>2015-02-07T22:22:48.000Z</time>
      </trkpt>
      <trkpt lat="43.66619" lon="1.18685">
        <ele>124.80000305176</ele>
        <time>2015-02-07T22:22:53.000Z</time>
      </trkpt>
      <trkpt lat="43.66608" lon="1.18702">
        <ele>124.59999847412</ele>
        <time>2015-02-07T22:23:00.000Z</time>
      </trkpt>
      <trkpt lat="43.66602" lon="1.18715">
        <ele>124.59999847412</ele>
        <time>2015-02-07T22:23:05.000Z</time>
      </trkpt>
      <trkpt lat="43.66601" lon="1.1873">
        <ele>124.40000152588</ele>
        <time>2015-02-07T22:23:10.000Z</time>
      </trkpt>
      <trkpt lat="43.66609" lon="1.18737">
        <ele>124.19999694824</ele>
        <time>2015-02-07T22:23:14.000Z</time>
      </trkpt>
      <trkpt lat="43.66615" lon="1.18744">
        <ele>124.19999694824</ele>
        <time>2015-02-07T22:23:18.000Z</time>
      </trkpt>
      <trkpt lat="43.66623" lon="1.18751">
        <ele>124.19999694824</ele>
        <time>2015-02-07T22:23:22.000Z</time>
      </trkpt>
      <trkpt lat="43.66625" lon="1.18752">
        <ele>124.19999694824</ele>
        <time>2015-02-07T22:23:23.000Z</time>
      </trkpt>
      <trkpt lat="43.66638" lon="1.18758">
        <ele>124</ele>
        <time>2015-02-07T22:23:29.000Z</time>
      </trkpt>
      <trkpt lat="43.66651" lon="1.18763">
        <ele>123.80000305176</ele>
        <time>2015-02-07T22:23:35.000Z</time>
      </trkpt>
      <trkpt lat="43.6666" lon="1.1877">
        <ele>123.59999847412</ele>
        <time>2015-02-07T22:23:39.000Z</time>
      </trkpt>
      <trkpt lat="43.66669" lon="1.18779">
        <ele>123.59999847412</ele>
        <time>2015-02-07T22:23:44.000Z</time>
      </trkpt>
      <trkpt lat="43.66685" lon="1.18793">
        <ele>123.40000152588</ele>
        <time>2015-02-07T22:23:52.000Z</time>
      </trkpt>
      <trkpt lat="43.66696" lon="1.18802">
        <ele>123.40000152588</ele>
        <time>2015-02-07T22:23:57.000Z</time>
      </trkpt>
      <trkpt lat="43.66706" lon="1.18807">
        <ele>123.40000152588</ele>
        <time>2015-02-07T22:24:01.000Z</time>
      </trkpt>
      <trkpt lat="43.66707" lon="1.18809">
        <ele>123.40000152588</ele>
        <time>2015-02-07T22:24:02.000Z</time>
      </trkpt>
      <trkpt lat="43.66712" lon="1.18815">
        <ele>123.40000152588</ele>
        <time>2015-02-07T22:24:05.000Z</time>
      </trkpt>
      <trkpt lat="43.66721" lon="1.18824">
        <ele>123.59999847412</ele>
        <time>2015-02-07T22:24:09.000Z</time>
      </trkpt>
      <trkpt lat="43.66732" lon="1.18836">
        <ele>123.59999847412</ele>
        <time>2015-02-07T22:24:14.000Z</time>
      </trkpt>
      <trkpt lat="43.66743" lon="1.18853">
        <ele>124</ele>
        <time>2015-02-07T22:24:20.000Z</time>
      </trkpt>
      <trkpt lat="43.66752" lon="1.18864">
        <ele>124.19999694824</ele>
        <time>2015-02-07T22:24:24.000Z</time>
      </trkpt>
      <trkpt lat="43.66761" lon="1.18875">
        <ele>124.40000152588</ele>
        <time>2015-02-07T22:24:28.000Z</time>
      </trkpt>
      <trkpt lat="43.66773" lon="1.18892">
        <ele>124.59999847412</ele>
        <time>2015-02-07T22:24:34.000Z</time>
      </trkpt>
      <trkpt lat="43.66778" lon="1.18897">
        <ele>124.80000305176</ele>
        <time>2015-02-07T22:24:36.000Z</time>
      </trkpt>
      <trkpt lat="43.66782" lon="1.18902">
        <ele>124.80000305176</ele>
        <time>2015-02-07T22:24:38.000Z</time>
      </trkpt>
      <trkpt lat="43.66792" lon="1.18915">
        <ele>125</ele>
        <time>2015-02-07T22:24:43.000Z</time>
      </trkpt>
      <trkpt lat="43.66802" lon="1.18928">
        <ele>125</ele>
        <time>2015-02-07T22:24:48.000Z</time>
      </trkpt>
      <trkpt lat="43.66815" lon="1.18945">
        <ele>125</ele>
        <time>2015-02-07T22:24:54.000Z</time>
      </trkpt>
      <trkpt lat="43.66828" lon="1.18965">
        <ele>125</ele>
        <time>2015-02-07T22:25:01.000Z</time>
      </trkpt>
      <trkpt lat="43.66837" lon="1.18979">
        <ele>125</ele>
        <time>2015-02-07T22:25:06.000Z</time>
      </trkpt>
      <trkpt lat="43.66848" lon="1.18993">
        <ele>125</ele>
        <time>2015-02-07T22:25:11.000Z</time>
      </trkpt>
      <trkpt lat="43.66863" lon="1.19014">
        <ele>125.40000152588</ele>
        <time>2015-02-07T22:25:18.000Z</time>
      </trkpt>
      <trkpt lat="43.66864" lon="1.19017">
        <ele>125.40000152588</ele>
        <time>2015-02-07T22:25:19.000Z</time>
      </trkpt>
      <trkpt lat="43.6687" lon="1.19034">
        <ele>125.59999847412</ele>
        <time>2015-02-07T22:25:24.000Z</time>
      </trkpt>
      <trkpt lat="43.66868" lon="1.19049">
        <ele>125.80000305176</ele>
        <time>2015-02-07T22:25:28.000Z</time>
      </trkpt>
      <trkpt lat="43.66862" lon="1.19067">
        <ele>125.80000305176</ele>
        <time>2015-02-07T22:25:33.000Z</time>
      </trkpt>
      <trkpt lat="43.66855" lon="1.19084">
        <ele>126.19999694824</ele>
        <time>2015-02-07T22:25:38.000Z</time>
      </trkpt>
      <trkpt lat="43.66846" lon="1.191">
        <ele>126.40000152588</ele>
        <time>2015-02-07T22:25:43.000Z</time>
      </trkpt>
      <trkpt lat="43.66833" lon="1.19115">
        <ele>126.59999847412</ele>
        <time>2015-02-07T22:25:49.000Z</time>
      </trkpt>
      <trkpt lat="43.66821" lon="1.19127">
        <ele>126.40000152588</ele>
        <time>2015-02-07T22:25:54.000Z</time>
      </trkpt>
      <trkpt lat="43.66817" lon="1.1913">
        <ele>126.59999847412</ele>
        <time>2015-02-07T22:25:56.000Z</time>
      </trkpt>
      <trkpt lat="43.66813" lon="1.19134">
        <ele>126.40000152588</ele>
        <time>2015-02-07T22:25:58.000Z</time>
      </trkpt>
      <trkpt lat="43.66799" lon="1.19145">
        <ele>126.40000152588</ele>
        <time>2015-02-07T22:26:04.000Z</time>
      </trkpt>
      <trkpt lat="43.66786" lon="1.1916">
        <ele>126.40000152588</ele>
        <time>2015-02-07T22:26:10.000Z</time>
      </trkpt>
      <trkpt lat="43.66776" lon="1.1917">
        <ele>126.19999694824</ele>
        <time>2015-02-07T22:26:15.000Z</time>
      </trkpt>
      <trkpt lat="43.66762" lon="1.19182">
        <ele>126.19999694824</ele>
        <time>2015-02-07T22:26:22.000Z</time>
      </trkpt>
      <trkpt lat="43.66752" lon="1.19192">
        <ele>126</ele>
        <time>2015-02-07T22:26:27.000Z</time>
      </trkpt>
      <trkpt lat="43.66751" lon="1.19194">
        <ele>126.19999694824</ele>
        <time>2015-02-07T22:26:28.000Z</time>
      </trkpt>
      <trkpt lat="43.66748" lon="1.19198">
        <ele>126.19999694824</ele>
        <time>2015-02-07T22:26:30.000Z</time>
      </trkpt>
      <trkpt lat="43.66743" lon="1.19201">
        <ele>126.19999694824</ele>
        <time>2015-02-07T22:26:32.000Z</time>
      </trkpt>
      <trkpt lat="43.66738" lon="1.19207">
        <ele>126.40000152588</ele>
        <time>2015-02-07T22:26:34.000Z</time>
      </trkpt>
      <trkpt lat="43.66737" lon="1.1922">
        <ele>126.59999847412</ele>
        <time>2015-02-07T22:26:38.000Z</time>
      </trkpt>
      <trkpt lat="43.66747" lon="1.1923">
        <ele>126.80000305176</ele>
        <time>2015-02-07T22:26:42.000Z</time>
      </trkpt>
      <trkpt lat="43.66758" lon="1.19245">
        <ele>127.19999694824</ele>
        <time>2015-02-07T22:26:47.000Z</time>
      </trkpt>
      <trkpt lat="43.66763" lon="1.19256">
        <ele>127.40000152588</ele>
        <time>2015-02-07T22:26:50.000Z</time>
      </trkpt>
      <trkpt lat="43.66762" lon="1.19264">
        <ele>127.40000152588</ele>
        <time>2015-02-07T22:26:52.000Z</time>
      </trkpt>
      <trkpt lat="43.66759" lon="1.19272">
        <ele>127.40000152588</ele>
        <time>2015-02-07T22:26:54.000Z</time>
      </trkpt>
      <trkpt lat="43.66752" lon="1.19287">
        <ele>127.59999847412</ele>
        <time>2015-02-07T22:26:58.000Z</time>
      </trkpt>
      <trkpt lat="43.66745" lon="1.193">
        <ele>128</ele>
        <time>2015-02-07T22:27:02.000Z</time>
      </trkpt>
      <trkpt lat="43.66735" lon="1.19316">
        <ele>128.60000610352</ele>
        <time>2015-02-07T22:27:07.000Z</time>
      </trkpt>
      <trkpt lat="43.66724" lon="1.1933">
        <ele>129.19999694824</ele>
        <time>2015-02-07T22:27:12.000Z</time>
      </trkpt>
      <trkpt lat="43.66722" lon="1.19334">
        <ele>129.19999694824</ele>
        <time>2015-02-07T22:27:13.000Z</time>
      </trkpt>
      <trkpt lat="43.66716" lon="1.19343">
        <ele>129.60000610352</ele>
        <time>2015-02-07T22:27:16.000Z</time>
      </trkpt>
      <trkpt lat="43.66706" lon="1.19355">
        <ele>130.19999694824</ele>
        <time>2015-02-07T22:27:20.000Z</time>
      </trkpt>
      <trkpt lat="43.66697" lon="1.19368">
        <ele>131</ele>
        <time>2015-02-07T22:27:24.000Z</time>
      </trkpt>
      <trkpt lat="43.6669" lon="1.19386">
        <ele>131.80000305176</ele>
        <time>2015-02-07T22:27:29.000Z</time>
      </trkpt>
      <trkpt lat="43.66689" lon="1.19389">
        <ele>131.80000305176</ele>
        <time>2015-02-07T22:27:30.000Z</time>
      </trkpt>
    </trkseg>
  </trk>
</gpx>